<?xml version="1.0" encoding="UTF-8" standalone="no" ?>
<gpx xmlns="http://www.topografix.com/GPX/1/1" xmlns:xsi="http://www.w3.org/2001/XMLSchema-instance" xsi:schemaLocation="http://www.topografix.com/GPX/1/1 http://www.topografix.com/GPX/1/1/gpx.xsd" version="1.1" creator="VisuGPX - https://www.visugpx.com">
  <metadata>
    <name>Chevreuse Mesnil Saint Denis</name>
    <desc><![CDATA[Chevreuse - Mesnil Saint Denis-Maincourt/Yvette
Randonnée de 25km 570m dénivelé plus
]]></desc>
  </metadata>
  <trk>
    <name><![CDATA[Chevreuse Mesnil Saint Denis_1]]></name>
    <trkseg>
      <trkpt lat="48.70635" lon="2.04051">
        <ele>-2.2</ele>
        <time>2021-12-11T07:31:29.000Z</time>
      </trkpt>
      <trkpt lat="48.70635" lon="2.0405">
        <ele>-1.4</ele>
        <time>2021-12-11T07:31:50.000Z</time>
      </trkpt>
      <trkpt lat="48.70635" lon="2.04054">
        <ele>-0.4</ele>
        <time>2021-12-11T07:32:21.000Z</time>
      </trkpt>
      <trkpt lat="48.70635" lon="2.04057">
        <ele>0.6</ele>
        <time>2021-12-11T07:32:46.000Z</time>
      </trkpt>
      <trkpt lat="48.70636" lon="2.04058">
        <ele>1.3</ele>
        <time>2021-12-11T07:33:10.000Z</time>
      </trkpt>
      <trkpt lat="48.70637" lon="2.0406">
        <ele>2.6</ele>
        <time>2021-12-11T07:33:42.000Z</time>
      </trkpt>
      <trkpt lat="48.70638" lon="2.04061">
        <ele>3.6</ele>
        <time>2021-12-11T07:34:08.000Z</time>
      </trkpt>
      <trkpt lat="48.70637" lon="2.04059">
        <ele>4.5</ele>
        <time>2021-12-11T07:34:39.000Z</time>
      </trkpt>
      <trkpt lat="48.70637" lon="2.04061">
        <ele>5.8</ele>
        <time>2021-12-11T07:35:12.000Z</time>
      </trkpt>
      <trkpt lat="48.70637" lon="2.04061">
        <ele>7.1</ele>
        <time>2021-12-11T07:35:27.000Z</time>
      </trkpt>
      <trkpt lat="48.70639" lon="2.04058">
        <ele>7.8</ele>
        <time>2021-12-11T07:36:15.000Z</time>
      </trkpt>
      <trkpt lat="48.70638" lon="2.04057">
        <ele>8.2</ele>
        <time>2021-12-11T07:36:38.000Z</time>
      </trkpt>
      <trkpt lat="48.70637" lon="2.0406">
        <ele>9</ele>
        <time>2021-12-11T07:37:01.000Z</time>
      </trkpt>
      <trkpt lat="48.70677" lon="2.04127">
        <ele>14.3</ele>
        <time>2021-12-11T07:40:04.000Z</time>
      </trkpt>
      <trkpt lat="48.70678" lon="2.04129">
        <ele>14.5</ele>
        <time>2021-12-11T07:40:19.000Z</time>
      </trkpt>
      <trkpt lat="48.70678" lon="2.04126">
        <ele>14.8</ele>
        <time>2021-12-11T07:40:23.000Z</time>
      </trkpt>
      <trkpt lat="48.70678" lon="2.04123">
        <ele>14.8</ele>
        <time>2021-12-11T07:40:25.000Z</time>
      </trkpt>
      <trkpt lat="48.70676" lon="2.04098">
        <ele>14.7</ele>
        <time>2021-12-11T07:40:38.000Z</time>
      </trkpt>
      <trkpt lat="48.70675" lon="2.04075">
        <ele>15</ele>
        <time>2021-12-11T07:40:52.000Z</time>
      </trkpt>
      <trkpt lat="48.70673" lon="2.04055">
        <ele>15.7</ele>
        <time>2021-12-11T07:41:04.000Z</time>
      </trkpt>
      <trkpt lat="48.70671" lon="2.04034">
        <ele>16</ele>
        <time>2021-12-11T07:41:15.000Z</time>
      </trkpt>
      <trkpt lat="48.70671" lon="2.04022">
        <ele>16.5</ele>
        <time>2021-12-11T07:41:27.000Z</time>
      </trkpt>
      <trkpt lat="48.70668" lon="2.03994">
        <ele>16.9</ele>
        <time>2021-12-11T07:41:40.000Z</time>
      </trkpt>
      <trkpt lat="48.70669" lon="2.03989">
        <ele>16.9</ele>
        <time>2021-12-11T07:41:51.000Z</time>
      </trkpt>
      <trkpt lat="48.70674" lon="2.03984">
        <ele>17.3</ele>
        <time>2021-12-11T07:42:00.000Z</time>
      </trkpt>
      <trkpt lat="48.70675" lon="2.03983">
        <ele>17.2</ele>
        <time>2021-12-11T07:42:01.000Z</time>
      </trkpt>
      <trkpt lat="48.70683" lon="2.03979">
        <ele>18</ele>
        <time>2021-12-11T07:42:10.000Z</time>
      </trkpt>
      <trkpt lat="48.70685" lon="2.03979">
        <ele>17.8</ele>
        <time>2021-12-11T07:42:11.000Z</time>
      </trkpt>
      <trkpt lat="48.70696" lon="2.03976">
        <ele>19</ele>
        <time>2021-12-11T07:42:23.000Z</time>
      </trkpt>
      <trkpt lat="48.70714" lon="2.03966">
        <ele>20.6</ele>
        <time>2021-12-11T07:42:41.000Z</time>
      </trkpt>
      <trkpt lat="48.70715" lon="2.03965">
        <ele>20.7</ele>
        <time>2021-12-11T07:42:42.000Z</time>
      </trkpt>
      <trkpt lat="48.70715" lon="2.03963">
        <ele>20.8</ele>
        <time>2021-12-11T07:42:43.000Z</time>
      </trkpt>
      <trkpt lat="48.70724" lon="2.03954">
        <ele>21.8</ele>
        <time>2021-12-11T07:42:57.000Z</time>
      </trkpt>
      <trkpt lat="48.70736" lon="2.03955">
        <ele>23.1</ele>
        <time>2021-12-11T07:43:14.000Z</time>
      </trkpt>
      <trkpt lat="48.70736" lon="2.03957">
        <ele>23</ele>
        <time>2021-12-11T07:43:15.000Z</time>
      </trkpt>
      <trkpt lat="48.70738" lon="2.0396">
        <ele>23</ele>
        <time>2021-12-11T07:43:17.000Z</time>
      </trkpt>
      <trkpt lat="48.70739" lon="2.03961">
        <ele>23.1</ele>
        <time>2021-12-11T07:43:18.000Z</time>
      </trkpt>
      <trkpt lat="48.7074" lon="2.03966">
        <ele>23.4</ele>
        <time>2021-12-11T07:43:22.000Z</time>
      </trkpt>
      <trkpt lat="48.70746" lon="2.03976">
        <ele>23.9</ele>
        <time>2021-12-11T07:43:34.000Z</time>
      </trkpt>
      <trkpt lat="48.70746" lon="2.03997">
        <ele>24.6</ele>
        <time>2021-12-11T07:43:49.000Z</time>
      </trkpt>
      <trkpt lat="48.70744" lon="2.03994">
        <ele>24.6</ele>
        <time>2021-12-11T07:44:00.000Z</time>
      </trkpt>
      <trkpt lat="48.70781" lon="2.03964">
        <ele>29</ele>
        <time>2021-12-11T07:45:12.000Z</time>
      </trkpt>
      <trkpt lat="48.70797" lon="2.03975">
        <ele>30.2</ele>
        <time>2021-12-11T07:45:31.000Z</time>
      </trkpt>
      <trkpt lat="48.70799" lon="2.03988">
        <ele>30.8</ele>
        <time>2021-12-11T07:45:55.000Z</time>
      </trkpt>
      <trkpt lat="48.70803" lon="2.03988">
        <ele>30.9</ele>
        <time>2021-12-11T07:46:13.000Z</time>
      </trkpt>
      <trkpt lat="48.70841" lon="2.03984">
        <ele>31.2</ele>
        <time>2021-12-11T07:47:01.000Z</time>
      </trkpt>
      <trkpt lat="48.70847" lon="2.03989">
        <ele>31.2</ele>
        <time>2021-12-11T07:47:11.000Z</time>
      </trkpt>
      <trkpt lat="48.70841" lon="2.0398">
        <ele>31.6</ele>
        <time>2021-12-11T07:48:26.000Z</time>
      </trkpt>
      <trkpt lat="48.70833" lon="2.03978">
        <ele>32.3</ele>
        <time>2021-12-11T07:49:32.000Z</time>
      </trkpt>
      <trkpt lat="48.70831" lon="2.03988">
        <ele>32.5</ele>
        <time>2021-12-11T07:49:41.000Z</time>
      </trkpt>
      <trkpt lat="48.70823" lon="2.03966">
        <ele>32.4</ele>
        <time>2021-12-11T07:50:19.000Z</time>
      </trkpt>
      <trkpt lat="48.70828" lon="2.04017">
        <ele>32.5</ele>
        <time>2021-12-11T07:50:57.000Z</time>
      </trkpt>
      <trkpt lat="48.70827" lon="2.0404">
        <ele>31.9</ele>
        <time>2021-12-11T07:51:09.000Z</time>
      </trkpt>
      <trkpt lat="48.70829" lon="2.04049">
        <ele>32.7</ele>
        <time>2021-12-11T07:51:17.000Z</time>
      </trkpt>
      <trkpt lat="48.70832" lon="2.04058">
        <ele>33.6</ele>
        <time>2021-12-11T07:51:24.000Z</time>
      </trkpt>
      <trkpt lat="48.70833" lon="2.04075">
        <ele>35.1</ele>
        <time>2021-12-11T07:51:38.000Z</time>
      </trkpt>
      <trkpt lat="48.70834" lon="2.04091">
        <ele>35.6</ele>
        <time>2021-12-11T07:51:53.000Z</time>
      </trkpt>
      <trkpt lat="48.70836" lon="2.04102">
        <ele>36.6</ele>
        <time>2021-12-11T07:52:07.000Z</time>
      </trkpt>
      <trkpt lat="48.7086" lon="2.04133">
        <ele>42.6</ele>
        <time>2021-12-11T07:52:32.000Z</time>
      </trkpt>
      <trkpt lat="48.70871" lon="2.04131">
        <ele>45.1</ele>
        <time>2021-12-11T07:52:44.000Z</time>
      </trkpt>
      <trkpt lat="48.7088" lon="2.04117">
        <ele>48.2</ele>
        <time>2021-12-11T07:52:58.000Z</time>
      </trkpt>
      <trkpt lat="48.70883" lon="2.04111">
        <ele>49.2</ele>
        <time>2021-12-11T07:53:03.000Z</time>
      </trkpt>
      <trkpt lat="48.70893" lon="2.04093">
        <ele>51.6</ele>
        <time>2021-12-11T07:53:22.000Z</time>
      </trkpt>
      <trkpt lat="48.70895" lon="2.04088">
        <ele>51.6</ele>
        <time>2021-12-11T07:53:25.000Z</time>
      </trkpt>
      <trkpt lat="48.70899" lon="2.04087">
        <ele>51.8</ele>
        <time>2021-12-11T07:53:29.000Z</time>
      </trkpt>
      <trkpt lat="48.70903" lon="2.04091">
        <ele>52.4</ele>
        <time>2021-12-11T07:53:33.000Z</time>
      </trkpt>
      <trkpt lat="48.70907" lon="2.04115">
        <ele>55.3</ele>
        <time>2021-12-11T07:53:49.000Z</time>
      </trkpt>
      <trkpt lat="48.70903" lon="2.04127">
        <ele>56.7</ele>
        <time>2021-12-11T07:53:58.000Z</time>
      </trkpt>
      <trkpt lat="48.70903" lon="2.04145">
        <ele>59.1</ele>
        <time>2021-12-11T07:54:10.000Z</time>
      </trkpt>
      <trkpt lat="48.70905" lon="2.04163">
        <ele>61</ele>
        <time>2021-12-11T07:54:20.000Z</time>
      </trkpt>
      <trkpt lat="48.70907" lon="2.04181">
        <ele>63.1</ele>
        <time>2021-12-11T07:54:32.000Z</time>
      </trkpt>
      <trkpt lat="48.70911" lon="2.04202">
        <ele>65.6</ele>
        <time>2021-12-11T07:54:44.000Z</time>
      </trkpt>
      <trkpt lat="48.70917" lon="2.04214">
        <ele>67.5</ele>
        <time>2021-12-11T07:54:53.000Z</time>
      </trkpt>
      <trkpt lat="48.70961" lon="2.04179">
        <ele>77.4</ele>
        <time>2021-12-11T07:56:00.000Z</time>
      </trkpt>
      <trkpt lat="48.70966" lon="2.04177">
        <ele>79.8</ele>
        <time>2021-12-11T07:56:12.000Z</time>
      </trkpt>
      <trkpt lat="48.70963" lon="2.04191">
        <ele>82.5</ele>
        <time>2021-12-11T07:56:25.000Z</time>
      </trkpt>
      <trkpt lat="48.70962" lon="2.04211">
        <ele>85.6</ele>
        <time>2021-12-11T07:56:42.000Z</time>
      </trkpt>
      <trkpt lat="48.70971" lon="2.04217">
        <ele>88.7</ele>
        <time>2021-12-11T07:56:56.000Z</time>
      </trkpt>
      <trkpt lat="48.71024" lon="2.04156">
        <ele>103.5</ele>
        <time>2021-12-11T07:58:21.000Z</time>
      </trkpt>
      <trkpt lat="48.71025" lon="2.04151">
        <ele>104</ele>
        <time>2021-12-11T07:58:34.000Z</time>
      </trkpt>
      <trkpt lat="48.7102" lon="2.04146">
        <ele>103.8</ele>
        <time>2021-12-11T07:58:48.000Z</time>
      </trkpt>
      <trkpt lat="48.71015" lon="2.04146">
        <ele>104.2</ele>
        <time>2021-12-11T07:59:09.000Z</time>
      </trkpt>
      <trkpt lat="48.7101" lon="2.04144">
        <ele>105.2</ele>
        <time>2021-12-11T08:00:05.000Z</time>
      </trkpt>
      <trkpt lat="48.7101" lon="2.04146">
        <ele>105.8</ele>
        <time>2021-12-11T08:00:50.000Z</time>
      </trkpt>
      <trkpt lat="48.71009" lon="2.04149">
        <ele>106.6</ele>
        <time>2021-12-11T08:01:35.000Z</time>
      </trkpt>
      <trkpt lat="48.7101" lon="2.04148">
        <ele>107</ele>
        <time>2021-12-11T08:01:59.000Z</time>
      </trkpt>
      <trkpt lat="48.7101" lon="2.04148">
        <ele>108.2</ele>
        <time>2021-12-11T08:02:44.000Z</time>
      </trkpt>
      <trkpt lat="48.7101" lon="2.04148">
        <ele>108.4</ele>
        <time>2021-12-11T08:03:09.000Z</time>
      </trkpt>
      <trkpt lat="48.71015" lon="2.04148">
        <ele>108.7</ele>
        <time>2021-12-11T08:03:44.000Z</time>
      </trkpt>
      <trkpt lat="48.71019" lon="2.04145">
        <ele>109.1</ele>
        <time>2021-12-11T08:04:01.000Z</time>
      </trkpt>
      <trkpt lat="48.71022" lon="2.04142">
        <ele>109.3</ele>
        <time>2021-12-11T08:04:06.000Z</time>
      </trkpt>
      <trkpt lat="48.71024" lon="2.0414">
        <ele>109.6</ele>
        <time>2021-12-11T08:04:09.000Z</time>
      </trkpt>
      <trkpt lat="48.71035" lon="2.04133">
        <ele>109.8</ele>
        <time>2021-12-11T08:04:20.000Z</time>
      </trkpt>
      <trkpt lat="48.71048" lon="2.04119">
        <ele>110.6</ele>
        <time>2021-12-11T08:04:35.000Z</time>
      </trkpt>
      <trkpt lat="48.7105" lon="2.04117">
        <ele>110.6</ele>
        <time>2021-12-11T08:04:37.000Z</time>
      </trkpt>
      <trkpt lat="48.71066" lon="2.04121">
        <ele>111.2</ele>
        <time>2021-12-11T08:04:53.000Z</time>
      </trkpt>
      <trkpt lat="48.71072" lon="2.04128">
        <ele>112</ele>
        <time>2021-12-11T08:05:01.000Z</time>
      </trkpt>
      <trkpt lat="48.71082" lon="2.04136">
        <ele>113.3</ele>
        <time>2021-12-11T08:05:11.000Z</time>
      </trkpt>
      <trkpt lat="48.71099" lon="2.0414">
        <ele>113.9</ele>
        <time>2021-12-11T08:05:23.000Z</time>
      </trkpt>
      <trkpt lat="48.71118" lon="2.04147">
        <ele>115.1</ele>
        <time>2021-12-11T08:05:36.000Z</time>
      </trkpt>
      <trkpt lat="48.7113" lon="2.04158">
        <ele>115.6</ele>
        <time>2021-12-11T08:05:45.000Z</time>
      </trkpt>
      <trkpt lat="48.71131" lon="2.0416">
        <ele>115.6</ele>
        <time>2021-12-11T08:05:47.000Z</time>
      </trkpt>
      <trkpt lat="48.71144" lon="2.04189">
        <ele>116.2</ele>
        <time>2021-12-11T08:06:02.000Z</time>
      </trkpt>
      <trkpt lat="48.71146" lon="2.04196">
        <ele>116.3</ele>
        <time>2021-12-11T08:06:07.000Z</time>
      </trkpt>
      <trkpt lat="48.71151" lon="2.04217">
        <ele>117</ele>
        <time>2021-12-11T08:06:21.000Z</time>
      </trkpt>
      <trkpt lat="48.71153" lon="2.04226">
        <ele>117</ele>
        <time>2021-12-11T08:06:25.000Z</time>
      </trkpt>
      <trkpt lat="48.71154" lon="2.04233">
        <ele>117.1</ele>
        <time>2021-12-11T08:06:28.000Z</time>
      </trkpt>
      <trkpt lat="48.71154" lon="2.04247">
        <ele>117.6</ele>
        <time>2021-12-11T08:06:36.000Z</time>
      </trkpt>
      <trkpt lat="48.71156" lon="2.04259">
        <ele>117.6</ele>
        <time>2021-12-11T08:06:42.000Z</time>
      </trkpt>
      <trkpt lat="48.71157" lon="2.04266">
        <ele>117.9</ele>
        <time>2021-12-11T08:06:46.000Z</time>
      </trkpt>
      <trkpt lat="48.71159" lon="2.04278">
        <ele>118.1</ele>
        <time>2021-12-11T08:06:54.000Z</time>
      </trkpt>
      <trkpt lat="48.71162" lon="2.04308">
        <ele>118.9</ele>
        <time>2021-12-11T08:07:09.000Z</time>
      </trkpt>
      <trkpt lat="48.7117" lon="2.04333">
        <ele>119.4</ele>
        <time>2021-12-11T08:07:24.000Z</time>
      </trkpt>
      <trkpt lat="48.7117" lon="2.0437">
        <ele>120</ele>
        <time>2021-12-11T08:07:42.000Z</time>
      </trkpt>
      <trkpt lat="48.7117" lon="2.04399">
        <ele>120.5</ele>
        <time>2021-12-11T08:07:56.000Z</time>
      </trkpt>
      <trkpt lat="48.71169" lon="2.04406">
        <ele>120.6</ele>
        <time>2021-12-11T08:08:00.000Z</time>
      </trkpt>
      <trkpt lat="48.71168" lon="2.04424">
        <ele>120.8</ele>
        <time>2021-12-11T08:08:12.000Z</time>
      </trkpt>
      <trkpt lat="48.71168" lon="2.04428">
        <ele>120.9</ele>
        <time>2021-12-11T08:08:14.000Z</time>
      </trkpt>
      <trkpt lat="48.71169" lon="2.04435">
        <ele>121</ele>
        <time>2021-12-11T08:08:17.000Z</time>
      </trkpt>
      <trkpt lat="48.71169" lon="2.04451">
        <ele>121.2</ele>
        <time>2021-12-11T08:08:24.000Z</time>
      </trkpt>
      <trkpt lat="48.71167" lon="2.0447">
        <ele>121.3</ele>
        <time>2021-12-11T08:08:33.000Z</time>
      </trkpt>
      <trkpt lat="48.71168" lon="2.04495">
        <ele>121.5</ele>
        <time>2021-12-11T08:08:45.000Z</time>
      </trkpt>
      <trkpt lat="48.71167" lon="2.04499">
        <ele>121.6</ele>
        <time>2021-12-11T08:08:47.000Z</time>
      </trkpt>
      <trkpt lat="48.71166" lon="2.04532">
        <ele>122.1</ele>
        <time>2021-12-11T08:09:01.000Z</time>
      </trkpt>
      <trkpt lat="48.71165" lon="2.04563">
        <ele>122.5</ele>
        <time>2021-12-11T08:09:17.000Z</time>
      </trkpt>
      <trkpt lat="48.71162" lon="2.04593">
        <ele>123</ele>
        <time>2021-12-11T08:09:33.000Z</time>
      </trkpt>
      <trkpt lat="48.71159" lon="2.04614">
        <ele>123.4</ele>
        <time>2021-12-11T08:09:45.000Z</time>
      </trkpt>
      <trkpt lat="48.71159" lon="2.04648">
        <ele>124.3</ele>
        <time>2021-12-11T08:10:02.000Z</time>
      </trkpt>
      <trkpt lat="48.71168" lon="2.04681">
        <ele>124.8</ele>
        <time>2021-12-11T08:10:18.000Z</time>
      </trkpt>
      <trkpt lat="48.71171" lon="2.04689">
        <ele>125.1</ele>
        <time>2021-12-11T08:10:23.000Z</time>
      </trkpt>
      <trkpt lat="48.71173" lon="2.04714">
        <ele>126</ele>
        <time>2021-12-11T08:10:35.000Z</time>
      </trkpt>
      <trkpt lat="48.71175" lon="2.04726">
        <ele>126</ele>
        <time>2021-12-11T08:10:42.000Z</time>
      </trkpt>
      <trkpt lat="48.71176" lon="2.04731">
        <ele>125.9</ele>
        <time>2021-12-11T08:10:44.000Z</time>
      </trkpt>
      <trkpt lat="48.71178" lon="2.04763">
        <ele>126.7</ele>
        <time>2021-12-11T08:10:59.000Z</time>
      </trkpt>
      <trkpt lat="48.7118" lon="2.04773">
        <ele>126.7</ele>
        <time>2021-12-11T08:11:04.000Z</time>
      </trkpt>
      <trkpt lat="48.71182" lon="2.04807">
        <ele>127.4</ele>
        <time>2021-12-11T08:11:18.000Z</time>
      </trkpt>
      <trkpt lat="48.71185" lon="2.04835">
        <ele>127.8</ele>
        <time>2021-12-11T08:11:33.000Z</time>
      </trkpt>
      <trkpt lat="48.71188" lon="2.04861">
        <ele>128.1</ele>
        <time>2021-12-11T08:11:46.000Z</time>
      </trkpt>
      <trkpt lat="48.71189" lon="2.04868">
        <ele>128.2</ele>
        <time>2021-12-11T08:11:50.000Z</time>
      </trkpt>
      <trkpt lat="48.71189" lon="2.04896">
        <ele>129.1</ele>
        <time>2021-12-11T08:12:03.000Z</time>
      </trkpt>
      <trkpt lat="48.7119" lon="2.04913">
        <ele>129.4</ele>
        <time>2021-12-11T08:12:12.000Z</time>
      </trkpt>
      <trkpt lat="48.7119" lon="2.04948">
        <ele>130.1</ele>
        <time>2021-12-11T08:12:32.000Z</time>
      </trkpt>
      <trkpt lat="48.71193" lon="2.04988">
        <ele>130.7</ele>
        <time>2021-12-11T08:12:52.000Z</time>
      </trkpt>
      <trkpt lat="48.71194" lon="2.05006">
        <ele>131</ele>
        <time>2021-12-11T08:13:00.000Z</time>
      </trkpt>
      <trkpt lat="48.71196" lon="2.05014">
        <ele>130.9</ele>
        <time>2021-12-11T08:13:04.000Z</time>
      </trkpt>
      <trkpt lat="48.71196" lon="2.0504">
        <ele>131.3</ele>
        <time>2021-12-11T08:13:16.000Z</time>
      </trkpt>
      <trkpt lat="48.71197" lon="2.05075">
        <ele>131.6</ele>
        <time>2021-12-11T08:13:33.000Z</time>
      </trkpt>
      <trkpt lat="48.71203" lon="2.05115">
        <ele>131.9</ele>
        <time>2021-12-11T08:13:54.000Z</time>
      </trkpt>
      <trkpt lat="48.71206" lon="2.05136">
        <ele>132.1</ele>
        <time>2021-12-11T08:14:03.000Z</time>
      </trkpt>
      <trkpt lat="48.71212" lon="2.05169">
        <ele>132.2</ele>
        <time>2021-12-11T08:14:19.000Z</time>
      </trkpt>
      <trkpt lat="48.71211" lon="2.05194">
        <ele>133</ele>
        <time>2021-12-11T08:14:32.000Z</time>
      </trkpt>
      <trkpt lat="48.7121" lon="2.05198">
        <ele>133.1</ele>
        <time>2021-12-11T08:14:35.000Z</time>
      </trkpt>
      <trkpt lat="48.71213" lon="2.05204">
        <ele>132.9</ele>
        <time>2021-12-11T08:14:43.000Z</time>
      </trkpt>
      <trkpt lat="48.71217" lon="2.05209">
        <ele>132.6</ele>
        <time>2021-12-11T08:14:49.000Z</time>
      </trkpt>
      <trkpt lat="48.7123" lon="2.05237">
        <ele>133.1</ele>
        <time>2021-12-11T08:15:09.000Z</time>
      </trkpt>
      <trkpt lat="48.71237" lon="2.05243">
        <ele>133.2</ele>
        <time>2021-12-11T08:15:17.000Z</time>
      </trkpt>
      <trkpt lat="48.71243" lon="2.05254">
        <ele>133.2</ele>
        <time>2021-12-11T08:15:23.000Z</time>
      </trkpt>
      <trkpt lat="48.71249" lon="2.05266">
        <ele>133.3</ele>
        <time>2021-12-11T08:15:30.000Z</time>
      </trkpt>
      <trkpt lat="48.7126" lon="2.05283">
        <ele>133.8</ele>
        <time>2021-12-11T08:15:44.000Z</time>
      </trkpt>
      <trkpt lat="48.71273" lon="2.05301">
        <ele>133.4</ele>
        <time>2021-12-11T08:15:56.000Z</time>
      </trkpt>
      <trkpt lat="48.71278" lon="2.0531">
        <ele>133.6</ele>
        <time>2021-12-11T08:16:02.000Z</time>
      </trkpt>
      <trkpt lat="48.71291" lon="2.0533">
        <ele>133.6</ele>
        <time>2021-12-11T08:16:16.000Z</time>
      </trkpt>
      <trkpt lat="48.71301" lon="2.05346">
        <ele>133.6</ele>
        <time>2021-12-11T08:16:26.000Z</time>
      </trkpt>
      <trkpt lat="48.71313" lon="2.05364">
        <ele>133.7</ele>
        <time>2021-12-11T08:16:39.000Z</time>
      </trkpt>
      <trkpt lat="48.71329" lon="2.05393">
        <ele>133.3</ele>
        <time>2021-12-11T08:16:58.000Z</time>
      </trkpt>
      <trkpt lat="48.71342" lon="2.05414">
        <ele>133.2</ele>
        <time>2021-12-11T08:17:12.000Z</time>
      </trkpt>
      <trkpt lat="48.71347" lon="2.05419">
        <ele>133.2</ele>
        <time>2021-12-11T08:17:16.000Z</time>
      </trkpt>
      <trkpt lat="48.71355" lon="2.05428">
        <ele>133.2</ele>
        <time>2021-12-11T08:17:23.000Z</time>
      </trkpt>
      <trkpt lat="48.71365" lon="2.05444">
        <ele>132.8</ele>
        <time>2021-12-11T08:17:35.000Z</time>
      </trkpt>
      <trkpt lat="48.71368" lon="2.05448">
        <ele>132.7</ele>
        <time>2021-12-11T08:17:39.000Z</time>
      </trkpt>
      <trkpt lat="48.71376" lon="2.05464">
        <ele>132.1</ele>
        <time>2021-12-11T08:17:51.000Z</time>
      </trkpt>
      <trkpt lat="48.71386" lon="2.05483">
        <ele>132</ele>
        <time>2021-12-11T08:18:03.000Z</time>
      </trkpt>
      <trkpt lat="48.71396" lon="2.05508">
        <ele>131.5</ele>
        <time>2021-12-11T08:18:21.000Z</time>
      </trkpt>
      <trkpt lat="48.71397" lon="2.0551">
        <ele>131.5</ele>
        <time>2021-12-11T08:18:22.000Z</time>
      </trkpt>
      <trkpt lat="48.71413" lon="2.05532">
        <ele>131</ele>
        <time>2021-12-11T08:18:37.000Z</time>
      </trkpt>
      <trkpt lat="48.71433" lon="2.05554">
        <ele>130.4</ele>
        <time>2021-12-11T08:18:56.000Z</time>
      </trkpt>
      <trkpt lat="48.71436" lon="2.05552">
        <ele>130.5</ele>
        <time>2021-12-11T08:18:59.000Z</time>
      </trkpt>
      <trkpt lat="48.71443" lon="2.05537">
        <ele>130.8</ele>
        <time>2021-12-11T08:19:11.000Z</time>
      </trkpt>
      <trkpt lat="48.71452" lon="2.05524">
        <ele>130.7</ele>
        <time>2021-12-11T08:19:23.000Z</time>
      </trkpt>
      <trkpt lat="48.71467" lon="2.05497">
        <ele>131</ele>
        <time>2021-12-11T08:19:46.000Z</time>
      </trkpt>
      <trkpt lat="48.71482" lon="2.05461">
        <ele>131.3</ele>
        <time>2021-12-11T08:20:09.000Z</time>
      </trkpt>
      <trkpt lat="48.71489" lon="2.05448">
        <ele>131.7</ele>
        <time>2021-12-11T08:20:20.000Z</time>
      </trkpt>
      <trkpt lat="48.71505" lon="2.0542">
        <ele>131.9</ele>
        <time>2021-12-11T08:20:40.000Z</time>
      </trkpt>
      <trkpt lat="48.71514" lon="2.05404">
        <ele>131.8</ele>
        <time>2021-12-11T08:20:52.000Z</time>
      </trkpt>
      <trkpt lat="48.71537" lon="2.05369">
        <ele>132</ele>
        <time>2021-12-11T08:21:14.000Z</time>
      </trkpt>
      <trkpt lat="48.71559" lon="2.05343">
        <ele>131.2</ele>
        <time>2021-12-11T08:21:37.000Z</time>
      </trkpt>
      <trkpt lat="48.71567" lon="2.05338">
        <ele>130.7</ele>
        <time>2021-12-11T08:21:44.000Z</time>
      </trkpt>
      <trkpt lat="48.71573" lon="2.05335">
        <ele>130.5</ele>
        <time>2021-12-11T08:21:49.000Z</time>
      </trkpt>
      <trkpt lat="48.71593" lon="2.05312">
        <ele>129.4</ele>
        <time>2021-12-11T08:22:06.000Z</time>
      </trkpt>
      <trkpt lat="48.71595" lon="2.05311">
        <ele>129.4</ele>
        <time>2021-12-11T08:22:08.000Z</time>
      </trkpt>
      <trkpt lat="48.71614" lon="2.053">
        <ele>128.3</ele>
        <time>2021-12-11T08:22:24.000Z</time>
      </trkpt>
      <trkpt lat="48.71641" lon="2.05283">
        <ele>127.8</ele>
        <time>2021-12-11T08:22:49.000Z</time>
      </trkpt>
      <trkpt lat="48.71661" lon="2.05274">
        <ele>127.8</ele>
        <time>2021-12-11T08:23:08.000Z</time>
      </trkpt>
      <trkpt lat="48.71673" lon="2.05268">
        <ele>127.8</ele>
        <time>2021-12-11T08:23:15.000Z</time>
      </trkpt>
      <trkpt lat="48.71706" lon="2.05261">
        <ele>126.7</ele>
        <time>2021-12-11T08:23:37.000Z</time>
      </trkpt>
      <trkpt lat="48.71738" lon="2.05254">
        <ele>126.2</ele>
        <time>2021-12-11T08:24:00.000Z</time>
      </trkpt>
      <trkpt lat="48.71751" lon="2.05249">
        <ele>126.3</ele>
        <time>2021-12-11T08:24:11.000Z</time>
      </trkpt>
      <trkpt lat="48.71775" lon="2.05243">
        <ele>126.6</ele>
        <time>2021-12-11T08:24:29.000Z</time>
      </trkpt>
      <trkpt lat="48.71799" lon="2.05242">
        <ele>128.9</ele>
        <time>2021-12-11T08:24:51.000Z</time>
      </trkpt>
      <trkpt lat="48.71825" lon="2.05239">
        <ele>130.4</ele>
        <time>2021-12-11T08:25:12.000Z</time>
      </trkpt>
      <trkpt lat="48.71854" lon="2.05248">
        <ele>130.8</ele>
        <time>2021-12-11T08:25:32.000Z</time>
      </trkpt>
      <trkpt lat="48.71876" lon="2.05257">
        <ele>131</ele>
        <time>2021-12-11T08:25:48.000Z</time>
      </trkpt>
      <trkpt lat="48.71893" lon="2.05261">
        <ele>131.4</ele>
        <time>2021-12-11T08:25:58.000Z</time>
      </trkpt>
      <trkpt lat="48.71906" lon="2.05261">
        <ele>131.4</ele>
        <time>2021-12-11T08:26:08.000Z</time>
      </trkpt>
      <trkpt lat="48.71916" lon="2.05261">
        <ele>131.1</ele>
        <time>2021-12-11T08:26:14.000Z</time>
      </trkpt>
      <trkpt lat="48.71922" lon="2.0526">
        <ele>130.9</ele>
        <time>2021-12-11T08:26:19.000Z</time>
      </trkpt>
      <trkpt lat="48.71935" lon="2.05258">
        <ele>130.8</ele>
        <time>2021-12-11T08:26:29.000Z</time>
      </trkpt>
      <trkpt lat="48.71947" lon="2.05262">
        <ele>130.4</ele>
        <time>2021-12-11T08:26:40.000Z</time>
      </trkpt>
      <trkpt lat="48.71959" lon="2.05275">
        <ele>130.5</ele>
        <time>2021-12-11T08:26:52.000Z</time>
      </trkpt>
      <trkpt lat="48.71969" lon="2.05287">
        <ele>129.5</ele>
        <time>2021-12-11T08:27:04.000Z</time>
      </trkpt>
      <trkpt lat="48.71984" lon="2.05305">
        <ele>129.2</ele>
        <time>2021-12-11T08:27:19.000Z</time>
      </trkpt>
      <trkpt lat="48.72001" lon="2.05312">
        <ele>127.9</ele>
        <time>2021-12-11T08:27:33.000Z</time>
      </trkpt>
      <trkpt lat="48.72006" lon="2.05311">
        <ele>127.4</ele>
        <time>2021-12-11T08:27:37.000Z</time>
      </trkpt>
      <trkpt lat="48.72013" lon="2.05312">
        <ele>127.1</ele>
        <time>2021-12-11T08:27:44.000Z</time>
      </trkpt>
      <trkpt lat="48.72033" lon="2.05313">
        <ele>126.8</ele>
        <time>2021-12-11T08:27:59.000Z</time>
      </trkpt>
      <trkpt lat="48.72045" lon="2.05316">
        <ele>127.2</ele>
        <time>2021-12-11T08:28:09.000Z</time>
      </trkpt>
      <trkpt lat="48.72056" lon="2.05318">
        <ele>128</ele>
        <time>2021-12-11T08:28:20.000Z</time>
      </trkpt>
      <trkpt lat="48.72063" lon="2.05322">
        <ele>128.4</ele>
        <time>2021-12-11T08:28:27.000Z</time>
      </trkpt>
      <trkpt lat="48.72079" lon="2.05327">
        <ele>129.4</ele>
        <time>2021-12-11T08:28:42.000Z</time>
      </trkpt>
      <trkpt lat="48.7209" lon="2.05331">
        <ele>130.1</ele>
        <time>2021-12-11T08:28:52.000Z</time>
      </trkpt>
      <trkpt lat="48.72107" lon="2.05333">
        <ele>130.1</ele>
        <time>2021-12-11T08:29:03.000Z</time>
      </trkpt>
      <trkpt lat="48.72112" lon="2.05333">
        <ele>130.1</ele>
        <time>2021-12-11T08:29:07.000Z</time>
      </trkpt>
      <trkpt lat="48.7213" lon="2.05325">
        <ele>130.4</ele>
        <time>2021-12-11T08:29:22.000Z</time>
      </trkpt>
      <trkpt lat="48.72141" lon="2.05313">
        <ele>130.4</ele>
        <time>2021-12-11T08:29:32.000Z</time>
      </trkpt>
      <trkpt lat="48.72147" lon="2.05283">
        <ele>131.8</ele>
        <time>2021-12-11T08:29:52.000Z</time>
      </trkpt>
      <trkpt lat="48.72147" lon="2.05282">
        <ele>131.8</ele>
        <time>2021-12-11T08:29:53.000Z</time>
      </trkpt>
      <trkpt lat="48.72144" lon="2.05246">
        <ele>132.5</ele>
        <time>2021-12-11T08:30:10.000Z</time>
      </trkpt>
      <trkpt lat="48.72142" lon="2.05214">
        <ele>132.6</ele>
        <time>2021-12-11T08:30:29.000Z</time>
      </trkpt>
      <trkpt lat="48.72141" lon="2.05206">
        <ele>132.7</ele>
        <time>2021-12-11T08:30:33.000Z</time>
      </trkpt>
      <trkpt lat="48.72139" lon="2.05186">
        <ele>132.9</ele>
        <time>2021-12-11T08:30:44.000Z</time>
      </trkpt>
      <trkpt lat="48.72135" lon="2.05151">
        <ele>132.8</ele>
        <time>2021-12-11T08:31:00.000Z</time>
      </trkpt>
      <trkpt lat="48.72132" lon="2.05125">
        <ele>132.8</ele>
        <time>2021-12-11T08:31:14.000Z</time>
      </trkpt>
      <trkpt lat="48.72131" lon="2.05097">
        <ele>133</ele>
        <time>2021-12-11T08:31:32.000Z</time>
      </trkpt>
      <trkpt lat="48.72126" lon="2.05069">
        <ele>132.7</ele>
        <time>2021-12-11T08:31:47.000Z</time>
      </trkpt>
      <trkpt lat="48.72118" lon="2.05032">
        <ele>132.4</ele>
        <time>2021-12-11T08:32:08.000Z</time>
      </trkpt>
      <trkpt lat="48.72115" lon="2.05004">
        <ele>132.4</ele>
        <time>2021-12-11T08:32:25.000Z</time>
      </trkpt>
      <trkpt lat="48.72119" lon="2.04973">
        <ele>132.6</ele>
        <time>2021-12-11T08:32:45.000Z</time>
      </trkpt>
      <trkpt lat="48.72121" lon="2.04974">
        <ele>132.9</ele>
        <time>2021-12-11T08:32:49.000Z</time>
      </trkpt>
      <trkpt lat="48.72122" lon="2.04972">
        <ele>132.9</ele>
        <time>2021-12-11T08:32:55.000Z</time>
      </trkpt>
      <trkpt lat="48.72116" lon="2.04963">
        <ele>133</ele>
        <time>2021-12-11T08:33:03.000Z</time>
      </trkpt>
      <trkpt lat="48.7211" lon="2.04942">
        <ele>132.3</ele>
        <time>2021-12-11T08:33:19.000Z</time>
      </trkpt>
      <trkpt lat="48.7211" lon="2.0491">
        <ele>131.5</ele>
        <time>2021-12-11T08:33:38.000Z</time>
      </trkpt>
      <trkpt lat="48.72115" lon="2.04905">
        <ele>130.5</ele>
        <time>2021-12-11T08:33:45.000Z</time>
      </trkpt>
      <trkpt lat="48.72127" lon="2.0489">
        <ele>127.5</ele>
        <time>2021-12-11T08:34:01.000Z</time>
      </trkpt>
      <trkpt lat="48.72134" lon="2.04883">
        <ele>126.2</ele>
        <time>2021-12-11T08:34:09.000Z</time>
      </trkpt>
      <trkpt lat="48.72148" lon="2.04869">
        <ele>122.7</ele>
        <time>2021-12-11T08:34:24.000Z</time>
      </trkpt>
      <trkpt lat="48.72164" lon="2.04858">
        <ele>119.6</ele>
        <time>2021-12-11T08:34:37.000Z</time>
      </trkpt>
      <trkpt lat="48.72179" lon="2.04849">
        <ele>116.6</ele>
        <time>2021-12-11T08:34:49.000Z</time>
      </trkpt>
      <trkpt lat="48.72201" lon="2.04841">
        <ele>113.4</ele>
        <time>2021-12-11T08:35:04.000Z</time>
      </trkpt>
      <trkpt lat="48.72215" lon="2.04836">
        <ele>110.6</ele>
        <time>2021-12-11T08:35:16.000Z</time>
      </trkpt>
      <trkpt lat="48.72233" lon="2.04839">
        <ele>107.5</ele>
        <time>2021-12-11T08:35:30.000Z</time>
      </trkpt>
      <trkpt lat="48.7225" lon="2.04847">
        <ele>104.4</ele>
        <time>2021-12-11T08:35:44.000Z</time>
      </trkpt>
      <trkpt lat="48.72269" lon="2.04845">
        <ele>101.2</ele>
        <time>2021-12-11T08:36:04.000Z</time>
      </trkpt>
      <trkpt lat="48.72284" lon="2.04846">
        <ele>98</ele>
        <time>2021-12-11T08:36:19.000Z</time>
      </trkpt>
      <trkpt lat="48.723" lon="2.0485">
        <ele>94.9</ele>
        <time>2021-12-11T08:36:33.000Z</time>
      </trkpt>
      <trkpt lat="48.72308" lon="2.04851">
        <ele>94.3</ele>
        <time>2021-12-11T08:36:38.000Z</time>
      </trkpt>
      <trkpt lat="48.72314" lon="2.04853">
        <ele>94.3</ele>
        <time>2021-12-11T08:36:57.000Z</time>
      </trkpt>
      <trkpt lat="48.72315" lon="2.04854">
        <ele>93.9</ele>
        <time>2021-12-11T08:36:58.000Z</time>
      </trkpt>
      <trkpt lat="48.72323" lon="2.04853">
        <ele>92.4</ele>
        <time>2021-12-11T08:37:05.000Z</time>
      </trkpt>
      <trkpt lat="48.72331" lon="2.04855">
        <ele>91</ele>
        <time>2021-12-11T08:37:12.000Z</time>
      </trkpt>
      <trkpt lat="48.72335" lon="2.04856">
        <ele>90.7</ele>
        <time>2021-12-11T08:37:15.000Z</time>
      </trkpt>
      <trkpt lat="48.72339" lon="2.04856">
        <ele>90</ele>
        <time>2021-12-11T08:37:18.000Z</time>
      </trkpt>
      <trkpt lat="48.72349" lon="2.04855">
        <ele>88.9</ele>
        <time>2021-12-11T08:37:25.000Z</time>
      </trkpt>
      <trkpt lat="48.72357" lon="2.04852">
        <ele>87.5</ele>
        <time>2021-12-11T08:37:32.000Z</time>
      </trkpt>
      <trkpt lat="48.72372" lon="2.04855">
        <ele>85.8</ele>
        <time>2021-12-11T08:37:43.000Z</time>
      </trkpt>
      <trkpt lat="48.72373" lon="2.04855">
        <ele>85.2</ele>
        <time>2021-12-11T08:37:45.000Z</time>
      </trkpt>
      <trkpt lat="48.72383" lon="2.04857">
        <ele>83.8</ele>
        <time>2021-12-11T08:37:53.000Z</time>
      </trkpt>
      <trkpt lat="48.72388" lon="2.04858">
        <ele>83.3</ele>
        <time>2021-12-11T08:37:57.000Z</time>
      </trkpt>
      <trkpt lat="48.72398" lon="2.0486">
        <ele>82.2</ele>
        <time>2021-12-11T08:38:05.000Z</time>
      </trkpt>
      <trkpt lat="48.72408" lon="2.04859">
        <ele>81</ele>
        <time>2021-12-11T08:38:13.000Z</time>
      </trkpt>
      <trkpt lat="48.72421" lon="2.04857">
        <ele>79.6</ele>
        <time>2021-12-11T08:38:23.000Z</time>
      </trkpt>
      <trkpt lat="48.72425" lon="2.04857">
        <ele>79.4</ele>
        <time>2021-12-11T08:38:25.000Z</time>
      </trkpt>
      <trkpt lat="48.72431" lon="2.04857">
        <ele>79.1</ele>
        <time>2021-12-11T08:38:28.000Z</time>
      </trkpt>
      <trkpt lat="48.72438" lon="2.04857">
        <ele>78.6</ele>
        <time>2021-12-11T08:38:32.000Z</time>
      </trkpt>
      <trkpt lat="48.72447" lon="2.04855">
        <ele>78.1</ele>
        <time>2021-12-11T08:38:38.000Z</time>
      </trkpt>
      <trkpt lat="48.72452" lon="2.04853">
        <ele>77.6</ele>
        <time>2021-12-11T08:38:42.000Z</time>
      </trkpt>
      <trkpt lat="48.72465" lon="2.04855">
        <ele>77.2</ele>
        <time>2021-12-11T08:38:50.000Z</time>
      </trkpt>
      <trkpt lat="48.72484" lon="2.0485">
        <ele>75.9</ele>
        <time>2021-12-11T08:39:05.000Z</time>
      </trkpt>
      <trkpt lat="48.72503" lon="2.04854">
        <ele>74.7</ele>
        <time>2021-12-11T08:39:20.000Z</time>
      </trkpt>
      <trkpt lat="48.72506" lon="2.04855">
        <ele>74.5</ele>
        <time>2021-12-11T08:39:22.000Z</time>
      </trkpt>
      <trkpt lat="48.72509" lon="2.04857">
        <ele>74.1</ele>
        <time>2021-12-11T08:39:26.000Z</time>
      </trkpt>
      <trkpt lat="48.7251" lon="2.04858">
        <ele>74</ele>
        <time>2021-12-11T08:39:28.000Z</time>
      </trkpt>
      <trkpt lat="48.7252" lon="2.04879">
        <ele>73.1</ele>
        <time>2021-12-11T08:39:42.000Z</time>
      </trkpt>
      <trkpt lat="48.72521" lon="2.04881">
        <ele>73</ele>
        <time>2021-12-11T08:39:43.000Z</time>
      </trkpt>
      <trkpt lat="48.7253" lon="2.04891">
        <ele>72.2</ele>
        <time>2021-12-11T08:39:52.000Z</time>
      </trkpt>
      <trkpt lat="48.72535" lon="2.04896">
        <ele>71.9</ele>
        <time>2021-12-11T08:39:56.000Z</time>
      </trkpt>
      <trkpt lat="48.72537" lon="2.04896">
        <ele>71.8</ele>
        <time>2021-12-11T08:39:58.000Z</time>
      </trkpt>
      <trkpt lat="48.7254" lon="2.04898">
        <ele>71.3</ele>
        <time>2021-12-11T08:40:01.000Z</time>
      </trkpt>
      <trkpt lat="48.72554" lon="2.04899">
        <ele>70.5</ele>
        <time>2021-12-11T08:40:13.000Z</time>
      </trkpt>
      <trkpt lat="48.72557" lon="2.04898">
        <ele>70.4</ele>
        <time>2021-12-11T08:40:16.000Z</time>
      </trkpt>
      <trkpt lat="48.72573" lon="2.049">
        <ele>70.1</ele>
        <time>2021-12-11T08:40:28.000Z</time>
      </trkpt>
      <trkpt lat="48.72585" lon="2.04902">
        <ele>69.5</ele>
        <time>2021-12-11T08:40:37.000Z</time>
      </trkpt>
      <trkpt lat="48.72591" lon="2.04903">
        <ele>69.4</ele>
        <time>2021-12-11T08:40:41.000Z</time>
      </trkpt>
      <trkpt lat="48.72605" lon="2.04902">
        <ele>69.4</ele>
        <time>2021-12-11T08:40:55.000Z</time>
      </trkpt>
      <trkpt lat="48.72611" lon="2.04902">
        <ele>69.5</ele>
        <time>2021-12-11T08:41:00.000Z</time>
      </trkpt>
      <trkpt lat="48.72628" lon="2.04905">
        <ele>70</ele>
        <time>2021-12-11T08:41:14.000Z</time>
      </trkpt>
      <trkpt lat="48.72643" lon="2.04904">
        <ele>70.1</ele>
        <time>2021-12-11T08:41:27.000Z</time>
      </trkpt>
      <trkpt lat="48.7265" lon="2.04905">
        <ele>70.1</ele>
        <time>2021-12-11T08:41:32.000Z</time>
      </trkpt>
      <trkpt lat="48.72657" lon="2.04904">
        <ele>70.4</ele>
        <time>2021-12-11T08:41:37.000Z</time>
      </trkpt>
      <trkpt lat="48.72661" lon="2.04904">
        <ele>70.5</ele>
        <time>2021-12-11T08:41:40.000Z</time>
      </trkpt>
      <trkpt lat="48.72675" lon="2.04905">
        <ele>71.1</ele>
        <time>2021-12-11T08:41:52.000Z</time>
      </trkpt>
      <trkpt lat="48.72692" lon="2.04898">
        <ele>72.4</ele>
        <time>2021-12-11T08:42:08.000Z</time>
      </trkpt>
      <trkpt lat="48.727" lon="2.04896">
        <ele>73.3</ele>
        <time>2021-12-11T08:42:23.000Z</time>
      </trkpt>
      <trkpt lat="48.7271" lon="2.04893">
        <ele>74.3</ele>
        <time>2021-12-11T08:42:37.000Z</time>
      </trkpt>
      <trkpt lat="48.72716" lon="2.04889">
        <ele>75.1</ele>
        <time>2021-12-11T08:42:44.000Z</time>
      </trkpt>
      <trkpt lat="48.72723" lon="2.04888">
        <ele>76.2</ele>
        <time>2021-12-11T08:42:53.000Z</time>
      </trkpt>
      <trkpt lat="48.72726" lon="2.04889">
        <ele>76.3</ele>
        <time>2021-12-11T08:42:55.000Z</time>
      </trkpt>
      <trkpt lat="48.72729" lon="2.0489">
        <ele>76.8</ele>
        <time>2021-12-11T08:42:57.000Z</time>
      </trkpt>
      <trkpt lat="48.72733" lon="2.04891">
        <ele>77.1</ele>
        <time>2021-12-11T08:43:00.000Z</time>
      </trkpt>
      <trkpt lat="48.72739" lon="2.04891">
        <ele>77.8</ele>
        <time>2021-12-11T08:43:06.000Z</time>
      </trkpt>
      <trkpt lat="48.72746" lon="2.04894">
        <ele>78.8</ele>
        <time>2021-12-11T08:43:12.000Z</time>
      </trkpt>
      <trkpt lat="48.7275" lon="2.04895">
        <ele>79.2</ele>
        <time>2021-12-11T08:43:15.000Z</time>
      </trkpt>
      <trkpt lat="48.72758" lon="2.04897">
        <ele>80.4</ele>
        <time>2021-12-11T08:43:23.000Z</time>
      </trkpt>
      <trkpt lat="48.72767" lon="2.04904">
        <ele>81.6</ele>
        <time>2021-12-11T08:43:33.000Z</time>
      </trkpt>
      <trkpt lat="48.72776" lon="2.04909">
        <ele>82.7</ele>
        <time>2021-12-11T08:43:41.000Z</time>
      </trkpt>
      <trkpt lat="48.72781" lon="2.0491">
        <ele>83.7</ele>
        <time>2021-12-11T08:43:45.000Z</time>
      </trkpt>
      <trkpt lat="48.72793" lon="2.04916">
        <ele>85.4</ele>
        <time>2021-12-11T08:43:57.000Z</time>
      </trkpt>
      <trkpt lat="48.72803" lon="2.04917">
        <ele>86.8</ele>
        <time>2021-12-11T08:44:04.000Z</time>
      </trkpt>
      <trkpt lat="48.72806" lon="2.04918">
        <ele>87.5</ele>
        <time>2021-12-11T08:44:06.000Z</time>
      </trkpt>
      <trkpt lat="48.72819" lon="2.04929">
        <ele>89.4</ele>
        <time>2021-12-11T08:44:18.000Z</time>
      </trkpt>
      <trkpt lat="48.72822" lon="2.04936">
        <ele>89.7</ele>
        <time>2021-12-11T08:44:31.000Z</time>
      </trkpt>
      <trkpt lat="48.7282" lon="2.0496">
        <ele>90.9</ele>
        <time>2021-12-11T08:44:46.000Z</time>
      </trkpt>
      <trkpt lat="48.72819" lon="2.04968">
        <ele>90.9</ele>
        <time>2021-12-11T08:44:50.000Z</time>
      </trkpt>
      <trkpt lat="48.72816" lon="2.04989">
        <ele>91.3</ele>
        <time>2021-12-11T08:45:03.000Z</time>
      </trkpt>
      <trkpt lat="48.72811" lon="2.05021">
        <ele>90.8</ele>
        <time>2021-12-11T08:45:20.000Z</time>
      </trkpt>
      <trkpt lat="48.72811" lon="2.05028">
        <ele>91.2</ele>
        <time>2021-12-11T08:45:24.000Z</time>
      </trkpt>
      <trkpt lat="48.72808" lon="2.05042">
        <ele>90.4</ele>
        <time>2021-12-11T08:45:32.000Z</time>
      </trkpt>
      <trkpt lat="48.72808" lon="2.0505">
        <ele>90.2</ele>
        <time>2021-12-11T08:45:36.000Z</time>
      </trkpt>
      <trkpt lat="48.72811" lon="2.05072">
        <ele>89.7</ele>
        <time>2021-12-11T08:45:48.000Z</time>
      </trkpt>
      <trkpt lat="48.7281" lon="2.05082">
        <ele>89.8</ele>
        <time>2021-12-11T08:46:04.000Z</time>
      </trkpt>
      <trkpt lat="48.72808" lon="2.05086">
        <ele>89.9</ele>
        <time>2021-12-11T08:46:07.000Z</time>
      </trkpt>
      <trkpt lat="48.72804" lon="2.05098">
        <ele>89.6</ele>
        <time>2021-12-11T08:46:15.000Z</time>
      </trkpt>
      <trkpt lat="48.72802" lon="2.05113">
        <ele>89</ele>
        <time>2021-12-11T08:46:24.000Z</time>
      </trkpt>
      <trkpt lat="48.72805" lon="2.05118">
        <ele>89.3</ele>
        <time>2021-12-11T08:46:44.000Z</time>
      </trkpt>
      <trkpt lat="48.72802" lon="2.05123">
        <ele>89.6</ele>
        <time>2021-12-11T08:47:10.000Z</time>
      </trkpt>
      <trkpt lat="48.72802" lon="2.05125">
        <ele>89.4</ele>
        <time>2021-12-11T08:47:35.000Z</time>
      </trkpt>
      <trkpt lat="48.72804" lon="2.05119">
        <ele>90.2</ele>
        <time>2021-12-11T08:47:41.000Z</time>
      </trkpt>
      <trkpt lat="48.72806" lon="2.0511">
        <ele>90</ele>
        <time>2021-12-11T08:47:45.000Z</time>
      </trkpt>
      <trkpt lat="48.72812" lon="2.05085">
        <ele>90.6</ele>
        <time>2021-12-11T08:47:59.000Z</time>
      </trkpt>
      <trkpt lat="48.72813" lon="2.05071">
        <ele>90.9</ele>
        <time>2021-12-11T08:48:05.000Z</time>
      </trkpt>
      <trkpt lat="48.72814" lon="2.0504">
        <ele>91.8</ele>
        <time>2021-12-11T08:48:17.000Z</time>
      </trkpt>
      <trkpt lat="48.72813" lon="2.05027">
        <ele>92</ele>
        <time>2021-12-11T08:48:22.000Z</time>
      </trkpt>
      <trkpt lat="48.72815" lon="2.05026">
        <ele>92.1</ele>
        <time>2021-12-11T08:48:28.000Z</time>
      </trkpt>
      <trkpt lat="48.72815" lon="2.05021">
        <ele>92.3</ele>
        <time>2021-12-11T08:48:30.000Z</time>
      </trkpt>
      <trkpt lat="48.72816" lon="2.05019">
        <ele>92.3</ele>
        <time>2021-12-11T08:48:31.000Z</time>
      </trkpt>
      <trkpt lat="48.72816" lon="2.05016">
        <ele>92.4</ele>
        <time>2021-12-11T08:48:32.000Z</time>
      </trkpt>
      <trkpt lat="48.72816" lon="2.05014">
        <ele>92.3</ele>
        <time>2021-12-11T08:48:33.000Z</time>
      </trkpt>
      <trkpt lat="48.72816" lon="2.05011">
        <ele>92.6</ele>
        <time>2021-12-11T08:48:34.000Z</time>
      </trkpt>
      <trkpt lat="48.72818" lon="2.04973">
        <ele>92.6</ele>
        <time>2021-12-11T08:48:48.000Z</time>
      </trkpt>
      <trkpt lat="48.72823" lon="2.04945">
        <ele>91.6</ele>
        <time>2021-12-11T08:49:01.000Z</time>
      </trkpt>
      <trkpt lat="48.72824" lon="2.04944">
        <ele>91.6</ele>
        <time>2021-12-11T08:49:02.000Z</time>
      </trkpt>
      <trkpt lat="48.72837" lon="2.0493">
        <ele>93.9</ele>
        <time>2021-12-11T08:49:12.000Z</time>
      </trkpt>
      <trkpt lat="48.72852" lon="2.04922">
        <ele>95.4</ele>
        <time>2021-12-11T08:49:26.000Z</time>
      </trkpt>
      <trkpt lat="48.72854" lon="2.0492">
        <ele>96.7</ele>
        <time>2021-12-11T08:49:28.000Z</time>
      </trkpt>
      <trkpt lat="48.72862" lon="2.04917">
        <ele>97.8</ele>
        <time>2021-12-11T08:49:36.000Z</time>
      </trkpt>
      <trkpt lat="48.72864" lon="2.04917">
        <ele>98.2</ele>
        <time>2021-12-11T08:49:37.000Z</time>
      </trkpt>
      <trkpt lat="48.72865" lon="2.04918">
        <ele>98.5</ele>
        <time>2021-12-11T08:49:38.000Z</time>
      </trkpt>
      <trkpt lat="48.72867" lon="2.04918">
        <ele>98.8</ele>
        <time>2021-12-11T08:49:39.000Z</time>
      </trkpt>
      <trkpt lat="48.72876" lon="2.04919">
        <ele>102</ele>
        <time>2021-12-11T08:49:51.000Z</time>
      </trkpt>
      <trkpt lat="48.72886" lon="2.04918">
        <ele>105.2</ele>
        <time>2021-12-11T08:50:04.000Z</time>
      </trkpt>
      <trkpt lat="48.72893" lon="2.04912">
        <ele>106.2</ele>
        <time>2021-12-11T08:50:22.000Z</time>
      </trkpt>
      <trkpt lat="48.72896" lon="2.04894">
        <ele>109.3</ele>
        <time>2021-12-11T08:50:37.000Z</time>
      </trkpt>
      <trkpt lat="48.72899" lon="2.04878">
        <ele>112.4</ele>
        <time>2021-12-11T08:50:52.000Z</time>
      </trkpt>
      <trkpt lat="48.72904" lon="2.04864">
        <ele>115.7</ele>
        <time>2021-12-11T08:51:07.000Z</time>
      </trkpt>
      <trkpt lat="48.72903" lon="2.04855">
        <ele>117.2</ele>
        <time>2021-12-11T08:51:17.000Z</time>
      </trkpt>
      <trkpt lat="48.72907" lon="2.04838">
        <ele>119.7</ele>
        <time>2021-12-11T08:51:36.000Z</time>
      </trkpt>
      <trkpt lat="48.7291" lon="2.04819">
        <ele>122.3</ele>
        <time>2021-12-11T08:51:53.000Z</time>
      </trkpt>
      <trkpt lat="48.72911" lon="2.04802">
        <ele>125</ele>
        <time>2021-12-11T08:52:10.000Z</time>
      </trkpt>
      <trkpt lat="48.72915" lon="2.0479">
        <ele>128.1</ele>
        <time>2021-12-11T08:52:25.000Z</time>
      </trkpt>
      <trkpt lat="48.72924" lon="2.04777">
        <ele>131.3</ele>
        <time>2021-12-11T08:52:42.000Z</time>
      </trkpt>
      <trkpt lat="48.72932" lon="2.04761">
        <ele>134.3</ele>
        <time>2021-12-11T08:53:01.000Z</time>
      </trkpt>
      <trkpt lat="48.72937" lon="2.04748">
        <ele>137.4</ele>
        <time>2021-12-11T08:53:16.000Z</time>
      </trkpt>
      <trkpt lat="48.72949" lon="2.0473">
        <ele>140.2</ele>
        <time>2021-12-11T08:53:35.000Z</time>
      </trkpt>
      <trkpt lat="48.72962" lon="2.04718">
        <ele>141.3</ele>
        <time>2021-12-11T08:53:54.000Z</time>
      </trkpt>
      <trkpt lat="48.72976" lon="2.04706">
        <ele>141.3</ele>
        <time>2021-12-11T08:54:11.000Z</time>
      </trkpt>
      <trkpt lat="48.72987" lon="2.047">
        <ele>141.1</ele>
        <time>2021-12-11T08:54:20.000Z</time>
      </trkpt>
      <trkpt lat="48.72988" lon="2.04699">
        <ele>141.1</ele>
        <time>2021-12-11T08:54:21.000Z</time>
      </trkpt>
      <trkpt lat="48.73011" lon="2.04687">
        <ele>140.8</ele>
        <time>2021-12-11T08:54:42.000Z</time>
      </trkpt>
      <trkpt lat="48.73029" lon="2.04674">
        <ele>141</ele>
        <time>2021-12-11T08:55:01.000Z</time>
      </trkpt>
      <trkpt lat="48.73043" lon="2.04665">
        <ele>140.6</ele>
        <time>2021-12-11T08:55:16.000Z</time>
      </trkpt>
      <trkpt lat="48.73067" lon="2.04651">
        <ele>140.9</ele>
        <time>2021-12-11T08:55:36.000Z</time>
      </trkpt>
      <trkpt lat="48.73084" lon="2.04643">
        <ele>140.7</ele>
        <time>2021-12-11T08:55:49.000Z</time>
      </trkpt>
      <trkpt lat="48.73101" lon="2.04635">
        <ele>140.1</ele>
        <time>2021-12-11T08:56:03.000Z</time>
      </trkpt>
      <trkpt lat="48.73102" lon="2.04634">
        <ele>140.6</ele>
        <time>2021-12-11T08:56:04.000Z</time>
      </trkpt>
      <trkpt lat="48.73104" lon="2.04634">
        <ele>140.5</ele>
        <time>2021-12-11T08:56:05.000Z</time>
      </trkpt>
      <trkpt lat="48.73105" lon="2.04634">
        <ele>140.5</ele>
        <time>2021-12-11T08:56:06.000Z</time>
      </trkpt>
      <trkpt lat="48.73129" lon="2.04624">
        <ele>140.5</ele>
        <time>2021-12-11T08:56:27.000Z</time>
      </trkpt>
      <trkpt lat="48.73153" lon="2.04614">
        <ele>140.7</ele>
        <time>2021-12-11T08:56:45.000Z</time>
      </trkpt>
      <trkpt lat="48.73162" lon="2.0461">
        <ele>140.2</ele>
        <time>2021-12-11T08:56:52.000Z</time>
      </trkpt>
      <trkpt lat="48.73176" lon="2.04603">
        <ele>140.3</ele>
        <time>2021-12-11T08:57:03.000Z</time>
      </trkpt>
      <trkpt lat="48.73182" lon="2.04598">
        <ele>140.4</ele>
        <time>2021-12-11T08:57:08.000Z</time>
      </trkpt>
      <trkpt lat="48.73187" lon="2.04596">
        <ele>140.6</ele>
        <time>2021-12-11T08:57:12.000Z</time>
      </trkpt>
      <trkpt lat="48.73188" lon="2.04595">
        <ele>140.5</ele>
        <time>2021-12-11T08:57:13.000Z</time>
      </trkpt>
      <trkpt lat="48.73191" lon="2.04593">
        <ele>140.6</ele>
        <time>2021-12-11T08:57:15.000Z</time>
      </trkpt>
      <trkpt lat="48.73197" lon="2.04587">
        <ele>140.7</ele>
        <time>2021-12-11T08:57:21.000Z</time>
      </trkpt>
      <trkpt lat="48.73198" lon="2.04586">
        <ele>140.7</ele>
        <time>2021-12-11T08:57:22.000Z</time>
      </trkpt>
      <trkpt lat="48.73199" lon="2.04585">
        <ele>140.7</ele>
        <time>2021-12-11T08:57:23.000Z</time>
      </trkpt>
      <trkpt lat="48.732" lon="2.04584">
        <ele>140.7</ele>
        <time>2021-12-11T08:57:24.000Z</time>
      </trkpt>
      <trkpt lat="48.73216" lon="2.04572">
        <ele>141.1</ele>
        <time>2021-12-11T08:57:37.000Z</time>
      </trkpt>
      <trkpt lat="48.73233" lon="2.0456">
        <ele>141.6</ele>
        <time>2021-12-11T08:57:50.000Z</time>
      </trkpt>
      <trkpt lat="48.73249" lon="2.04551">
        <ele>142.2</ele>
        <time>2021-12-11T08:58:06.000Z</time>
      </trkpt>
      <trkpt lat="48.73262" lon="2.04541">
        <ele>142.4</ele>
        <time>2021-12-11T08:58:17.000Z</time>
      </trkpt>
      <trkpt lat="48.73282" lon="2.04516">
        <ele>142.2</ele>
        <time>2021-12-11T08:58:40.000Z</time>
      </trkpt>
      <trkpt lat="48.73281" lon="2.045">
        <ele>141.7</ele>
        <time>2021-12-11T08:58:57.000Z</time>
      </trkpt>
      <trkpt lat="48.73279" lon="2.04485">
        <ele>141.1</ele>
        <time>2021-12-11T08:59:12.000Z</time>
      </trkpt>
      <trkpt lat="48.73277" lon="2.04482">
        <ele>141</ele>
        <time>2021-12-11T08:59:17.000Z</time>
      </trkpt>
      <trkpt lat="48.73276" lon="2.04471">
        <ele>141.1</ele>
        <time>2021-12-11T08:59:44.000Z</time>
      </trkpt>
      <trkpt lat="48.73272" lon="2.04469">
        <ele>140.7</ele>
        <time>2021-12-11T09:00:20.000Z</time>
      </trkpt>
      <trkpt lat="48.73272" lon="2.04464">
        <ele>140.3</ele>
        <time>2021-12-11T09:00:48.000Z</time>
      </trkpt>
      <trkpt lat="48.73268" lon="2.04458">
        <ele>140.1</ele>
        <time>2021-12-11T09:01:11.000Z</time>
      </trkpt>
      <trkpt lat="48.7327" lon="2.04457">
        <ele>139.9</ele>
        <time>2021-12-11T09:01:45.000Z</time>
      </trkpt>
      <trkpt lat="48.73269" lon="2.04454">
        <ele>139.7</ele>
        <time>2021-12-11T09:02:11.000Z</time>
      </trkpt>
      <trkpt lat="48.73267" lon="2.04455">
        <ele>139.9</ele>
        <time>2021-12-11T09:02:17.000Z</time>
      </trkpt>
      <trkpt lat="48.73263" lon="2.0446">
        <ele>139.7</ele>
        <time>2021-12-11T09:02:46.000Z</time>
      </trkpt>
      <trkpt lat="48.73261" lon="2.04464">
        <ele>139.8</ele>
        <time>2021-12-11T09:03:12.000Z</time>
      </trkpt>
      <trkpt lat="48.73258" lon="2.04447">
        <ele>139.2</ele>
        <time>2021-12-11T09:03:26.000Z</time>
      </trkpt>
      <trkpt lat="48.73258" lon="2.04445">
        <ele>139.3</ele>
        <time>2021-12-11T09:03:27.000Z</time>
      </trkpt>
      <trkpt lat="48.73257" lon="2.04443">
        <ele>139.3</ele>
        <time>2021-12-11T09:03:28.000Z</time>
      </trkpt>
      <trkpt lat="48.73256" lon="2.04434">
        <ele>139.6</ele>
        <time>2021-12-11T09:03:33.000Z</time>
      </trkpt>
      <trkpt lat="48.73253" lon="2.0443">
        <ele>139.2</ele>
        <time>2021-12-11T09:03:36.000Z</time>
      </trkpt>
      <trkpt lat="48.73254" lon="2.04429">
        <ele>139.1</ele>
        <time>2021-12-11T09:03:37.000Z</time>
      </trkpt>
      <trkpt lat="48.73253" lon="2.04426">
        <ele>139.1</ele>
        <time>2021-12-11T09:03:39.000Z</time>
      </trkpt>
      <trkpt lat="48.73247" lon="2.04409">
        <ele>138.9</ele>
        <time>2021-12-11T09:03:53.000Z</time>
      </trkpt>
      <trkpt lat="48.73244" lon="2.04396">
        <ele>139</ele>
        <time>2021-12-11T09:04:04.000Z</time>
      </trkpt>
      <trkpt lat="48.73238" lon="2.04379">
        <ele>139.2</ele>
        <time>2021-12-11T09:04:17.000Z</time>
      </trkpt>
      <trkpt lat="48.73237" lon="2.04377">
        <ele>139.2</ele>
        <time>2021-12-11T09:04:18.000Z</time>
      </trkpt>
      <trkpt lat="48.73235" lon="2.04374">
        <ele>139.2</ele>
        <time>2021-12-11T09:04:20.000Z</time>
      </trkpt>
      <trkpt lat="48.73234" lon="2.04372">
        <ele>139.4</ele>
        <time>2021-12-11T09:04:21.000Z</time>
      </trkpt>
      <trkpt lat="48.73227" lon="2.04351">
        <ele>139.4</ele>
        <time>2021-12-11T09:04:37.000Z</time>
      </trkpt>
      <trkpt lat="48.73216" lon="2.04321">
        <ele>140</ele>
        <time>2021-12-11T09:04:55.000Z</time>
      </trkpt>
      <trkpt lat="48.7321" lon="2.04307">
        <ele>140.2</ele>
        <time>2021-12-11T09:05:04.000Z</time>
      </trkpt>
      <trkpt lat="48.73209" lon="2.04305">
        <ele>140.1</ele>
        <time>2021-12-11T09:05:05.000Z</time>
      </trkpt>
      <trkpt lat="48.73209" lon="2.04303">
        <ele>139.9</ele>
        <time>2021-12-11T09:05:06.000Z</time>
      </trkpt>
      <trkpt lat="48.73208" lon="2.04302">
        <ele>139.9</ele>
        <time>2021-12-11T09:05:07.000Z</time>
      </trkpt>
      <trkpt lat="48.73207" lon="2.04301">
        <ele>140.2</ele>
        <time>2021-12-11T09:05:08.000Z</time>
      </trkpt>
      <trkpt lat="48.73206" lon="2.04299">
        <ele>140.1</ele>
        <time>2021-12-11T09:05:09.000Z</time>
      </trkpt>
      <trkpt lat="48.73206" lon="2.04297">
        <ele>140.1</ele>
        <time>2021-12-11T09:05:10.000Z</time>
      </trkpt>
      <trkpt lat="48.73205" lon="2.04295">
        <ele>140.2</ele>
        <time>2021-12-11T09:05:11.000Z</time>
      </trkpt>
      <trkpt lat="48.73201" lon="2.04286">
        <ele>140.2</ele>
        <time>2021-12-11T09:05:18.000Z</time>
      </trkpt>
      <trkpt lat="48.73199" lon="2.0428">
        <ele>140.4</ele>
        <time>2021-12-11T09:05:22.000Z</time>
      </trkpt>
      <trkpt lat="48.73191" lon="2.04255">
        <ele>140.4</ele>
        <time>2021-12-11T09:05:36.000Z</time>
      </trkpt>
      <trkpt lat="48.73183" lon="2.04233">
        <ele>140.9</ele>
        <time>2021-12-11T09:05:49.000Z</time>
      </trkpt>
      <trkpt lat="48.7318" lon="2.0422">
        <ele>140.8</ele>
        <time>2021-12-11T09:05:58.000Z</time>
      </trkpt>
      <trkpt lat="48.7318" lon="2.04218">
        <ele>140.8</ele>
        <time>2021-12-11T09:05:59.000Z</time>
      </trkpt>
      <trkpt lat="48.73179" lon="2.04216">
        <ele>140.8</ele>
        <time>2021-12-11T09:06:00.000Z</time>
      </trkpt>
      <trkpt lat="48.73179" lon="2.04207">
        <ele>140.9</ele>
        <time>2021-12-11T09:06:10.000Z</time>
      </trkpt>
      <trkpt lat="48.73178" lon="2.04203">
        <ele>140.7</ele>
        <time>2021-12-11T09:06:12.000Z</time>
      </trkpt>
      <trkpt lat="48.73177" lon="2.04201">
        <ele>141</ele>
        <time>2021-12-11T09:06:13.000Z</time>
      </trkpt>
      <trkpt lat="48.73176" lon="2.04198">
        <ele>140.9</ele>
        <time>2021-12-11T09:06:14.000Z</time>
      </trkpt>
      <trkpt lat="48.73175" lon="2.04196">
        <ele>140.9</ele>
        <time>2021-12-11T09:06:15.000Z</time>
      </trkpt>
      <trkpt lat="48.73174" lon="2.04195">
        <ele>140.9</ele>
        <time>2021-12-11T09:06:16.000Z</time>
      </trkpt>
      <trkpt lat="48.73173" lon="2.04193">
        <ele>140.8</ele>
        <time>2021-12-11T09:06:17.000Z</time>
      </trkpt>
      <trkpt lat="48.73172" lon="2.0419">
        <ele>141</ele>
        <time>2021-12-11T09:06:19.000Z</time>
      </trkpt>
      <trkpt lat="48.73171" lon="2.04188">
        <ele>140.9</ele>
        <time>2021-12-11T09:06:20.000Z</time>
      </trkpt>
      <trkpt lat="48.73167" lon="2.04182">
        <ele>141</ele>
        <time>2021-12-11T09:06:24.000Z</time>
      </trkpt>
      <trkpt lat="48.73167" lon="2.0418">
        <ele>140.9</ele>
        <time>2021-12-11T09:06:25.000Z</time>
      </trkpt>
      <trkpt lat="48.73164" lon="2.04176">
        <ele>141.1</ele>
        <time>2021-12-11T09:06:28.000Z</time>
      </trkpt>
      <trkpt lat="48.73163" lon="2.04175">
        <ele>141.2</ele>
        <time>2021-12-11T09:06:29.000Z</time>
      </trkpt>
      <trkpt lat="48.73162" lon="2.04173">
        <ele>141.1</ele>
        <time>2021-12-11T09:06:30.000Z</time>
      </trkpt>
      <trkpt lat="48.73157" lon="2.04147">
        <ele>141.4</ele>
        <time>2021-12-11T09:06:43.000Z</time>
      </trkpt>
      <trkpt lat="48.73156" lon="2.04144">
        <ele>141.6</ele>
        <time>2021-12-11T09:06:44.000Z</time>
      </trkpt>
      <trkpt lat="48.73156" lon="2.04142">
        <ele>141.8</ele>
        <time>2021-12-11T09:06:45.000Z</time>
      </trkpt>
      <trkpt lat="48.73154" lon="2.04137">
        <ele>141.8</ele>
        <time>2021-12-11T09:06:48.000Z</time>
      </trkpt>
      <trkpt lat="48.73154" lon="2.04134">
        <ele>141.7</ele>
        <time>2021-12-11T09:06:50.000Z</time>
      </trkpt>
      <trkpt lat="48.73154" lon="2.04132">
        <ele>141.7</ele>
        <time>2021-12-11T09:06:51.000Z</time>
      </trkpt>
      <trkpt lat="48.73153" lon="2.0413">
        <ele>141.8</ele>
        <time>2021-12-11T09:06:52.000Z</time>
      </trkpt>
      <trkpt lat="48.73153" lon="2.04128">
        <ele>142.1</ele>
        <time>2021-12-11T09:06:53.000Z</time>
      </trkpt>
      <trkpt lat="48.73153" lon="2.04126">
        <ele>141.9</ele>
        <time>2021-12-11T09:06:54.000Z</time>
      </trkpt>
      <trkpt lat="48.73152" lon="2.04124">
        <ele>142</ele>
        <time>2021-12-11T09:06:55.000Z</time>
      </trkpt>
      <trkpt lat="48.73152" lon="2.04122">
        <ele>142.1</ele>
        <time>2021-12-11T09:06:56.000Z</time>
      </trkpt>
      <trkpt lat="48.73146" lon="2.04104">
        <ele>142.2</ele>
        <time>2021-12-11T09:07:08.000Z</time>
      </trkpt>
      <trkpt lat="48.73141" lon="2.04079">
        <ele>142.4</ele>
        <time>2021-12-11T09:07:21.000Z</time>
      </trkpt>
      <trkpt lat="48.73138" lon="2.04058">
        <ele>142.2</ele>
        <time>2021-12-11T09:07:32.000Z</time>
      </trkpt>
      <trkpt lat="48.73135" lon="2.04038">
        <ele>142</ele>
        <time>2021-12-11T09:07:41.000Z</time>
      </trkpt>
      <trkpt lat="48.73135" lon="2.04035">
        <ele>142.1</ele>
        <time>2021-12-11T09:07:42.000Z</time>
      </trkpt>
      <trkpt lat="48.73134" lon="2.04033">
        <ele>142.1</ele>
        <time>2021-12-11T09:07:43.000Z</time>
      </trkpt>
      <trkpt lat="48.73132" lon="2.04017">
        <ele>142.5</ele>
        <time>2021-12-11T09:07:52.000Z</time>
      </trkpt>
      <trkpt lat="48.73133" lon="2.04014">
        <ele>142.3</ele>
        <time>2021-12-11T09:07:53.000Z</time>
      </trkpt>
      <trkpt lat="48.73132" lon="2.04011">
        <ele>142.3</ele>
        <time>2021-12-11T09:07:55.000Z</time>
      </trkpt>
      <trkpt lat="48.73132" lon="2.04008">
        <ele>142.2</ele>
        <time>2021-12-11T09:07:56.000Z</time>
      </trkpt>
      <trkpt lat="48.73132" lon="2.04006">
        <ele>142.2</ele>
        <time>2021-12-11T09:07:57.000Z</time>
      </trkpt>
      <trkpt lat="48.73132" lon="2.04003">
        <ele>142.3</ele>
        <time>2021-12-11T09:07:58.000Z</time>
      </trkpt>
      <trkpt lat="48.73132" lon="2.04001">
        <ele>142.3</ele>
        <time>2021-12-11T09:07:59.000Z</time>
      </trkpt>
      <trkpt lat="48.73129" lon="2.03979">
        <ele>141.8</ele>
        <time>2021-12-11T09:08:11.000Z</time>
      </trkpt>
      <trkpt lat="48.73135" lon="2.03952">
        <ele>142</ele>
        <time>2021-12-11T09:08:24.000Z</time>
      </trkpt>
      <trkpt lat="48.73135" lon="2.0395">
        <ele>142.2</ele>
        <time>2021-12-11T09:08:25.000Z</time>
      </trkpt>
      <trkpt lat="48.73135" lon="2.03933">
        <ele>142.4</ele>
        <time>2021-12-11T09:08:35.000Z</time>
      </trkpt>
      <trkpt lat="48.73135" lon="2.0393">
        <ele>142.4</ele>
        <time>2021-12-11T09:08:36.000Z</time>
      </trkpt>
      <trkpt lat="48.73135" lon="2.03928">
        <ele>142.4</ele>
        <time>2021-12-11T09:08:37.000Z</time>
      </trkpt>
      <trkpt lat="48.73136" lon="2.03926">
        <ele>142.3</ele>
        <time>2021-12-11T09:08:38.000Z</time>
      </trkpt>
      <trkpt lat="48.73136" lon="2.03924">
        <ele>142.3</ele>
        <time>2021-12-11T09:08:39.000Z</time>
      </trkpt>
      <trkpt lat="48.73136" lon="2.03922">
        <ele>142.5</ele>
        <time>2021-12-11T09:08:40.000Z</time>
      </trkpt>
      <trkpt lat="48.73136" lon="2.0392">
        <ele>142.4</ele>
        <time>2021-12-11T09:08:41.000Z</time>
      </trkpt>
      <trkpt lat="48.73136" lon="2.03918">
        <ele>142.6</ele>
        <time>2021-12-11T09:08:42.000Z</time>
      </trkpt>
      <trkpt lat="48.73135" lon="2.03914">
        <ele>142.7</ele>
        <time>2021-12-11T09:08:44.000Z</time>
      </trkpt>
      <trkpt lat="48.73135" lon="2.03913">
        <ele>142.6</ele>
        <time>2021-12-11T09:08:45.000Z</time>
      </trkpt>
      <trkpt lat="48.73134" lon="2.03905">
        <ele>142.7</ele>
        <time>2021-12-11T09:08:50.000Z</time>
      </trkpt>
      <trkpt lat="48.73134" lon="2.03902">
        <ele>142.8</ele>
        <time>2021-12-11T09:08:52.000Z</time>
      </trkpt>
      <trkpt lat="48.73133" lon="2.03896">
        <ele>142.7</ele>
        <time>2021-12-11T09:08:55.000Z</time>
      </trkpt>
      <trkpt lat="48.73133" lon="2.03894">
        <ele>142.8</ele>
        <time>2021-12-11T09:08:56.000Z</time>
      </trkpt>
      <trkpt lat="48.73132" lon="2.03893">
        <ele>142.6</ele>
        <time>2021-12-11T09:08:57.000Z</time>
      </trkpt>
      <trkpt lat="48.7313" lon="2.03879">
        <ele>142.4</ele>
        <time>2021-12-11T09:09:05.000Z</time>
      </trkpt>
      <trkpt lat="48.7313" lon="2.03877">
        <ele>142.5</ele>
        <time>2021-12-11T09:09:06.000Z</time>
      </trkpt>
      <trkpt lat="48.73127" lon="2.03857">
        <ele>141.3</ele>
        <time>2021-12-11T09:09:19.000Z</time>
      </trkpt>
      <trkpt lat="48.73124" lon="2.03832">
        <ele>140.6</ele>
        <time>2021-12-11T09:09:35.000Z</time>
      </trkpt>
      <trkpt lat="48.73122" lon="2.03802">
        <ele>142.5</ele>
        <time>2021-12-11T09:09:56.000Z</time>
      </trkpt>
      <trkpt lat="48.73121" lon="2.03781">
        <ele>142.5</ele>
        <time>2021-12-11T09:10:07.000Z</time>
      </trkpt>
      <trkpt lat="48.73121" lon="2.03772">
        <ele>142.4</ele>
        <time>2021-12-11T09:10:11.000Z</time>
      </trkpt>
      <trkpt lat="48.73121" lon="2.0377">
        <ele>142.4</ele>
        <time>2021-12-11T09:10:12.000Z</time>
      </trkpt>
      <trkpt lat="48.73121" lon="2.03767">
        <ele>142.3</ele>
        <time>2021-12-11T09:10:13.000Z</time>
      </trkpt>
      <trkpt lat="48.7312" lon="2.03765">
        <ele>142.5</ele>
        <time>2021-12-11T09:10:14.000Z</time>
      </trkpt>
      <trkpt lat="48.7312" lon="2.03763">
        <ele>142.5</ele>
        <time>2021-12-11T09:10:15.000Z</time>
      </trkpt>
      <trkpt lat="48.7312" lon="2.03761">
        <ele>142.5</ele>
        <time>2021-12-11T09:10:16.000Z</time>
      </trkpt>
      <trkpt lat="48.73119" lon="2.03723">
        <ele>142.7</ele>
        <time>2021-12-11T09:10:34.000Z</time>
      </trkpt>
      <trkpt lat="48.73119" lon="2.03719">
        <ele>142.8</ele>
        <time>2021-12-11T09:10:36.000Z</time>
      </trkpt>
      <trkpt lat="48.73119" lon="2.03717">
        <ele>142.8</ele>
        <time>2021-12-11T09:10:37.000Z</time>
      </trkpt>
      <trkpt lat="48.7312" lon="2.03708">
        <ele>143.1</ele>
        <time>2021-12-11T09:10:41.000Z</time>
      </trkpt>
      <trkpt lat="48.73119" lon="2.03705">
        <ele>143.1</ele>
        <time>2021-12-11T09:10:42.000Z</time>
      </trkpt>
      <trkpt lat="48.73119" lon="2.03703">
        <ele>143</ele>
        <time>2021-12-11T09:10:43.000Z</time>
      </trkpt>
      <trkpt lat="48.73119" lon="2.03701">
        <ele>142.9</ele>
        <time>2021-12-11T09:10:44.000Z</time>
      </trkpt>
      <trkpt lat="48.73119" lon="2.03699">
        <ele>143</ele>
        <time>2021-12-11T09:10:45.000Z</time>
      </trkpt>
      <trkpt lat="48.73121" lon="2.03683">
        <ele>143.2</ele>
        <time>2021-12-11T09:10:53.000Z</time>
      </trkpt>
      <trkpt lat="48.73129" lon="2.03653">
        <ele>143.7</ele>
        <time>2021-12-11T09:11:09.000Z</time>
      </trkpt>
      <trkpt lat="48.7313" lon="2.03648">
        <ele>143.7</ele>
        <time>2021-12-11T09:11:12.000Z</time>
      </trkpt>
      <trkpt lat="48.7313" lon="2.03645">
        <ele>143.7</ele>
        <time>2021-12-11T09:11:13.000Z</time>
      </trkpt>
      <trkpt lat="48.73133" lon="2.03634">
        <ele>143.9</ele>
        <time>2021-12-11T09:11:19.000Z</time>
      </trkpt>
      <trkpt lat="48.73134" lon="2.03632">
        <ele>143.9</ele>
        <time>2021-12-11T09:11:20.000Z</time>
      </trkpt>
      <trkpt lat="48.73136" lon="2.03629">
        <ele>143.8</ele>
        <time>2021-12-11T09:11:22.000Z</time>
      </trkpt>
      <trkpt lat="48.7314" lon="2.03617">
        <ele>144</ele>
        <time>2021-12-11T09:11:29.000Z</time>
      </trkpt>
      <trkpt lat="48.73141" lon="2.03615">
        <ele>143.9</ele>
        <time>2021-12-11T09:11:30.000Z</time>
      </trkpt>
      <trkpt lat="48.73152" lon="2.03588">
        <ele>143.9</ele>
        <time>2021-12-11T09:11:47.000Z</time>
      </trkpt>
      <trkpt lat="48.73156" lon="2.03581">
        <ele>143.7</ele>
        <time>2021-12-11T09:11:51.000Z</time>
      </trkpt>
      <trkpt lat="48.73156" lon="2.03579">
        <ele>143.9</ele>
        <time>2021-12-11T09:11:52.000Z</time>
      </trkpt>
      <trkpt lat="48.73167" lon="2.03555">
        <ele>143.5</ele>
        <time>2021-12-11T09:12:04.000Z</time>
      </trkpt>
      <trkpt lat="48.73174" lon="2.03542">
        <ele>143</ele>
        <time>2021-12-11T09:12:10.000Z</time>
      </trkpt>
      <trkpt lat="48.73175" lon="2.03541">
        <ele>143.1</ele>
        <time>2021-12-11T09:12:11.000Z</time>
      </trkpt>
      <trkpt lat="48.73184" lon="2.03526">
        <ele>143.2</ele>
        <time>2021-12-11T09:12:21.000Z</time>
      </trkpt>
      <trkpt lat="48.73187" lon="2.0352">
        <ele>143.1</ele>
        <time>2021-12-11T09:12:25.000Z</time>
      </trkpt>
      <trkpt lat="48.73188" lon="2.03518">
        <ele>143.1</ele>
        <time>2021-12-11T09:12:26.000Z</time>
      </trkpt>
      <trkpt lat="48.732" lon="2.03502">
        <ele>143.7</ele>
        <time>2021-12-11T09:12:39.000Z</time>
      </trkpt>
      <trkpt lat="48.73201" lon="2.035">
        <ele>143.7</ele>
        <time>2021-12-11T09:12:40.000Z</time>
      </trkpt>
      <trkpt lat="48.73203" lon="2.035">
        <ele>143.8</ele>
        <time>2021-12-11T09:12:41.000Z</time>
      </trkpt>
      <trkpt lat="48.73204" lon="2.03499">
        <ele>143.9</ele>
        <time>2021-12-11T09:12:42.000Z</time>
      </trkpt>
      <trkpt lat="48.73206" lon="2.03499">
        <ele>144</ele>
        <time>2021-12-11T09:12:43.000Z</time>
      </trkpt>
      <trkpt lat="48.73207" lon="2.03497">
        <ele>143.9</ele>
        <time>2021-12-11T09:12:44.000Z</time>
      </trkpt>
      <trkpt lat="48.73208" lon="2.03496">
        <ele>143.9</ele>
        <time>2021-12-11T09:12:45.000Z</time>
      </trkpt>
      <trkpt lat="48.73209" lon="2.03496">
        <ele>143.8</ele>
        <time>2021-12-11T09:12:46.000Z</time>
      </trkpt>
      <trkpt lat="48.7321" lon="2.03495">
        <ele>144</ele>
        <time>2021-12-11T09:12:47.000Z</time>
      </trkpt>
      <trkpt lat="48.7321" lon="2.03493">
        <ele>144.1</ele>
        <time>2021-12-11T09:12:48.000Z</time>
      </trkpt>
      <trkpt lat="48.7321" lon="2.03484">
        <ele>144.1</ele>
        <time>2021-12-11T09:12:52.000Z</time>
      </trkpt>
      <trkpt lat="48.7321" lon="2.03481">
        <ele>143.9</ele>
        <time>2021-12-11T09:12:53.000Z</time>
      </trkpt>
      <trkpt lat="48.7321" lon="2.03478">
        <ele>144.1</ele>
        <time>2021-12-11T09:12:54.000Z</time>
      </trkpt>
      <trkpt lat="48.7321" lon="2.03475">
        <ele>144</ele>
        <time>2021-12-11T09:12:55.000Z</time>
      </trkpt>
      <trkpt lat="48.73209" lon="2.03473">
        <ele>144.1</ele>
        <time>2021-12-11T09:12:56.000Z</time>
      </trkpt>
      <trkpt lat="48.73207" lon="2.03463">
        <ele>143.7</ele>
        <time>2021-12-11T09:13:00.000Z</time>
      </trkpt>
      <trkpt lat="48.7321" lon="2.03457">
        <ele>144</ele>
        <time>2021-12-11T09:13:04.000Z</time>
      </trkpt>
      <trkpt lat="48.73212" lon="2.03448">
        <ele>143.8</ele>
        <time>2021-12-11T09:13:09.000Z</time>
      </trkpt>
      <trkpt lat="48.73215" lon="2.0343">
        <ele>143.9</ele>
        <time>2021-12-11T09:13:19.000Z</time>
      </trkpt>
      <trkpt lat="48.73217" lon="2.03416">
        <ele>143.8</ele>
        <time>2021-12-11T09:13:27.000Z</time>
      </trkpt>
      <trkpt lat="48.73223" lon="2.0339">
        <ele>144.1</ele>
        <time>2021-12-11T09:13:40.000Z</time>
      </trkpt>
      <trkpt lat="48.73225" lon="2.03374">
        <ele>144.5</ele>
        <time>2021-12-11T09:13:48.000Z</time>
      </trkpt>
      <trkpt lat="48.73226" lon="2.03369">
        <ele>144.8</ele>
        <time>2021-12-11T09:13:51.000Z</time>
      </trkpt>
      <trkpt lat="48.73229" lon="2.03338">
        <ele>145.4</ele>
        <time>2021-12-11T09:14:06.000Z</time>
      </trkpt>
      <trkpt lat="48.73234" lon="2.03301">
        <ele>145.7</ele>
        <time>2021-12-11T09:14:24.000Z</time>
      </trkpt>
      <trkpt lat="48.73236" lon="2.03267">
        <ele>146.1</ele>
        <time>2021-12-11T09:14:40.000Z</time>
      </trkpt>
      <trkpt lat="48.73237" lon="2.03262">
        <ele>146</ele>
        <time>2021-12-11T09:14:43.000Z</time>
      </trkpt>
      <trkpt lat="48.73237" lon="2.03251">
        <ele>146.3</ele>
        <time>2021-12-11T09:14:48.000Z</time>
      </trkpt>
      <trkpt lat="48.73239" lon="2.03214">
        <ele>146.7</ele>
        <time>2021-12-11T09:15:07.000Z</time>
      </trkpt>
      <trkpt lat="48.73239" lon="2.03188">
        <ele>147.1</ele>
        <time>2021-12-11T09:15:21.000Z</time>
      </trkpt>
      <trkpt lat="48.73238" lon="2.03164">
        <ele>147.2</ele>
        <time>2021-12-11T09:15:34.000Z</time>
      </trkpt>
      <trkpt lat="48.73237" lon="2.03138">
        <ele>147.2</ele>
        <time>2021-12-11T09:15:48.000Z</time>
      </trkpt>
      <trkpt lat="48.73238" lon="2.03114">
        <ele>147</ele>
        <time>2021-12-11T09:16:02.000Z</time>
      </trkpt>
      <trkpt lat="48.73236" lon="2.03089">
        <ele>147.4</ele>
        <time>2021-12-11T09:16:15.000Z</time>
      </trkpt>
      <trkpt lat="48.73234" lon="2.03079">
        <ele>147.4</ele>
        <time>2021-12-11T09:16:20.000Z</time>
      </trkpt>
      <trkpt lat="48.73226" lon="2.03047">
        <ele>147.3</ele>
        <time>2021-12-11T09:16:37.000Z</time>
      </trkpt>
      <trkpt lat="48.73221" lon="2.03036">
        <ele>147.3</ele>
        <time>2021-12-11T09:16:44.000Z</time>
      </trkpt>
      <trkpt lat="48.7322" lon="2.03029">
        <ele>147.3</ele>
        <time>2021-12-11T09:16:48.000Z</time>
      </trkpt>
      <trkpt lat="48.7321" lon="2.03012">
        <ele>147.8</ele>
        <time>2021-12-11T09:17:02.000Z</time>
      </trkpt>
      <trkpt lat="48.73208" lon="2.03009">
        <ele>147.6</ele>
        <time>2021-12-11T09:17:04.000Z</time>
      </trkpt>
      <trkpt lat="48.73194" lon="2.03002">
        <ele>147.2</ele>
        <time>2021-12-11T09:17:17.000Z</time>
      </trkpt>
      <trkpt lat="48.73192" lon="2.02999">
        <ele>147.3</ele>
        <time>2021-12-11T09:17:20.000Z</time>
      </trkpt>
      <trkpt lat="48.73186" lon="2.02996">
        <ele>146.3</ele>
        <time>2021-12-11T09:17:27.000Z</time>
      </trkpt>
      <trkpt lat="48.7318" lon="2.02988">
        <ele>145.6</ele>
        <time>2021-12-11T09:17:33.000Z</time>
      </trkpt>
      <trkpt lat="48.73173" lon="2.02967">
        <ele>143.1</ele>
        <time>2021-12-11T09:17:46.000Z</time>
      </trkpt>
      <trkpt lat="48.73171" lon="2.02957">
        <ele>141.6</ele>
        <time>2021-12-11T09:17:54.000Z</time>
      </trkpt>
      <trkpt lat="48.7317" lon="2.02949">
        <ele>141.3</ele>
        <time>2021-12-11T09:17:58.000Z</time>
      </trkpt>
      <trkpt lat="48.73168" lon="2.02927">
        <ele>139.6</ele>
        <time>2021-12-11T09:18:11.000Z</time>
      </trkpt>
      <trkpt lat="48.73164" lon="2.02922">
        <ele>138.6</ele>
        <time>2021-12-11T09:18:15.000Z</time>
      </trkpt>
      <trkpt lat="48.73155" lon="2.02914">
        <ele>135.1</ele>
        <time>2021-12-11T09:18:26.000Z</time>
      </trkpt>
      <trkpt lat="48.73153" lon="2.02912">
        <ele>134.7</ele>
        <time>2021-12-11T09:18:28.000Z</time>
      </trkpt>
      <trkpt lat="48.7314" lon="2.02905">
        <ele>131.5</ele>
        <time>2021-12-11T09:18:40.000Z</time>
      </trkpt>
      <trkpt lat="48.7314" lon="2.02904">
        <ele>131.2</ele>
        <time>2021-12-11T09:18:41.000Z</time>
      </trkpt>
      <trkpt lat="48.73136" lon="2.02889">
        <ele>128.7</ele>
        <time>2021-12-11T09:18:51.000Z</time>
      </trkpt>
      <trkpt lat="48.7314" lon="2.02874">
        <ele>125.2</ele>
        <time>2021-12-11T09:19:05.000Z</time>
      </trkpt>
      <trkpt lat="48.73132" lon="2.02866">
        <ele>122.3</ele>
        <time>2021-12-11T09:19:21.000Z</time>
      </trkpt>
      <trkpt lat="48.7313" lon="2.02867">
        <ele>122.2</ele>
        <time>2021-12-11T09:19:23.000Z</time>
      </trkpt>
      <trkpt lat="48.73124" lon="2.02878">
        <ele>122.5</ele>
        <time>2021-12-11T09:19:34.000Z</time>
      </trkpt>
      <trkpt lat="48.73119" lon="2.02887">
        <ele>120.8</ele>
        <time>2021-12-11T09:19:40.000Z</time>
      </trkpt>
      <trkpt lat="48.73114" lon="2.029">
        <ele>119.1</ele>
        <time>2021-12-11T09:19:48.000Z</time>
      </trkpt>
      <trkpt lat="48.73109" lon="2.02918">
        <ele>116.1</ele>
        <time>2021-12-11T09:20:02.000Z</time>
      </trkpt>
      <trkpt lat="48.73108" lon="2.02918">
        <ele>115.8</ele>
        <time>2021-12-11T09:20:03.000Z</time>
      </trkpt>
      <trkpt lat="48.73106" lon="2.02924">
        <ele>114.7</ele>
        <time>2021-12-11T09:20:07.000Z</time>
      </trkpt>
      <trkpt lat="48.73106" lon="2.0293">
        <ele>113.9</ele>
        <time>2021-12-11T09:20:10.000Z</time>
      </trkpt>
      <trkpt lat="48.731" lon="2.02955">
        <ele>112.3</ele>
        <time>2021-12-11T09:20:27.000Z</time>
      </trkpt>
      <trkpt lat="48.73088" lon="2.0299">
        <ele>112.2</ele>
        <time>2021-12-11T09:20:48.000Z</time>
      </trkpt>
      <trkpt lat="48.73074" lon="2.03024">
        <ele>110.5</ele>
        <time>2021-12-11T09:21:07.000Z</time>
      </trkpt>
      <trkpt lat="48.73067" lon="2.03037">
        <ele>108.2</ele>
        <time>2021-12-11T09:21:16.000Z</time>
      </trkpt>
      <trkpt lat="48.73063" lon="2.03037">
        <ele>107.3</ele>
        <time>2021-12-11T09:21:19.000Z</time>
      </trkpt>
      <trkpt lat="48.7305" lon="2.03019">
        <ele>104</ele>
        <time>2021-12-11T09:21:36.000Z</time>
      </trkpt>
      <trkpt lat="48.7304" lon="2.03">
        <ele>101</ele>
        <time>2021-12-11T09:21:52.000Z</time>
      </trkpt>
      <trkpt lat="48.73039" lon="2.02997">
        <ele>100.6</ele>
        <time>2021-12-11T09:21:54.000Z</time>
      </trkpt>
      <trkpt lat="48.73026" lon="2.02972">
        <ele>98.2</ele>
        <time>2021-12-11T09:22:06.000Z</time>
      </trkpt>
      <trkpt lat="48.73017" lon="2.02957">
        <ele>96.4</ele>
        <time>2021-12-11T09:22:19.000Z</time>
      </trkpt>
      <trkpt lat="48.73009" lon="2.02934">
        <ele>93.7</ele>
        <time>2021-12-11T09:22:35.000Z</time>
      </trkpt>
      <trkpt lat="48.72997" lon="2.02907">
        <ele>90.6</ele>
        <time>2021-12-11T09:22:51.000Z</time>
      </trkpt>
      <trkpt lat="48.72993" lon="2.02901">
        <ele>89.7</ele>
        <time>2021-12-11T09:22:57.000Z</time>
      </trkpt>
      <trkpt lat="48.72979" lon="2.02865">
        <ele>87.2</ele>
        <time>2021-12-11T09:23:17.000Z</time>
      </trkpt>
      <trkpt lat="48.72978" lon="2.02862">
        <ele>86.8</ele>
        <time>2021-12-11T09:23:19.000Z</time>
      </trkpt>
      <trkpt lat="48.72966" lon="2.0284">
        <ele>84.7</ele>
        <time>2021-12-11T09:23:33.000Z</time>
      </trkpt>
      <trkpt lat="48.72962" lon="2.02832">
        <ele>84.4</ele>
        <time>2021-12-11T09:23:38.000Z</time>
      </trkpt>
      <trkpt lat="48.72965" lon="2.02819">
        <ele>84</ele>
        <time>2021-12-11T09:23:48.000Z</time>
      </trkpt>
      <trkpt lat="48.72974" lon="2.02813">
        <ele>84.8</ele>
        <time>2021-12-11T09:24:01.000Z</time>
      </trkpt>
      <trkpt lat="48.72978" lon="2.02809">
        <ele>84.8</ele>
        <time>2021-12-11T09:24:06.000Z</time>
      </trkpt>
      <trkpt lat="48.72994" lon="2.02793">
        <ele>85.6</ele>
        <time>2021-12-11T09:24:21.000Z</time>
      </trkpt>
      <trkpt lat="48.72996" lon="2.0279">
        <ele>85.5</ele>
        <time>2021-12-11T09:24:23.000Z</time>
      </trkpt>
      <trkpt lat="48.7301" lon="2.02781">
        <ele>85.5</ele>
        <time>2021-12-11T09:24:38.000Z</time>
      </trkpt>
      <trkpt lat="48.73024" lon="2.02763">
        <ele>84.4</ele>
        <time>2021-12-11T09:24:59.000Z</time>
      </trkpt>
      <trkpt lat="48.73031" lon="2.02753">
        <ele>84.3</ele>
        <time>2021-12-11T09:25:05.000Z</time>
      </trkpt>
      <trkpt lat="48.73042" lon="2.02734">
        <ele>84.6</ele>
        <time>2021-12-11T09:25:17.000Z</time>
      </trkpt>
      <trkpt lat="48.73058" lon="2.02718">
        <ele>85.8</ele>
        <time>2021-12-11T09:25:31.000Z</time>
      </trkpt>
      <trkpt lat="48.73069" lon="2.02703">
        <ele>86.9</ele>
        <time>2021-12-11T09:25:43.000Z</time>
      </trkpt>
      <trkpt lat="48.73078" lon="2.02693">
        <ele>87.5</ele>
        <time>2021-12-11T09:25:52.000Z</time>
      </trkpt>
      <trkpt lat="48.73085" lon="2.02686">
        <ele>88.1</ele>
        <time>2021-12-11T09:25:58.000Z</time>
      </trkpt>
      <trkpt lat="48.7309" lon="2.02678">
        <ele>88.1</ele>
        <time>2021-12-11T09:26:04.000Z</time>
      </trkpt>
      <trkpt lat="48.73117" lon="2.02649">
        <ele>86.3</ele>
        <time>2021-12-11T09:27:08.000Z</time>
      </trkpt>
      <trkpt lat="48.73118" lon="2.02649">
        <ele>86</ele>
        <time>2021-12-11T09:27:32.000Z</time>
      </trkpt>
      <trkpt lat="48.73119" lon="2.02646">
        <ele>86.2</ele>
        <time>2021-12-11T09:27:54.000Z</time>
      </trkpt>
      <trkpt lat="48.7312" lon="2.02652">
        <ele>86.2</ele>
        <time>2021-12-11T09:29:40.000Z</time>
      </trkpt>
      <trkpt lat="48.73117" lon="2.02651">
        <ele>86.4</ele>
        <time>2021-12-11T09:30:12.000Z</time>
      </trkpt>
      <trkpt lat="48.73117" lon="2.02654">
        <ele>86.5</ele>
        <time>2021-12-11T09:30:31.000Z</time>
      </trkpt>
      <trkpt lat="48.7312" lon="2.02654">
        <ele>86.5</ele>
        <time>2021-12-11T09:31:00.000Z</time>
      </trkpt>
      <trkpt lat="48.7312" lon="2.02654">
        <ele>86.6</ele>
        <time>2021-12-11T09:31:30.000Z</time>
      </trkpt>
      <trkpt lat="48.73121" lon="2.02658">
        <ele>86.7</ele>
        <time>2021-12-11T09:32:04.000Z</time>
      </trkpt>
      <trkpt lat="48.7312" lon="2.0266">
        <ele>86.8</ele>
        <time>2021-12-11T09:32:27.000Z</time>
      </trkpt>
      <trkpt lat="48.73121" lon="2.02664">
        <ele>86.9</ele>
        <time>2021-12-11T09:32:55.000Z</time>
      </trkpt>
      <trkpt lat="48.73122" lon="2.02665">
        <ele>86.8</ele>
        <time>2021-12-11T09:33:28.000Z</time>
      </trkpt>
      <trkpt lat="48.73121" lon="2.02665">
        <ele>86.7</ele>
        <time>2021-12-11T09:34:00.000Z</time>
      </trkpt>
      <trkpt lat="48.73121" lon="2.02667">
        <ele>86.7</ele>
        <time>2021-12-11T09:34:30.000Z</time>
      </trkpt>
      <trkpt lat="48.73121" lon="2.02667">
        <ele>86.6</ele>
        <time>2021-12-11T09:34:56.000Z</time>
      </trkpt>
      <trkpt lat="48.73122" lon="2.02665">
        <ele>86.4</ele>
        <time>2021-12-11T09:35:23.000Z</time>
      </trkpt>
      <trkpt lat="48.73121" lon="2.02666">
        <ele>86.4</ele>
        <time>2021-12-11T09:35:51.000Z</time>
      </trkpt>
      <trkpt lat="48.73121" lon="2.02664">
        <ele>86.5</ele>
        <time>2021-12-11T09:36:22.000Z</time>
      </trkpt>
      <trkpt lat="48.7312" lon="2.02664">
        <ele>86.6</ele>
        <time>2021-12-11T09:36:57.000Z</time>
      </trkpt>
      <trkpt lat="48.73122" lon="2.02664">
        <ele>86.5</ele>
        <time>2021-12-11T09:37:24.000Z</time>
      </trkpt>
      <trkpt lat="48.7312" lon="2.02661">
        <ele>86.6</ele>
        <time>2021-12-11T09:37:57.000Z</time>
      </trkpt>
      <trkpt lat="48.7312" lon="2.02659">
        <ele>86.5</ele>
        <time>2021-12-11T09:38:18.000Z</time>
      </trkpt>
      <trkpt lat="48.73119" lon="2.02656">
        <ele>86.5</ele>
        <time>2021-12-11T09:38:41.000Z</time>
      </trkpt>
      <trkpt lat="48.7312" lon="2.02659">
        <ele>86.5</ele>
        <time>2021-12-11T09:39:13.000Z</time>
      </trkpt>
      <trkpt lat="48.73121" lon="2.02658">
        <ele>86.2</ele>
        <time>2021-12-11T09:39:39.000Z</time>
      </trkpt>
      <trkpt lat="48.73121" lon="2.02658">
        <ele>86.3</ele>
        <time>2021-12-11T09:39:59.000Z</time>
      </trkpt>
      <trkpt lat="48.73125" lon="2.0265">
        <ele>85.5</ele>
        <time>2021-12-11T09:40:18.000Z</time>
      </trkpt>
      <trkpt lat="48.73133" lon="2.02637">
        <ele>85.2</ele>
        <time>2021-12-11T09:40:31.000Z</time>
      </trkpt>
      <trkpt lat="48.73135" lon="2.02635">
        <ele>85.2</ele>
        <time>2021-12-11T09:40:33.000Z</time>
      </trkpt>
      <trkpt lat="48.73148" lon="2.02623">
        <ele>85.4</ele>
        <time>2021-12-11T09:40:47.000Z</time>
      </trkpt>
      <trkpt lat="48.73152" lon="2.02616">
        <ele>85.5</ele>
        <time>2021-12-11T09:40:53.000Z</time>
      </trkpt>
      <trkpt lat="48.73163" lon="2.02599">
        <ele>85.7</ele>
        <time>2021-12-11T09:41:05.000Z</time>
      </trkpt>
      <trkpt lat="48.73167" lon="2.02593">
        <ele>85.5</ele>
        <time>2021-12-11T09:41:09.000Z</time>
      </trkpt>
      <trkpt lat="48.73185" lon="2.02579">
        <ele>85.6</ele>
        <time>2021-12-11T09:41:24.000Z</time>
      </trkpt>
      <trkpt lat="48.73187" lon="2.02576">
        <ele>85.5</ele>
        <time>2021-12-11T09:41:27.000Z</time>
      </trkpt>
      <trkpt lat="48.73191" lon="2.02571">
        <ele>85.6</ele>
        <time>2021-12-11T09:41:31.000Z</time>
      </trkpt>
      <trkpt lat="48.73207" lon="2.02559">
        <ele>86.2</ele>
        <time>2021-12-11T09:41:43.000Z</time>
      </trkpt>
      <trkpt lat="48.73211" lon="2.02554">
        <ele>86.2</ele>
        <time>2021-12-11T09:41:48.000Z</time>
      </trkpt>
      <trkpt lat="48.73224" lon="2.02541">
        <ele>87.1</ele>
        <time>2021-12-11T09:42:01.000Z</time>
      </trkpt>
      <trkpt lat="48.73227" lon="2.02535">
        <ele>87.6</ele>
        <time>2021-12-11T09:42:06.000Z</time>
      </trkpt>
      <trkpt lat="48.73229" lon="2.02533">
        <ele>87.6</ele>
        <time>2021-12-11T09:42:08.000Z</time>
      </trkpt>
      <trkpt lat="48.73231" lon="2.02529">
        <ele>87.8</ele>
        <time>2021-12-11T09:42:10.000Z</time>
      </trkpt>
      <trkpt lat="48.73235" lon="2.02525">
        <ele>88.5</ele>
        <time>2021-12-11T09:42:14.000Z</time>
      </trkpt>
      <trkpt lat="48.73241" lon="2.02521">
        <ele>88.6</ele>
        <time>2021-12-11T09:42:19.000Z</time>
      </trkpt>
      <trkpt lat="48.73259" lon="2.02502">
        <ele>89.2</ele>
        <time>2021-12-11T09:42:36.000Z</time>
      </trkpt>
      <trkpt lat="48.73272" lon="2.02493">
        <ele>89.2</ele>
        <time>2021-12-11T09:42:47.000Z</time>
      </trkpt>
      <trkpt lat="48.73274" lon="2.02491">
        <ele>89.2</ele>
        <time>2021-12-11T09:42:49.000Z</time>
      </trkpt>
      <trkpt lat="48.73285" lon="2.02482">
        <ele>90.2</ele>
        <time>2021-12-11T09:43:00.000Z</time>
      </trkpt>
      <trkpt lat="48.73292" lon="2.02476">
        <ele>90.1</ele>
        <time>2021-12-11T09:43:09.000Z</time>
      </trkpt>
      <trkpt lat="48.73319" lon="2.02448">
        <ele>90.8</ele>
        <time>2021-12-11T09:43:36.000Z</time>
      </trkpt>
      <trkpt lat="48.73345" lon="2.02426">
        <ele>90.8</ele>
        <time>2021-12-11T09:43:56.000Z</time>
      </trkpt>
      <trkpt lat="48.73364" lon="2.02413">
        <ele>90.2</ele>
        <time>2021-12-11T09:44:10.000Z</time>
      </trkpt>
      <trkpt lat="48.7338" lon="2.024">
        <ele>89.5</ele>
        <time>2021-12-11T09:44:24.000Z</time>
      </trkpt>
      <trkpt lat="48.73388" lon="2.02394">
        <ele>89.5</ele>
        <time>2021-12-11T09:44:30.000Z</time>
      </trkpt>
      <trkpt lat="48.73397" lon="2.02387">
        <ele>89.2</ele>
        <time>2021-12-11T09:44:38.000Z</time>
      </trkpt>
      <trkpt lat="48.73401" lon="2.02384">
        <ele>89.5</ele>
        <time>2021-12-11T09:44:42.000Z</time>
      </trkpt>
      <trkpt lat="48.73416" lon="2.02367">
        <ele>88.8</ele>
        <time>2021-12-11T09:44:57.000Z</time>
      </trkpt>
      <trkpt lat="48.73424" lon="2.02346">
        <ele>87.6</ele>
        <time>2021-12-11T09:45:12.000Z</time>
      </trkpt>
      <trkpt lat="48.73432" lon="2.02321">
        <ele>87.5</ele>
        <time>2021-12-11T09:45:26.000Z</time>
      </trkpt>
      <trkpt lat="48.73446" lon="2.02295">
        <ele>86.8</ele>
        <time>2021-12-11T09:45:42.000Z</time>
      </trkpt>
      <trkpt lat="48.73447" lon="2.02294">
        <ele>86.8</ele>
        <time>2021-12-11T09:45:43.000Z</time>
      </trkpt>
      <trkpt lat="48.7346" lon="2.02291">
        <ele>87.5</ele>
        <time>2021-12-11T09:45:54.000Z</time>
      </trkpt>
      <trkpt lat="48.73479" lon="2.02293">
        <ele>88.3</ele>
        <time>2021-12-11T09:46:08.000Z</time>
      </trkpt>
      <trkpt lat="48.73489" lon="2.02293">
        <ele>88.8</ele>
        <time>2021-12-11T09:46:17.000Z</time>
      </trkpt>
      <trkpt lat="48.73497" lon="2.02296">
        <ele>88.4</ele>
        <time>2021-12-11T09:46:24.000Z</time>
      </trkpt>
      <trkpt lat="48.73498" lon="2.02296">
        <ele>89.2</ele>
        <time>2021-12-11T09:46:25.000Z</time>
      </trkpt>
      <trkpt lat="48.735" lon="2.02297">
        <ele>90.4</ele>
        <time>2021-12-11T09:46:26.000Z</time>
      </trkpt>
      <trkpt lat="48.73502" lon="2.02297">
        <ele>89.7</ele>
        <time>2021-12-11T09:46:27.000Z</time>
      </trkpt>
      <trkpt lat="48.73503" lon="2.02297">
        <ele>89.5</ele>
        <time>2021-12-11T09:46:28.000Z</time>
      </trkpt>
      <trkpt lat="48.73505" lon="2.02297">
        <ele>89.3</ele>
        <time>2021-12-11T09:46:29.000Z</time>
      </trkpt>
      <trkpt lat="48.73506" lon="2.02297">
        <ele>89.2</ele>
        <time>2021-12-11T09:46:30.000Z</time>
      </trkpt>
      <trkpt lat="48.73508" lon="2.02297">
        <ele>89.4</ele>
        <time>2021-12-11T09:46:31.000Z</time>
      </trkpt>
      <trkpt lat="48.73509" lon="2.02298">
        <ele>89.3</ele>
        <time>2021-12-11T09:46:32.000Z</time>
      </trkpt>
      <trkpt lat="48.73511" lon="2.02298">
        <ele>89.4</ele>
        <time>2021-12-11T09:46:33.000Z</time>
      </trkpt>
      <trkpt lat="48.73513" lon="2.02299">
        <ele>89.3</ele>
        <time>2021-12-11T09:46:34.000Z</time>
      </trkpt>
      <trkpt lat="48.73515" lon="2.02299">
        <ele>89.5</ele>
        <time>2021-12-11T09:46:35.000Z</time>
      </trkpt>
      <trkpt lat="48.73517" lon="2.023">
        <ele>89.3</ele>
        <time>2021-12-11T09:46:36.000Z</time>
      </trkpt>
      <trkpt lat="48.73518" lon="2.02299">
        <ele>89.5</ele>
        <time>2021-12-11T09:46:37.000Z</time>
      </trkpt>
      <trkpt lat="48.7352" lon="2.02298">
        <ele>89.7</ele>
        <time>2021-12-11T09:46:39.000Z</time>
      </trkpt>
      <trkpt lat="48.73523" lon="2.02297">
        <ele>89.8</ele>
        <time>2021-12-11T09:46:41.000Z</time>
      </trkpt>
      <trkpt lat="48.73524" lon="2.02296">
        <ele>89.9</ele>
        <time>2021-12-11T09:46:42.000Z</time>
      </trkpt>
      <trkpt lat="48.73525" lon="2.02295">
        <ele>89.8</ele>
        <time>2021-12-11T09:46:43.000Z</time>
      </trkpt>
      <trkpt lat="48.73527" lon="2.02294">
        <ele>89.9</ele>
        <time>2021-12-11T09:46:44.000Z</time>
      </trkpt>
      <trkpt lat="48.73546" lon="2.02291">
        <ele>90.1</ele>
        <time>2021-12-11T09:46:58.000Z</time>
      </trkpt>
      <trkpt lat="48.73566" lon="2.02289">
        <ele>90.4</ele>
        <time>2021-12-11T09:47:13.000Z</time>
      </trkpt>
      <trkpt lat="48.73582" lon="2.02288">
        <ele>90.7</ele>
        <time>2021-12-11T09:47:25.000Z</time>
      </trkpt>
      <trkpt lat="48.73605" lon="2.02287">
        <ele>90.8</ele>
        <time>2021-12-11T09:47:45.000Z</time>
      </trkpt>
      <trkpt lat="48.73624" lon="2.02284">
        <ele>91.6</ele>
        <time>2021-12-11T09:47:59.000Z</time>
      </trkpt>
      <trkpt lat="48.73637" lon="2.02284">
        <ele>91.9</ele>
        <time>2021-12-11T09:48:07.000Z</time>
      </trkpt>
      <trkpt lat="48.73639" lon="2.02284">
        <ele>91.9</ele>
        <time>2021-12-11T09:48:08.000Z</time>
      </trkpt>
      <trkpt lat="48.73641" lon="2.02283">
        <ele>92</ele>
        <time>2021-12-11T09:48:09.000Z</time>
      </trkpt>
      <trkpt lat="48.73642" lon="2.02283">
        <ele>91.9</ele>
        <time>2021-12-11T09:48:10.000Z</time>
      </trkpt>
      <trkpt lat="48.73644" lon="2.02282">
        <ele>92</ele>
        <time>2021-12-11T09:48:11.000Z</time>
      </trkpt>
      <trkpt lat="48.73646" lon="2.02281">
        <ele>92.1</ele>
        <time>2021-12-11T09:48:13.000Z</time>
      </trkpt>
      <trkpt lat="48.73647" lon="2.0228">
        <ele>92.1</ele>
        <time>2021-12-11T09:48:14.000Z</time>
      </trkpt>
      <trkpt lat="48.73663" lon="2.02276">
        <ele>92.7</ele>
        <time>2021-12-11T09:48:28.000Z</time>
      </trkpt>
      <trkpt lat="48.73674" lon="2.02272">
        <ele>93.1</ele>
        <time>2021-12-11T09:48:38.000Z</time>
      </trkpt>
      <trkpt lat="48.73689" lon="2.02264">
        <ele>93.8</ele>
        <time>2021-12-11T09:48:58.000Z</time>
      </trkpt>
      <trkpt lat="48.73718" lon="2.02255">
        <ele>94.4</ele>
        <time>2021-12-11T09:49:17.000Z</time>
      </trkpt>
      <trkpt lat="48.7374" lon="2.0225">
        <ele>94.7</ele>
        <time>2021-12-11T09:49:38.000Z</time>
      </trkpt>
      <trkpt lat="48.73764" lon="2.02244">
        <ele>95.1</ele>
        <time>2021-12-11T09:49:56.000Z</time>
      </trkpt>
      <trkpt lat="48.73785" lon="2.02233">
        <ele>95.8</ele>
        <time>2021-12-11T09:50:15.000Z</time>
      </trkpt>
      <trkpt lat="48.73807" lon="2.02236">
        <ele>96.1</ele>
        <time>2021-12-11T09:50:33.000Z</time>
      </trkpt>
      <trkpt lat="48.73822" lon="2.02238">
        <ele>96.5</ele>
        <time>2021-12-11T09:50:44.000Z</time>
      </trkpt>
      <trkpt lat="48.73848" lon="2.0224">
        <ele>97.1</ele>
        <time>2021-12-11T09:51:04.000Z</time>
      </trkpt>
      <trkpt lat="48.73872" lon="2.02241">
        <ele>97.4</ele>
        <time>2021-12-11T09:51:22.000Z</time>
      </trkpt>
      <trkpt lat="48.73894" lon="2.02242">
        <ele>98.7</ele>
        <time>2021-12-11T09:51:40.000Z</time>
      </trkpt>
      <trkpt lat="48.73913" lon="2.02246">
        <ele>99.7</ele>
        <time>2021-12-11T09:51:57.000Z</time>
      </trkpt>
      <trkpt lat="48.73945" lon="2.0226">
        <ele>100.5</ele>
        <time>2021-12-11T09:52:15.000Z</time>
      </trkpt>
      <trkpt lat="48.73946" lon="2.02261">
        <ele>100.5</ele>
        <time>2021-12-11T09:52:16.000Z</time>
      </trkpt>
      <trkpt lat="48.73963" lon="2.02271">
        <ele>100.9</ele>
        <time>2021-12-11T09:52:29.000Z</time>
      </trkpt>
      <trkpt lat="48.73964" lon="2.02272">
        <ele>100.9</ele>
        <time>2021-12-11T09:52:30.000Z</time>
      </trkpt>
      <trkpt lat="48.73978" lon="2.02279">
        <ele>101.2</ele>
        <time>2021-12-11T09:52:42.000Z</time>
      </trkpt>
      <trkpt lat="48.7398" lon="2.0228">
        <ele>101.2</ele>
        <time>2021-12-11T09:52:43.000Z</time>
      </trkpt>
      <trkpt lat="48.73988" lon="2.02283">
        <ele>101.4</ele>
        <time>2021-12-11T09:52:50.000Z</time>
      </trkpt>
      <trkpt lat="48.74001" lon="2.02277">
        <ele>101.6</ele>
        <time>2021-12-11T09:53:06.000Z</time>
      </trkpt>
      <trkpt lat="48.74002" lon="2.02277">
        <ele>101.5</ele>
        <time>2021-12-11T09:53:07.000Z</time>
      </trkpt>
      <trkpt lat="48.74004" lon="2.02276">
        <ele>101.6</ele>
        <time>2021-12-11T09:53:08.000Z</time>
      </trkpt>
      <trkpt lat="48.7402" lon="2.02268">
        <ele>101.3</ele>
        <time>2021-12-11T09:53:22.000Z</time>
      </trkpt>
      <trkpt lat="48.74035" lon="2.02257">
        <ele>101.2</ele>
        <time>2021-12-11T09:53:37.000Z</time>
      </trkpt>
      <trkpt lat="48.74048" lon="2.02244">
        <ele>100.8</ele>
        <time>2021-12-11T09:53:49.000Z</time>
      </trkpt>
      <trkpt lat="48.7405" lon="2.02243">
        <ele>100.8</ele>
        <time>2021-12-11T09:53:50.000Z</time>
      </trkpt>
      <trkpt lat="48.74051" lon="2.02241">
        <ele>100.8</ele>
        <time>2021-12-11T09:53:52.000Z</time>
      </trkpt>
      <trkpt lat="48.74051" lon="2.02239">
        <ele>100.8</ele>
        <time>2021-12-11T09:53:53.000Z</time>
      </trkpt>
      <trkpt lat="48.7406" lon="2.02225">
        <ele>100.5</ele>
        <time>2021-12-11T09:54:00.000Z</time>
      </trkpt>
      <trkpt lat="48.74062" lon="2.02221">
        <ele>100.4</ele>
        <time>2021-12-11T09:54:03.000Z</time>
      </trkpt>
      <trkpt lat="48.74063" lon="2.02219">
        <ele>100.5</ele>
        <time>2021-12-11T09:54:04.000Z</time>
      </trkpt>
      <trkpt lat="48.74066" lon="2.02211">
        <ele>100.6</ele>
        <time>2021-12-11T09:54:09.000Z</time>
      </trkpt>
      <trkpt lat="48.74068" lon="2.02201">
        <ele>100.8</ele>
        <time>2021-12-11T09:54:15.000Z</time>
      </trkpt>
      <trkpt lat="48.74072" lon="2.0218">
        <ele>100.8</ele>
        <time>2021-12-11T09:54:26.000Z</time>
      </trkpt>
      <trkpt lat="48.7408" lon="2.02158">
        <ele>101.3</ele>
        <time>2021-12-11T09:54:39.000Z</time>
      </trkpt>
      <trkpt lat="48.74082" lon="2.02153">
        <ele>101.2</ele>
        <time>2021-12-11T09:54:42.000Z</time>
      </trkpt>
      <trkpt lat="48.74083" lon="2.02151">
        <ele>101.3</ele>
        <time>2021-12-11T09:54:43.000Z</time>
      </trkpt>
      <trkpt lat="48.7409" lon="2.02134">
        <ele>101.8</ele>
        <time>2021-12-11T09:54:51.000Z</time>
      </trkpt>
      <trkpt lat="48.74091" lon="2.02133">
        <ele>101.8</ele>
        <time>2021-12-11T09:54:52.000Z</time>
      </trkpt>
      <trkpt lat="48.74099" lon="2.02114">
        <ele>102.5</ele>
        <time>2021-12-11T09:55:06.000Z</time>
      </trkpt>
      <trkpt lat="48.74108" lon="2.02092">
        <ele>102.2</ele>
        <time>2021-12-11T09:55:23.000Z</time>
      </trkpt>
      <trkpt lat="48.74115" lon="2.02073">
        <ele>101.5</ele>
        <time>2021-12-11T09:55:36.000Z</time>
      </trkpt>
      <trkpt lat="48.74133" lon="2.02041">
        <ele>101.2</ele>
        <time>2021-12-11T09:55:54.000Z</time>
      </trkpt>
      <trkpt lat="48.74143" lon="2.02024">
        <ele>100.9</ele>
        <time>2021-12-11T09:56:02.000Z</time>
      </trkpt>
      <trkpt lat="48.74144" lon="2.02022">
        <ele>101</ele>
        <time>2021-12-11T09:56:03.000Z</time>
      </trkpt>
      <trkpt lat="48.74145" lon="2.0202">
        <ele>101</ele>
        <time>2021-12-11T09:56:04.000Z</time>
      </trkpt>
      <trkpt lat="48.74146" lon="2.02018">
        <ele>101</ele>
        <time>2021-12-11T09:56:05.000Z</time>
      </trkpt>
      <trkpt lat="48.74147" lon="2.02016">
        <ele>101</ele>
        <time>2021-12-11T09:56:06.000Z</time>
      </trkpt>
      <trkpt lat="48.74151" lon="2.02008">
        <ele>101</ele>
        <time>2021-12-11T09:56:11.000Z</time>
      </trkpt>
      <trkpt lat="48.74154" lon="2.02003">
        <ele>101</ele>
        <time>2021-12-11T09:56:14.000Z</time>
      </trkpt>
      <trkpt lat="48.74169" lon="2.01983">
        <ele>101.2</ele>
        <time>2021-12-11T09:56:28.000Z</time>
      </trkpt>
      <trkpt lat="48.74172" lon="2.01981">
        <ele>101.2</ele>
        <time>2021-12-11T09:56:30.000Z</time>
      </trkpt>
      <trkpt lat="48.74176" lon="2.01976">
        <ele>101.4</ele>
        <time>2021-12-11T09:56:34.000Z</time>
      </trkpt>
      <trkpt lat="48.74192" lon="2.01955">
        <ele>101.5</ele>
        <time>2021-12-11T09:56:46.000Z</time>
      </trkpt>
      <trkpt lat="48.74208" lon="2.01945">
        <ele>101.1</ele>
        <time>2021-12-11T09:57:01.000Z</time>
      </trkpt>
      <trkpt lat="48.7422" lon="2.01935">
        <ele>101.2</ele>
        <time>2021-12-11T09:57:14.000Z</time>
      </trkpt>
      <trkpt lat="48.74223" lon="2.0193">
        <ele>101.2</ele>
        <time>2021-12-11T09:57:18.000Z</time>
      </trkpt>
      <trkpt lat="48.74243" lon="2.01922">
        <ele>102.2</ele>
        <time>2021-12-11T09:57:34.000Z</time>
      </trkpt>
      <trkpt lat="48.74257" lon="2.01915">
        <ele>103.2</ele>
        <time>2021-12-11T09:57:47.000Z</time>
      </trkpt>
      <trkpt lat="48.74269" lon="2.0191">
        <ele>104</ele>
        <time>2021-12-11T09:57:58.000Z</time>
      </trkpt>
      <trkpt lat="48.74281" lon="2.01906">
        <ele>104.6</ele>
        <time>2021-12-11T09:58:09.000Z</time>
      </trkpt>
      <trkpt lat="48.74295" lon="2.019">
        <ele>105.6</ele>
        <time>2021-12-11T09:58:22.000Z</time>
      </trkpt>
      <trkpt lat="48.74302" lon="2.01898">
        <ele>106.2</ele>
        <time>2021-12-11T09:58:28.000Z</time>
      </trkpt>
      <trkpt lat="48.74314" lon="2.01888">
        <ele>108</ele>
        <time>2021-12-11T09:58:42.000Z</time>
      </trkpt>
      <trkpt lat="48.74335" lon="2.01868">
        <ele>109.7</ele>
        <time>2021-12-11T09:59:00.000Z</time>
      </trkpt>
      <trkpt lat="48.7434" lon="2.01862">
        <ele>110.3</ele>
        <time>2021-12-11T09:59:04.000Z</time>
      </trkpt>
      <trkpt lat="48.74346" lon="2.01856">
        <ele>110.5</ele>
        <time>2021-12-11T09:59:10.000Z</time>
      </trkpt>
      <trkpt lat="48.7437" lon="2.01835">
        <ele>112</ele>
        <time>2021-12-11T09:59:30.000Z</time>
      </trkpt>
      <trkpt lat="48.74375" lon="2.01834">
        <ele>112.2</ele>
        <time>2021-12-11T09:59:33.000Z</time>
      </trkpt>
      <trkpt lat="48.74377" lon="2.01833">
        <ele>112.3</ele>
        <time>2021-12-11T09:59:34.000Z</time>
      </trkpt>
      <trkpt lat="48.74378" lon="2.01831">
        <ele>112.4</ele>
        <time>2021-12-11T09:59:35.000Z</time>
      </trkpt>
      <trkpt lat="48.74391" lon="2.01826">
        <ele>113.6</ele>
        <time>2021-12-11T09:59:44.000Z</time>
      </trkpt>
      <trkpt lat="48.74392" lon="2.01826">
        <ele>113.9</ele>
        <time>2021-12-11T09:59:45.000Z</time>
      </trkpt>
      <trkpt lat="48.74393" lon="2.01826">
        <ele>113.9</ele>
        <time>2021-12-11T09:59:46.000Z</time>
      </trkpt>
      <trkpt lat="48.74394" lon="2.01825">
        <ele>114</ele>
        <time>2021-12-11T09:59:47.000Z</time>
      </trkpt>
      <trkpt lat="48.74396" lon="2.01824">
        <ele>114.1</ele>
        <time>2021-12-11T09:59:48.000Z</time>
      </trkpt>
      <trkpt lat="48.74405" lon="2.01819">
        <ele>115.6</ele>
        <time>2021-12-11T09:59:59.000Z</time>
      </trkpt>
      <trkpt lat="48.74409" lon="2.01818">
        <ele>116.3</ele>
        <time>2021-12-11T10:00:02.000Z</time>
      </trkpt>
      <trkpt lat="48.7441" lon="2.01817">
        <ele>116.3</ele>
        <time>2021-12-11T10:00:03.000Z</time>
      </trkpt>
      <trkpt lat="48.74433" lon="2.0181">
        <ele>117.8</ele>
        <time>2021-12-11T10:00:22.000Z</time>
      </trkpt>
      <trkpt lat="48.74438" lon="2.01808">
        <ele>119</ele>
        <time>2021-12-11T10:00:28.000Z</time>
      </trkpt>
      <trkpt lat="48.74441" lon="2.01806">
        <ele>119.4</ele>
        <time>2021-12-11T10:00:30.000Z</time>
      </trkpt>
      <trkpt lat="48.74443" lon="2.01806">
        <ele>119.6</ele>
        <time>2021-12-11T10:00:31.000Z</time>
      </trkpt>
      <trkpt lat="48.7445" lon="2.01806">
        <ele>120.5</ele>
        <time>2021-12-11T10:00:44.000Z</time>
      </trkpt>
      <trkpt lat="48.74455" lon="2.01807">
        <ele>120.3</ele>
        <time>2021-12-11T10:01:05.000Z</time>
      </trkpt>
      <trkpt lat="48.74463" lon="2.01799">
        <ele>119.6</ele>
        <time>2021-12-11T10:01:25.000Z</time>
      </trkpt>
      <trkpt lat="48.74478" lon="2.01791">
        <ele>118.1</ele>
        <time>2021-12-11T10:01:35.000Z</time>
      </trkpt>
      <trkpt lat="48.74488" lon="2.01779">
        <ele>117.1</ele>
        <time>2021-12-11T10:01:43.000Z</time>
      </trkpt>
      <trkpt lat="48.74489" lon="2.01778">
        <ele>117</ele>
        <time>2021-12-11T10:01:44.000Z</time>
      </trkpt>
      <trkpt lat="48.74494" lon="2.0177">
        <ele>116.4</ele>
        <time>2021-12-11T10:01:52.000Z</time>
      </trkpt>
      <trkpt lat="48.74506" lon="2.01766">
        <ele>115.7</ele>
        <time>2021-12-11T10:02:00.000Z</time>
      </trkpt>
      <trkpt lat="48.74507" lon="2.01765">
        <ele>115.7</ele>
        <time>2021-12-11T10:02:01.000Z</time>
      </trkpt>
      <trkpt lat="48.74523" lon="2.01754">
        <ele>114.8</ele>
        <time>2021-12-11T10:02:14.000Z</time>
      </trkpt>
      <trkpt lat="48.74528" lon="2.01752">
        <ele>114.7</ele>
        <time>2021-12-11T10:02:18.000Z</time>
      </trkpt>
      <trkpt lat="48.74535" lon="2.01739">
        <ele>115.3</ele>
        <time>2021-12-11T10:02:34.000Z</time>
      </trkpt>
      <trkpt lat="48.74538" lon="2.01739">
        <ele>115</ele>
        <time>2021-12-11T10:03:04.000Z</time>
      </trkpt>
      <trkpt lat="48.74538" lon="2.01736">
        <ele>115.1</ele>
        <time>2021-12-11T10:03:32.000Z</time>
      </trkpt>
      <trkpt lat="48.74537" lon="2.01729">
        <ele>115.3</ele>
        <time>2021-12-11T10:04:01.000Z</time>
      </trkpt>
      <trkpt lat="48.74541" lon="2.01731">
        <ele>115.2</ele>
        <time>2021-12-11T10:04:26.000Z</time>
      </trkpt>
      <trkpt lat="48.74549" lon="2.01717">
        <ele>114.3</ele>
        <time>2021-12-11T10:04:41.000Z</time>
      </trkpt>
      <trkpt lat="48.74548" lon="2.01701">
        <ele>114</ele>
        <time>2021-12-11T10:04:56.000Z</time>
      </trkpt>
      <trkpt lat="48.74549" lon="2.01659">
        <ele>113.6</ele>
        <time>2021-12-11T10:05:17.000Z</time>
      </trkpt>
      <trkpt lat="48.74549" lon="2.01657">
        <ele>113.8</ele>
        <time>2021-12-11T10:05:18.000Z</time>
      </trkpt>
      <trkpt lat="48.74549" lon="2.01654">
        <ele>113.7</ele>
        <time>2021-12-11T10:05:20.000Z</time>
      </trkpt>
      <trkpt lat="48.74552" lon="2.01628">
        <ele>113.7</ele>
        <time>2021-12-11T10:05:34.000Z</time>
      </trkpt>
      <trkpt lat="48.74552" lon="2.01597">
        <ele>114.6</ele>
        <time>2021-12-11T10:05:50.000Z</time>
      </trkpt>
      <trkpt lat="48.74551" lon="2.01591">
        <ele>114.9</ele>
        <time>2021-12-11T10:05:53.000Z</time>
      </trkpt>
      <trkpt lat="48.7455" lon="2.01589">
        <ele>115</ele>
        <time>2021-12-11T10:05:54.000Z</time>
      </trkpt>
      <trkpt lat="48.7455" lon="2.01587">
        <ele>114.9</ele>
        <time>2021-12-11T10:05:55.000Z</time>
      </trkpt>
      <trkpt lat="48.74549" lon="2.01585">
        <ele>115</ele>
        <time>2021-12-11T10:05:56.000Z</time>
      </trkpt>
      <trkpt lat="48.74549" lon="2.01583">
        <ele>114.9</ele>
        <time>2021-12-11T10:05:57.000Z</time>
      </trkpt>
      <trkpt lat="48.74548" lon="2.01563">
        <ele>114.1</ele>
        <time>2021-12-11T10:06:08.000Z</time>
      </trkpt>
      <trkpt lat="48.74548" lon="2.0156">
        <ele>113.9</ele>
        <time>2021-12-11T10:06:10.000Z</time>
      </trkpt>
      <trkpt lat="48.74548" lon="2.01559">
        <ele>114</ele>
        <time>2021-12-11T10:06:11.000Z</time>
      </trkpt>
      <trkpt lat="48.74547" lon="2.01557">
        <ele>113.9</ele>
        <time>2021-12-11T10:06:12.000Z</time>
      </trkpt>
      <trkpt lat="48.74546" lon="2.01547">
        <ele>113.5</ele>
        <time>2021-12-11T10:06:20.000Z</time>
      </trkpt>
      <trkpt lat="48.74544" lon="2.01546">
        <ele>113.5</ele>
        <time>2021-12-11T10:06:21.000Z</time>
      </trkpt>
      <trkpt lat="48.74543" lon="2.01545">
        <ele>113.4</ele>
        <time>2021-12-11T10:06:22.000Z</time>
      </trkpt>
      <trkpt lat="48.74542" lon="2.01545">
        <ele>113.3</ele>
        <time>2021-12-11T10:06:23.000Z</time>
      </trkpt>
      <trkpt lat="48.74535" lon="2.01533">
        <ele>112.8</ele>
        <time>2021-12-11T10:06:32.000Z</time>
      </trkpt>
      <trkpt lat="48.74535" lon="2.01515">
        <ele>112.5</ele>
        <time>2021-12-11T10:06:48.000Z</time>
      </trkpt>
      <trkpt lat="48.74535" lon="2.01513">
        <ele>112.5</ele>
        <time>2021-12-11T10:06:49.000Z</time>
      </trkpt>
      <trkpt lat="48.74535" lon="2.01511">
        <ele>112.5</ele>
        <time>2021-12-11T10:06:50.000Z</time>
      </trkpt>
      <trkpt lat="48.74534" lon="2.01495">
        <ele>112.4</ele>
        <time>2021-12-11T10:07:00.000Z</time>
      </trkpt>
      <trkpt lat="48.74537" lon="2.01474">
        <ele>112.5</ele>
        <time>2021-12-11T10:07:13.000Z</time>
      </trkpt>
      <trkpt lat="48.74537" lon="2.01472">
        <ele>112.4</ele>
        <time>2021-12-11T10:07:14.000Z</time>
      </trkpt>
      <trkpt lat="48.74552" lon="2.01437">
        <ele>112</ele>
        <time>2021-12-11T10:07:35.000Z</time>
      </trkpt>
      <trkpt lat="48.74575" lon="2.01392">
        <ele>112.2</ele>
        <time>2021-12-11T10:07:58.000Z</time>
      </trkpt>
      <trkpt lat="48.7458" lon="2.01369">
        <ele>112.1</ele>
        <time>2021-12-11T10:08:10.000Z</time>
      </trkpt>
      <trkpt lat="48.74585" lon="2.01325">
        <ele>112.8</ele>
        <time>2021-12-11T10:08:32.000Z</time>
      </trkpt>
      <trkpt lat="48.7459" lon="2.01299">
        <ele>113.2</ele>
        <time>2021-12-11T10:08:47.000Z</time>
      </trkpt>
      <trkpt lat="48.74593" lon="2.01268">
        <ele>113.4</ele>
        <time>2021-12-11T10:09:02.000Z</time>
      </trkpt>
      <trkpt lat="48.74596" lon="2.01248">
        <ele>113.4</ele>
        <time>2021-12-11T10:09:13.000Z</time>
      </trkpt>
      <trkpt lat="48.7461" lon="2.01208">
        <ele>113</ele>
        <time>2021-12-11T10:09:36.000Z</time>
      </trkpt>
      <trkpt lat="48.74632" lon="2.0117">
        <ele>115.2</ele>
        <time>2021-12-11T10:10:00.000Z</time>
      </trkpt>
      <trkpt lat="48.74642" lon="2.01139">
        <ele>115.9</ele>
        <time>2021-12-11T10:10:18.000Z</time>
      </trkpt>
      <trkpt lat="48.74655" lon="2.0111">
        <ele>115.4</ele>
        <time>2021-12-11T10:10:36.000Z</time>
      </trkpt>
      <trkpt lat="48.74664" lon="2.0108">
        <ele>116</ele>
        <time>2021-12-11T10:10:53.000Z</time>
      </trkpt>
      <trkpt lat="48.74668" lon="2.01057">
        <ele>116.4</ele>
        <time>2021-12-11T10:11:06.000Z</time>
      </trkpt>
      <trkpt lat="48.7467" lon="2.01045">
        <ele>116.6</ele>
        <time>2021-12-11T10:11:17.000Z</time>
      </trkpt>
      <trkpt lat="48.74673" lon="2.0102">
        <ele>115.8</ele>
        <time>2021-12-11T10:11:29.000Z</time>
      </trkpt>
      <trkpt lat="48.74672" lon="2.00993">
        <ele>114.6</ele>
        <time>2021-12-11T10:11:45.000Z</time>
      </trkpt>
      <trkpt lat="48.74667" lon="2.00969">
        <ele>114.5</ele>
        <time>2021-12-11T10:11:54.000Z</time>
      </trkpt>
      <trkpt lat="48.74666" lon="2.00952">
        <ele>115.4</ele>
        <time>2021-12-11T10:12:02.000Z</time>
      </trkpt>
      <trkpt lat="48.74667" lon="2.00947">
        <ele>115.3</ele>
        <time>2021-12-11T10:12:05.000Z</time>
      </trkpt>
      <trkpt lat="48.74667" lon="2.00945">
        <ele>115.3</ele>
        <time>2021-12-11T10:12:06.000Z</time>
      </trkpt>
      <trkpt lat="48.74668" lon="2.00944">
        <ele>115.2</ele>
        <time>2021-12-11T10:12:07.000Z</time>
      </trkpt>
      <trkpt lat="48.74668" lon="2.00942">
        <ele>115.2</ele>
        <time>2021-12-11T10:12:08.000Z</time>
      </trkpt>
      <trkpt lat="48.74669" lon="2.00925">
        <ele>115.5</ele>
        <time>2021-12-11T10:12:18.000Z</time>
      </trkpt>
      <trkpt lat="48.74664" lon="2.00897">
        <ele>115.5</ele>
        <time>2021-12-11T10:12:32.000Z</time>
      </trkpt>
      <trkpt lat="48.74659" lon="2.0088">
        <ele>115.8</ele>
        <time>2021-12-11T10:12:42.000Z</time>
      </trkpt>
      <trkpt lat="48.74657" lon="2.00832">
        <ele>116.7</ele>
        <time>2021-12-11T10:13:06.000Z</time>
      </trkpt>
      <trkpt lat="48.74662" lon="2.00791">
        <ele>117.2</ele>
        <time>2021-12-11T10:13:26.000Z</time>
      </trkpt>
      <trkpt lat="48.74665" lon="2.00785">
        <ele>117</ele>
        <time>2021-12-11T10:13:29.000Z</time>
      </trkpt>
      <trkpt lat="48.74666" lon="2.00781">
        <ele>116.7</ele>
        <time>2021-12-11T10:13:31.000Z</time>
      </trkpt>
      <trkpt lat="48.74672" lon="2.00759">
        <ele>115.7</ele>
        <time>2021-12-11T10:13:45.000Z</time>
      </trkpt>
      <trkpt lat="48.74686" lon="2.00729">
        <ele>115.3</ele>
        <time>2021-12-11T10:14:03.000Z</time>
      </trkpt>
      <trkpt lat="48.74694" lon="2.00712">
        <ele>114.9</ele>
        <time>2021-12-11T10:14:15.000Z</time>
      </trkpt>
      <trkpt lat="48.7471" lon="2.00684">
        <ele>115.9</ele>
        <time>2021-12-11T10:14:33.000Z</time>
      </trkpt>
      <trkpt lat="48.7472" lon="2.00664">
        <ele>115.2</ele>
        <time>2021-12-11T10:14:47.000Z</time>
      </trkpt>
      <trkpt lat="48.74724" lon="2.0065">
        <ele>114.5</ele>
        <time>2021-12-11T10:15:00.000Z</time>
      </trkpt>
      <trkpt lat="48.74722" lon="2.00635">
        <ele>114.5</ele>
        <time>2021-12-11T10:15:15.000Z</time>
      </trkpt>
      <trkpt lat="48.7472" lon="2.00622">
        <ele>114.3</ele>
        <time>2021-12-11T10:15:28.000Z</time>
      </trkpt>
      <trkpt lat="48.74712" lon="2.00602">
        <ele>114.3</ele>
        <time>2021-12-11T10:15:42.000Z</time>
      </trkpt>
      <trkpt lat="48.74702" lon="2.00555">
        <ele>116.7</ele>
        <time>2021-12-11T10:16:05.000Z</time>
      </trkpt>
      <trkpt lat="48.74703" lon="2.00534">
        <ele>118.4</ele>
        <time>2021-12-11T10:16:14.000Z</time>
      </trkpt>
      <trkpt lat="48.747" lon="2.00527">
        <ele>119</ele>
        <time>2021-12-11T10:16:28.000Z</time>
      </trkpt>
      <trkpt lat="48.74699" lon="2.00524">
        <ele>119.1</ele>
        <time>2021-12-11T10:16:50.000Z</time>
      </trkpt>
      <trkpt lat="48.74697" lon="2.00533">
        <ele>118.1</ele>
        <time>2021-12-11T10:17:19.000Z</time>
      </trkpt>
      <trkpt lat="48.74697" lon="2.00558">
        <ele>115.1</ele>
        <time>2021-12-11T10:17:36.000Z</time>
      </trkpt>
      <trkpt lat="48.74705" lon="2.00575">
        <ele>113.9</ele>
        <time>2021-12-11T10:17:51.000Z</time>
      </trkpt>
      <trkpt lat="48.74715" lon="2.00599">
        <ele>113.2</ele>
        <time>2021-12-11T10:18:11.000Z</time>
      </trkpt>
      <trkpt lat="48.74724" lon="2.00623">
        <ele>113.2</ele>
        <time>2021-12-11T10:18:29.000Z</time>
      </trkpt>
      <trkpt lat="48.74731" lon="2.00638">
        <ele>116.6</ele>
        <time>2021-12-11T10:18:44.000Z</time>
      </trkpt>
      <trkpt lat="48.74731" lon="2.0064">
        <ele>116.8</ele>
        <time>2021-12-11T10:18:45.000Z</time>
      </trkpt>
      <trkpt lat="48.74732" lon="2.00641">
        <ele>116.9</ele>
        <time>2021-12-11T10:18:46.000Z</time>
      </trkpt>
      <trkpt lat="48.74743" lon="2.00625">
        <ele>117.9</ele>
        <time>2021-12-11T10:19:08.000Z</time>
      </trkpt>
      <trkpt lat="48.7475" lon="2.0061">
        <ele>118.5</ele>
        <time>2021-12-11T10:19:21.000Z</time>
      </trkpt>
      <trkpt lat="48.74751" lon="2.00593">
        <ele>120.1</ele>
        <time>2021-12-11T10:19:39.000Z</time>
      </trkpt>
      <trkpt lat="48.7475" lon="2.00591">
        <ele>119.8</ele>
        <time>2021-12-11T10:19:40.000Z</time>
      </trkpt>
      <trkpt lat="48.7475" lon="2.00589">
        <ele>119.8</ele>
        <time>2021-12-11T10:19:41.000Z</time>
      </trkpt>
      <trkpt lat="48.74756" lon="2.00566">
        <ele>121.9</ele>
        <time>2021-12-11T10:19:58.000Z</time>
      </trkpt>
      <trkpt lat="48.74762" lon="2.0053">
        <ele>124.4</ele>
        <time>2021-12-11T10:20:20.000Z</time>
      </trkpt>
      <trkpt lat="48.74768" lon="2.00502">
        <ele>126.1</ele>
        <time>2021-12-11T10:20:40.000Z</time>
      </trkpt>
      <trkpt lat="48.74775" lon="2.00477">
        <ele>128.7</ele>
        <time>2021-12-11T10:21:00.000Z</time>
      </trkpt>
      <trkpt lat="48.74777" lon="2.00445">
        <ele>130.2</ele>
        <time>2021-12-11T10:21:20.000Z</time>
      </trkpt>
      <trkpt lat="48.74776" lon="2.00409">
        <ele>132.9</ele>
        <time>2021-12-11T10:21:41.000Z</time>
      </trkpt>
      <trkpt lat="48.74775" lon="2.00374">
        <ele>135.2</ele>
        <time>2021-12-11T10:22:04.000Z</time>
      </trkpt>
      <trkpt lat="48.74773" lon="2.00338">
        <ele>136.9</ele>
        <time>2021-12-11T10:22:25.000Z</time>
      </trkpt>
      <trkpt lat="48.74771" lon="2.00309">
        <ele>139.4</ele>
        <time>2021-12-11T10:22:44.000Z</time>
      </trkpt>
      <trkpt lat="48.74765" lon="2.00295">
        <ele>138.9</ele>
        <time>2021-12-11T10:22:54.000Z</time>
      </trkpt>
      <trkpt lat="48.74765" lon="2.00293">
        <ele>139</ele>
        <time>2021-12-11T10:22:55.000Z</time>
      </trkpt>
      <trkpt lat="48.74763" lon="2.0029">
        <ele>138.9</ele>
        <time>2021-12-11T10:22:57.000Z</time>
      </trkpt>
      <trkpt lat="48.74758" lon="2.00279">
        <ele>140.3</ele>
        <time>2021-12-11T10:23:05.000Z</time>
      </trkpt>
      <trkpt lat="48.74757" lon="2.00278">
        <ele>140.6</ele>
        <time>2021-12-11T10:23:06.000Z</time>
      </trkpt>
      <trkpt lat="48.74756" lon="2.00276">
        <ele>140.8</ele>
        <time>2021-12-11T10:23:07.000Z</time>
      </trkpt>
      <trkpt lat="48.74755" lon="2.00272">
        <ele>140.8</ele>
        <time>2021-12-11T10:23:09.000Z</time>
      </trkpt>
      <trkpt lat="48.74755" lon="2.0027">
        <ele>140.8</ele>
        <time>2021-12-11T10:23:10.000Z</time>
      </trkpt>
      <trkpt lat="48.74755" lon="2.00268">
        <ele>140.8</ele>
        <time>2021-12-11T10:23:11.000Z</time>
      </trkpt>
      <trkpt lat="48.74756" lon="2.00266">
        <ele>140.9</ele>
        <time>2021-12-11T10:23:12.000Z</time>
      </trkpt>
      <trkpt lat="48.74756" lon="2.00264">
        <ele>141</ele>
        <time>2021-12-11T10:23:13.000Z</time>
      </trkpt>
      <trkpt lat="48.74756" lon="2.00262">
        <ele>141</ele>
        <time>2021-12-11T10:23:14.000Z</time>
      </trkpt>
      <trkpt lat="48.74756" lon="2.00244">
        <ele>141.3</ele>
        <time>2021-12-11T10:23:23.000Z</time>
      </trkpt>
      <trkpt lat="48.74757" lon="2.00243">
        <ele>141.4</ele>
        <time>2021-12-11T10:23:24.000Z</time>
      </trkpt>
      <trkpt lat="48.74766" lon="2.00232">
        <ele>143.8</ele>
        <time>2021-12-11T10:23:37.000Z</time>
      </trkpt>
      <trkpt lat="48.74767" lon="2.00231">
        <ele>144.4</ele>
        <time>2021-12-11T10:23:38.000Z</time>
      </trkpt>
      <trkpt lat="48.74769" lon="2.00229">
        <ele>145.6</ele>
        <time>2021-12-11T10:23:41.000Z</time>
      </trkpt>
      <trkpt lat="48.74779" lon="2.00221">
        <ele>148.6</ele>
        <time>2021-12-11T10:23:52.000Z</time>
      </trkpt>
      <trkpt lat="48.74788" lon="2.00218">
        <ele>152.5</ele>
        <time>2021-12-11T10:24:04.000Z</time>
      </trkpt>
      <trkpt lat="48.74796" lon="2.00219">
        <ele>154.5</ele>
        <time>2021-12-11T10:24:19.000Z</time>
      </trkpt>
      <trkpt lat="48.74798" lon="2.00219">
        <ele>154.5</ele>
        <time>2021-12-11T10:24:37.000Z</time>
      </trkpt>
      <trkpt lat="48.74803" lon="2.00211">
        <ele>154.9</ele>
        <time>2021-12-11T10:24:54.000Z</time>
      </trkpt>
      <trkpt lat="48.74812" lon="2.00199">
        <ele>155.6</ele>
        <time>2021-12-11T10:25:12.000Z</time>
      </trkpt>
      <trkpt lat="48.74817" lon="2.00193">
        <ele>155.7</ele>
        <time>2021-12-11T10:25:17.000Z</time>
      </trkpt>
      <trkpt lat="48.7483" lon="2.00169">
        <ele>155.7</ele>
        <time>2021-12-11T10:25:32.000Z</time>
      </trkpt>
      <trkpt lat="48.74837" lon="2.00155">
        <ele>155.5</ele>
        <time>2021-12-11T10:25:41.000Z</time>
      </trkpt>
      <trkpt lat="48.74837" lon="2.00136">
        <ele>155.5</ele>
        <time>2021-12-11T10:25:55.000Z</time>
      </trkpt>
      <trkpt lat="48.74839" lon="2.00126">
        <ele>155.5</ele>
        <time>2021-12-11T10:26:01.000Z</time>
      </trkpt>
      <trkpt lat="48.74841" lon="2.0012">
        <ele>155.4</ele>
        <time>2021-12-11T10:26:05.000Z</time>
      </trkpt>
      <trkpt lat="48.74846" lon="2.00098">
        <ele>153</ele>
        <time>2021-12-11T10:26:21.000Z</time>
      </trkpt>
      <trkpt lat="48.74847" lon="2.00081">
        <ele>149.9</ele>
        <time>2021-12-11T10:26:36.000Z</time>
      </trkpt>
      <trkpt lat="48.74848" lon="2.00057">
        <ele>147.8</ele>
        <time>2021-12-11T10:26:48.000Z</time>
      </trkpt>
      <trkpt lat="48.74848" lon="2.00029">
        <ele>144.9</ele>
        <time>2021-12-11T10:27:04.000Z</time>
      </trkpt>
      <trkpt lat="48.74844" lon="2.00007">
        <ele>145.3</ele>
        <time>2021-12-11T10:27:24.000Z</time>
      </trkpt>
      <trkpt lat="48.74843" lon="1.99976">
        <ele>144.1</ele>
        <time>2021-12-11T10:27:41.000Z</time>
      </trkpt>
      <trkpt lat="48.74844" lon="1.99954">
        <ele>145.6</ele>
        <time>2021-12-11T10:27:56.000Z</time>
      </trkpt>
      <trkpt lat="48.74846" lon="1.99952">
        <ele>146</ele>
        <time>2021-12-11T10:27:58.000Z</time>
      </trkpt>
      <trkpt lat="48.74851" lon="1.99945">
        <ele>147.7</ele>
        <time>2021-12-11T10:28:06.000Z</time>
      </trkpt>
      <trkpt lat="48.74858" lon="1.99926">
        <ele>149.2</ele>
        <time>2021-12-11T10:28:19.000Z</time>
      </trkpt>
      <trkpt lat="48.74862" lon="1.99908">
        <ele>151.1</ele>
        <time>2021-12-11T10:28:31.000Z</time>
      </trkpt>
      <trkpt lat="48.74865" lon="1.99895">
        <ele>152.7</ele>
        <time>2021-12-11T10:28:43.000Z</time>
      </trkpt>
      <trkpt lat="48.74867" lon="1.9989">
        <ele>153.1</ele>
        <time>2021-12-11T10:28:47.000Z</time>
      </trkpt>
      <trkpt lat="48.74876" lon="1.9986">
        <ele>155.5</ele>
        <time>2021-12-11T10:29:05.000Z</time>
      </trkpt>
      <trkpt lat="48.74872" lon="1.99827">
        <ele>156.3</ele>
        <time>2021-12-11T10:29:25.000Z</time>
      </trkpt>
      <trkpt lat="48.74866" lon="1.99799">
        <ele>155.3</ele>
        <time>2021-12-11T10:29:40.000Z</time>
      </trkpt>
      <trkpt lat="48.74863" lon="1.99792">
        <ele>155.2</ele>
        <time>2021-12-11T10:29:44.000Z</time>
      </trkpt>
      <trkpt lat="48.74861" lon="1.99778">
        <ele>155.2</ele>
        <time>2021-12-11T10:29:52.000Z</time>
      </trkpt>
      <trkpt lat="48.74861" lon="1.99771">
        <ele>154.4</ele>
        <time>2021-12-11T10:29:56.000Z</time>
      </trkpt>
      <trkpt lat="48.74858" lon="1.99756">
        <ele>153.6</ele>
        <time>2021-12-11T10:30:04.000Z</time>
      </trkpt>
      <trkpt lat="48.74855" lon="1.99729">
        <ele>153.5</ele>
        <time>2021-12-11T10:30:18.000Z</time>
      </trkpt>
      <trkpt lat="48.74849" lon="1.99708">
        <ele>151.9</ele>
        <time>2021-12-11T10:30:33.000Z</time>
      </trkpt>
      <trkpt lat="48.7485" lon="1.99672">
        <ele>150.2</ele>
        <time>2021-12-11T10:30:53.000Z</time>
      </trkpt>
      <trkpt lat="48.74854" lon="1.9963">
        <ele>148.1</ele>
        <time>2021-12-11T10:31:14.000Z</time>
      </trkpt>
      <trkpt lat="48.74863" lon="1.99607">
        <ele>147.1</ele>
        <time>2021-12-11T10:31:31.000Z</time>
      </trkpt>
      <trkpt lat="48.74862" lon="1.99604">
        <ele>146.5</ele>
        <time>2021-12-11T10:31:33.000Z</time>
      </trkpt>
      <trkpt lat="48.74868" lon="1.99582">
        <ele>144.7</ele>
        <time>2021-12-11T10:31:45.000Z</time>
      </trkpt>
      <trkpt lat="48.74873" lon="1.99559">
        <ele>143.2</ele>
        <time>2021-12-11T10:32:05.000Z</time>
      </trkpt>
      <trkpt lat="48.74872" lon="1.99531">
        <ele>144.6</ele>
        <time>2021-12-11T10:32:24.000Z</time>
      </trkpt>
      <trkpt lat="48.74868" lon="1.99502">
        <ele>148.1</ele>
        <time>2021-12-11T10:32:43.000Z</time>
      </trkpt>
      <trkpt lat="48.74859" lon="1.9948">
        <ele>150.1</ele>
        <time>2021-12-11T10:32:59.000Z</time>
      </trkpt>
      <trkpt lat="48.74858" lon="1.99457">
        <ele>150</ele>
        <time>2021-12-11T10:33:14.000Z</time>
      </trkpt>
      <trkpt lat="48.74864" lon="1.99431">
        <ele>150.6</ele>
        <time>2021-12-11T10:33:31.000Z</time>
      </trkpt>
      <trkpt lat="48.74867" lon="1.99426">
        <ele>151.1</ele>
        <time>2021-12-11T10:33:35.000Z</time>
      </trkpt>
      <trkpt lat="48.74871" lon="1.99421">
        <ele>152</ele>
        <time>2021-12-11T10:33:40.000Z</time>
      </trkpt>
      <trkpt lat="48.74882" lon="1.9941">
        <ele>153</ele>
        <time>2021-12-11T10:33:49.000Z</time>
      </trkpt>
      <trkpt lat="48.74893" lon="1.994">
        <ele>153.9</ele>
        <time>2021-12-11T10:34:03.000Z</time>
      </trkpt>
      <trkpt lat="48.74897" lon="1.99379">
        <ele>154.7</ele>
        <time>2021-12-11T10:34:19.000Z</time>
      </trkpt>
      <trkpt lat="48.74898" lon="1.99378">
        <ele>154.8</ele>
        <time>2021-12-11T10:34:35.000Z</time>
      </trkpt>
      <trkpt lat="48.74901" lon="1.99372">
        <ele>154.2</ele>
        <time>2021-12-11T10:35:04.000Z</time>
      </trkpt>
      <trkpt lat="48.74898" lon="1.99369">
        <ele>154.2</ele>
        <time>2021-12-11T10:35:36.000Z</time>
      </trkpt>
      <trkpt lat="48.74891" lon="1.99374">
        <ele>154.2</ele>
        <time>2021-12-11T10:36:06.000Z</time>
      </trkpt>
      <trkpt lat="48.7489" lon="1.99378">
        <ele>154.1</ele>
        <time>2021-12-11T10:36:36.000Z</time>
      </trkpt>
      <trkpt lat="48.74895" lon="1.99379">
        <ele>154.9</ele>
        <time>2021-12-11T10:37:02.000Z</time>
      </trkpt>
      <trkpt lat="48.74891" lon="1.99366">
        <ele>154.5</ele>
        <time>2021-12-11T10:37:20.000Z</time>
      </trkpt>
      <trkpt lat="48.74883" lon="1.99345">
        <ele>153.8</ele>
        <time>2021-12-11T10:37:37.000Z</time>
      </trkpt>
      <trkpt lat="48.74875" lon="1.99314">
        <ele>151.3</ele>
        <time>2021-12-11T10:37:56.000Z</time>
      </trkpt>
      <trkpt lat="48.74867" lon="1.99296">
        <ele>149.4</ele>
        <time>2021-12-11T10:38:08.000Z</time>
      </trkpt>
      <trkpt lat="48.74856" lon="1.99283">
        <ele>147.1</ele>
        <time>2021-12-11T10:38:22.000Z</time>
      </trkpt>
      <trkpt lat="48.7485" lon="1.99273">
        <ele>143.8</ele>
        <time>2021-12-11T10:38:33.000Z</time>
      </trkpt>
      <trkpt lat="48.74838" lon="1.99261">
        <ele>140.7</ele>
        <time>2021-12-11T10:38:47.000Z</time>
      </trkpt>
      <trkpt lat="48.74831" lon="1.99243">
        <ele>138.1</ele>
        <time>2021-12-11T10:39:00.000Z</time>
      </trkpt>
      <trkpt lat="48.74826" lon="1.99222">
        <ele>136.5</ele>
        <time>2021-12-11T10:39:15.000Z</time>
      </trkpt>
      <trkpt lat="48.74819" lon="1.99198">
        <ele>135.4</ele>
        <time>2021-12-11T10:39:29.000Z</time>
      </trkpt>
      <trkpt lat="48.74819" lon="1.99197">
        <ele>135.1</ele>
        <time>2021-12-11T10:39:30.000Z</time>
      </trkpt>
      <trkpt lat="48.74822" lon="1.99172">
        <ele>134.7</ele>
        <time>2021-12-11T10:39:46.000Z</time>
      </trkpt>
      <trkpt lat="48.74824" lon="1.99163">
        <ele>134.6</ele>
        <time>2021-12-11T10:39:55.000Z</time>
      </trkpt>
      <trkpt lat="48.74828" lon="1.99139">
        <ele>134.5</ele>
        <time>2021-12-11T10:40:13.000Z</time>
      </trkpt>
      <trkpt lat="48.74831" lon="1.99125">
        <ele>134.4</ele>
        <time>2021-12-11T10:40:25.000Z</time>
      </trkpt>
      <trkpt lat="48.74831" lon="1.99124">
        <ele>134.6</ele>
        <time>2021-12-11T10:40:26.000Z</time>
      </trkpt>
      <trkpt lat="48.74835" lon="1.99107">
        <ele>134.7</ele>
        <time>2021-12-11T10:40:37.000Z</time>
      </trkpt>
      <trkpt lat="48.74841" lon="1.99098">
        <ele>134.6</ele>
        <time>2021-12-11T10:40:44.000Z</time>
      </trkpt>
      <trkpt lat="48.7487" lon="1.99045">
        <ele>134.8</ele>
        <time>2021-12-11T10:41:16.000Z</time>
      </trkpt>
      <trkpt lat="48.74877" lon="1.99031">
        <ele>134.8</ele>
        <time>2021-12-11T10:41:25.000Z</time>
      </trkpt>
      <trkpt lat="48.74881" lon="1.99022">
        <ele>135.2</ele>
        <time>2021-12-11T10:41:32.000Z</time>
      </trkpt>
      <trkpt lat="48.74882" lon="1.99021">
        <ele>135.2</ele>
        <time>2021-12-11T10:41:35.000Z</time>
      </trkpt>
      <trkpt lat="48.74886" lon="1.99016">
        <ele>135.4</ele>
        <time>2021-12-11T10:41:38.000Z</time>
      </trkpt>
      <trkpt lat="48.74895" lon="1.9901">
        <ele>135.4</ele>
        <time>2021-12-11T10:41:46.000Z</time>
      </trkpt>
      <trkpt lat="48.74897" lon="1.99005">
        <ele>135.2</ele>
        <time>2021-12-11T10:41:50.000Z</time>
      </trkpt>
      <trkpt lat="48.74902" lon="1.99005">
        <ele>134.9</ele>
        <time>2021-12-11T10:41:57.000Z</time>
      </trkpt>
      <trkpt lat="48.74907" lon="1.99004">
        <ele>135</ele>
        <time>2021-12-11T10:42:01.000Z</time>
      </trkpt>
      <trkpt lat="48.74911" lon="1.99">
        <ele>134.8</ele>
        <time>2021-12-11T10:42:05.000Z</time>
      </trkpt>
      <trkpt lat="48.74926" lon="1.9899">
        <ele>134.8</ele>
        <time>2021-12-11T10:42:19.000Z</time>
      </trkpt>
      <trkpt lat="48.74927" lon="1.98986">
        <ele>134.8</ele>
        <time>2021-12-11T10:42:22.000Z</time>
      </trkpt>
      <trkpt lat="48.74944" lon="1.9897">
        <ele>134.3</ele>
        <time>2021-12-11T10:42:36.000Z</time>
      </trkpt>
      <trkpt lat="48.74953" lon="1.98964">
        <ele>134.3</ele>
        <time>2021-12-11T10:42:42.000Z</time>
      </trkpt>
      <trkpt lat="48.74961" lon="1.98944">
        <ele>134.5</ele>
        <time>2021-12-11T10:42:53.000Z</time>
      </trkpt>
      <trkpt lat="48.7497" lon="1.98934">
        <ele>134.5</ele>
        <time>2021-12-11T10:43:00.000Z</time>
      </trkpt>
      <trkpt lat="48.74983" lon="1.98918">
        <ele>134.5</ele>
        <time>2021-12-11T10:43:12.000Z</time>
      </trkpt>
      <trkpt lat="48.74993" lon="1.98896">
        <ele>134.6</ele>
        <time>2021-12-11T10:43:25.000Z</time>
      </trkpt>
      <trkpt lat="48.74999" lon="1.98863">
        <ele>134.5</ele>
        <time>2021-12-11T10:43:42.000Z</time>
      </trkpt>
      <trkpt lat="48.74999" lon="1.98859">
        <ele>134.2</ele>
        <time>2021-12-11T10:43:44.000Z</time>
      </trkpt>
      <trkpt lat="48.75002" lon="1.98846">
        <ele>134.7</ele>
        <time>2021-12-11T10:43:53.000Z</time>
      </trkpt>
      <trkpt lat="48.75006" lon="1.9884">
        <ele>134.5</ele>
        <time>2021-12-11T10:44:02.000Z</time>
      </trkpt>
      <trkpt lat="48.75008" lon="1.98838">
        <ele>134.6</ele>
        <time>2021-12-11T10:44:05.000Z</time>
      </trkpt>
      <trkpt lat="48.75012" lon="1.98806">
        <ele>134.6</ele>
        <time>2021-12-11T10:44:21.000Z</time>
      </trkpt>
      <trkpt lat="48.75018" lon="1.98786">
        <ele>134.5</ele>
        <time>2021-12-11T10:44:34.000Z</time>
      </trkpt>
      <trkpt lat="48.75021" lon="1.98783">
        <ele>134.5</ele>
        <time>2021-12-11T10:44:39.000Z</time>
      </trkpt>
      <trkpt lat="48.75024" lon="1.98763">
        <ele>134.8</ele>
        <time>2021-12-11T10:44:50.000Z</time>
      </trkpt>
      <trkpt lat="48.75027" lon="1.98756">
        <ele>134.7</ele>
        <time>2021-12-11T10:44:54.000Z</time>
      </trkpt>
      <trkpt lat="48.75028" lon="1.98752">
        <ele>134.8</ele>
        <time>2021-12-11T10:44:56.000Z</time>
      </trkpt>
      <trkpt lat="48.75037" lon="1.98736">
        <ele>134.8</ele>
        <time>2021-12-11T10:45:06.000Z</time>
      </trkpt>
      <trkpt lat="48.75047" lon="1.98707">
        <ele>134.9</ele>
        <time>2021-12-11T10:45:19.000Z</time>
      </trkpt>
      <trkpt lat="48.75053" lon="1.98686">
        <ele>134.9</ele>
        <time>2021-12-11T10:45:31.000Z</time>
      </trkpt>
      <trkpt lat="48.75061" lon="1.9867">
        <ele>135.4</ele>
        <time>2021-12-11T10:45:40.000Z</time>
      </trkpt>
      <trkpt lat="48.7507" lon="1.98652">
        <ele>135.6</ele>
        <time>2021-12-11T10:45:51.000Z</time>
      </trkpt>
      <trkpt lat="48.75079" lon="1.98638">
        <ele>136</ele>
        <time>2021-12-11T10:46:00.000Z</time>
      </trkpt>
      <trkpt lat="48.75089" lon="1.98605">
        <ele>136.8</ele>
        <time>2021-12-11T10:46:14.000Z</time>
      </trkpt>
      <trkpt lat="48.75098" lon="1.9859">
        <ele>137.3</ele>
        <time>2021-12-11T10:46:30.000Z</time>
      </trkpt>
      <trkpt lat="48.751" lon="1.98589">
        <ele>137.5</ele>
        <time>2021-12-11T10:46:33.000Z</time>
      </trkpt>
      <trkpt lat="48.75103" lon="1.98585">
        <ele>137.5</ele>
        <time>2021-12-11T10:46:36.000Z</time>
      </trkpt>
      <trkpt lat="48.7511" lon="1.98579">
        <ele>137.6</ele>
        <time>2021-12-11T10:46:42.000Z</time>
      </trkpt>
      <trkpt lat="48.75126" lon="1.98551">
        <ele>138.5</ele>
        <time>2021-12-11T10:46:56.000Z</time>
      </trkpt>
      <trkpt lat="48.75131" lon="1.98534">
        <ele>138.8</ele>
        <time>2021-12-11T10:47:08.000Z</time>
      </trkpt>
      <trkpt lat="48.75136" lon="1.98512">
        <ele>139.4</ele>
        <time>2021-12-11T10:47:22.000Z</time>
      </trkpt>
      <trkpt lat="48.75136" lon="1.98502">
        <ele>139.2</ele>
        <time>2021-12-11T10:47:27.000Z</time>
      </trkpt>
      <trkpt lat="48.75131" lon="1.98489">
        <ele>139.8</ele>
        <time>2021-12-11T10:47:35.000Z</time>
      </trkpt>
      <trkpt lat="48.7512" lon="1.98465">
        <ele>140.8</ele>
        <time>2021-12-11T10:47:48.000Z</time>
      </trkpt>
      <trkpt lat="48.75113" lon="1.98443">
        <ele>142.2</ele>
        <time>2021-12-11T10:48:02.000Z</time>
      </trkpt>
      <trkpt lat="48.7511" lon="1.98436">
        <ele>142.7</ele>
        <time>2021-12-11T10:48:06.000Z</time>
      </trkpt>
      <trkpt lat="48.75106" lon="1.98426">
        <ele>143.3</ele>
        <time>2021-12-11T10:48:12.000Z</time>
      </trkpt>
      <trkpt lat="48.75095" lon="1.98398">
        <ele>144.8</ele>
        <time>2021-12-11T10:48:28.000Z</time>
      </trkpt>
      <trkpt lat="48.75084" lon="1.98373">
        <ele>145.3</ele>
        <time>2021-12-11T10:48:41.000Z</time>
      </trkpt>
      <trkpt lat="48.75078" lon="1.98355">
        <ele>145.6</ele>
        <time>2021-12-11T10:48:51.000Z</time>
      </trkpt>
      <trkpt lat="48.75066" lon="1.98328">
        <ele>146.2</ele>
        <time>2021-12-11T10:49:06.000Z</time>
      </trkpt>
      <trkpt lat="48.75055" lon="1.98305">
        <ele>146.5</ele>
        <time>2021-12-11T10:49:20.000Z</time>
      </trkpt>
      <trkpt lat="48.75047" lon="1.98289">
        <ele>146.7</ele>
        <time>2021-12-11T10:49:31.000Z</time>
      </trkpt>
      <trkpt lat="48.75045" lon="1.98286">
        <ele>147</ele>
        <time>2021-12-11T10:49:34.000Z</time>
      </trkpt>
      <trkpt lat="48.7504" lon="1.98277">
        <ele>147</ele>
        <time>2021-12-11T10:49:40.000Z</time>
      </trkpt>
      <trkpt lat="48.75036" lon="1.98268">
        <ele>147.2</ele>
        <time>2021-12-11T10:49:44.000Z</time>
      </trkpt>
      <trkpt lat="48.75035" lon="1.98266">
        <ele>147.2</ele>
        <time>2021-12-11T10:49:45.000Z</time>
      </trkpt>
      <trkpt lat="48.75034" lon="1.98265">
        <ele>147.2</ele>
        <time>2021-12-11T10:49:46.000Z</time>
      </trkpt>
      <trkpt lat="48.75033" lon="1.98264">
        <ele>147.2</ele>
        <time>2021-12-11T10:49:47.000Z</time>
      </trkpt>
      <trkpt lat="48.75032" lon="1.98262">
        <ele>147.3</ele>
        <time>2021-12-11T10:49:48.000Z</time>
      </trkpt>
      <trkpt lat="48.75031" lon="1.98261">
        <ele>147.3</ele>
        <time>2021-12-11T10:49:49.000Z</time>
      </trkpt>
      <trkpt lat="48.75026" lon="1.98255">
        <ele>147.4</ele>
        <time>2021-12-11T10:49:55.000Z</time>
      </trkpt>
      <trkpt lat="48.75026" lon="1.98253">
        <ele>147.4</ele>
        <time>2021-12-11T10:49:56.000Z</time>
      </trkpt>
      <trkpt lat="48.75025" lon="1.98251">
        <ele>147.4</ele>
        <time>2021-12-11T10:49:57.000Z</time>
      </trkpt>
      <trkpt lat="48.75016" lon="1.98237">
        <ele>147.7</ele>
        <time>2021-12-11T10:50:07.000Z</time>
      </trkpt>
      <trkpt lat="48.75015" lon="1.98235">
        <ele>147.7</ele>
        <time>2021-12-11T10:50:08.000Z</time>
      </trkpt>
      <trkpt lat="48.75014" lon="1.98234">
        <ele>147.7</ele>
        <time>2021-12-11T10:50:09.000Z</time>
      </trkpt>
      <trkpt lat="48.75013" lon="1.98232">
        <ele>147.7</ele>
        <time>2021-12-11T10:50:10.000Z</time>
      </trkpt>
      <trkpt lat="48.75012" lon="1.9823">
        <ele>147.8</ele>
        <time>2021-12-11T10:50:11.000Z</time>
      </trkpt>
      <trkpt lat="48.75012" lon="1.98228">
        <ele>147.8</ele>
        <time>2021-12-11T10:50:12.000Z</time>
      </trkpt>
      <trkpt lat="48.75011" lon="1.98227">
        <ele>147.7</ele>
        <time>2021-12-11T10:50:13.000Z</time>
      </trkpt>
      <trkpt lat="48.7501" lon="1.98225">
        <ele>147.7</ele>
        <time>2021-12-11T10:50:14.000Z</time>
      </trkpt>
      <trkpt lat="48.75009" lon="1.98224">
        <ele>147.7</ele>
        <time>2021-12-11T10:50:15.000Z</time>
      </trkpt>
      <trkpt lat="48.74997" lon="1.982">
        <ele>148</ele>
        <time>2021-12-11T10:50:30.000Z</time>
      </trkpt>
      <trkpt lat="48.74982" lon="1.98173">
        <ele>148.6</ele>
        <time>2021-12-11T10:50:47.000Z</time>
      </trkpt>
      <trkpt lat="48.74977" lon="1.98165">
        <ele>148.4</ele>
        <time>2021-12-11T10:50:53.000Z</time>
      </trkpt>
      <trkpt lat="48.74967" lon="1.98148">
        <ele>148.3</ele>
        <time>2021-12-11T10:51:06.000Z</time>
      </trkpt>
      <trkpt lat="48.74958" lon="1.98131">
        <ele>148.3</ele>
        <time>2021-12-11T10:51:17.000Z</time>
      </trkpt>
      <trkpt lat="48.74952" lon="1.9812">
        <ele>148.5</ele>
        <time>2021-12-11T10:51:25.000Z</time>
      </trkpt>
      <trkpt lat="48.74951" lon="1.98118">
        <ele>148.4</ele>
        <time>2021-12-11T10:51:26.000Z</time>
      </trkpt>
      <trkpt lat="48.7495" lon="1.98116">
        <ele>148.5</ele>
        <time>2021-12-11T10:51:27.000Z</time>
      </trkpt>
      <trkpt lat="48.74949" lon="1.98113">
        <ele>148.5</ele>
        <time>2021-12-11T10:51:28.000Z</time>
      </trkpt>
      <trkpt lat="48.74948" lon="1.98111">
        <ele>148.7</ele>
        <time>2021-12-11T10:51:29.000Z</time>
      </trkpt>
      <trkpt lat="48.74947" lon="1.9811">
        <ele>148.5</ele>
        <time>2021-12-11T10:51:30.000Z</time>
      </trkpt>
      <trkpt lat="48.74945" lon="1.98107">
        <ele>148.5</ele>
        <time>2021-12-11T10:51:32.000Z</time>
      </trkpt>
      <trkpt lat="48.74944" lon="1.98106">
        <ele>148.5</ele>
        <time>2021-12-11T10:51:33.000Z</time>
      </trkpt>
      <trkpt lat="48.74935" lon="1.98085">
        <ele>148.5</ele>
        <time>2021-12-11T10:51:44.000Z</time>
      </trkpt>
      <trkpt lat="48.74931" lon="1.98076">
        <ele>148.7</ele>
        <time>2021-12-11T10:51:50.000Z</time>
      </trkpt>
      <trkpt lat="48.7493" lon="1.98074">
        <ele>148.7</ele>
        <time>2021-12-11T10:51:51.000Z</time>
      </trkpt>
      <trkpt lat="48.7493" lon="1.98072">
        <ele>148.7</ele>
        <time>2021-12-11T10:51:52.000Z</time>
      </trkpt>
      <trkpt lat="48.74929" lon="1.98071">
        <ele>148.6</ele>
        <time>2021-12-11T10:51:53.000Z</time>
      </trkpt>
      <trkpt lat="48.74928" lon="1.9807">
        <ele>148.7</ele>
        <time>2021-12-11T10:51:54.000Z</time>
      </trkpt>
      <trkpt lat="48.74927" lon="1.98068">
        <ele>148.9</ele>
        <time>2021-12-11T10:51:55.000Z</time>
      </trkpt>
      <trkpt lat="48.74926" lon="1.98067">
        <ele>148.7</ele>
        <time>2021-12-11T10:51:56.000Z</time>
      </trkpt>
      <trkpt lat="48.74925" lon="1.98063">
        <ele>148.9</ele>
        <time>2021-12-11T10:51:59.000Z</time>
      </trkpt>
      <trkpt lat="48.74924" lon="1.98058">
        <ele>148.8</ele>
        <time>2021-12-11T10:52:02.000Z</time>
      </trkpt>
      <trkpt lat="48.74923" lon="1.98056">
        <ele>148.8</ele>
        <time>2021-12-11T10:52:03.000Z</time>
      </trkpt>
      <trkpt lat="48.74923" lon="1.98053">
        <ele>148.9</ele>
        <time>2021-12-11T10:52:04.000Z</time>
      </trkpt>
      <trkpt lat="48.74922" lon="1.98051">
        <ele>148.8</ele>
        <time>2021-12-11T10:52:05.000Z</time>
      </trkpt>
      <trkpt lat="48.74921" lon="1.98048">
        <ele>148.7</ele>
        <time>2021-12-11T10:52:06.000Z</time>
      </trkpt>
      <trkpt lat="48.74913" lon="1.9803">
        <ele>148.9</ele>
        <time>2021-12-11T10:52:17.000Z</time>
      </trkpt>
      <trkpt lat="48.74907" lon="1.9802">
        <ele>148.7</ele>
        <time>2021-12-11T10:52:24.000Z</time>
      </trkpt>
      <trkpt lat="48.74907" lon="1.98018">
        <ele>148.8</ele>
        <time>2021-12-11T10:52:25.000Z</time>
      </trkpt>
      <trkpt lat="48.74906" lon="1.98016">
        <ele>149</ele>
        <time>2021-12-11T10:52:26.000Z</time>
      </trkpt>
      <trkpt lat="48.74905" lon="1.98015">
        <ele>148.8</ele>
        <time>2021-12-11T10:52:27.000Z</time>
      </trkpt>
      <trkpt lat="48.74904" lon="1.98013">
        <ele>148.9</ele>
        <time>2021-12-11T10:52:28.000Z</time>
      </trkpt>
      <trkpt lat="48.74903" lon="1.98011">
        <ele>148.8</ele>
        <time>2021-12-11T10:52:29.000Z</time>
      </trkpt>
      <trkpt lat="48.74902" lon="1.9801">
        <ele>148.9</ele>
        <time>2021-12-11T10:52:30.000Z</time>
      </trkpt>
      <trkpt lat="48.74901" lon="1.98008">
        <ele>148.9</ele>
        <time>2021-12-11T10:52:31.000Z</time>
      </trkpt>
      <trkpt lat="48.749" lon="1.98006">
        <ele>148.9</ele>
        <time>2021-12-11T10:52:32.000Z</time>
      </trkpt>
      <trkpt lat="48.74888" lon="1.97983">
        <ele>149</ele>
        <time>2021-12-11T10:52:47.000Z</time>
      </trkpt>
      <trkpt lat="48.74887" lon="1.97981">
        <ele>149.1</ele>
        <time>2021-12-11T10:52:48.000Z</time>
      </trkpt>
      <trkpt lat="48.74885" lon="1.97978">
        <ele>148.8</ele>
        <time>2021-12-11T10:52:50.000Z</time>
      </trkpt>
      <trkpt lat="48.74885" lon="1.97976">
        <ele>149.1</ele>
        <time>2021-12-11T10:52:51.000Z</time>
      </trkpt>
      <trkpt lat="48.74884" lon="1.97974">
        <ele>149</ele>
        <time>2021-12-11T10:52:52.000Z</time>
      </trkpt>
      <trkpt lat="48.74883" lon="1.97973">
        <ele>149</ele>
        <time>2021-12-11T10:52:53.000Z</time>
      </trkpt>
      <trkpt lat="48.74882" lon="1.97971">
        <ele>149.1</ele>
        <time>2021-12-11T10:52:54.000Z</time>
      </trkpt>
      <trkpt lat="48.74882" lon="1.9797">
        <ele>149.1</ele>
        <time>2021-12-11T10:52:55.000Z</time>
      </trkpt>
      <trkpt lat="48.74881" lon="1.97968">
        <ele>149.2</ele>
        <time>2021-12-11T10:52:56.000Z</time>
      </trkpt>
      <trkpt lat="48.74881" lon="1.97966">
        <ele>149.3</ele>
        <time>2021-12-11T10:52:57.000Z</time>
      </trkpt>
      <trkpt lat="48.7488" lon="1.97965">
        <ele>149.2</ele>
        <time>2021-12-11T10:52:58.000Z</time>
      </trkpt>
      <trkpt lat="48.74878" lon="1.97961">
        <ele>149.3</ele>
        <time>2021-12-11T10:53:00.000Z</time>
      </trkpt>
      <trkpt lat="48.74877" lon="1.97959">
        <ele>149.2</ele>
        <time>2021-12-11T10:53:01.000Z</time>
      </trkpt>
      <trkpt lat="48.74877" lon="1.97958">
        <ele>149.2</ele>
        <time>2021-12-11T10:53:02.000Z</time>
      </trkpt>
      <trkpt lat="48.74876" lon="1.97956">
        <ele>149.2</ele>
        <time>2021-12-11T10:53:03.000Z</time>
      </trkpt>
      <trkpt lat="48.74875" lon="1.97954">
        <ele>149.4</ele>
        <time>2021-12-11T10:53:04.000Z</time>
      </trkpt>
      <trkpt lat="48.74874" lon="1.97952">
        <ele>149.5</ele>
        <time>2021-12-11T10:53:05.000Z</time>
      </trkpt>
      <trkpt lat="48.74873" lon="1.9795">
        <ele>149.6</ele>
        <time>2021-12-11T10:53:06.000Z</time>
      </trkpt>
      <trkpt lat="48.74872" lon="1.97949">
        <ele>149.4</ele>
        <time>2021-12-11T10:53:07.000Z</time>
      </trkpt>
      <trkpt lat="48.74871" lon="1.97947">
        <ele>149.7</ele>
        <time>2021-12-11T10:53:08.000Z</time>
      </trkpt>
      <trkpt lat="48.74871" lon="1.97945">
        <ele>149.6</ele>
        <time>2021-12-11T10:53:09.000Z</time>
      </trkpt>
      <trkpt lat="48.7486" lon="1.97923">
        <ele>149.5</ele>
        <time>2021-12-11T10:53:23.000Z</time>
      </trkpt>
      <trkpt lat="48.74853" lon="1.97914">
        <ele>149.8</ele>
        <time>2021-12-11T10:53:32.000Z</time>
      </trkpt>
      <trkpt lat="48.74852" lon="1.97913">
        <ele>149.7</ele>
        <time>2021-12-11T10:53:33.000Z</time>
      </trkpt>
      <trkpt lat="48.74837" lon="1.97895">
        <ele>150.1</ele>
        <time>2021-12-11T10:53:46.000Z</time>
      </trkpt>
      <trkpt lat="48.74823" lon="1.97878">
        <ele>150.2</ele>
        <time>2021-12-11T10:54:00.000Z</time>
      </trkpt>
      <trkpt lat="48.74819" lon="1.97873">
        <ele>150.3</ele>
        <time>2021-12-11T10:54:04.000Z</time>
      </trkpt>
      <trkpt lat="48.74817" lon="1.9787">
        <ele>150.2</ele>
        <time>2021-12-11T10:54:07.000Z</time>
      </trkpt>
      <trkpt lat="48.74817" lon="1.97868">
        <ele>150.3</ele>
        <time>2021-12-11T10:54:08.000Z</time>
      </trkpt>
      <trkpt lat="48.74816" lon="1.97867">
        <ele>150.3</ele>
        <time>2021-12-11T10:54:09.000Z</time>
      </trkpt>
      <trkpt lat="48.74802" lon="1.97854">
        <ele>150.3</ele>
        <time>2021-12-11T10:54:21.000Z</time>
      </trkpt>
      <trkpt lat="48.74801" lon="1.97854">
        <ele>150.3</ele>
        <time>2021-12-11T10:54:22.000Z</time>
      </trkpt>
      <trkpt lat="48.74799" lon="1.97853">
        <ele>150.4</ele>
        <time>2021-12-11T10:54:23.000Z</time>
      </trkpt>
      <trkpt lat="48.74798" lon="1.97851">
        <ele>150.4</ele>
        <time>2021-12-11T10:54:24.000Z</time>
      </trkpt>
      <trkpt lat="48.74797" lon="1.9785">
        <ele>150.4</ele>
        <time>2021-12-11T10:54:25.000Z</time>
      </trkpt>
      <trkpt lat="48.74796" lon="1.97849">
        <ele>150.4</ele>
        <time>2021-12-11T10:54:26.000Z</time>
      </trkpt>
      <trkpt lat="48.74782" lon="1.97836">
        <ele>150.6</ele>
        <time>2021-12-11T10:54:39.000Z</time>
      </trkpt>
      <trkpt lat="48.74767" lon="1.97814">
        <ele>150.9</ele>
        <time>2021-12-11T10:54:55.000Z</time>
      </trkpt>
      <trkpt lat="48.74757" lon="1.97805">
        <ele>150.9</ele>
        <time>2021-12-11T10:55:05.000Z</time>
      </trkpt>
      <trkpt lat="48.74756" lon="1.97804">
        <ele>150.9</ele>
        <time>2021-12-11T10:55:06.000Z</time>
      </trkpt>
      <trkpt lat="48.74754" lon="1.97803">
        <ele>151</ele>
        <time>2021-12-11T10:55:07.000Z</time>
      </trkpt>
      <trkpt lat="48.74753" lon="1.97802">
        <ele>150.9</ele>
        <time>2021-12-11T10:55:08.000Z</time>
      </trkpt>
      <trkpt lat="48.74751" lon="1.97801">
        <ele>150.8</ele>
        <time>2021-12-11T10:55:09.000Z</time>
      </trkpt>
      <trkpt lat="48.7475" lon="1.978">
        <ele>151</ele>
        <time>2021-12-11T10:55:10.000Z</time>
      </trkpt>
      <trkpt lat="48.74749" lon="1.97798">
        <ele>151</ele>
        <time>2021-12-11T10:55:11.000Z</time>
      </trkpt>
      <trkpt lat="48.74748" lon="1.97797">
        <ele>151</ele>
        <time>2021-12-11T10:55:12.000Z</time>
      </trkpt>
      <trkpt lat="48.74746" lon="1.97795">
        <ele>151</ele>
        <time>2021-12-11T10:55:13.000Z</time>
      </trkpt>
      <trkpt lat="48.74745" lon="1.97794">
        <ele>150.9</ele>
        <time>2021-12-11T10:55:14.000Z</time>
      </trkpt>
      <trkpt lat="48.74729" lon="1.97777">
        <ele>151.2</ele>
        <time>2021-12-11T10:55:28.000Z</time>
      </trkpt>
      <trkpt lat="48.74712" lon="1.97761">
        <ele>151.3</ele>
        <time>2021-12-11T10:55:44.000Z</time>
      </trkpt>
      <trkpt lat="48.74694" lon="1.97743">
        <ele>151</ele>
        <time>2021-12-11T10:55:59.000Z</time>
      </trkpt>
      <trkpt lat="48.74691" lon="1.9774">
        <ele>151.1</ele>
        <time>2021-12-11T10:56:02.000Z</time>
      </trkpt>
      <trkpt lat="48.74691" lon="1.97738">
        <ele>151.1</ele>
        <time>2021-12-11T10:56:03.000Z</time>
      </trkpt>
      <trkpt lat="48.74689" lon="1.97737">
        <ele>151.1</ele>
        <time>2021-12-11T10:56:04.000Z</time>
      </trkpt>
      <trkpt lat="48.74688" lon="1.97736">
        <ele>150.8</ele>
        <time>2021-12-11T10:56:05.000Z</time>
      </trkpt>
      <trkpt lat="48.74687" lon="1.97734">
        <ele>150.9</ele>
        <time>2021-12-11T10:56:06.000Z</time>
      </trkpt>
      <trkpt lat="48.74671" lon="1.97721">
        <ele>151</ele>
        <time>2021-12-11T10:56:19.000Z</time>
      </trkpt>
      <trkpt lat="48.74668" lon="1.97719">
        <ele>151.1</ele>
        <time>2021-12-11T10:56:22.000Z</time>
      </trkpt>
      <trkpt lat="48.74661" lon="1.97713">
        <ele>151.2</ele>
        <time>2021-12-11T10:56:29.000Z</time>
      </trkpt>
      <trkpt lat="48.7466" lon="1.97713">
        <ele>151.2</ele>
        <time>2021-12-11T10:56:30.000Z</time>
      </trkpt>
      <trkpt lat="48.74659" lon="1.97713">
        <ele>151.2</ele>
        <time>2021-12-11T10:56:31.000Z</time>
      </trkpt>
      <trkpt lat="48.74658" lon="1.97712">
        <ele>151.2</ele>
        <time>2021-12-11T10:56:32.000Z</time>
      </trkpt>
      <trkpt lat="48.74656" lon="1.9771">
        <ele>151.2</ele>
        <time>2021-12-11T10:56:34.000Z</time>
      </trkpt>
      <trkpt lat="48.74652" lon="1.97695">
        <ele>151.4</ele>
        <time>2021-12-11T10:56:44.000Z</time>
      </trkpt>
      <trkpt lat="48.74651" lon="1.97694">
        <ele>151.3</ele>
        <time>2021-12-11T10:56:45.000Z</time>
      </trkpt>
      <trkpt lat="48.74651" lon="1.97692">
        <ele>151.3</ele>
        <time>2021-12-11T10:56:46.000Z</time>
      </trkpt>
      <trkpt lat="48.7465" lon="1.9769">
        <ele>151.4</ele>
        <time>2021-12-11T10:56:47.000Z</time>
      </trkpt>
      <trkpt lat="48.7465" lon="1.97689">
        <ele>151.3</ele>
        <time>2021-12-11T10:56:48.000Z</time>
      </trkpt>
      <trkpt lat="48.74649" lon="1.97687">
        <ele>151.3</ele>
        <time>2021-12-11T10:56:49.000Z</time>
      </trkpt>
      <trkpt lat="48.74649" lon="1.97685">
        <ele>151.4</ele>
        <time>2021-12-11T10:56:50.000Z</time>
      </trkpt>
      <trkpt lat="48.74648" lon="1.97683">
        <ele>151.4</ele>
        <time>2021-12-11T10:56:51.000Z</time>
      </trkpt>
      <trkpt lat="48.74648" lon="1.97681">
        <ele>151.4</ele>
        <time>2021-12-11T10:56:52.000Z</time>
      </trkpt>
      <trkpt lat="48.74647" lon="1.97679">
        <ele>151.6</ele>
        <time>2021-12-11T10:56:53.000Z</time>
      </trkpt>
      <trkpt lat="48.74642" lon="1.97653">
        <ele>151.5</ele>
        <time>2021-12-11T10:57:06.000Z</time>
      </trkpt>
      <trkpt lat="48.74639" lon="1.97639">
        <ele>151.2</ele>
        <time>2021-12-11T10:57:14.000Z</time>
      </trkpt>
      <trkpt lat="48.74639" lon="1.97638">
        <ele>151</ele>
        <time>2021-12-11T10:57:15.000Z</time>
      </trkpt>
      <trkpt lat="48.74638" lon="1.97636">
        <ele>151.3</ele>
        <time>2021-12-11T10:57:16.000Z</time>
      </trkpt>
      <trkpt lat="48.74637" lon="1.97635">
        <ele>151.3</ele>
        <time>2021-12-11T10:57:17.000Z</time>
      </trkpt>
      <trkpt lat="48.74637" lon="1.97634">
        <ele>151.4</ele>
        <time>2021-12-11T10:57:18.000Z</time>
      </trkpt>
      <trkpt lat="48.74636" lon="1.97629">
        <ele>151.7</ele>
        <time>2021-12-11T10:57:21.000Z</time>
      </trkpt>
      <trkpt lat="48.74635" lon="1.97627">
        <ele>151.6</ele>
        <time>2021-12-11T10:57:22.000Z</time>
      </trkpt>
      <trkpt lat="48.74635" lon="1.97625">
        <ele>151.6</ele>
        <time>2021-12-11T10:57:23.000Z</time>
      </trkpt>
      <trkpt lat="48.74634" lon="1.97624">
        <ele>151.7</ele>
        <time>2021-12-11T10:57:24.000Z</time>
      </trkpt>
      <trkpt lat="48.74633" lon="1.97622">
        <ele>151.7</ele>
        <time>2021-12-11T10:57:25.000Z</time>
      </trkpt>
      <trkpt lat="48.74632" lon="1.97621">
        <ele>151.6</ele>
        <time>2021-12-11T10:57:26.000Z</time>
      </trkpt>
      <trkpt lat="48.74632" lon="1.97619">
        <ele>151.4</ele>
        <time>2021-12-11T10:57:27.000Z</time>
      </trkpt>
      <trkpt lat="48.74631" lon="1.97618">
        <ele>151.4</ele>
        <time>2021-12-11T10:57:28.000Z</time>
      </trkpt>
      <trkpt lat="48.7463" lon="1.97616">
        <ele>151.4</ele>
        <time>2021-12-11T10:57:29.000Z</time>
      </trkpt>
      <trkpt lat="48.74629" lon="1.97614">
        <ele>151.4</ele>
        <time>2021-12-11T10:57:30.000Z</time>
      </trkpt>
      <trkpt lat="48.74629" lon="1.97612">
        <ele>151.5</ele>
        <time>2021-12-11T10:57:31.000Z</time>
      </trkpt>
      <trkpt lat="48.74628" lon="1.9761">
        <ele>151.4</ele>
        <time>2021-12-11T10:57:32.000Z</time>
      </trkpt>
      <trkpt lat="48.74627" lon="1.97608">
        <ele>151.4</ele>
        <time>2021-12-11T10:57:33.000Z</time>
      </trkpt>
      <trkpt lat="48.74624" lon="1.97601">
        <ele>151.5</ele>
        <time>2021-12-11T10:57:39.000Z</time>
      </trkpt>
      <trkpt lat="48.74623" lon="1.97594">
        <ele>151.5</ele>
        <time>2021-12-11T10:57:44.000Z</time>
      </trkpt>
      <trkpt lat="48.74622" lon="1.97588">
        <ele>151.6</ele>
        <time>2021-12-11T10:57:48.000Z</time>
      </trkpt>
      <trkpt lat="48.74622" lon="1.9758">
        <ele>151.7</ele>
        <time>2021-12-11T10:57:58.000Z</time>
      </trkpt>
      <trkpt lat="48.74619" lon="1.97564">
        <ele>151.2</ele>
        <time>2021-12-11T10:58:14.000Z</time>
      </trkpt>
      <trkpt lat="48.74612" lon="1.97556">
        <ele>151.1</ele>
        <time>2021-12-11T10:58:31.000Z</time>
      </trkpt>
      <trkpt lat="48.74604" lon="1.9754">
        <ele>150.7</ele>
        <time>2021-12-11T10:58:47.000Z</time>
      </trkpt>
      <trkpt lat="48.74597" lon="1.97519">
        <ele>150.5</ele>
        <time>2021-12-11T10:59:03.000Z</time>
      </trkpt>
      <trkpt lat="48.74587" lon="1.97506">
        <ele>149.9</ele>
        <time>2021-12-11T10:59:16.000Z</time>
      </trkpt>
      <trkpt lat="48.74584" lon="1.9751">
        <ele>150.2</ele>
        <time>2021-12-11T10:59:29.000Z</time>
      </trkpt>
      <trkpt lat="48.74583" lon="1.97517">
        <ele>150.2</ele>
        <time>2021-12-11T10:59:49.000Z</time>
      </trkpt>
      <trkpt lat="48.74581" lon="1.97519">
        <ele>150.2</ele>
        <time>2021-12-11T10:59:51.000Z</time>
      </trkpt>
      <trkpt lat="48.7458" lon="1.9752">
        <ele>150.2</ele>
        <time>2021-12-11T10:59:52.000Z</time>
      </trkpt>
      <trkpt lat="48.74579" lon="1.97521">
        <ele>150</ele>
        <time>2021-12-11T10:59:53.000Z</time>
      </trkpt>
      <trkpt lat="48.74567" lon="1.97542">
        <ele>149.8</ele>
        <time>2021-12-11T11:00:08.000Z</time>
      </trkpt>
      <trkpt lat="48.74553" lon="1.9756">
        <ele>149.7</ele>
        <time>2021-12-11T11:00:23.000Z</time>
      </trkpt>
      <trkpt lat="48.74539" lon="1.97573">
        <ele>149.6</ele>
        <time>2021-12-11T11:00:36.000Z</time>
      </trkpt>
      <trkpt lat="48.74523" lon="1.9759">
        <ele>149.3</ele>
        <time>2021-12-11T11:00:50.000Z</time>
      </trkpt>
      <trkpt lat="48.74509" lon="1.97607">
        <ele>149.2</ele>
        <time>2021-12-11T11:01:03.000Z</time>
      </trkpt>
      <trkpt lat="48.74507" lon="1.97609">
        <ele>149.2</ele>
        <time>2021-12-11T11:01:05.000Z</time>
      </trkpt>
      <trkpt lat="48.74506" lon="1.9761">
        <ele>149.2</ele>
        <time>2021-12-11T11:01:06.000Z</time>
      </trkpt>
      <trkpt lat="48.74505" lon="1.97612">
        <ele>149.2</ele>
        <time>2021-12-11T11:01:07.000Z</time>
      </trkpt>
      <trkpt lat="48.74503" lon="1.97613">
        <ele>149.1</ele>
        <time>2021-12-11T11:01:08.000Z</time>
      </trkpt>
      <trkpt lat="48.74502" lon="1.97614">
        <ele>149</ele>
        <time>2021-12-11T11:01:09.000Z</time>
      </trkpt>
      <trkpt lat="48.7449" lon="1.97628">
        <ele>149.2</ele>
        <time>2021-12-11T11:01:21.000Z</time>
      </trkpt>
      <trkpt lat="48.74486" lon="1.9763">
        <ele>149.2</ele>
        <time>2021-12-11T11:01:33.000Z</time>
      </trkpt>
      <trkpt lat="48.74485" lon="1.97631">
        <ele>149.2</ele>
        <time>2021-12-11T11:01:34.000Z</time>
      </trkpt>
      <trkpt lat="48.74483" lon="1.97632">
        <ele>149.1</ele>
        <time>2021-12-11T11:01:35.000Z</time>
      </trkpt>
      <trkpt lat="48.7447" lon="1.97648">
        <ele>149.2</ele>
        <time>2021-12-11T11:01:48.000Z</time>
      </trkpt>
      <trkpt lat="48.74469" lon="1.9765">
        <ele>149.3</ele>
        <time>2021-12-11T11:01:50.000Z</time>
      </trkpt>
      <trkpt lat="48.74466" lon="1.97656">
        <ele>149.1</ele>
        <time>2021-12-11T11:01:55.000Z</time>
      </trkpt>
      <trkpt lat="48.74465" lon="1.97658">
        <ele>149.1</ele>
        <time>2021-12-11T11:01:56.000Z</time>
      </trkpt>
      <trkpt lat="48.74449" lon="1.97682">
        <ele>149.1</ele>
        <time>2021-12-11T11:02:10.000Z</time>
      </trkpt>
      <trkpt lat="48.74434" lon="1.97703">
        <ele>149.2</ele>
        <time>2021-12-11T11:02:23.000Z</time>
      </trkpt>
      <trkpt lat="48.74421" lon="1.97723">
        <ele>149.3</ele>
        <time>2021-12-11T11:02:41.000Z</time>
      </trkpt>
      <trkpt lat="48.74413" lon="1.97755">
        <ele>149.2</ele>
        <time>2021-12-11T11:02:54.000Z</time>
      </trkpt>
      <trkpt lat="48.74408" lon="1.97775">
        <ele>149.4</ele>
        <time>2021-12-11T11:03:02.000Z</time>
      </trkpt>
      <trkpt lat="48.74394" lon="1.97803">
        <ele>149.4</ele>
        <time>2021-12-11T11:03:17.000Z</time>
      </trkpt>
      <trkpt lat="48.74387" lon="1.97814">
        <ele>149.4</ele>
        <time>2021-12-11T11:03:29.000Z</time>
      </trkpt>
      <trkpt lat="48.74384" lon="1.97819">
        <ele>149.3</ele>
        <time>2021-12-11T11:03:32.000Z</time>
      </trkpt>
      <trkpt lat="48.74383" lon="1.97821">
        <ele>149.4</ele>
        <time>2021-12-11T11:03:33.000Z</time>
      </trkpt>
      <trkpt lat="48.74383" lon="1.97823">
        <ele>149.5</ele>
        <time>2021-12-11T11:03:34.000Z</time>
      </trkpt>
      <trkpt lat="48.74382" lon="1.97826">
        <ele>149.5</ele>
        <time>2021-12-11T11:03:35.000Z</time>
      </trkpt>
      <trkpt lat="48.74381" lon="1.97828">
        <ele>149.5</ele>
        <time>2021-12-11T11:03:36.000Z</time>
      </trkpt>
      <trkpt lat="48.74381" lon="1.9783">
        <ele>149.7</ele>
        <time>2021-12-11T11:03:37.000Z</time>
      </trkpt>
      <trkpt lat="48.7438" lon="1.97832">
        <ele>149.7</ele>
        <time>2021-12-11T11:03:38.000Z</time>
      </trkpt>
      <trkpt lat="48.7437" lon="1.97856">
        <ele>149.8</ele>
        <time>2021-12-11T11:03:50.000Z</time>
      </trkpt>
      <trkpt lat="48.7437" lon="1.97857">
        <ele>149.6</ele>
        <time>2021-12-11T11:03:51.000Z</time>
      </trkpt>
      <trkpt lat="48.74365" lon="1.97866">
        <ele>149.8</ele>
        <time>2021-12-11T11:04:00.000Z</time>
      </trkpt>
      <trkpt lat="48.74365" lon="1.97868">
        <ele>149.8</ele>
        <time>2021-12-11T11:04:01.000Z</time>
      </trkpt>
      <trkpt lat="48.74364" lon="1.9787">
        <ele>149.8</ele>
        <time>2021-12-11T11:04:02.000Z</time>
      </trkpt>
      <trkpt lat="48.74359" lon="1.97882">
        <ele>149.7</ele>
        <time>2021-12-11T11:04:08.000Z</time>
      </trkpt>
      <trkpt lat="48.74358" lon="1.97884">
        <ele>149.8</ele>
        <time>2021-12-11T11:04:09.000Z</time>
      </trkpt>
      <trkpt lat="48.74358" lon="1.97886">
        <ele>149.8</ele>
        <time>2021-12-11T11:04:10.000Z</time>
      </trkpt>
      <trkpt lat="48.74357" lon="1.97887">
        <ele>149.7</ele>
        <time>2021-12-11T11:04:11.000Z</time>
      </trkpt>
      <trkpt lat="48.74356" lon="1.97889">
        <ele>149.9</ele>
        <time>2021-12-11T11:04:12.000Z</time>
      </trkpt>
      <trkpt lat="48.74356" lon="1.97891">
        <ele>149.8</ele>
        <time>2021-12-11T11:04:13.000Z</time>
      </trkpt>
      <trkpt lat="48.7435" lon="1.97923">
        <ele>150.3</ele>
        <time>2021-12-11T11:04:29.000Z</time>
      </trkpt>
      <trkpt lat="48.74346" lon="1.97946">
        <ele>150.2</ele>
        <time>2021-12-11T11:04:42.000Z</time>
      </trkpt>
      <trkpt lat="48.74343" lon="1.97951">
        <ele>150.2</ele>
        <time>2021-12-11T11:04:45.000Z</time>
      </trkpt>
      <trkpt lat="48.74342" lon="1.97952">
        <ele>150.4</ele>
        <time>2021-12-11T11:04:46.000Z</time>
      </trkpt>
      <trkpt lat="48.74335" lon="1.97959">
        <ele>150.6</ele>
        <time>2021-12-11T11:04:58.000Z</time>
      </trkpt>
      <trkpt lat="48.74333" lon="1.9796">
        <ele>150.7</ele>
        <time>2021-12-11T11:05:11.000Z</time>
      </trkpt>
      <trkpt lat="48.74328" lon="1.97958">
        <ele>150.8</ele>
        <time>2021-12-11T11:05:16.000Z</time>
      </trkpt>
      <trkpt lat="48.74327" lon="1.97958">
        <ele>150.9</ele>
        <time>2021-12-11T11:05:17.000Z</time>
      </trkpt>
      <trkpt lat="48.74308" lon="1.97952">
        <ele>151.4</ele>
        <time>2021-12-11T11:05:32.000Z</time>
      </trkpt>
      <trkpt lat="48.74292" lon="1.97936">
        <ele>151.5</ele>
        <time>2021-12-11T11:05:46.000Z</time>
      </trkpt>
      <trkpt lat="48.74278" lon="1.97918">
        <ele>151.7</ele>
        <time>2021-12-11T11:06:00.000Z</time>
      </trkpt>
      <trkpt lat="48.74263" lon="1.97899">
        <ele>151.8</ele>
        <time>2021-12-11T11:06:14.000Z</time>
      </trkpt>
      <trkpt lat="48.7426" lon="1.97896">
        <ele>152</ele>
        <time>2021-12-11T11:06:16.000Z</time>
      </trkpt>
      <trkpt lat="48.74259" lon="1.97895">
        <ele>151.7</ele>
        <time>2021-12-11T11:06:17.000Z</time>
      </trkpt>
      <trkpt lat="48.74257" lon="1.97895">
        <ele>152.1</ele>
        <time>2021-12-11T11:06:18.000Z</time>
      </trkpt>
      <trkpt lat="48.74255" lon="1.97893">
        <ele>152.1</ele>
        <time>2021-12-11T11:06:19.000Z</time>
      </trkpt>
      <trkpt lat="48.74254" lon="1.97892">
        <ele>152</ele>
        <time>2021-12-11T11:06:20.000Z</time>
      </trkpt>
      <trkpt lat="48.74252" lon="1.9789">
        <ele>152</ele>
        <time>2021-12-11T11:06:21.000Z</time>
      </trkpt>
      <trkpt lat="48.74251" lon="1.97889">
        <ele>152.1</ele>
        <time>2021-12-11T11:06:22.000Z</time>
      </trkpt>
      <trkpt lat="48.7425" lon="1.97887">
        <ele>152.1</ele>
        <time>2021-12-11T11:06:23.000Z</time>
      </trkpt>
      <trkpt lat="48.74241" lon="1.97873">
        <ele>152.3</ele>
        <time>2021-12-11T11:06:34.000Z</time>
      </trkpt>
      <trkpt lat="48.74228" lon="1.97855">
        <ele>152.4</ele>
        <time>2021-12-11T11:06:47.000Z</time>
      </trkpt>
      <trkpt lat="48.74227" lon="1.97853">
        <ele>152.5</ele>
        <time>2021-12-11T11:06:48.000Z</time>
      </trkpt>
      <trkpt lat="48.74226" lon="1.97851">
        <ele>152.6</ele>
        <time>2021-12-11T11:06:49.000Z</time>
      </trkpt>
      <trkpt lat="48.74224" lon="1.9785">
        <ele>152.5</ele>
        <time>2021-12-11T11:06:50.000Z</time>
      </trkpt>
      <trkpt lat="48.74223" lon="1.97849">
        <ele>152.5</ele>
        <time>2021-12-11T11:06:51.000Z</time>
      </trkpt>
      <trkpt lat="48.74204" lon="1.97832">
        <ele>152.9</ele>
        <time>2021-12-11T11:07:07.000Z</time>
      </trkpt>
      <trkpt lat="48.74198" lon="1.97818">
        <ele>152.9</ele>
        <time>2021-12-11T11:07:15.000Z</time>
      </trkpt>
      <trkpt lat="48.74184" lon="1.97792">
        <ele>153.2</ele>
        <time>2021-12-11T11:07:30.000Z</time>
      </trkpt>
      <trkpt lat="48.74173" lon="1.97767">
        <ele>153.9</ele>
        <time>2021-12-11T11:07:45.000Z</time>
      </trkpt>
      <trkpt lat="48.74162" lon="1.97746">
        <ele>154.3</ele>
        <time>2021-12-11T11:07:58.000Z</time>
      </trkpt>
      <trkpt lat="48.74146" lon="1.97723">
        <ele>154.4</ele>
        <time>2021-12-11T11:08:13.000Z</time>
      </trkpt>
      <trkpt lat="48.74134" lon="1.97701">
        <ele>155</ele>
        <time>2021-12-11T11:08:26.000Z</time>
      </trkpt>
      <trkpt lat="48.74132" lon="1.97698">
        <ele>155</ele>
        <time>2021-12-11T11:08:29.000Z</time>
      </trkpt>
      <trkpt lat="48.74131" lon="1.97697">
        <ele>154.9</ele>
        <time>2021-12-11T11:08:30.000Z</time>
      </trkpt>
      <trkpt lat="48.74131" lon="1.97695">
        <ele>154.9</ele>
        <time>2021-12-11T11:08:31.000Z</time>
      </trkpt>
      <trkpt lat="48.7413" lon="1.97693">
        <ele>155.1</ele>
        <time>2021-12-11T11:08:44.000Z</time>
      </trkpt>
      <trkpt lat="48.74128" lon="1.97689">
        <ele>155.3</ele>
        <time>2021-12-11T11:08:47.000Z</time>
      </trkpt>
      <trkpt lat="48.74123" lon="1.97685">
        <ele>155.7</ele>
        <time>2021-12-11T11:08:51.000Z</time>
      </trkpt>
      <trkpt lat="48.74122" lon="1.97684">
        <ele>155.7</ele>
        <time>2021-12-11T11:08:52.000Z</time>
      </trkpt>
      <trkpt lat="48.74121" lon="1.97683">
        <ele>155.7</ele>
        <time>2021-12-11T11:08:53.000Z</time>
      </trkpt>
      <trkpt lat="48.7412" lon="1.97681">
        <ele>155.5</ele>
        <time>2021-12-11T11:08:54.000Z</time>
      </trkpt>
      <trkpt lat="48.74119" lon="1.9768">
        <ele>155.3</ele>
        <time>2021-12-11T11:08:55.000Z</time>
      </trkpt>
      <trkpt lat="48.74108" lon="1.9766">
        <ele>155.7</ele>
        <time>2021-12-11T11:09:07.000Z</time>
      </trkpt>
      <trkpt lat="48.7409" lon="1.97636">
        <ele>156.1</ele>
        <time>2021-12-11T11:09:21.000Z</time>
      </trkpt>
      <trkpt lat="48.74088" lon="1.97632">
        <ele>156.4</ele>
        <time>2021-12-11T11:09:24.000Z</time>
      </trkpt>
      <trkpt lat="48.74082" lon="1.97625">
        <ele>156.5</ele>
        <time>2021-12-11T11:09:31.000Z</time>
      </trkpt>
      <trkpt lat="48.74081" lon="1.97624">
        <ele>156.7</ele>
        <time>2021-12-11T11:09:32.000Z</time>
      </trkpt>
      <trkpt lat="48.7408" lon="1.97622">
        <ele>156.6</ele>
        <time>2021-12-11T11:09:33.000Z</time>
      </trkpt>
      <trkpt lat="48.74069" lon="1.97604">
        <ele>156.9</ele>
        <time>2021-12-11T11:09:46.000Z</time>
      </trkpt>
      <trkpt lat="48.74068" lon="1.97603">
        <ele>156.8</ele>
        <time>2021-12-11T11:09:47.000Z</time>
      </trkpt>
      <trkpt lat="48.74067" lon="1.97602">
        <ele>156.8</ele>
        <time>2021-12-11T11:09:48.000Z</time>
      </trkpt>
      <trkpt lat="48.74066" lon="1.97601">
        <ele>157</ele>
        <time>2021-12-11T11:09:49.000Z</time>
      </trkpt>
      <trkpt lat="48.74065" lon="1.976">
        <ele>156.9</ele>
        <time>2021-12-11T11:09:50.000Z</time>
      </trkpt>
      <trkpt lat="48.74052" lon="1.97583">
        <ele>157.5</ele>
        <time>2021-12-11T11:10:03.000Z</time>
      </trkpt>
      <trkpt lat="48.74034" lon="1.97562">
        <ele>158.3</ele>
        <time>2021-12-11T11:10:16.000Z</time>
      </trkpt>
      <trkpt lat="48.74033" lon="1.9756">
        <ele>158.3</ele>
        <time>2021-12-11T11:10:17.000Z</time>
      </trkpt>
      <trkpt lat="48.74032" lon="1.97558">
        <ele>158.4</ele>
        <time>2021-12-11T11:10:18.000Z</time>
      </trkpt>
      <trkpt lat="48.74031" lon="1.97555">
        <ele>158.4</ele>
        <time>2021-12-11T11:10:20.000Z</time>
      </trkpt>
      <trkpt lat="48.7403" lon="1.97554">
        <ele>158.5</ele>
        <time>2021-12-11T11:10:21.000Z</time>
      </trkpt>
      <trkpt lat="48.74029" lon="1.97553">
        <ele>158.5</ele>
        <time>2021-12-11T11:10:22.000Z</time>
      </trkpt>
      <trkpt lat="48.74029" lon="1.97551">
        <ele>158.5</ele>
        <time>2021-12-11T11:10:23.000Z</time>
      </trkpt>
      <trkpt lat="48.74028" lon="1.97549">
        <ele>158.6</ele>
        <time>2021-12-11T11:10:24.000Z</time>
      </trkpt>
      <trkpt lat="48.74015" lon="1.97528">
        <ele>158.8</ele>
        <time>2021-12-11T11:10:38.000Z</time>
      </trkpt>
      <trkpt lat="48.74015" lon="1.97527">
        <ele>159.1</ele>
        <time>2021-12-11T11:10:39.000Z</time>
      </trkpt>
      <trkpt lat="48.74015" lon="1.97524">
        <ele>159</ele>
        <time>2021-12-11T11:10:40.000Z</time>
      </trkpt>
      <trkpt lat="48.74014" lon="1.97522">
        <ele>159</ele>
        <time>2021-12-11T11:10:41.000Z</time>
      </trkpt>
      <trkpt lat="48.74013" lon="1.9752">
        <ele>159.2</ele>
        <time>2021-12-11T11:10:42.000Z</time>
      </trkpt>
      <trkpt lat="48.74012" lon="1.97519">
        <ele>159.1</ele>
        <time>2021-12-11T11:10:43.000Z</time>
      </trkpt>
      <trkpt lat="48.74011" lon="1.97517">
        <ele>159.2</ele>
        <time>2021-12-11T11:10:44.000Z</time>
      </trkpt>
      <trkpt lat="48.7401" lon="1.97516">
        <ele>159.2</ele>
        <time>2021-12-11T11:10:45.000Z</time>
      </trkpt>
      <trkpt lat="48.74008" lon="1.97511">
        <ele>159.3</ele>
        <time>2021-12-11T11:10:48.000Z</time>
      </trkpt>
      <trkpt lat="48.74007" lon="1.9751">
        <ele>159.4</ele>
        <time>2021-12-11T11:10:49.000Z</time>
      </trkpt>
      <trkpt lat="48.74006" lon="1.97508">
        <ele>159.4</ele>
        <time>2021-12-11T11:10:50.000Z</time>
      </trkpt>
      <trkpt lat="48.74004" lon="1.97507">
        <ele>159.4</ele>
        <time>2021-12-11T11:10:51.000Z</time>
      </trkpt>
      <trkpt lat="48.74003" lon="1.97506">
        <ele>159.4</ele>
        <time>2021-12-11T11:10:52.000Z</time>
      </trkpt>
      <trkpt lat="48.74003" lon="1.97503">
        <ele>159.4</ele>
        <time>2021-12-11T11:10:53.000Z</time>
      </trkpt>
      <trkpt lat="48.74002" lon="1.97502">
        <ele>159.5</ele>
        <time>2021-12-11T11:10:54.000Z</time>
      </trkpt>
      <trkpt lat="48.74001" lon="1.975">
        <ele>159.4</ele>
        <time>2021-12-11T11:10:55.000Z</time>
      </trkpt>
      <trkpt lat="48.74" lon="1.97498">
        <ele>159.5</ele>
        <time>2021-12-11T11:10:56.000Z</time>
      </trkpt>
      <trkpt lat="48.74" lon="1.97496">
        <ele>159.5</ele>
        <time>2021-12-11T11:10:57.000Z</time>
      </trkpt>
      <trkpt lat="48.73998" lon="1.97494">
        <ele>159.5</ele>
        <time>2021-12-11T11:10:58.000Z</time>
      </trkpt>
      <trkpt lat="48.73989" lon="1.97474">
        <ele>160.1</ele>
        <time>2021-12-11T11:11:13.000Z</time>
      </trkpt>
      <trkpt lat="48.73983" lon="1.97454">
        <ele>160.4</ele>
        <time>2021-12-11T11:11:26.000Z</time>
      </trkpt>
      <trkpt lat="48.73976" lon="1.97438">
        <ele>160.7</ele>
        <time>2021-12-11T11:11:36.000Z</time>
      </trkpt>
      <trkpt lat="48.7398" lon="1.97428">
        <ele>160.9</ele>
        <time>2021-12-11T11:11:42.000Z</time>
      </trkpt>
      <trkpt lat="48.73981" lon="1.97426">
        <ele>160.9</ele>
        <time>2021-12-11T11:11:43.000Z</time>
      </trkpt>
      <trkpt lat="48.73983" lon="1.97422">
        <ele>160.9</ele>
        <time>2021-12-11T11:11:47.000Z</time>
      </trkpt>
      <trkpt lat="48.73983" lon="1.97421">
        <ele>160.9</ele>
        <time>2021-12-11T11:11:48.000Z</time>
      </trkpt>
      <trkpt lat="48.73984" lon="1.97419">
        <ele>160.8</ele>
        <time>2021-12-11T11:11:49.000Z</time>
      </trkpt>
      <trkpt lat="48.73988" lon="1.97408">
        <ele>161.1</ele>
        <time>2021-12-11T11:11:59.000Z</time>
      </trkpt>
      <trkpt lat="48.73988" lon="1.97406">
        <ele>161.1</ele>
        <time>2021-12-11T11:12:00.000Z</time>
      </trkpt>
      <trkpt lat="48.7399" lon="1.97402">
        <ele>161.1</ele>
        <time>2021-12-11T11:12:04.000Z</time>
      </trkpt>
      <trkpt lat="48.7399" lon="1.974">
        <ele>161.2</ele>
        <time>2021-12-11T11:12:06.000Z</time>
      </trkpt>
      <trkpt lat="48.73991" lon="1.97398">
        <ele>161.2</ele>
        <time>2021-12-11T11:12:07.000Z</time>
      </trkpt>
      <trkpt lat="48.73991" lon="1.97397">
        <ele>161.3</ele>
        <time>2021-12-11T11:12:08.000Z</time>
      </trkpt>
      <trkpt lat="48.73992" lon="1.97395">
        <ele>161.3</ele>
        <time>2021-12-11T11:12:09.000Z</time>
      </trkpt>
      <trkpt lat="48.73993" lon="1.97394">
        <ele>161.2</ele>
        <time>2021-12-11T11:12:10.000Z</time>
      </trkpt>
      <trkpt lat="48.73993" lon="1.97392">
        <ele>161.2</ele>
        <time>2021-12-11T11:12:11.000Z</time>
      </trkpt>
      <trkpt lat="48.73994" lon="1.9739">
        <ele>161.3</ele>
        <time>2021-12-11T11:12:12.000Z</time>
      </trkpt>
      <trkpt lat="48.73994" lon="1.97388">
        <ele>161.4</ele>
        <time>2021-12-11T11:12:13.000Z</time>
      </trkpt>
      <trkpt lat="48.73994" lon="1.97386">
        <ele>161.4</ele>
        <time>2021-12-11T11:12:14.000Z</time>
      </trkpt>
      <trkpt lat="48.73995" lon="1.9738">
        <ele>161.4</ele>
        <time>2021-12-11T11:12:18.000Z</time>
      </trkpt>
      <trkpt lat="48.73996" lon="1.97379">
        <ele>161.6</ele>
        <time>2021-12-11T11:12:19.000Z</time>
      </trkpt>
      <trkpt lat="48.74" lon="1.97367">
        <ele>161.5</ele>
        <time>2021-12-11T11:12:26.000Z</time>
      </trkpt>
      <trkpt lat="48.74002" lon="1.9736">
        <ele>161.4</ele>
        <time>2021-12-11T11:12:29.000Z</time>
      </trkpt>
      <trkpt lat="48.74002" lon="1.97357">
        <ele>161.4</ele>
        <time>2021-12-11T11:12:30.000Z</time>
      </trkpt>
      <trkpt lat="48.74004" lon="1.97356">
        <ele>161.3</ele>
        <time>2021-12-11T11:12:31.000Z</time>
      </trkpt>
      <trkpt lat="48.74005" lon="1.97354">
        <ele>161.3</ele>
        <time>2021-12-11T11:12:32.000Z</time>
      </trkpt>
      <trkpt lat="48.74006" lon="1.97353">
        <ele>161.4</ele>
        <time>2021-12-11T11:12:33.000Z</time>
      </trkpt>
      <trkpt lat="48.74006" lon="1.97352">
        <ele>161.2</ele>
        <time>2021-12-11T11:12:34.000Z</time>
      </trkpt>
      <trkpt lat="48.74007" lon="1.97349">
        <ele>161.3</ele>
        <time>2021-12-11T11:12:35.000Z</time>
      </trkpt>
      <trkpt lat="48.74007" lon="1.97331">
        <ele>161.3</ele>
        <time>2021-12-11T11:12:44.000Z</time>
      </trkpt>
      <trkpt lat="48.74008" lon="1.97321">
        <ele>161.2</ele>
        <time>2021-12-11T11:12:48.000Z</time>
      </trkpt>
      <trkpt lat="48.74009" lon="1.97319">
        <ele>161.4</ele>
        <time>2021-12-11T11:12:49.000Z</time>
      </trkpt>
      <trkpt lat="48.74014" lon="1.97295">
        <ele>161.2</ele>
        <time>2021-12-11T11:13:01.000Z</time>
      </trkpt>
      <trkpt lat="48.74019" lon="1.97291">
        <ele>161.1</ele>
        <time>2021-12-11T11:13:04.000Z</time>
      </trkpt>
      <trkpt lat="48.7402" lon="1.97289">
        <ele>161.1</ele>
        <time>2021-12-11T11:13:05.000Z</time>
      </trkpt>
      <trkpt lat="48.7402" lon="1.97287">
        <ele>161.2</ele>
        <time>2021-12-11T11:13:07.000Z</time>
      </trkpt>
      <trkpt lat="48.7402" lon="1.97285">
        <ele>161.1</ele>
        <time>2021-12-11T11:13:08.000Z</time>
      </trkpt>
      <trkpt lat="48.74019" lon="1.97283">
        <ele>161.1</ele>
        <time>2021-12-11T11:13:09.000Z</time>
      </trkpt>
      <trkpt lat="48.74019" lon="1.97281">
        <ele>161.2</ele>
        <time>2021-12-11T11:13:10.000Z</time>
      </trkpt>
      <trkpt lat="48.74019" lon="1.9728">
        <ele>161.2</ele>
        <time>2021-12-11T11:13:11.000Z</time>
      </trkpt>
      <trkpt lat="48.7402" lon="1.97278">
        <ele>161.4</ele>
        <time>2021-12-11T11:13:12.000Z</time>
      </trkpt>
      <trkpt lat="48.7402" lon="1.97277">
        <ele>161.4</ele>
        <time>2021-12-11T11:13:13.000Z</time>
      </trkpt>
      <trkpt lat="48.7403" lon="1.97258">
        <ele>161.5</ele>
        <time>2021-12-11T11:13:27.000Z</time>
      </trkpt>
      <trkpt lat="48.74039" lon="1.97243">
        <ele>161.8</ele>
        <time>2021-12-11T11:13:40.000Z</time>
      </trkpt>
      <trkpt lat="48.74047" lon="1.97228">
        <ele>162.2</ele>
        <time>2021-12-11T11:13:50.000Z</time>
      </trkpt>
      <trkpt lat="48.74047" lon="1.97223">
        <ele>162.1</ele>
        <time>2021-12-11T11:13:54.000Z</time>
      </trkpt>
      <trkpt lat="48.74046" lon="1.97218">
        <ele>162.1</ele>
        <time>2021-12-11T11:14:08.000Z</time>
      </trkpt>
      <trkpt lat="48.74049" lon="1.97213">
        <ele>162.2</ele>
        <time>2021-12-11T11:14:22.000Z</time>
      </trkpt>
      <trkpt lat="48.7405" lon="1.97211">
        <ele>162.2</ele>
        <time>2021-12-11T11:14:23.000Z</time>
      </trkpt>
      <trkpt lat="48.74051" lon="1.9721">
        <ele>162.2</ele>
        <time>2021-12-11T11:14:24.000Z</time>
      </trkpt>
      <trkpt lat="48.74051" lon="1.97208">
        <ele>162.2</ele>
        <time>2021-12-11T11:14:25.000Z</time>
      </trkpt>
      <trkpt lat="48.74052" lon="1.97206">
        <ele>162.2</ele>
        <time>2021-12-11T11:14:26.000Z</time>
      </trkpt>
      <trkpt lat="48.74052" lon="1.97205">
        <ele>162.2</ele>
        <time>2021-12-11T11:14:27.000Z</time>
      </trkpt>
      <trkpt lat="48.74055" lon="1.97189">
        <ele>162.2</ele>
        <time>2021-12-11T11:14:38.000Z</time>
      </trkpt>
      <trkpt lat="48.74055" lon="1.97187">
        <ele>162.2</ele>
        <time>2021-12-11T11:14:39.000Z</time>
      </trkpt>
      <trkpt lat="48.74056" lon="1.97182">
        <ele>162.3</ele>
        <time>2021-12-11T11:14:43.000Z</time>
      </trkpt>
      <trkpt lat="48.74056" lon="1.9718">
        <ele>162.3</ele>
        <time>2021-12-11T11:14:44.000Z</time>
      </trkpt>
      <trkpt lat="48.74056" lon="1.97178">
        <ele>162.3</ele>
        <time>2021-12-11T11:14:45.000Z</time>
      </trkpt>
      <trkpt lat="48.74057" lon="1.97177">
        <ele>162.3</ele>
        <time>2021-12-11T11:14:46.000Z</time>
      </trkpt>
      <trkpt lat="48.74057" lon="1.97175">
        <ele>162.3</ele>
        <time>2021-12-11T11:14:47.000Z</time>
      </trkpt>
      <trkpt lat="48.74057" lon="1.97174">
        <ele>162.3</ele>
        <time>2021-12-11T11:14:48.000Z</time>
      </trkpt>
      <trkpt lat="48.74057" lon="1.97172">
        <ele>162.4</ele>
        <time>2021-12-11T11:14:49.000Z</time>
      </trkpt>
      <trkpt lat="48.74057" lon="1.9717">
        <ele>162.3</ele>
        <time>2021-12-11T11:14:50.000Z</time>
      </trkpt>
      <trkpt lat="48.74056" lon="1.97168">
        <ele>162.2</ele>
        <time>2021-12-11T11:14:51.000Z</time>
      </trkpt>
      <trkpt lat="48.74056" lon="1.97167">
        <ele>162.4</ele>
        <time>2021-12-11T11:14:52.000Z</time>
      </trkpt>
      <trkpt lat="48.74056" lon="1.97165">
        <ele>162.4</ele>
        <time>2021-12-11T11:14:53.000Z</time>
      </trkpt>
      <trkpt lat="48.74057" lon="1.97163">
        <ele>162.6</ele>
        <time>2021-12-11T11:14:54.000Z</time>
      </trkpt>
      <trkpt lat="48.74056" lon="1.97162">
        <ele>162.5</ele>
        <time>2021-12-11T11:14:55.000Z</time>
      </trkpt>
      <trkpt lat="48.74056" lon="1.97159">
        <ele>162.7</ele>
        <time>2021-12-11T11:14:56.000Z</time>
      </trkpt>
      <trkpt lat="48.74056" lon="1.97158">
        <ele>162.6</ele>
        <time>2021-12-11T11:14:57.000Z</time>
      </trkpt>
      <trkpt lat="48.74055" lon="1.97156">
        <ele>162.5</ele>
        <time>2021-12-11T11:14:58.000Z</time>
      </trkpt>
      <trkpt lat="48.74055" lon="1.97148">
        <ele>162.7</ele>
        <time>2021-12-11T11:15:03.000Z</time>
      </trkpt>
      <trkpt lat="48.74054" lon="1.97141">
        <ele>162.7</ele>
        <time>2021-12-11T11:15:07.000Z</time>
      </trkpt>
      <trkpt lat="48.74054" lon="1.9714">
        <ele>162.7</ele>
        <time>2021-12-11T11:15:08.000Z</time>
      </trkpt>
      <trkpt lat="48.74055" lon="1.97135">
        <ele>162.5</ele>
        <time>2021-12-11T11:15:10.000Z</time>
      </trkpt>
      <trkpt lat="48.74055" lon="1.97134">
        <ele>162.8</ele>
        <time>2021-12-11T11:15:11.000Z</time>
      </trkpt>
      <trkpt lat="48.74052" lon="1.97114">
        <ele>163</ele>
        <time>2021-12-11T11:15:24.000Z</time>
      </trkpt>
      <trkpt lat="48.74052" lon="1.97113">
        <ele>163.1</ele>
        <time>2021-12-11T11:15:25.000Z</time>
      </trkpt>
      <trkpt lat="48.74049" lon="1.97092">
        <ele>162.9</ele>
        <time>2021-12-11T11:15:37.000Z</time>
      </trkpt>
      <trkpt lat="48.74048" lon="1.97088">
        <ele>163</ele>
        <time>2021-12-11T11:15:39.000Z</time>
      </trkpt>
      <trkpt lat="48.74048" lon="1.97074">
        <ele>163</ele>
        <time>2021-12-11T11:15:47.000Z</time>
      </trkpt>
      <trkpt lat="48.74048" lon="1.97072">
        <ele>163</ele>
        <time>2021-12-11T11:15:48.000Z</time>
      </trkpt>
      <trkpt lat="48.74048" lon="1.9707">
        <ele>162.9</ele>
        <time>2021-12-11T11:15:49.000Z</time>
      </trkpt>
      <trkpt lat="48.74048" lon="1.97067">
        <ele>162.9</ele>
        <time>2021-12-11T11:15:51.000Z</time>
      </trkpt>
      <trkpt lat="48.74048" lon="1.97066">
        <ele>162.9</ele>
        <time>2021-12-11T11:15:52.000Z</time>
      </trkpt>
      <trkpt lat="48.74046" lon="1.97059">
        <ele>163</ele>
        <time>2021-12-11T11:15:57.000Z</time>
      </trkpt>
      <trkpt lat="48.74043" lon="1.97039">
        <ele>163.2</ele>
        <time>2021-12-11T11:16:09.000Z</time>
      </trkpt>
      <trkpt lat="48.74043" lon="1.97036">
        <ele>163.2</ele>
        <time>2021-12-11T11:16:11.000Z</time>
      </trkpt>
      <trkpt lat="48.74043" lon="1.97034">
        <ele>163.1</ele>
        <time>2021-12-11T11:16:12.000Z</time>
      </trkpt>
      <trkpt lat="48.74042" lon="1.97032">
        <ele>163.2</ele>
        <time>2021-12-11T11:16:13.000Z</time>
      </trkpt>
      <trkpt lat="48.74042" lon="1.9703">
        <ele>163.2</ele>
        <time>2021-12-11T11:16:14.000Z</time>
      </trkpt>
      <trkpt lat="48.74042" lon="1.97029">
        <ele>163.2</ele>
        <time>2021-12-11T11:16:15.000Z</time>
      </trkpt>
      <trkpt lat="48.7404" lon="1.97024">
        <ele>163.2</ele>
        <time>2021-12-11T11:16:18.000Z</time>
      </trkpt>
      <trkpt lat="48.7404" lon="1.97022">
        <ele>163.2</ele>
        <time>2021-12-11T11:16:19.000Z</time>
      </trkpt>
      <trkpt lat="48.7404" lon="1.9702">
        <ele>163.2</ele>
        <time>2021-12-11T11:16:20.000Z</time>
      </trkpt>
      <trkpt lat="48.7404" lon="1.97018">
        <ele>163.2</ele>
        <time>2021-12-11T11:16:21.000Z</time>
      </trkpt>
      <trkpt lat="48.7404" lon="1.97017">
        <ele>163.3</ele>
        <time>2021-12-11T11:16:22.000Z</time>
      </trkpt>
      <trkpt lat="48.74039" lon="1.97015">
        <ele>163.4</ele>
        <time>2021-12-11T11:16:23.000Z</time>
      </trkpt>
      <trkpt lat="48.74038" lon="1.97014">
        <ele>163.2</ele>
        <time>2021-12-11T11:16:24.000Z</time>
      </trkpt>
      <trkpt lat="48.74038" lon="1.97012">
        <ele>163.3</ele>
        <time>2021-12-11T11:16:25.000Z</time>
      </trkpt>
      <trkpt lat="48.74038" lon="1.9701">
        <ele>163.3</ele>
        <time>2021-12-11T11:16:26.000Z</time>
      </trkpt>
      <trkpt lat="48.74036" lon="1.96986">
        <ele>163.3</ele>
        <time>2021-12-11T11:16:37.000Z</time>
      </trkpt>
      <trkpt lat="48.74036" lon="1.96984">
        <ele>163.2</ele>
        <time>2021-12-11T11:16:38.000Z</time>
      </trkpt>
      <trkpt lat="48.74036" lon="1.96982">
        <ele>163.2</ele>
        <time>2021-12-11T11:16:39.000Z</time>
      </trkpt>
      <trkpt lat="48.74034" lon="1.96969">
        <ele>163.4</ele>
        <time>2021-12-11T11:16:47.000Z</time>
      </trkpt>
      <trkpt lat="48.74034" lon="1.96967">
        <ele>163.4</ele>
        <time>2021-12-11T11:16:48.000Z</time>
      </trkpt>
      <trkpt lat="48.74034" lon="1.96965">
        <ele>163.4</ele>
        <time>2021-12-11T11:16:49.000Z</time>
      </trkpt>
      <trkpt lat="48.74033" lon="1.96964">
        <ele>163.4</ele>
        <time>2021-12-11T11:16:50.000Z</time>
      </trkpt>
      <trkpt lat="48.74032" lon="1.96962">
        <ele>163.4</ele>
        <time>2021-12-11T11:16:51.000Z</time>
      </trkpt>
      <trkpt lat="48.74032" lon="1.9696">
        <ele>163.4</ele>
        <time>2021-12-11T11:16:52.000Z</time>
      </trkpt>
      <trkpt lat="48.74032" lon="1.96958">
        <ele>163.4</ele>
        <time>2021-12-11T11:16:53.000Z</time>
      </trkpt>
      <trkpt lat="48.74031" lon="1.96956">
        <ele>163.4</ele>
        <time>2021-12-11T11:16:54.000Z</time>
      </trkpt>
      <trkpt lat="48.74031" lon="1.96955">
        <ele>163.5</ele>
        <time>2021-12-11T11:16:55.000Z</time>
      </trkpt>
      <trkpt lat="48.74029" lon="1.96947">
        <ele>163.6</ele>
        <time>2021-12-11T11:16:59.000Z</time>
      </trkpt>
      <trkpt lat="48.74029" lon="1.96945">
        <ele>163.6</ele>
        <time>2021-12-11T11:17:00.000Z</time>
      </trkpt>
      <trkpt lat="48.74029" lon="1.96944">
        <ele>163.5</ele>
        <time>2021-12-11T11:17:01.000Z</time>
      </trkpt>
      <trkpt lat="48.74029" lon="1.96942">
        <ele>163.5</ele>
        <time>2021-12-11T11:17:02.000Z</time>
      </trkpt>
      <trkpt lat="48.74028" lon="1.9693">
        <ele>163.5</ele>
        <time>2021-12-11T11:17:08.000Z</time>
      </trkpt>
      <trkpt lat="48.74028" lon="1.96928">
        <ele>163.5</ele>
        <time>2021-12-11T11:17:09.000Z</time>
      </trkpt>
      <trkpt lat="48.74027" lon="1.96926">
        <ele>163.5</ele>
        <time>2021-12-11T11:17:10.000Z</time>
      </trkpt>
      <trkpt lat="48.74028" lon="1.96924">
        <ele>163.6</ele>
        <time>2021-12-11T11:17:11.000Z</time>
      </trkpt>
      <trkpt lat="48.74028" lon="1.96922">
        <ele>163.6</ele>
        <time>2021-12-11T11:17:12.000Z</time>
      </trkpt>
      <trkpt lat="48.74028" lon="1.96916">
        <ele>163.5</ele>
        <time>2021-12-11T11:17:15.000Z</time>
      </trkpt>
      <trkpt lat="48.74028" lon="1.96914">
        <ele>163.5</ele>
        <time>2021-12-11T11:17:16.000Z</time>
      </trkpt>
      <trkpt lat="48.74029" lon="1.96912">
        <ele>163.6</ele>
        <time>2021-12-11T11:17:17.000Z</time>
      </trkpt>
      <trkpt lat="48.7403" lon="1.9691">
        <ele>163.5</ele>
        <time>2021-12-11T11:17:18.000Z</time>
      </trkpt>
      <trkpt lat="48.74031" lon="1.96909">
        <ele>163.6</ele>
        <time>2021-12-11T11:17:19.000Z</time>
      </trkpt>
      <trkpt lat="48.74031" lon="1.96907">
        <ele>163.5</ele>
        <time>2021-12-11T11:17:20.000Z</time>
      </trkpt>
      <trkpt lat="48.74032" lon="1.96905">
        <ele>163.6</ele>
        <time>2021-12-11T11:17:21.000Z</time>
      </trkpt>
      <trkpt lat="48.74032" lon="1.96904">
        <ele>163.6</ele>
        <time>2021-12-11T11:17:22.000Z</time>
      </trkpt>
      <trkpt lat="48.74032" lon="1.96902">
        <ele>163.6</ele>
        <time>2021-12-11T11:17:23.000Z</time>
      </trkpt>
      <trkpt lat="48.74032" lon="1.96895">
        <ele>163.6</ele>
        <time>2021-12-11T11:17:36.000Z</time>
      </trkpt>
      <trkpt lat="48.74029" lon="1.96885">
        <ele>163.9</ele>
        <time>2021-12-11T11:17:49.000Z</time>
      </trkpt>
      <trkpt lat="48.74028" lon="1.96883">
        <ele>163.8</ele>
        <time>2021-12-11T11:17:50.000Z</time>
      </trkpt>
      <trkpt lat="48.74028" lon="1.96882">
        <ele>163.6</ele>
        <time>2021-12-11T11:17:51.000Z</time>
      </trkpt>
      <trkpt lat="48.74027" lon="1.9688">
        <ele>163.6</ele>
        <time>2021-12-11T11:17:52.000Z</time>
      </trkpt>
      <trkpt lat="48.74018" lon="1.96865">
        <ele>163.7</ele>
        <time>2021-12-11T11:18:03.000Z</time>
      </trkpt>
      <trkpt lat="48.74017" lon="1.96863">
        <ele>163.7</ele>
        <time>2021-12-11T11:18:04.000Z</time>
      </trkpt>
      <trkpt lat="48.74017" lon="1.96861">
        <ele>163.7</ele>
        <time>2021-12-11T11:18:05.000Z</time>
      </trkpt>
      <trkpt lat="48.74016" lon="1.9686">
        <ele>163.5</ele>
        <time>2021-12-11T11:18:06.000Z</time>
      </trkpt>
      <trkpt lat="48.74015" lon="1.96858">
        <ele>163.7</ele>
        <time>2021-12-11T11:18:07.000Z</time>
      </trkpt>
      <trkpt lat="48.74004" lon="1.96836">
        <ele>163.8</ele>
        <time>2021-12-11T11:18:22.000Z</time>
      </trkpt>
      <trkpt lat="48.73994" lon="1.96817">
        <ele>163.6</ele>
        <time>2021-12-11T11:18:35.000Z</time>
      </trkpt>
      <trkpt lat="48.73979" lon="1.96794">
        <ele>163.8</ele>
        <time>2021-12-11T11:18:51.000Z</time>
      </trkpt>
      <trkpt lat="48.73975" lon="1.96786">
        <ele>163.9</ele>
        <time>2021-12-11T11:18:56.000Z</time>
      </trkpt>
      <trkpt lat="48.73974" lon="1.96785">
        <ele>163.9</ele>
        <time>2021-12-11T11:18:57.000Z</time>
      </trkpt>
      <trkpt lat="48.73973" lon="1.96784">
        <ele>164</ele>
        <time>2021-12-11T11:18:58.000Z</time>
      </trkpt>
      <trkpt lat="48.73972" lon="1.96782">
        <ele>163.9</ele>
        <time>2021-12-11T11:18:59.000Z</time>
      </trkpt>
      <trkpt lat="48.73971" lon="1.96781">
        <ele>164.2</ele>
        <time>2021-12-11T11:19:00.000Z</time>
      </trkpt>
      <trkpt lat="48.7397" lon="1.9678">
        <ele>164.1</ele>
        <time>2021-12-11T11:19:01.000Z</time>
      </trkpt>
      <trkpt lat="48.73965" lon="1.9677">
        <ele>164.1</ele>
        <time>2021-12-11T11:19:08.000Z</time>
      </trkpt>
      <trkpt lat="48.73964" lon="1.96768">
        <ele>164.2</ele>
        <time>2021-12-11T11:19:09.000Z</time>
      </trkpt>
      <trkpt lat="48.73963" lon="1.96766">
        <ele>164.2</ele>
        <time>2021-12-11T11:19:10.000Z</time>
      </trkpt>
      <trkpt lat="48.73962" lon="1.96765">
        <ele>164.3</ele>
        <time>2021-12-11T11:19:11.000Z</time>
      </trkpt>
      <trkpt lat="48.73961" lon="1.96763">
        <ele>164.3</ele>
        <time>2021-12-11T11:19:12.000Z</time>
      </trkpt>
      <trkpt lat="48.73948" lon="1.96745">
        <ele>164.4</ele>
        <time>2021-12-11T11:19:27.000Z</time>
      </trkpt>
      <trkpt lat="48.73947" lon="1.96744">
        <ele>164.4</ele>
        <time>2021-12-11T11:19:28.000Z</time>
      </trkpt>
      <trkpt lat="48.73946" lon="1.96742">
        <ele>164.3</ele>
        <time>2021-12-11T11:19:29.000Z</time>
      </trkpt>
      <trkpt lat="48.73943" lon="1.96738">
        <ele>164.3</ele>
        <time>2021-12-11T11:19:32.000Z</time>
      </trkpt>
      <trkpt lat="48.73942" lon="1.96736">
        <ele>164.4</ele>
        <time>2021-12-11T11:19:33.000Z</time>
      </trkpt>
      <trkpt lat="48.73941" lon="1.96735">
        <ele>164.5</ele>
        <time>2021-12-11T11:19:34.000Z</time>
      </trkpt>
      <trkpt lat="48.7394" lon="1.96734">
        <ele>164.3</ele>
        <time>2021-12-11T11:19:35.000Z</time>
      </trkpt>
      <trkpt lat="48.73939" lon="1.96733">
        <ele>164.4</ele>
        <time>2021-12-11T11:19:36.000Z</time>
      </trkpt>
      <trkpt lat="48.73938" lon="1.96732">
        <ele>164.3</ele>
        <time>2021-12-11T11:19:37.000Z</time>
      </trkpt>
      <trkpt lat="48.73925" lon="1.96716">
        <ele>164.7</ele>
        <time>2021-12-11T11:19:50.000Z</time>
      </trkpt>
      <trkpt lat="48.73924" lon="1.96715">
        <ele>164.6</ele>
        <time>2021-12-11T11:19:51.000Z</time>
      </trkpt>
      <trkpt lat="48.73923" lon="1.96713">
        <ele>164.6</ele>
        <time>2021-12-11T11:19:52.000Z</time>
      </trkpt>
      <trkpt lat="48.73922" lon="1.96712">
        <ele>164.6</ele>
        <time>2021-12-11T11:19:53.000Z</time>
      </trkpt>
      <trkpt lat="48.73911" lon="1.96695">
        <ele>164.8</ele>
        <time>2021-12-11T11:20:05.000Z</time>
      </trkpt>
      <trkpt lat="48.73901" lon="1.9668">
        <ele>164.9</ele>
        <time>2021-12-11T11:20:16.000Z</time>
      </trkpt>
      <trkpt lat="48.73895" lon="1.96673">
        <ele>164.9</ele>
        <time>2021-12-11T11:20:22.000Z</time>
      </trkpt>
      <trkpt lat="48.73895" lon="1.96671">
        <ele>165</ele>
        <time>2021-12-11T11:20:23.000Z</time>
      </trkpt>
      <trkpt lat="48.73894" lon="1.96669">
        <ele>165.1</ele>
        <time>2021-12-11T11:20:24.000Z</time>
      </trkpt>
      <trkpt lat="48.73894" lon="1.96668">
        <ele>165.2</ele>
        <time>2021-12-11T11:20:25.000Z</time>
      </trkpt>
      <trkpt lat="48.73893" lon="1.96667">
        <ele>165.2</ele>
        <time>2021-12-11T11:20:26.000Z</time>
      </trkpt>
      <trkpt lat="48.73892" lon="1.96666">
        <ele>165.2</ele>
        <time>2021-12-11T11:20:27.000Z</time>
      </trkpt>
      <trkpt lat="48.73891" lon="1.96665">
        <ele>165</ele>
        <time>2021-12-11T11:20:28.000Z</time>
      </trkpt>
      <trkpt lat="48.7389" lon="1.96664">
        <ele>165.1</ele>
        <time>2021-12-11T11:20:29.000Z</time>
      </trkpt>
      <trkpt lat="48.73889" lon="1.96663">
        <ele>165.1</ele>
        <time>2021-12-11T11:20:30.000Z</time>
      </trkpt>
      <trkpt lat="48.73888" lon="1.96661">
        <ele>165.1</ele>
        <time>2021-12-11T11:20:31.000Z</time>
      </trkpt>
      <trkpt lat="48.73886" lon="1.96658">
        <ele>165.2</ele>
        <time>2021-12-11T11:20:33.000Z</time>
      </trkpt>
      <trkpt lat="48.73886" lon="1.96657">
        <ele>165.1</ele>
        <time>2021-12-11T11:20:34.000Z</time>
      </trkpt>
      <trkpt lat="48.73875" lon="1.96636">
        <ele>165.3</ele>
        <time>2021-12-11T11:20:47.000Z</time>
      </trkpt>
      <trkpt lat="48.73874" lon="1.96634">
        <ele>165.3</ele>
        <time>2021-12-11T11:20:48.000Z</time>
      </trkpt>
      <trkpt lat="48.73873" lon="1.96633">
        <ele>165.4</ele>
        <time>2021-12-11T11:20:49.000Z</time>
      </trkpt>
      <trkpt lat="48.73872" lon="1.96631">
        <ele>165.7</ele>
        <time>2021-12-11T11:20:50.000Z</time>
      </trkpt>
      <trkpt lat="48.73871" lon="1.9663">
        <ele>165.8</ele>
        <time>2021-12-11T11:20:51.000Z</time>
      </trkpt>
      <trkpt lat="48.73871" lon="1.96629">
        <ele>165.7</ele>
        <time>2021-12-11T11:20:52.000Z</time>
      </trkpt>
      <trkpt lat="48.7387" lon="1.96628">
        <ele>165.6</ele>
        <time>2021-12-11T11:20:53.000Z</time>
      </trkpt>
      <trkpt lat="48.73864" lon="1.96622">
        <ele>165.6</ele>
        <time>2021-12-11T11:20:58.000Z</time>
      </trkpt>
      <trkpt lat="48.73864" lon="1.96621">
        <ele>165.8</ele>
        <time>2021-12-11T11:20:59.000Z</time>
      </trkpt>
      <trkpt lat="48.73852" lon="1.96603">
        <ele>165.8</ele>
        <time>2021-12-11T11:21:13.000Z</time>
      </trkpt>
      <trkpt lat="48.73843" lon="1.96583">
        <ele>166</ele>
        <time>2021-12-11T11:21:27.000Z</time>
      </trkpt>
      <trkpt lat="48.7383" lon="1.96564">
        <ele>166.4</ele>
        <time>2021-12-11T11:21:43.000Z</time>
      </trkpt>
      <trkpt lat="48.73826" lon="1.96556">
        <ele>166.4</ele>
        <time>2021-12-11T11:21:48.000Z</time>
      </trkpt>
      <trkpt lat="48.73826" lon="1.96554">
        <ele>166.4</ele>
        <time>2021-12-11T11:21:49.000Z</time>
      </trkpt>
      <trkpt lat="48.73827" lon="1.96553">
        <ele>166.5</ele>
        <time>2021-12-11T11:21:50.000Z</time>
      </trkpt>
      <trkpt lat="48.73827" lon="1.96551">
        <ele>166.6</ele>
        <time>2021-12-11T11:21:51.000Z</time>
      </trkpt>
      <trkpt lat="48.73827" lon="1.96549">
        <ele>166.4</ele>
        <time>2021-12-11T11:21:52.000Z</time>
      </trkpt>
      <trkpt lat="48.73828" lon="1.96547">
        <ele>166.4</ele>
        <time>2021-12-11T11:21:53.000Z</time>
      </trkpt>
      <trkpt lat="48.73828" lon="1.96537">
        <ele>166.5</ele>
        <time>2021-12-11T11:21:59.000Z</time>
      </trkpt>
      <trkpt lat="48.73827" lon="1.96526">
        <ele>166.5</ele>
        <time>2021-12-11T11:22:04.000Z</time>
      </trkpt>
      <trkpt lat="48.73822" lon="1.96513">
        <ele>166.7</ele>
        <time>2021-12-11T11:22:12.000Z</time>
      </trkpt>
      <trkpt lat="48.73818" lon="1.965">
        <ele>166.6</ele>
        <time>2021-12-11T11:22:26.000Z</time>
      </trkpt>
      <trkpt lat="48.73815" lon="1.96506">
        <ele>166.4</ele>
        <time>2021-12-11T11:22:33.000Z</time>
      </trkpt>
      <trkpt lat="48.73811" lon="1.96505">
        <ele>167.1</ele>
        <time>2021-12-11T11:22:37.000Z</time>
      </trkpt>
      <trkpt lat="48.73809" lon="1.96503">
        <ele>167</ele>
        <time>2021-12-11T11:22:40.000Z</time>
      </trkpt>
      <trkpt lat="48.73805" lon="1.96503">
        <ele>166.5</ele>
        <time>2021-12-11T11:22:43.000Z</time>
      </trkpt>
      <trkpt lat="48.73785" lon="1.96509">
        <ele>167</ele>
        <time>2021-12-11T11:22:58.000Z</time>
      </trkpt>
      <trkpt lat="48.73783" lon="1.96509">
        <ele>167.3</ele>
        <time>2021-12-11T11:22:59.000Z</time>
      </trkpt>
      <trkpt lat="48.73764" lon="1.96493">
        <ele>167.3</ele>
        <time>2021-12-11T11:23:11.000Z</time>
      </trkpt>
      <trkpt lat="48.73744" lon="1.96479">
        <ele>167.2</ele>
        <time>2021-12-11T11:23:27.000Z</time>
      </trkpt>
      <trkpt lat="48.73731" lon="1.96469">
        <ele>167.1</ele>
        <time>2021-12-11T11:23:37.000Z</time>
      </trkpt>
      <trkpt lat="48.7373" lon="1.96467">
        <ele>167.2</ele>
        <time>2021-12-11T11:23:38.000Z</time>
      </trkpt>
      <trkpt lat="48.73712" lon="1.96468">
        <ele>166.8</ele>
        <time>2021-12-11T11:23:52.000Z</time>
      </trkpt>
      <trkpt lat="48.73711" lon="1.96468">
        <ele>167.2</ele>
        <time>2021-12-11T11:24:10.000Z</time>
      </trkpt>
      <trkpt lat="48.73703" lon="1.96467">
        <ele>167.4</ele>
        <time>2021-12-11T11:24:25.000Z</time>
      </trkpt>
      <trkpt lat="48.73698" lon="1.96464">
        <ele>167.3</ele>
        <time>2021-12-11T11:24:28.000Z</time>
      </trkpt>
      <trkpt lat="48.73697" lon="1.96463">
        <ele>167.2</ele>
        <time>2021-12-11T11:24:29.000Z</time>
      </trkpt>
      <trkpt lat="48.73696" lon="1.96462">
        <ele>167.2</ele>
        <time>2021-12-11T11:24:30.000Z</time>
      </trkpt>
      <trkpt lat="48.73672" lon="1.9645">
        <ele>167.3</ele>
        <time>2021-12-11T11:24:45.000Z</time>
      </trkpt>
      <trkpt lat="48.73653" lon="1.96441">
        <ele>166.9</ele>
        <time>2021-12-11T11:24:59.000Z</time>
      </trkpt>
      <trkpt lat="48.73636" lon="1.96439">
        <ele>166.6</ele>
        <time>2021-12-11T11:25:14.000Z</time>
      </trkpt>
      <trkpt lat="48.73632" lon="1.9644">
        <ele>166.6</ele>
        <time>2021-12-11T11:25:18.000Z</time>
      </trkpt>
      <trkpt lat="48.73631" lon="1.9644">
        <ele>166.6</ele>
        <time>2021-12-11T11:25:19.000Z</time>
      </trkpt>
      <trkpt lat="48.73612" lon="1.96441">
        <ele>166.4</ele>
        <time>2021-12-11T11:25:32.000Z</time>
      </trkpt>
      <trkpt lat="48.73591" lon="1.96441">
        <ele>166</ele>
        <time>2021-12-11T11:25:44.000Z</time>
      </trkpt>
      <trkpt lat="48.7356" lon="1.96441">
        <ele>165.8</ele>
        <time>2021-12-11T11:26:00.000Z</time>
      </trkpt>
      <trkpt lat="48.73538" lon="1.96449">
        <ele>165.9</ele>
        <time>2021-12-11T11:26:12.000Z</time>
      </trkpt>
      <trkpt lat="48.73515" lon="1.96451">
        <ele>166</ele>
        <time>2021-12-11T11:26:25.000Z</time>
      </trkpt>
      <trkpt lat="48.7349" lon="1.96455">
        <ele>165.8</ele>
        <time>2021-12-11T11:26:41.000Z</time>
      </trkpt>
      <trkpt lat="48.73469" lon="1.96454">
        <ele>166.1</ele>
        <time>2021-12-11T11:26:55.000Z</time>
      </trkpt>
      <trkpt lat="48.73453" lon="1.96457">
        <ele>165.9</ele>
        <time>2021-12-11T11:27:07.000Z</time>
      </trkpt>
      <trkpt lat="48.73436" lon="1.96457">
        <ele>166.2</ele>
        <time>2021-12-11T11:27:21.000Z</time>
      </trkpt>
      <trkpt lat="48.73414" lon="1.96458">
        <ele>166.4</ele>
        <time>2021-12-11T11:27:35.000Z</time>
      </trkpt>
      <trkpt lat="48.73391" lon="1.96462">
        <ele>166.6</ele>
        <time>2021-12-11T11:27:51.000Z</time>
      </trkpt>
      <trkpt lat="48.73379" lon="1.96464">
        <ele>166.5</ele>
        <time>2021-12-11T11:28:02.000Z</time>
      </trkpt>
      <trkpt lat="48.73362" lon="1.96465">
        <ele>166.8</ele>
        <time>2021-12-11T11:28:13.000Z</time>
      </trkpt>
      <trkpt lat="48.7334" lon="1.96469">
        <ele>166.9</ele>
        <time>2021-12-11T11:28:26.000Z</time>
      </trkpt>
      <trkpt lat="48.73326" lon="1.96474">
        <ele>166.9</ele>
        <time>2021-12-11T11:28:39.000Z</time>
      </trkpt>
      <trkpt lat="48.73311" lon="1.96476">
        <ele>167</ele>
        <time>2021-12-11T11:28:52.000Z</time>
      </trkpt>
      <trkpt lat="48.73292" lon="1.96481">
        <ele>167.3</ele>
        <time>2021-12-11T11:29:06.000Z</time>
      </trkpt>
      <trkpt lat="48.73269" lon="1.96486">
        <ele>167.7</ele>
        <time>2021-12-11T11:29:20.000Z</time>
      </trkpt>
      <trkpt lat="48.73251" lon="1.9649">
        <ele>167.4</ele>
        <time>2021-12-11T11:29:33.000Z</time>
      </trkpt>
      <trkpt lat="48.73234" lon="1.96493">
        <ele>167.7</ele>
        <time>2021-12-11T11:29:44.000Z</time>
      </trkpt>
      <trkpt lat="48.73211" lon="1.96491">
        <ele>167.9</ele>
        <time>2021-12-11T11:30:01.000Z</time>
      </trkpt>
      <trkpt lat="48.73203" lon="1.96493">
        <ele>168.2</ele>
        <time>2021-12-11T11:30:08.000Z</time>
      </trkpt>
      <trkpt lat="48.73201" lon="1.96493">
        <ele>168.2</ele>
        <time>2021-12-11T11:30:09.000Z</time>
      </trkpt>
      <trkpt lat="48.732" lon="1.96493">
        <ele>168.1</ele>
        <time>2021-12-11T11:30:10.000Z</time>
      </trkpt>
      <trkpt lat="48.73199" lon="1.96494">
        <ele>168.2</ele>
        <time>2021-12-11T11:30:11.000Z</time>
      </trkpt>
      <trkpt lat="48.73198" lon="1.96494">
        <ele>168.3</ele>
        <time>2021-12-11T11:30:12.000Z</time>
      </trkpt>
      <trkpt lat="48.73197" lon="1.96493">
        <ele>168.2</ele>
        <time>2021-12-11T11:30:13.000Z</time>
      </trkpt>
      <trkpt lat="48.7318" lon="1.96493">
        <ele>168.4</ele>
        <time>2021-12-11T11:30:25.000Z</time>
      </trkpt>
      <trkpt lat="48.73164" lon="1.96494">
        <ele>168.6</ele>
        <time>2021-12-11T11:30:36.000Z</time>
      </trkpt>
      <trkpt lat="48.73141" lon="1.96493">
        <ele>168.7</ele>
        <time>2021-12-11T11:30:51.000Z</time>
      </trkpt>
      <trkpt lat="48.73121" lon="1.96489">
        <ele>169</ele>
        <time>2021-12-11T11:31:05.000Z</time>
      </trkpt>
      <trkpt lat="48.73107" lon="1.96487">
        <ele>169.3</ele>
        <time>2021-12-11T11:31:17.000Z</time>
      </trkpt>
      <trkpt lat="48.73087" lon="1.96487">
        <ele>169.6</ele>
        <time>2021-12-11T11:31:31.000Z</time>
      </trkpt>
      <trkpt lat="48.73064" lon="1.96483">
        <ele>170.1</ele>
        <time>2021-12-11T11:31:46.000Z</time>
      </trkpt>
      <trkpt lat="48.73047" lon="1.96482">
        <ele>170.6</ele>
        <time>2021-12-11T11:32:00.000Z</time>
      </trkpt>
      <trkpt lat="48.73029" lon="1.96482">
        <ele>171.1</ele>
        <time>2021-12-11T11:32:14.000Z</time>
      </trkpt>
      <trkpt lat="48.73021" lon="1.96473">
        <ele>170.5</ele>
        <time>2021-12-11T11:32:26.000Z</time>
      </trkpt>
      <trkpt lat="48.73017" lon="1.96477">
        <ele>171.4</ele>
        <time>2021-12-11T11:32:40.000Z</time>
      </trkpt>
      <trkpt lat="48.73016" lon="1.96477">
        <ele>171.3</ele>
        <time>2021-12-11T11:32:41.000Z</time>
      </trkpt>
      <trkpt lat="48.73015" lon="1.96478">
        <ele>171.3</ele>
        <time>2021-12-11T11:32:42.000Z</time>
      </trkpt>
      <trkpt lat="48.73013" lon="1.96478">
        <ele>171.4</ele>
        <time>2021-12-11T11:32:43.000Z</time>
      </trkpt>
      <trkpt lat="48.72964" lon="1.96469">
        <ele>171.2</ele>
        <time>2021-12-11T11:33:08.000Z</time>
      </trkpt>
      <trkpt lat="48.72962" lon="1.96469">
        <ele>171.1</ele>
        <time>2021-12-11T11:33:09.000Z</time>
      </trkpt>
      <trkpt lat="48.72961" lon="1.96469">
        <ele>171.1</ele>
        <time>2021-12-11T11:33:10.000Z</time>
      </trkpt>
      <trkpt lat="48.7296" lon="1.96469">
        <ele>171.1</ele>
        <time>2021-12-11T11:33:11.000Z</time>
      </trkpt>
      <trkpt lat="48.72939" lon="1.96469">
        <ele>171.2</ele>
        <time>2021-12-11T11:33:27.000Z</time>
      </trkpt>
      <trkpt lat="48.72918" lon="1.96467">
        <ele>171.2</ele>
        <time>2021-12-11T11:33:42.000Z</time>
      </trkpt>
      <trkpt lat="48.72916" lon="1.96467">
        <ele>171.3</ele>
        <time>2021-12-11T11:33:43.000Z</time>
      </trkpt>
      <trkpt lat="48.72915" lon="1.96467">
        <ele>171.2</ele>
        <time>2021-12-11T11:33:44.000Z</time>
      </trkpt>
      <trkpt lat="48.72914" lon="1.96467">
        <ele>171.3</ele>
        <time>2021-12-11T11:33:45.000Z</time>
      </trkpt>
      <trkpt lat="48.72913" lon="1.96466">
        <ele>171.3</ele>
        <time>2021-12-11T11:33:46.000Z</time>
      </trkpt>
      <trkpt lat="48.72912" lon="1.96466">
        <ele>171.3</ele>
        <time>2021-12-11T11:33:47.000Z</time>
      </trkpt>
      <trkpt lat="48.72899" lon="1.96466">
        <ele>171</ele>
        <time>2021-12-11T11:33:57.000Z</time>
      </trkpt>
      <trkpt lat="48.72898" lon="1.96465">
        <ele>170.9</ele>
        <time>2021-12-11T11:33:58.000Z</time>
      </trkpt>
      <trkpt lat="48.72896" lon="1.96465">
        <ele>170.9</ele>
        <time>2021-12-11T11:33:59.000Z</time>
      </trkpt>
      <trkpt lat="48.72894" lon="1.96465">
        <ele>170.8</ele>
        <time>2021-12-11T11:34:00.000Z</time>
      </trkpt>
      <trkpt lat="48.72893" lon="1.96465">
        <ele>171</ele>
        <time>2021-12-11T11:34:01.000Z</time>
      </trkpt>
      <trkpt lat="48.72892" lon="1.96466">
        <ele>170.9</ele>
        <time>2021-12-11T11:34:02.000Z</time>
      </trkpt>
      <trkpt lat="48.7289" lon="1.96466">
        <ele>170.8</ele>
        <time>2021-12-11T11:34:03.000Z</time>
      </trkpt>
      <trkpt lat="48.72888" lon="1.96466">
        <ele>170.8</ele>
        <time>2021-12-11T11:34:04.000Z</time>
      </trkpt>
      <trkpt lat="48.72871" lon="1.9647">
        <ele>170.6</ele>
        <time>2021-12-11T11:34:18.000Z</time>
      </trkpt>
      <trkpt lat="48.72854" lon="1.96474">
        <ele>170.4</ele>
        <time>2021-12-11T11:34:30.000Z</time>
      </trkpt>
      <trkpt lat="48.72846" lon="1.96472">
        <ele>170.1</ele>
        <time>2021-12-11T11:34:39.000Z</time>
      </trkpt>
      <trkpt lat="48.72845" lon="1.96471">
        <ele>170.1</ele>
        <time>2021-12-11T11:34:40.000Z</time>
      </trkpt>
      <trkpt lat="48.72844" lon="1.96471">
        <ele>170.2</ele>
        <time>2021-12-11T11:34:41.000Z</time>
      </trkpt>
      <trkpt lat="48.72815" lon="1.96471">
        <ele>169.9</ele>
        <time>2021-12-11T11:35:03.000Z</time>
      </trkpt>
      <trkpt lat="48.72799" lon="1.96473">
        <ele>169.8</ele>
        <time>2021-12-11T11:35:16.000Z</time>
      </trkpt>
      <trkpt lat="48.72798" lon="1.96472">
        <ele>169.9</ele>
        <time>2021-12-11T11:35:17.000Z</time>
      </trkpt>
      <trkpt lat="48.72796" lon="1.96473">
        <ele>169.9</ele>
        <time>2021-12-11T11:35:18.000Z</time>
      </trkpt>
      <trkpt lat="48.72794" lon="1.96473">
        <ele>169.8</ele>
        <time>2021-12-11T11:35:19.000Z</time>
      </trkpt>
      <trkpt lat="48.72793" lon="1.96474">
        <ele>169.8</ele>
        <time>2021-12-11T11:35:20.000Z</time>
      </trkpt>
      <trkpt lat="48.72791" lon="1.96474">
        <ele>169.8</ele>
        <time>2021-12-11T11:35:21.000Z</time>
      </trkpt>
      <trkpt lat="48.7277" lon="1.96475">
        <ele>169.7</ele>
        <time>2021-12-11T11:35:36.000Z</time>
      </trkpt>
      <trkpt lat="48.7276" lon="1.96474">
        <ele>169.7</ele>
        <time>2021-12-11T11:35:44.000Z</time>
      </trkpt>
      <trkpt lat="48.72745" lon="1.96472">
        <ele>169.7</ele>
        <time>2021-12-11T11:35:56.000Z</time>
      </trkpt>
      <trkpt lat="48.7273" lon="1.96469">
        <ele>169.7</ele>
        <time>2021-12-11T11:36:07.000Z</time>
      </trkpt>
      <trkpt lat="48.72729" lon="1.96468">
        <ele>169.7</ele>
        <time>2021-12-11T11:36:08.000Z</time>
      </trkpt>
      <trkpt lat="48.72713" lon="1.96465">
        <ele>170</ele>
        <time>2021-12-11T11:36:21.000Z</time>
      </trkpt>
      <trkpt lat="48.72708" lon="1.96464">
        <ele>169.4</ele>
        <time>2021-12-11T11:36:26.000Z</time>
      </trkpt>
      <trkpt lat="48.72707" lon="1.96463">
        <ele>169.5</ele>
        <time>2021-12-11T11:36:27.000Z</time>
      </trkpt>
      <trkpt lat="48.72706" lon="1.96463">
        <ele>169.5</ele>
        <time>2021-12-11T11:36:28.000Z</time>
      </trkpt>
      <trkpt lat="48.72686" lon="1.96454">
        <ele>169.7</ele>
        <time>2021-12-11T11:36:41.000Z</time>
      </trkpt>
      <trkpt lat="48.72672" lon="1.96445">
        <ele>169.3</ele>
        <time>2021-12-11T11:36:55.000Z</time>
      </trkpt>
      <trkpt lat="48.72671" lon="1.96445">
        <ele>169.4</ele>
        <time>2021-12-11T11:36:56.000Z</time>
      </trkpt>
      <trkpt lat="48.72669" lon="1.96445">
        <ele>169.4</ele>
        <time>2021-12-11T11:36:57.000Z</time>
      </trkpt>
      <trkpt lat="48.72662" lon="1.96441">
        <ele>169.2</ele>
        <time>2021-12-11T11:37:07.000Z</time>
      </trkpt>
      <trkpt lat="48.72661" lon="1.9644">
        <ele>169.2</ele>
        <time>2021-12-11T11:37:08.000Z</time>
      </trkpt>
      <trkpt lat="48.72659" lon="1.96439">
        <ele>169.1</ele>
        <time>2021-12-11T11:37:09.000Z</time>
      </trkpt>
      <trkpt lat="48.72647" lon="1.96431">
        <ele>169.1</ele>
        <time>2021-12-11T11:37:19.000Z</time>
      </trkpt>
      <trkpt lat="48.7263" lon="1.96421">
        <ele>169.1</ele>
        <time>2021-12-11T11:37:33.000Z</time>
      </trkpt>
      <trkpt lat="48.72616" lon="1.96411">
        <ele>168.7</ele>
        <time>2021-12-11T11:37:47.000Z</time>
      </trkpt>
      <trkpt lat="48.72615" lon="1.9641">
        <ele>168.6</ele>
        <time>2021-12-11T11:37:48.000Z</time>
      </trkpt>
      <trkpt lat="48.72614" lon="1.96409">
        <ele>168.7</ele>
        <time>2021-12-11T11:37:49.000Z</time>
      </trkpt>
      <trkpt lat="48.72603" lon="1.964">
        <ele>168.5</ele>
        <time>2021-12-11T11:38:00.000Z</time>
      </trkpt>
      <trkpt lat="48.72591" lon="1.96393">
        <ele>168.1</ele>
        <time>2021-12-11T11:38:13.000Z</time>
      </trkpt>
      <trkpt lat="48.72573" lon="1.96379">
        <ele>167.8</ele>
        <time>2021-12-11T11:38:27.000Z</time>
      </trkpt>
      <trkpt lat="48.7256" lon="1.9637">
        <ele>167.4</ele>
        <time>2021-12-11T11:38:39.000Z</time>
      </trkpt>
      <trkpt lat="48.72554" lon="1.96366">
        <ele>167.3</ele>
        <time>2021-12-11T11:38:43.000Z</time>
      </trkpt>
      <trkpt lat="48.72553" lon="1.96365">
        <ele>167.5</ele>
        <time>2021-12-11T11:38:44.000Z</time>
      </trkpt>
      <trkpt lat="48.72538" lon="1.96356">
        <ele>166.8</ele>
        <time>2021-12-11T11:38:54.000Z</time>
      </trkpt>
      <trkpt lat="48.72536" lon="1.96356">
        <ele>166.9</ele>
        <time>2021-12-11T11:38:55.000Z</time>
      </trkpt>
      <trkpt lat="48.72533" lon="1.96353">
        <ele>166.8</ele>
        <time>2021-12-11T11:38:58.000Z</time>
      </trkpt>
      <trkpt lat="48.72522" lon="1.96339">
        <ele>166.2</ele>
        <time>2021-12-11T11:39:14.000Z</time>
      </trkpt>
      <trkpt lat="48.72512" lon="1.96316">
        <ele>164</ele>
        <time>2021-12-11T11:39:36.000Z</time>
      </trkpt>
      <trkpt lat="48.72502" lon="1.96302">
        <ele>163</ele>
        <time>2021-12-11T11:39:50.000Z</time>
      </trkpt>
      <trkpt lat="48.72488" lon="1.96286">
        <ele>162.4</ele>
        <time>2021-12-11T11:40:05.000Z</time>
      </trkpt>
      <trkpt lat="48.72469" lon="1.96277">
        <ele>162</ele>
        <time>2021-12-11T11:40:23.000Z</time>
      </trkpt>
      <trkpt lat="48.72454" lon="1.96275">
        <ele>161.7</ele>
        <time>2021-12-11T11:40:35.000Z</time>
      </trkpt>
      <trkpt lat="48.72433" lon="1.96267">
        <ele>161.3</ele>
        <time>2021-12-11T11:40:53.000Z</time>
      </trkpt>
      <trkpt lat="48.72409" lon="1.9626">
        <ele>161</ele>
        <time>2021-12-11T11:41:10.000Z</time>
      </trkpt>
      <trkpt lat="48.72392" lon="1.96256">
        <ele>161</ele>
        <time>2021-12-11T11:41:21.000Z</time>
      </trkpt>
      <trkpt lat="48.72387" lon="1.96255">
        <ele>161</ele>
        <time>2021-12-11T11:41:25.000Z</time>
      </trkpt>
      <trkpt lat="48.72375" lon="1.96249">
        <ele>161.3</ele>
        <time>2021-12-11T11:41:37.000Z</time>
      </trkpt>
      <trkpt lat="48.72371" lon="1.96246">
        <ele>161.4</ele>
        <time>2021-12-11T11:41:40.000Z</time>
      </trkpt>
      <trkpt lat="48.7235" lon="1.96231">
        <ele>162.2</ele>
        <time>2021-12-11T11:41:59.000Z</time>
      </trkpt>
      <trkpt lat="48.72336" lon="1.96217">
        <ele>162</ele>
        <time>2021-12-11T11:42:14.000Z</time>
      </trkpt>
      <trkpt lat="48.72308" lon="1.96196">
        <ele>162</ele>
        <time>2021-12-11T11:42:38.000Z</time>
      </trkpt>
      <trkpt lat="48.72299" lon="1.96189">
        <ele>162</ele>
        <time>2021-12-11T11:42:48.000Z</time>
      </trkpt>
      <trkpt lat="48.72289" lon="1.96186">
        <ele>161.8</ele>
        <time>2021-12-11T11:42:55.000Z</time>
      </trkpt>
      <trkpt lat="48.72288" lon="1.96185">
        <ele>161.8</ele>
        <time>2021-12-11T11:42:56.000Z</time>
      </trkpt>
      <trkpt lat="48.72272" lon="1.96177">
        <ele>161.4</ele>
        <time>2021-12-11T11:43:09.000Z</time>
      </trkpt>
      <trkpt lat="48.72262" lon="1.9618">
        <ele>161.8</ele>
        <time>2021-12-11T11:43:20.000Z</time>
      </trkpt>
      <trkpt lat="48.72254" lon="1.9618">
        <ele>161.6</ele>
        <time>2021-12-11T11:43:32.000Z</time>
      </trkpt>
      <trkpt lat="48.7225" lon="1.9618">
        <ele>161.3</ele>
        <time>2021-12-11T11:43:50.000Z</time>
      </trkpt>
      <trkpt lat="48.72251" lon="1.96186">
        <ele>161.1</ele>
        <time>2021-12-11T11:44:05.000Z</time>
      </trkpt>
      <trkpt lat="48.72246" lon="1.96182">
        <ele>160.5</ele>
        <time>2021-12-11T11:44:41.000Z</time>
      </trkpt>
      <trkpt lat="48.72251" lon="1.96184">
        <ele>160.3</ele>
        <time>2021-12-11T11:45:37.000Z</time>
      </trkpt>
      <trkpt lat="48.72249" lon="1.96184">
        <ele>160.3</ele>
        <time>2021-12-11T11:46:34.000Z</time>
      </trkpt>
      <trkpt lat="48.72247" lon="1.9618">
        <ele>160.2</ele>
        <time>2021-12-11T11:47:21.000Z</time>
      </trkpt>
      <trkpt lat="48.72254" lon="1.96187">
        <ele>159.9</ele>
        <time>2021-12-11T11:48:12.000Z</time>
      </trkpt>
      <trkpt lat="48.72253" lon="1.96185">
        <ele>159.7</ele>
        <time>2021-12-11T11:49:12.000Z</time>
      </trkpt>
      <trkpt lat="48.72251" lon="1.96188">
        <ele>159.3</ele>
        <time>2021-12-11T11:50:06.000Z</time>
      </trkpt>
      <trkpt lat="48.72249" lon="1.9619">
        <ele>159</ele>
        <time>2021-12-11T11:51:05.000Z</time>
      </trkpt>
      <trkpt lat="48.72249" lon="1.9619">
        <ele>159</ele>
        <time>2021-12-11T11:52:08.000Z</time>
      </trkpt>
      <trkpt lat="48.72249" lon="1.96192">
        <ele>159.2</ele>
        <time>2021-12-11T11:53:13.000Z</time>
      </trkpt>
      <trkpt lat="48.72251" lon="1.96187">
        <ele>159.4</ele>
        <time>2021-12-11T11:54:10.000Z</time>
      </trkpt>
      <trkpt lat="48.7225" lon="1.96183">
        <ele>159.2</ele>
        <time>2021-12-11T11:55:06.000Z</time>
      </trkpt>
      <trkpt lat="48.7225" lon="1.96181">
        <ele>158.9</ele>
        <time>2021-12-11T11:56:17.000Z</time>
      </trkpt>
      <trkpt lat="48.72248" lon="1.96176">
        <ele>158.5</ele>
        <time>2021-12-11T11:57:20.000Z</time>
      </trkpt>
      <trkpt lat="48.72247" lon="1.96182">
        <ele>158.6</ele>
        <time>2021-12-11T11:58:13.000Z</time>
      </trkpt>
      <trkpt lat="48.7225" lon="1.96181">
        <ele>157.9</ele>
        <time>2021-12-11T11:59:15.000Z</time>
      </trkpt>
      <trkpt lat="48.72253" lon="1.96191">
        <ele>157.9</ele>
        <time>2021-12-11T12:01:09.000Z</time>
      </trkpt>
      <trkpt lat="48.72249" lon="1.96184">
        <ele>157.8</ele>
        <time>2021-12-11T12:02:53.000Z</time>
      </trkpt>
      <trkpt lat="48.72255" lon="1.96186">
        <ele>158.8</ele>
        <time>2021-12-11T12:04:07.000Z</time>
      </trkpt>
      <trkpt lat="48.7226" lon="1.96192">
        <ele>158.7</ele>
        <time>2021-12-11T12:07:51.000Z</time>
      </trkpt>
      <trkpt lat="48.7226" lon="1.96195">
        <ele>158.7</ele>
        <time>2021-12-11T12:08:24.000Z</time>
      </trkpt>
      <trkpt lat="48.72259" lon="1.96192">
        <ele>158.8</ele>
        <time>2021-12-11T12:08:55.000Z</time>
      </trkpt>
      <trkpt lat="48.72255" lon="1.96178">
        <ele>159.1</ele>
        <time>2021-12-11T12:09:44.000Z</time>
      </trkpt>
      <trkpt lat="48.72251" lon="1.96175">
        <ele>159</ele>
        <time>2021-12-11T12:10:07.000Z</time>
      </trkpt>
      <trkpt lat="48.72253" lon="1.96182">
        <ele>159.5</ele>
        <time>2021-12-11T12:10:32.000Z</time>
      </trkpt>
      <trkpt lat="48.72256" lon="1.96184">
        <ele>159.6</ele>
        <time>2021-12-11T12:11:06.000Z</time>
      </trkpt>
      <trkpt lat="48.72252" lon="1.9619">
        <ele>159.3</ele>
        <time>2021-12-11T12:11:36.000Z</time>
      </trkpt>
      <trkpt lat="48.72252" lon="1.9619">
        <ele>159.3</ele>
        <time>2021-12-11T12:12:07.000Z</time>
      </trkpt>
      <trkpt lat="48.72251" lon="1.96185">
        <ele>159.1</ele>
        <time>2021-12-11T12:12:34.000Z</time>
      </trkpt>
      <trkpt lat="48.7225" lon="1.96187">
        <ele>159</ele>
        <time>2021-12-11T12:12:57.000Z</time>
      </trkpt>
      <trkpt lat="48.72254" lon="1.96188">
        <ele>158.9</ele>
        <time>2021-12-11T12:13:23.000Z</time>
      </trkpt>
      <trkpt lat="48.72254" lon="1.96187">
        <ele>158.9</ele>
        <time>2021-12-11T12:13:41.000Z</time>
      </trkpt>
      <trkpt lat="48.72258" lon="1.96186">
        <ele>159.1</ele>
        <time>2021-12-11T12:14:00.000Z</time>
      </trkpt>
      <trkpt lat="48.72097" lon="1.96275">
        <ele>148.4</ele>
        <time>2021-12-11T12:18:10.000Z</time>
      </trkpt>
      <trkpt lat="48.72096" lon="1.96276">
        <ele>148.4</ele>
        <time>2021-12-11T12:18:11.000Z</time>
      </trkpt>
      <trkpt lat="48.72096" lon="1.96277">
        <ele>148.5</ele>
        <time>2021-12-11T12:18:12.000Z</time>
      </trkpt>
      <trkpt lat="48.72088" lon="1.96276">
        <ele>148.1</ele>
        <time>2021-12-11T12:18:37.000Z</time>
      </trkpt>
      <trkpt lat="48.72088" lon="1.96275">
        <ele>147.5</ele>
        <time>2021-12-11T12:19:03.000Z</time>
      </trkpt>
      <trkpt lat="48.72087" lon="1.963">
        <ele>147.1</ele>
        <time>2021-12-11T12:19:26.000Z</time>
      </trkpt>
      <trkpt lat="48.72081" lon="1.96329">
        <ele>149.3</ele>
        <time>2021-12-11T12:19:47.000Z</time>
      </trkpt>
      <trkpt lat="48.72064" lon="1.96354">
        <ele>151</ele>
        <time>2021-12-11T12:20:07.000Z</time>
      </trkpt>
      <trkpt lat="48.72051" lon="1.96372">
        <ele>150.7</ele>
        <time>2021-12-11T12:20:27.000Z</time>
      </trkpt>
      <trkpt lat="48.72032" lon="1.96396">
        <ele>149.4</ele>
        <time>2021-12-11T12:20:46.000Z</time>
      </trkpt>
      <trkpt lat="48.72031" lon="1.96398">
        <ele>149.4</ele>
        <time>2021-12-11T12:20:47.000Z</time>
      </trkpt>
      <trkpt lat="48.72023" lon="1.96425">
        <ele>149.1</ele>
        <time>2021-12-11T12:21:03.000Z</time>
      </trkpt>
      <trkpt lat="48.72021" lon="1.96435">
        <ele>149.6</ele>
        <time>2021-12-11T12:21:13.000Z</time>
      </trkpt>
      <trkpt lat="48.72021" lon="1.96437">
        <ele>149.8</ele>
        <time>2021-12-11T12:21:14.000Z</time>
      </trkpt>
      <trkpt lat="48.7202" lon="1.96439">
        <ele>149.8</ele>
        <time>2021-12-11T12:21:15.000Z</time>
      </trkpt>
      <trkpt lat="48.7202" lon="1.96442">
        <ele>149.8</ele>
        <time>2021-12-11T12:21:16.000Z</time>
      </trkpt>
      <trkpt lat="48.72019" lon="1.96444">
        <ele>150.1</ele>
        <time>2021-12-11T12:21:17.000Z</time>
      </trkpt>
      <trkpt lat="48.72019" lon="1.96446">
        <ele>150</ele>
        <time>2021-12-11T12:21:18.000Z</time>
      </trkpt>
      <trkpt lat="48.72018" lon="1.96447">
        <ele>150.1</ele>
        <time>2021-12-11T12:21:19.000Z</time>
      </trkpt>
      <trkpt lat="48.72017" lon="1.96449">
        <ele>150.4</ele>
        <time>2021-12-11T12:21:20.000Z</time>
      </trkpt>
      <trkpt lat="48.72016" lon="1.96455">
        <ele>151.1</ele>
        <time>2021-12-11T12:21:24.000Z</time>
      </trkpt>
      <trkpt lat="48.72016" lon="1.96457">
        <ele>151.1</ele>
        <time>2021-12-11T12:21:25.000Z</time>
      </trkpt>
      <trkpt lat="48.72016" lon="1.96459">
        <ele>151.2</ele>
        <time>2021-12-11T12:21:26.000Z</time>
      </trkpt>
      <trkpt lat="48.72016" lon="1.96467">
        <ele>150.8</ele>
        <time>2021-12-11T12:21:30.000Z</time>
      </trkpt>
      <trkpt lat="48.72015" lon="1.96469">
        <ele>150.8</ele>
        <time>2021-12-11T12:21:31.000Z</time>
      </trkpt>
      <trkpt lat="48.72014" lon="1.96471">
        <ele>150.6</ele>
        <time>2021-12-11T12:21:32.000Z</time>
      </trkpt>
      <trkpt lat="48.72014" lon="1.96473">
        <ele>150.6</ele>
        <time>2021-12-11T12:21:33.000Z</time>
      </trkpt>
      <trkpt lat="48.72013" lon="1.96474">
        <ele>150.5</ele>
        <time>2021-12-11T12:21:34.000Z</time>
      </trkpt>
      <trkpt lat="48.72012" lon="1.96476">
        <ele>150.2</ele>
        <time>2021-12-11T12:21:35.000Z</time>
      </trkpt>
      <trkpt lat="48.72011" lon="1.96477">
        <ele>150.2</ele>
        <time>2021-12-11T12:21:36.000Z</time>
      </trkpt>
      <trkpt lat="48.72001" lon="1.96498">
        <ele>148.7</ele>
        <time>2021-12-11T12:21:50.000Z</time>
      </trkpt>
      <trkpt lat="48.71995" lon="1.96504">
        <ele>148.7</ele>
        <time>2021-12-11T12:21:56.000Z</time>
      </trkpt>
      <trkpt lat="48.71979" lon="1.96515">
        <ele>148.1</ele>
        <time>2021-12-11T12:22:12.000Z</time>
      </trkpt>
      <trkpt lat="48.71972" lon="1.96521">
        <ele>148</ele>
        <time>2021-12-11T12:22:37.000Z</time>
      </trkpt>
      <trkpt lat="48.71973" lon="1.96523">
        <ele>147.7</ele>
        <time>2021-12-11T12:23:08.000Z</time>
      </trkpt>
      <trkpt lat="48.71975" lon="1.96527">
        <ele>147.9</ele>
        <time>2021-12-11T12:23:42.000Z</time>
      </trkpt>
      <trkpt lat="48.71974" lon="1.96547">
        <ele>149.1</ele>
        <time>2021-12-11T12:24:00.000Z</time>
      </trkpt>
      <trkpt lat="48.71973" lon="1.96549">
        <ele>148.8</ele>
        <time>2021-12-11T12:24:01.000Z</time>
      </trkpt>
      <trkpt lat="48.71973" lon="1.9655">
        <ele>148.8</ele>
        <time>2021-12-11T12:24:02.000Z</time>
      </trkpt>
      <trkpt lat="48.71972" lon="1.96552">
        <ele>148.8</ele>
        <time>2021-12-11T12:24:03.000Z</time>
      </trkpt>
      <trkpt lat="48.71972" lon="1.96554">
        <ele>148.9</ele>
        <time>2021-12-11T12:24:04.000Z</time>
      </trkpt>
      <trkpt lat="48.71972" lon="1.96557">
        <ele>148.8</ele>
        <time>2021-12-11T12:24:05.000Z</time>
      </trkpt>
      <trkpt lat="48.71971" lon="1.96559">
        <ele>148.6</ele>
        <time>2021-12-11T12:24:06.000Z</time>
      </trkpt>
      <trkpt lat="48.71971" lon="1.96561">
        <ele>148.4</ele>
        <time>2021-12-11T12:24:07.000Z</time>
      </trkpt>
      <trkpt lat="48.7197" lon="1.9657">
        <ele>148.6</ele>
        <time>2021-12-11T12:24:11.000Z</time>
      </trkpt>
      <trkpt lat="48.7197" lon="1.96572">
        <ele>148.5</ele>
        <time>2021-12-11T12:24:12.000Z</time>
      </trkpt>
      <trkpt lat="48.7197" lon="1.96574">
        <ele>148.6</ele>
        <time>2021-12-11T12:24:13.000Z</time>
      </trkpt>
      <trkpt lat="48.71969" lon="1.96576">
        <ele>148.6</ele>
        <time>2021-12-11T12:24:14.000Z</time>
      </trkpt>
      <trkpt lat="48.71969" lon="1.96578">
        <ele>148.7</ele>
        <time>2021-12-11T12:24:15.000Z</time>
      </trkpt>
      <trkpt lat="48.71968" lon="1.96579">
        <ele>148.5</ele>
        <time>2021-12-11T12:24:16.000Z</time>
      </trkpt>
      <trkpt lat="48.71958" lon="1.96598">
        <ele>147.3</ele>
        <time>2021-12-11T12:24:29.000Z</time>
      </trkpt>
      <trkpt lat="48.71957" lon="1.96602">
        <ele>147.3</ele>
        <time>2021-12-11T12:24:31.000Z</time>
      </trkpt>
      <trkpt lat="48.71956" lon="1.96604">
        <ele>147.3</ele>
        <time>2021-12-11T12:24:32.000Z</time>
      </trkpt>
      <trkpt lat="48.71955" lon="1.96605">
        <ele>147.3</ele>
        <time>2021-12-11T12:24:33.000Z</time>
      </trkpt>
      <trkpt lat="48.71955" lon="1.96607">
        <ele>147.4</ele>
        <time>2021-12-11T12:24:34.000Z</time>
      </trkpt>
      <trkpt lat="48.71954" lon="1.96609">
        <ele>147.4</ele>
        <time>2021-12-11T12:24:35.000Z</time>
      </trkpt>
      <trkpt lat="48.71943" lon="1.96633">
        <ele>147.8</ele>
        <time>2021-12-11T12:24:49.000Z</time>
      </trkpt>
      <trkpt lat="48.71942" lon="1.96634">
        <ele>147.8</ele>
        <time>2021-12-11T12:24:50.000Z</time>
      </trkpt>
      <trkpt lat="48.71929" lon="1.96648">
        <ele>147.6</ele>
        <time>2021-12-11T12:25:06.000Z</time>
      </trkpt>
      <trkpt lat="48.71926" lon="1.9666">
        <ele>147.4</ele>
        <time>2021-12-11T12:25:17.000Z</time>
      </trkpt>
      <trkpt lat="48.71926" lon="1.96661">
        <ele>147.5</ele>
        <time>2021-12-11T12:25:18.000Z</time>
      </trkpt>
      <trkpt lat="48.71923" lon="1.96684">
        <ele>146.9</ele>
        <time>2021-12-11T12:25:33.000Z</time>
      </trkpt>
      <trkpt lat="48.71923" lon="1.96686">
        <ele>146.8</ele>
        <time>2021-12-11T12:25:34.000Z</time>
      </trkpt>
      <trkpt lat="48.71923" lon="1.96688">
        <ele>146.9</ele>
        <time>2021-12-11T12:25:35.000Z</time>
      </trkpt>
      <trkpt lat="48.71922" lon="1.96694">
        <ele>146.6</ele>
        <time>2021-12-11T12:25:39.000Z</time>
      </trkpt>
      <trkpt lat="48.71922" lon="1.967">
        <ele>146.8</ele>
        <time>2021-12-11T12:25:42.000Z</time>
      </trkpt>
      <trkpt lat="48.71922" lon="1.96702">
        <ele>146.8</ele>
        <time>2021-12-11T12:25:43.000Z</time>
      </trkpt>
      <trkpt lat="48.71921" lon="1.96704">
        <ele>146.9</ele>
        <time>2021-12-11T12:25:44.000Z</time>
      </trkpt>
      <trkpt lat="48.7192" lon="1.96711">
        <ele>146.6</ele>
        <time>2021-12-11T12:25:48.000Z</time>
      </trkpt>
      <trkpt lat="48.71919" lon="1.96713">
        <ele>146.2</ele>
        <time>2021-12-11T12:25:49.000Z</time>
      </trkpt>
      <trkpt lat="48.7192" lon="1.96732">
        <ele>145.7</ele>
        <time>2021-12-11T12:26:01.000Z</time>
      </trkpt>
      <trkpt lat="48.71916" lon="1.96745">
        <ele>146.7</ele>
        <time>2021-12-11T12:26:19.000Z</time>
      </trkpt>
      <trkpt lat="48.71917" lon="1.96749">
        <ele>147.1</ele>
        <time>2021-12-11T12:26:22.000Z</time>
      </trkpt>
      <trkpt lat="48.71921" lon="1.96762">
        <ele>148.7</ele>
        <time>2021-12-11T12:26:30.000Z</time>
      </trkpt>
      <trkpt lat="48.71922" lon="1.96775">
        <ele>149.7</ele>
        <time>2021-12-11T12:26:37.000Z</time>
      </trkpt>
      <trkpt lat="48.71917" lon="1.96791">
        <ele>149.8</ele>
        <time>2021-12-11T12:26:51.000Z</time>
      </trkpt>
      <trkpt lat="48.71913" lon="1.96794">
        <ele>148.5</ele>
        <time>2021-12-11T12:27:07.000Z</time>
      </trkpt>
      <trkpt lat="48.71918" lon="1.96787">
        <ele>149.7</ele>
        <time>2021-12-11T12:27:24.000Z</time>
      </trkpt>
      <trkpt lat="48.71919" lon="1.96768">
        <ele>148.7</ele>
        <time>2021-12-11T12:27:42.000Z</time>
      </trkpt>
      <trkpt lat="48.71914" lon="1.96755">
        <ele>146.8</ele>
        <time>2021-12-11T12:27:53.000Z</time>
      </trkpt>
      <trkpt lat="48.71914" lon="1.96754">
        <ele>146.8</ele>
        <time>2021-12-11T12:27:54.000Z</time>
      </trkpt>
      <trkpt lat="48.71913" lon="1.96753">
        <ele>146.8</ele>
        <time>2021-12-11T12:27:55.000Z</time>
      </trkpt>
      <trkpt lat="48.71912" lon="1.9675">
        <ele>146.5</ele>
        <time>2021-12-11T12:27:57.000Z</time>
      </trkpt>
      <trkpt lat="48.71911" lon="1.96749">
        <ele>146.5</ele>
        <time>2021-12-11T12:27:58.000Z</time>
      </trkpt>
      <trkpt lat="48.71911" lon="1.96747">
        <ele>146.4</ele>
        <time>2021-12-11T12:27:59.000Z</time>
      </trkpt>
      <trkpt lat="48.71906" lon="1.96736">
        <ele>144.5</ele>
        <time>2021-12-11T12:28:15.000Z</time>
      </trkpt>
      <trkpt lat="48.71901" lon="1.96743">
        <ele>141.2</ele>
        <time>2021-12-11T12:28:29.000Z</time>
      </trkpt>
      <trkpt lat="48.71895" lon="1.96748">
        <ele>138.1</ele>
        <time>2021-12-11T12:28:41.000Z</time>
      </trkpt>
      <trkpt lat="48.71893" lon="1.96764">
        <ele>135</ele>
        <time>2021-12-11T12:28:55.000Z</time>
      </trkpt>
      <trkpt lat="48.71883" lon="1.9677">
        <ele>131.9</ele>
        <time>2021-12-11T12:29:08.000Z</time>
      </trkpt>
      <trkpt lat="48.71874" lon="1.96774">
        <ele>128.9</ele>
        <time>2021-12-11T12:29:26.000Z</time>
      </trkpt>
      <trkpt lat="48.71866" lon="1.96775">
        <ele>125.6</ele>
        <time>2021-12-11T12:29:36.000Z</time>
      </trkpt>
      <trkpt lat="48.7186" lon="1.96778">
        <ele>122.3</ele>
        <time>2021-12-11T12:29:50.000Z</time>
      </trkpt>
      <trkpt lat="48.71849" lon="1.96782">
        <ele>118.7</ele>
        <time>2021-12-11T12:30:02.000Z</time>
      </trkpt>
      <trkpt lat="48.71849" lon="1.96782">
        <ele>118</ele>
        <time>2021-12-11T12:30:03.000Z</time>
      </trkpt>
      <trkpt lat="48.71847" lon="1.96783">
        <ele>117.4</ele>
        <time>2021-12-11T12:30:05.000Z</time>
      </trkpt>
      <trkpt lat="48.71829" lon="1.96786">
        <ele>112.4</ele>
        <time>2021-12-11T12:30:21.000Z</time>
      </trkpt>
      <trkpt lat="48.71828" lon="1.96786">
        <ele>112.2</ele>
        <time>2021-12-11T12:30:22.000Z</time>
      </trkpt>
      <trkpt lat="48.71819" lon="1.96785">
        <ele>108.9</ele>
        <time>2021-12-11T12:30:36.000Z</time>
      </trkpt>
      <trkpt lat="48.71807" lon="1.96785">
        <ele>106.4</ele>
        <time>2021-12-11T12:30:55.000Z</time>
      </trkpt>
      <trkpt lat="48.71809" lon="1.9679">
        <ele>106.9</ele>
        <time>2021-12-11T12:31:40.000Z</time>
      </trkpt>
      <trkpt lat="48.71805" lon="1.96777">
        <ele>106.2</ele>
        <time>2021-12-11T12:32:08.000Z</time>
      </trkpt>
      <trkpt lat="48.71795" lon="1.96768">
        <ele>104.3</ele>
        <time>2021-12-11T12:32:28.000Z</time>
      </trkpt>
      <trkpt lat="48.71784" lon="1.96771">
        <ele>103.5</ele>
        <time>2021-12-11T12:32:46.000Z</time>
      </trkpt>
      <trkpt lat="48.71783" lon="1.96791">
        <ele>102.9</ele>
        <time>2021-12-11T12:33:03.000Z</time>
      </trkpt>
      <trkpt lat="48.71783" lon="1.96825">
        <ele>103.7</ele>
        <time>2021-12-11T12:33:26.000Z</time>
      </trkpt>
      <trkpt lat="48.71785" lon="1.96835">
        <ele>104.1</ele>
        <time>2021-12-11T12:33:35.000Z</time>
      </trkpt>
      <trkpt lat="48.71785" lon="1.96856">
        <ele>103.9</ele>
        <time>2021-12-11T12:33:48.000Z</time>
      </trkpt>
      <trkpt lat="48.71785" lon="1.96861">
        <ele>103.5</ele>
        <time>2021-12-11T12:33:51.000Z</time>
      </trkpt>
      <trkpt lat="48.71785" lon="1.96884">
        <ele>103.2</ele>
        <time>2021-12-11T12:34:09.000Z</time>
      </trkpt>
      <trkpt lat="48.71782" lon="1.96903">
        <ele>102.3</ele>
        <time>2021-12-11T12:34:20.000Z</time>
      </trkpt>
      <trkpt lat="48.71762" lon="1.9692">
        <ele>101.6</ele>
        <time>2021-12-11T12:34:41.000Z</time>
      </trkpt>
      <trkpt lat="48.71752" lon="1.96921">
        <ele>101.5</ele>
        <time>2021-12-11T12:34:55.000Z</time>
      </trkpt>
      <trkpt lat="48.71752" lon="1.9694">
        <ele>101.4</ele>
        <time>2021-12-11T12:35:11.000Z</time>
      </trkpt>
      <trkpt lat="48.71748" lon="1.96958">
        <ele>101.2</ele>
        <time>2021-12-11T12:35:22.000Z</time>
      </trkpt>
      <trkpt lat="48.71744" lon="1.96966">
        <ele>101.2</ele>
        <time>2021-12-11T12:35:27.000Z</time>
      </trkpt>
      <trkpt lat="48.71741" lon="1.96973">
        <ele>100.6</ele>
        <time>2021-12-11T12:35:33.000Z</time>
      </trkpt>
      <trkpt lat="48.71738" lon="1.96984">
        <ele>99.9</ele>
        <time>2021-12-11T12:35:40.000Z</time>
      </trkpt>
      <trkpt lat="48.71749" lon="1.97015">
        <ele>99.1</ele>
        <time>2021-12-11T12:36:11.000Z</time>
      </trkpt>
      <trkpt lat="48.71751" lon="1.97013">
        <ele>99.1</ele>
        <time>2021-12-11T12:36:14.000Z</time>
      </trkpt>
      <trkpt lat="48.71754" lon="1.97012">
        <ele>98.9</ele>
        <time>2021-12-11T12:36:16.000Z</time>
      </trkpt>
      <trkpt lat="48.71747" lon="1.97025">
        <ele>98.4</ele>
        <time>2021-12-11T12:36:43.000Z</time>
      </trkpt>
      <trkpt lat="48.71738" lon="1.97028">
        <ele>98.3</ele>
        <time>2021-12-11T12:36:59.000Z</time>
      </trkpt>
      <trkpt lat="48.71733" lon="1.97037">
        <ele>98.4</ele>
        <time>2021-12-11T12:37:25.000Z</time>
      </trkpt>
      <trkpt lat="48.7173" lon="1.97051">
        <ele>98.2</ele>
        <time>2021-12-11T12:37:50.000Z</time>
      </trkpt>
      <trkpt lat="48.71729" lon="1.9704">
        <ele>98.2</ele>
        <time>2021-12-11T12:38:25.000Z</time>
      </trkpt>
      <trkpt lat="48.71744" lon="1.97043">
        <ele>98.5</ele>
        <time>2021-12-11T12:39:01.000Z</time>
      </trkpt>
      <trkpt lat="48.71746" lon="1.97047">
        <ele>98.6</ele>
        <time>2021-12-11T12:39:07.000Z</time>
      </trkpt>
      <trkpt lat="48.71745" lon="1.97055">
        <ele>99.7</ele>
        <time>2021-12-11T12:39:16.000Z</time>
      </trkpt>
      <trkpt lat="48.71744" lon="1.97062">
        <ele>99.9</ele>
        <time>2021-12-11T12:39:23.000Z</time>
      </trkpt>
      <trkpt lat="48.71746" lon="1.97074">
        <ele>100.5</ele>
        <time>2021-12-11T12:39:38.000Z</time>
      </trkpt>
      <trkpt lat="48.71745" lon="1.97089">
        <ele>100.9</ele>
        <time>2021-12-11T12:39:50.000Z</time>
      </trkpt>
      <trkpt lat="48.71744" lon="1.97092">
        <ele>100.8</ele>
        <time>2021-12-11T12:39:52.000Z</time>
      </trkpt>
      <trkpt lat="48.71742" lon="1.97102">
        <ele>101</ele>
        <time>2021-12-11T12:39:57.000Z</time>
      </trkpt>
      <trkpt lat="48.71736" lon="1.97136">
        <ele>101.2</ele>
        <time>2021-12-11T12:40:20.000Z</time>
      </trkpt>
      <trkpt lat="48.71732" lon="1.97155">
        <ele>101.1</ele>
        <time>2021-12-11T12:40:33.000Z</time>
      </trkpt>
      <trkpt lat="48.71731" lon="1.97179">
        <ele>100.5</ele>
        <time>2021-12-11T12:40:49.000Z</time>
      </trkpt>
      <trkpt lat="48.71726" lon="1.97195">
        <ele>100.4</ele>
        <time>2021-12-11T12:40:59.000Z</time>
      </trkpt>
      <trkpt lat="48.71725" lon="1.97197">
        <ele>100.6</ele>
        <time>2021-12-11T12:41:01.000Z</time>
      </trkpt>
      <trkpt lat="48.71708" lon="1.97239">
        <ele>101.9</ele>
        <time>2021-12-11T12:41:25.000Z</time>
      </trkpt>
      <trkpt lat="48.71704" lon="1.97255">
        <ele>101.4</ele>
        <time>2021-12-11T12:41:37.000Z</time>
      </trkpt>
      <trkpt lat="48.71704" lon="1.97269">
        <ele>101.2</ele>
        <time>2021-12-11T12:41:46.000Z</time>
      </trkpt>
      <trkpt lat="48.71704" lon="1.97272">
        <ele>101.4</ele>
        <time>2021-12-11T12:41:48.000Z</time>
      </trkpt>
      <trkpt lat="48.71699" lon="1.97288">
        <ele>102.2</ele>
        <time>2021-12-11T12:41:57.000Z</time>
      </trkpt>
      <trkpt lat="48.71696" lon="1.97299">
        <ele>101.8</ele>
        <time>2021-12-11T12:42:05.000Z</time>
      </trkpt>
      <trkpt lat="48.71694" lon="1.97309">
        <ele>101.5</ele>
        <time>2021-12-11T12:42:12.000Z</time>
      </trkpt>
      <trkpt lat="48.71693" lon="1.97314">
        <ele>101.6</ele>
        <time>2021-12-11T12:42:16.000Z</time>
      </trkpt>
      <trkpt lat="48.71693" lon="1.97317">
        <ele>101.8</ele>
        <time>2021-12-11T12:42:18.000Z</time>
      </trkpt>
      <trkpt lat="48.71684" lon="1.97333">
        <ele>102</ele>
        <time>2021-12-11T12:42:29.000Z</time>
      </trkpt>
      <trkpt lat="48.71684" lon="1.97339">
        <ele>101.3</ele>
        <time>2021-12-11T12:42:33.000Z</time>
      </trkpt>
      <trkpt lat="48.71683" lon="1.97344">
        <ele>101.5</ele>
        <time>2021-12-11T12:42:36.000Z</time>
      </trkpt>
      <trkpt lat="48.71667" lon="1.97385">
        <ele>103</ele>
        <time>2021-12-11T12:43:01.000Z</time>
      </trkpt>
      <trkpt lat="48.71665" lon="1.97389">
        <ele>103.1</ele>
        <time>2021-12-11T12:43:04.000Z</time>
      </trkpt>
      <trkpt lat="48.71663" lon="1.97403">
        <ele>103.3</ele>
        <time>2021-12-11T12:43:13.000Z</time>
      </trkpt>
      <trkpt lat="48.71662" lon="1.97413">
        <ele>103.4</ele>
        <time>2021-12-11T12:43:20.000Z</time>
      </trkpt>
      <trkpt lat="48.71661" lon="1.97416">
        <ele>103.6</ele>
        <time>2021-12-11T12:43:22.000Z</time>
      </trkpt>
      <trkpt lat="48.71658" lon="1.97433">
        <ele>104.5</ele>
        <time>2021-12-11T12:43:35.000Z</time>
      </trkpt>
      <trkpt lat="48.71656" lon="1.97444">
        <ele>103.3</ele>
        <time>2021-12-11T12:43:58.000Z</time>
      </trkpt>
      <trkpt lat="48.71645" lon="1.97452">
        <ele>100.1</ele>
        <time>2021-12-11T12:44:17.000Z</time>
      </trkpt>
      <trkpt lat="48.71628" lon="1.97484">
        <ele>99</ele>
        <time>2021-12-11T12:44:39.000Z</time>
      </trkpt>
      <trkpt lat="48.71607" lon="1.975">
        <ele>96.6</ele>
        <time>2021-12-11T12:44:59.000Z</time>
      </trkpt>
      <trkpt lat="48.71595" lon="1.97529">
        <ele>99.3</ele>
        <time>2021-12-11T12:45:18.000Z</time>
      </trkpt>
      <trkpt lat="48.71582" lon="1.97554">
        <ele>99.7</ele>
        <time>2021-12-11T12:45:41.000Z</time>
      </trkpt>
      <trkpt lat="48.71575" lon="1.97575">
        <ele>98</ele>
        <time>2021-12-11T12:46:01.000Z</time>
      </trkpt>
      <trkpt lat="48.71562" lon="1.97598">
        <ele>95.6</ele>
        <time>2021-12-11T12:46:20.000Z</time>
      </trkpt>
      <trkpt lat="48.71546" lon="1.97623">
        <ele>95.6</ele>
        <time>2021-12-11T12:46:38.000Z</time>
      </trkpt>
      <trkpt lat="48.71538" lon="1.97652">
        <ele>96.9</ele>
        <time>2021-12-11T12:47:00.000Z</time>
      </trkpt>
      <trkpt lat="48.71528" lon="1.97719">
        <ele>98.5</ele>
        <time>2021-12-11T12:47:34.000Z</time>
      </trkpt>
      <trkpt lat="48.71524" lon="1.97734">
        <ele>97.2</ele>
        <time>2021-12-11T12:47:42.000Z</time>
      </trkpt>
      <trkpt lat="48.71509" lon="1.97746">
        <ele>94.7</ele>
        <time>2021-12-11T12:47:56.000Z</time>
      </trkpt>
      <trkpt lat="48.71505" lon="1.97763">
        <ele>93.9</ele>
        <time>2021-12-11T12:48:13.000Z</time>
      </trkpt>
      <trkpt lat="48.71499" lon="1.9777">
        <ele>92.4</ele>
        <time>2021-12-11T12:48:25.000Z</time>
      </trkpt>
      <trkpt lat="48.7149" lon="1.9778">
        <ele>92.2</ele>
        <time>2021-12-11T12:48:37.000Z</time>
      </trkpt>
      <trkpt lat="48.71485" lon="1.97783">
        <ele>92.4</ele>
        <time>2021-12-11T12:48:50.000Z</time>
      </trkpt>
      <trkpt lat="48.71488" lon="1.97781">
        <ele>91.7</ele>
        <time>2021-12-11T12:49:27.000Z</time>
      </trkpt>
      <trkpt lat="48.71486" lon="1.97782">
        <ele>90.9</ele>
        <time>2021-12-11T12:50:19.000Z</time>
      </trkpt>
      <trkpt lat="48.71474" lon="1.97827">
        <ele>91</ele>
        <time>2021-12-11T12:50:49.000Z</time>
      </trkpt>
      <trkpt lat="48.71473" lon="1.97833">
        <ele>91.2</ele>
        <time>2021-12-11T12:50:53.000Z</time>
      </trkpt>
      <trkpt lat="48.71473" lon="1.97849">
        <ele>91.4</ele>
        <time>2021-12-11T12:51:01.000Z</time>
      </trkpt>
      <trkpt lat="48.71475" lon="1.9787">
        <ele>91.6</ele>
        <time>2021-12-11T12:51:11.000Z</time>
      </trkpt>
      <trkpt lat="48.71475" lon="1.97875">
        <ele>91.7</ele>
        <time>2021-12-11T12:51:14.000Z</time>
      </trkpt>
      <trkpt lat="48.71471" lon="1.97884">
        <ele>91.1</ele>
        <time>2021-12-11T12:51:21.000Z</time>
      </trkpt>
      <trkpt lat="48.7147" lon="1.97901">
        <ele>90.4</ele>
        <time>2021-12-11T12:51:30.000Z</time>
      </trkpt>
      <trkpt lat="48.71468" lon="1.97925">
        <ele>91.2</ele>
        <time>2021-12-11T12:51:43.000Z</time>
      </trkpt>
      <trkpt lat="48.71467" lon="1.97933">
        <ele>91.8</ele>
        <time>2021-12-11T12:51:48.000Z</time>
      </trkpt>
      <trkpt lat="48.71463" lon="1.97945">
        <ele>92.3</ele>
        <time>2021-12-11T12:51:54.000Z</time>
      </trkpt>
      <trkpt lat="48.71456" lon="1.9796">
        <ele>93</ele>
        <time>2021-12-11T12:52:02.000Z</time>
      </trkpt>
      <trkpt lat="48.71457" lon="1.97965">
        <ele>93.6</ele>
        <time>2021-12-11T12:52:06.000Z</time>
      </trkpt>
      <trkpt lat="48.71456" lon="1.97969">
        <ele>93.6</ele>
        <time>2021-12-11T12:52:08.000Z</time>
      </trkpt>
      <trkpt lat="48.7145" lon="1.98005">
        <ele>95.2</ele>
        <time>2021-12-11T12:52:25.000Z</time>
      </trkpt>
      <trkpt lat="48.71448" lon="1.98017">
        <ele>95.9</ele>
        <time>2021-12-11T12:52:32.000Z</time>
      </trkpt>
      <trkpt lat="48.71445" lon="1.98042">
        <ele>97.1</ele>
        <time>2021-12-11T12:52:55.000Z</time>
      </trkpt>
      <trkpt lat="48.71443" lon="1.98045">
        <ele>97.2</ele>
        <time>2021-12-11T12:52:57.000Z</time>
      </trkpt>
      <trkpt lat="48.71443" lon="1.9805">
        <ele>97.3</ele>
        <time>2021-12-11T12:53:01.000Z</time>
      </trkpt>
      <trkpt lat="48.71443" lon="1.98055">
        <ele>97.2</ele>
        <time>2021-12-11T12:53:05.000Z</time>
      </trkpt>
      <trkpt lat="48.71441" lon="1.98084">
        <ele>98</ele>
        <time>2021-12-11T12:53:27.000Z</time>
      </trkpt>
      <trkpt lat="48.71441" lon="1.98134">
        <ele>95.3</ele>
        <time>2021-12-11T12:53:51.000Z</time>
      </trkpt>
      <trkpt lat="48.71439" lon="1.98167">
        <ele>93.1</ele>
        <time>2021-12-11T12:54:12.000Z</time>
      </trkpt>
      <trkpt lat="48.71428" lon="1.98202">
        <ele>91</ele>
        <time>2021-12-11T12:54:31.000Z</time>
      </trkpt>
      <trkpt lat="48.71425" lon="1.9821">
        <ele>90.4</ele>
        <time>2021-12-11T12:54:36.000Z</time>
      </trkpt>
      <trkpt lat="48.71418" lon="1.98229">
        <ele>89.1</ele>
        <time>2021-12-11T12:54:47.000Z</time>
      </trkpt>
      <trkpt lat="48.71414" lon="1.98236">
        <ele>87.9</ele>
        <time>2021-12-11T12:54:53.000Z</time>
      </trkpt>
      <trkpt lat="48.714" lon="1.98267">
        <ele>86</ele>
        <time>2021-12-11T12:56:02.000Z</time>
      </trkpt>
      <trkpt lat="48.7139" lon="1.98272">
        <ele>86.3</ele>
        <time>2021-12-11T12:56:18.000Z</time>
      </trkpt>
      <trkpt lat="48.71383" lon="1.98274">
        <ele>86.4</ele>
        <time>2021-12-11T12:56:24.000Z</time>
      </trkpt>
      <trkpt lat="48.71378" lon="1.98279">
        <ele>86.7</ele>
        <time>2021-12-11T12:56:32.000Z</time>
      </trkpt>
      <trkpt lat="48.71367" lon="1.98285">
        <ele>86.9</ele>
        <time>2021-12-11T12:56:45.000Z</time>
      </trkpt>
      <trkpt lat="48.71364" lon="1.98288">
        <ele>87.1</ele>
        <time>2021-12-11T12:56:49.000Z</time>
      </trkpt>
      <trkpt lat="48.71357" lon="1.98304">
        <ele>86.9</ele>
        <time>2021-12-11T12:56:57.000Z</time>
      </trkpt>
      <trkpt lat="48.71355" lon="1.98307">
        <ele>87</ele>
        <time>2021-12-11T12:56:59.000Z</time>
      </trkpt>
      <trkpt lat="48.7135" lon="1.98327">
        <ele>87</ele>
        <time>2021-12-11T12:57:09.000Z</time>
      </trkpt>
      <trkpt lat="48.71348" lon="1.98329">
        <ele>86.8</ele>
        <time>2021-12-11T12:57:11.000Z</time>
      </trkpt>
      <trkpt lat="48.71347" lon="1.98332">
        <ele>86.8</ele>
        <time>2021-12-11T12:57:13.000Z</time>
      </trkpt>
      <trkpt lat="48.71338" lon="1.98341">
        <ele>86.1</ele>
        <time>2021-12-11T12:57:27.000Z</time>
      </trkpt>
      <trkpt lat="48.71327" lon="1.9837">
        <ele>86.1</ele>
        <time>2021-12-11T12:57:54.000Z</time>
      </trkpt>
      <trkpt lat="48.71324" lon="1.98375">
        <ele>85.8</ele>
        <time>2021-12-11T12:57:58.000Z</time>
      </trkpt>
      <trkpt lat="48.71319" lon="1.98382">
        <ele>85.2</ele>
        <time>2021-12-11T12:58:04.000Z</time>
      </trkpt>
      <trkpt lat="48.71315" lon="1.98386">
        <ele>84.6</ele>
        <time>2021-12-11T12:58:09.000Z</time>
      </trkpt>
      <trkpt lat="48.71309" lon="1.98394">
        <ele>84.3</ele>
        <time>2021-12-11T12:58:15.000Z</time>
      </trkpt>
      <trkpt lat="48.71307" lon="1.98401">
        <ele>84.3</ele>
        <time>2021-12-11T12:58:20.000Z</time>
      </trkpt>
      <trkpt lat="48.71305" lon="1.98409">
        <ele>84</ele>
        <time>2021-12-11T12:58:24.000Z</time>
      </trkpt>
      <trkpt lat="48.71303" lon="1.98416">
        <ele>84</ele>
        <time>2021-12-11T12:58:27.000Z</time>
      </trkpt>
      <trkpt lat="48.71303" lon="1.98422">
        <ele>83.6</ele>
        <time>2021-12-11T12:58:33.000Z</time>
      </trkpt>
      <trkpt lat="48.71302" lon="1.98426">
        <ele>83.6</ele>
        <time>2021-12-11T12:58:36.000Z</time>
      </trkpt>
      <trkpt lat="48.713" lon="1.98441">
        <ele>84.2</ele>
        <time>2021-12-11T12:58:44.000Z</time>
      </trkpt>
      <trkpt lat="48.71302" lon="1.98453">
        <ele>84.1</ele>
        <time>2021-12-11T12:58:51.000Z</time>
      </trkpt>
      <trkpt lat="48.71306" lon="1.98475">
        <ele>85</ele>
        <time>2021-12-11T12:59:07.000Z</time>
      </trkpt>
      <trkpt lat="48.71311" lon="1.98496">
        <ele>85.7</ele>
        <time>2021-12-11T12:59:21.000Z</time>
      </trkpt>
      <trkpt lat="48.71323" lon="1.98502">
        <ele>87</ele>
        <time>2021-12-11T12:59:34.000Z</time>
      </trkpt>
      <trkpt lat="48.7133" lon="1.98516">
        <ele>88</ele>
        <time>2021-12-11T12:59:44.000Z</time>
      </trkpt>
      <trkpt lat="48.71332" lon="1.98529">
        <ele>88.6</ele>
        <time>2021-12-11T12:59:50.000Z</time>
      </trkpt>
      <trkpt lat="48.71332" lon="1.98538">
        <ele>88.8</ele>
        <time>2021-12-11T12:59:55.000Z</time>
      </trkpt>
      <trkpt lat="48.71333" lon="1.9855">
        <ele>89.4</ele>
        <time>2021-12-11T13:00:02.000Z</time>
      </trkpt>
      <trkpt lat="48.71332" lon="1.98553">
        <ele>89.7</ele>
        <time>2021-12-11T13:00:04.000Z</time>
      </trkpt>
      <trkpt lat="48.71332" lon="1.9856">
        <ele>90.4</ele>
        <time>2021-12-11T13:00:09.000Z</time>
      </trkpt>
      <trkpt lat="48.71331" lon="1.98592">
        <ele>92.8</ele>
        <time>2021-12-11T13:00:28.000Z</time>
      </trkpt>
      <trkpt lat="48.71331" lon="1.98608">
        <ele>93.5</ele>
        <time>2021-12-11T13:00:36.000Z</time>
      </trkpt>
      <trkpt lat="48.71326" lon="1.98624">
        <ele>94.7</ele>
        <time>2021-12-11T13:00:45.000Z</time>
      </trkpt>
      <trkpt lat="48.71316" lon="1.98633">
        <ele>95.5</ele>
        <time>2021-12-11T13:00:54.000Z</time>
      </trkpt>
      <trkpt lat="48.71311" lon="1.98642">
        <ele>95.9</ele>
        <time>2021-12-11T13:01:00.000Z</time>
      </trkpt>
      <trkpt lat="48.71305" lon="1.98657">
        <ele>96.6</ele>
        <time>2021-12-11T13:01:11.000Z</time>
      </trkpt>
      <trkpt lat="48.71303" lon="1.98663">
        <ele>97.2</ele>
        <time>2021-12-11T13:01:17.000Z</time>
      </trkpt>
      <trkpt lat="48.71286" lon="1.98692">
        <ele>97.3</ele>
        <time>2021-12-11T13:01:35.000Z</time>
      </trkpt>
      <trkpt lat="48.71279" lon="1.98716">
        <ele>94.3</ele>
        <time>2021-12-11T13:01:54.000Z</time>
      </trkpt>
      <trkpt lat="48.71277" lon="1.98723">
        <ele>94.1</ele>
        <time>2021-12-11T13:02:00.000Z</time>
      </trkpt>
      <trkpt lat="48.71276" lon="1.98725">
        <ele>93.9</ele>
        <time>2021-12-11T13:02:02.000Z</time>
      </trkpt>
      <trkpt lat="48.7127" lon="1.98741">
        <ele>94.7</ele>
        <time>2021-12-11T13:02:14.000Z</time>
      </trkpt>
      <trkpt lat="48.71267" lon="1.98749">
        <ele>95</ele>
        <time>2021-12-11T13:02:20.000Z</time>
      </trkpt>
      <trkpt lat="48.71265" lon="1.98757">
        <ele>94.5</ele>
        <time>2021-12-11T13:02:25.000Z</time>
      </trkpt>
      <trkpt lat="48.71262" lon="1.98766">
        <ele>94.2</ele>
        <time>2021-12-11T13:02:32.000Z</time>
      </trkpt>
      <trkpt lat="48.71253" lon="1.98775">
        <ele>93.7</ele>
        <time>2021-12-11T13:02:45.000Z</time>
      </trkpt>
      <trkpt lat="48.71249" lon="1.98784">
        <ele>93.3</ele>
        <time>2021-12-11T13:02:52.000Z</time>
      </trkpt>
      <trkpt lat="48.71245" lon="1.9879">
        <ele>92.9</ele>
        <time>2021-12-11T13:02:57.000Z</time>
      </trkpt>
      <trkpt lat="48.7124" lon="1.98805">
        <ele>92.7</ele>
        <time>2021-12-11T13:03:05.000Z</time>
      </trkpt>
      <trkpt lat="48.71232" lon="1.98834">
        <ele>93</ele>
        <time>2021-12-11T13:03:19.000Z</time>
      </trkpt>
      <trkpt lat="48.71224" lon="1.98848">
        <ele>93.9</ele>
        <time>2021-12-11T13:03:30.000Z</time>
      </trkpt>
      <trkpt lat="48.71219" lon="1.9886">
        <ele>94.1</ele>
        <time>2021-12-11T13:03:36.000Z</time>
      </trkpt>
      <trkpt lat="48.71209" lon="1.98867">
        <ele>94.6</ele>
        <time>2021-12-11T13:03:44.000Z</time>
      </trkpt>
      <trkpt lat="48.71199" lon="1.98876">
        <ele>95.1</ele>
        <time>2021-12-11T13:03:51.000Z</time>
      </trkpt>
      <trkpt lat="48.7119" lon="1.98887">
        <ele>96</ele>
        <time>2021-12-11T13:04:00.000Z</time>
      </trkpt>
      <trkpt lat="48.71176" lon="1.98901">
        <ele>97.2</ele>
        <time>2021-12-11T13:04:14.000Z</time>
      </trkpt>
      <trkpt lat="48.71166" lon="1.9892">
        <ele>96.3</ele>
        <time>2021-12-11T13:04:27.000Z</time>
      </trkpt>
      <trkpt lat="48.71163" lon="1.98935">
        <ele>95.8</ele>
        <time>2021-12-11T13:04:35.000Z</time>
      </trkpt>
      <trkpt lat="48.71159" lon="1.98948">
        <ele>95.3</ele>
        <time>2021-12-11T13:04:41.000Z</time>
      </trkpt>
      <trkpt lat="48.71158" lon="1.98953">
        <ele>95.1</ele>
        <time>2021-12-11T13:04:44.000Z</time>
      </trkpt>
      <trkpt lat="48.71154" lon="1.98963">
        <ele>94.7</ele>
        <time>2021-12-11T13:04:49.000Z</time>
      </trkpt>
      <trkpt lat="48.71151" lon="1.9897">
        <ele>94.4</ele>
        <time>2021-12-11T13:04:53.000Z</time>
      </trkpt>
      <trkpt lat="48.71148" lon="1.98978">
        <ele>94</ele>
        <time>2021-12-11T13:04:58.000Z</time>
      </trkpt>
      <trkpt lat="48.71144" lon="1.98987">
        <ele>93.4</ele>
        <time>2021-12-11T13:05:03.000Z</time>
      </trkpt>
      <trkpt lat="48.7114" lon="1.98994">
        <ele>92.9</ele>
        <time>2021-12-11T13:05:07.000Z</time>
      </trkpt>
      <trkpt lat="48.71133" lon="1.99006">
        <ele>92.4</ele>
        <time>2021-12-11T13:05:18.000Z</time>
      </trkpt>
      <trkpt lat="48.71132" lon="1.99014">
        <ele>92.3</ele>
        <time>2021-12-11T13:05:24.000Z</time>
      </trkpt>
      <trkpt lat="48.71125" lon="1.99024">
        <ele>92</ele>
        <time>2021-12-11T13:05:35.000Z</time>
      </trkpt>
      <trkpt lat="48.71118" lon="1.9903">
        <ele>92.3</ele>
        <time>2021-12-11T13:05:43.000Z</time>
      </trkpt>
      <trkpt lat="48.71116" lon="1.99033">
        <ele>91.8</ele>
        <time>2021-12-11T13:05:46.000Z</time>
      </trkpt>
      <trkpt lat="48.71109" lon="1.99049">
        <ele>91</ele>
        <time>2021-12-11T13:05:58.000Z</time>
      </trkpt>
      <trkpt lat="48.71108" lon="1.99052">
        <ele>91</ele>
        <time>2021-12-11T13:06:00.000Z</time>
      </trkpt>
      <trkpt lat="48.71104" lon="1.99059">
        <ele>91</ele>
        <time>2021-12-11T13:06:04.000Z</time>
      </trkpt>
      <trkpt lat="48.71101" lon="1.99071">
        <ele>90.9</ele>
        <time>2021-12-11T13:06:13.000Z</time>
      </trkpt>
      <trkpt lat="48.71099" lon="1.99079">
        <ele>90.8</ele>
        <time>2021-12-11T13:06:17.000Z</time>
      </trkpt>
      <trkpt lat="48.71095" lon="1.99093">
        <ele>90.8</ele>
        <time>2021-12-11T13:06:24.000Z</time>
      </trkpt>
      <trkpt lat="48.71091" lon="1.99102">
        <ele>90.9</ele>
        <time>2021-12-11T13:06:30.000Z</time>
      </trkpt>
      <trkpt lat="48.71088" lon="1.99105">
        <ele>90.9</ele>
        <time>2021-12-11T13:06:35.000Z</time>
      </trkpt>
      <trkpt lat="48.71086" lon="1.99114">
        <ele>90.9</ele>
        <time>2021-12-11T13:06:40.000Z</time>
      </trkpt>
      <trkpt lat="48.71084" lon="1.99122">
        <ele>90.8</ele>
        <time>2021-12-11T13:06:43.000Z</time>
      </trkpt>
      <trkpt lat="48.71082" lon="1.99134">
        <ele>91</ele>
        <time>2021-12-11T13:06:49.000Z</time>
      </trkpt>
      <trkpt lat="48.71079" lon="1.99139">
        <ele>91</ele>
        <time>2021-12-11T13:06:52.000Z</time>
      </trkpt>
      <trkpt lat="48.71077" lon="1.99145">
        <ele>91.2</ele>
        <time>2021-12-11T13:06:55.000Z</time>
      </trkpt>
      <trkpt lat="48.71075" lon="1.99149">
        <ele>91.1</ele>
        <time>2021-12-11T13:06:57.000Z</time>
      </trkpt>
      <trkpt lat="48.71073" lon="1.99156">
        <ele>91.2</ele>
        <time>2021-12-11T13:07:01.000Z</time>
      </trkpt>
      <trkpt lat="48.71072" lon="1.99163">
        <ele>91.3</ele>
        <time>2021-12-11T13:07:04.000Z</time>
      </trkpt>
      <trkpt lat="48.71071" lon="1.99168">
        <ele>91.3</ele>
        <time>2021-12-11T13:07:07.000Z</time>
      </trkpt>
      <trkpt lat="48.7107" lon="1.99174">
        <ele>91.5</ele>
        <time>2021-12-11T13:07:10.000Z</time>
      </trkpt>
      <trkpt lat="48.71068" lon="1.99183">
        <ele>91.5</ele>
        <time>2021-12-11T13:07:15.000Z</time>
      </trkpt>
      <trkpt lat="48.71059" lon="1.99209">
        <ele>91.2</ele>
        <time>2021-12-11T13:07:28.000Z</time>
      </trkpt>
      <trkpt lat="48.71053" lon="1.99216">
        <ele>91.3</ele>
        <time>2021-12-11T13:07:34.000Z</time>
      </trkpt>
      <trkpt lat="48.71049" lon="1.99222">
        <ele>91.2</ele>
        <time>2021-12-11T13:07:38.000Z</time>
      </trkpt>
      <trkpt lat="48.71046" lon="1.99227">
        <ele>91.1</ele>
        <time>2021-12-11T13:07:42.000Z</time>
      </trkpt>
      <trkpt lat="48.71038" lon="1.99238">
        <ele>91</ele>
        <time>2021-12-11T13:07:50.000Z</time>
      </trkpt>
      <trkpt lat="48.7103" lon="1.99255">
        <ele>91</ele>
        <time>2021-12-11T13:08:00.000Z</time>
      </trkpt>
      <trkpt lat="48.71025" lon="1.99262">
        <ele>91.2</ele>
        <time>2021-12-11T13:08:05.000Z</time>
      </trkpt>
      <trkpt lat="48.7102" lon="1.99278">
        <ele>91.7</ele>
        <time>2021-12-11T13:08:16.000Z</time>
      </trkpt>
      <trkpt lat="48.71014" lon="1.99295">
        <ele>92.1</ele>
        <time>2021-12-11T13:08:27.000Z</time>
      </trkpt>
      <trkpt lat="48.71014" lon="1.99295">
        <ele>92.1</ele>
        <time>2021-12-11T13:08:28.000Z</time>
      </trkpt>
      <trkpt lat="48.7101" lon="1.99307">
        <ele>92.5</ele>
        <time>2021-12-11T13:08:34.000Z</time>
      </trkpt>
      <trkpt lat="48.71005" lon="1.99323">
        <ele>93</ele>
        <time>2021-12-11T13:08:44.000Z</time>
      </trkpt>
      <trkpt lat="48.71001" lon="1.99333">
        <ele>93.3</ele>
        <time>2021-12-11T13:08:50.000Z</time>
      </trkpt>
      <trkpt lat="48.71001" lon="1.99337">
        <ele>93.4</ele>
        <time>2021-12-11T13:08:52.000Z</time>
      </trkpt>
      <trkpt lat="48.70993" lon="1.99353">
        <ele>94.2</ele>
        <time>2021-12-11T13:09:02.000Z</time>
      </trkpt>
      <trkpt lat="48.70992" lon="1.99356">
        <ele>94.5</ele>
        <time>2021-12-11T13:09:04.000Z</time>
      </trkpt>
      <trkpt lat="48.70987" lon="1.99366">
        <ele>94.6</ele>
        <time>2021-12-11T13:09:12.000Z</time>
      </trkpt>
      <trkpt lat="48.70983" lon="1.99372">
        <ele>94.9</ele>
        <time>2021-12-11T13:09:17.000Z</time>
      </trkpt>
      <trkpt lat="48.70974" lon="1.9938">
        <ele>95.2</ele>
        <time>2021-12-11T13:09:26.000Z</time>
      </trkpt>
      <trkpt lat="48.70964" lon="1.99388">
        <ele>95.3</ele>
        <time>2021-12-11T13:09:34.000Z</time>
      </trkpt>
      <trkpt lat="48.70959" lon="1.99392">
        <ele>95.2</ele>
        <time>2021-12-11T13:09:37.000Z</time>
      </trkpt>
      <trkpt lat="48.70951" lon="1.99401">
        <ele>95.1</ele>
        <time>2021-12-11T13:09:47.000Z</time>
      </trkpt>
      <trkpt lat="48.70941" lon="1.99408">
        <ele>95</ele>
        <time>2021-12-11T13:09:56.000Z</time>
      </trkpt>
      <trkpt lat="48.70938" lon="1.99409">
        <ele>95.1</ele>
        <time>2021-12-11T13:09:58.000Z</time>
      </trkpt>
      <trkpt lat="48.70936" lon="1.9941">
        <ele>95</ele>
        <time>2021-12-11T13:10:01.000Z</time>
      </trkpt>
      <trkpt lat="48.70931" lon="1.99415">
        <ele>94.9</ele>
        <time>2021-12-11T13:10:06.000Z</time>
      </trkpt>
      <trkpt lat="48.70927" lon="1.99422">
        <ele>94.7</ele>
        <time>2021-12-11T13:10:11.000Z</time>
      </trkpt>
      <trkpt lat="48.70912" lon="1.99435">
        <ele>94.7</ele>
        <time>2021-12-11T13:10:21.000Z</time>
      </trkpt>
      <trkpt lat="48.70907" lon="1.99439">
        <ele>94.5</ele>
        <time>2021-12-11T13:10:24.000Z</time>
      </trkpt>
      <trkpt lat="48.70902" lon="1.99442">
        <ele>94.6</ele>
        <time>2021-12-11T13:10:27.000Z</time>
      </trkpt>
      <trkpt lat="48.70894" lon="1.9945">
        <ele>94.4</ele>
        <time>2021-12-11T13:10:35.000Z</time>
      </trkpt>
      <trkpt lat="48.70888" lon="1.99452">
        <ele>94.4</ele>
        <time>2021-12-11T13:10:38.000Z</time>
      </trkpt>
      <trkpt lat="48.70883" lon="1.99453">
        <ele>94.4</ele>
        <time>2021-12-11T13:10:44.000Z</time>
      </trkpt>
      <trkpt lat="48.70871" lon="1.99465">
        <ele>94.4</ele>
        <time>2021-12-11T13:10:55.000Z</time>
      </trkpt>
      <trkpt lat="48.70863" lon="1.99474">
        <ele>94.2</ele>
        <time>2021-12-11T13:11:02.000Z</time>
      </trkpt>
      <trkpt lat="48.7085" lon="1.99488">
        <ele>94.2</ele>
        <time>2021-12-11T13:11:13.000Z</time>
      </trkpt>
      <trkpt lat="48.70835" lon="1.9951">
        <ele>94.4</ele>
        <time>2021-12-11T13:11:26.000Z</time>
      </trkpt>
      <trkpt lat="48.70834" lon="1.99514">
        <ele>94.5</ele>
        <time>2021-12-11T13:11:28.000Z</time>
      </trkpt>
      <trkpt lat="48.70823" lon="1.99522">
        <ele>94.1</ele>
        <time>2021-12-11T13:11:39.000Z</time>
      </trkpt>
      <trkpt lat="48.70788" lon="1.99541">
        <ele>94.6</ele>
        <time>2021-12-11T13:12:11.000Z</time>
      </trkpt>
      <trkpt lat="48.70785" lon="1.99542">
        <ele>94.7</ele>
        <time>2021-12-11T13:12:13.000Z</time>
      </trkpt>
      <trkpt lat="48.70781" lon="1.99544">
        <ele>94.7</ele>
        <time>2021-12-11T13:12:17.000Z</time>
      </trkpt>
      <trkpt lat="48.70767" lon="1.99548">
        <ele>94.6</ele>
        <time>2021-12-11T13:12:31.000Z</time>
      </trkpt>
      <trkpt lat="48.70754" lon="1.99555">
        <ele>94.5</ele>
        <time>2021-12-11T13:12:44.000Z</time>
      </trkpt>
      <trkpt lat="48.70745" lon="1.99559">
        <ele>94.7</ele>
        <time>2021-12-11T13:12:51.000Z</time>
      </trkpt>
      <trkpt lat="48.70731" lon="1.99568">
        <ele>94.6</ele>
        <time>2021-12-11T13:13:06.000Z</time>
      </trkpt>
      <trkpt lat="48.70725" lon="1.99575">
        <ele>94.7</ele>
        <time>2021-12-11T13:13:16.000Z</time>
      </trkpt>
      <trkpt lat="48.70725" lon="1.9958">
        <ele>95.2</ele>
        <time>2021-12-11T13:13:21.000Z</time>
      </trkpt>
      <trkpt lat="48.70722" lon="1.99598">
        <ele>97</ele>
        <time>2021-12-11T13:13:33.000Z</time>
      </trkpt>
      <trkpt lat="48.70723" lon="1.99615">
        <ele>98.2</ele>
        <time>2021-12-11T13:13:47.000Z</time>
      </trkpt>
      <trkpt lat="48.70724" lon="1.9964">
        <ele>100.1</ele>
        <time>2021-12-11T13:14:03.000Z</time>
      </trkpt>
      <trkpt lat="48.70724" lon="1.99678">
        <ele>101.8</ele>
        <time>2021-12-11T13:14:24.000Z</time>
      </trkpt>
      <trkpt lat="48.70725" lon="1.99684">
        <ele>102</ele>
        <time>2021-12-11T13:14:27.000Z</time>
      </trkpt>
      <trkpt lat="48.7073" lon="1.99695">
        <ele>102.4</ele>
        <time>2021-12-11T13:14:38.000Z</time>
      </trkpt>
      <trkpt lat="48.70733" lon="1.99696">
        <ele>102.6</ele>
        <time>2021-12-11T13:14:43.000Z</time>
      </trkpt>
      <trkpt lat="48.70734" lon="1.99695">
        <ele>102.5</ele>
        <time>2021-12-11T13:15:02.000Z</time>
      </trkpt>
      <trkpt lat="48.70736" lon="1.99687">
        <ele>102.2</ele>
        <time>2021-12-11T13:15:28.000Z</time>
      </trkpt>
      <trkpt lat="48.7073" lon="1.99686">
        <ele>102</ele>
        <time>2021-12-11T13:15:52.000Z</time>
      </trkpt>
      <trkpt lat="48.70731" lon="1.99696">
        <ele>102.6</ele>
        <time>2021-12-11T13:16:18.000Z</time>
      </trkpt>
      <trkpt lat="48.70742" lon="1.99725">
        <ele>104.5</ele>
        <time>2021-12-11T13:16:47.000Z</time>
      </trkpt>
      <trkpt lat="48.70755" lon="1.99742">
        <ele>107.2</ele>
        <time>2021-12-11T13:17:08.000Z</time>
      </trkpt>
      <trkpt lat="48.70753" lon="1.9974">
        <ele>106.2</ele>
        <time>2021-12-11T13:17:21.000Z</time>
      </trkpt>
      <trkpt lat="48.70742" lon="1.99748">
        <ele>105.3</ele>
        <time>2021-12-11T13:17:35.000Z</time>
      </trkpt>
      <trkpt lat="48.70742" lon="1.99762">
        <ele>106.6</ele>
        <time>2021-12-11T13:17:46.000Z</time>
      </trkpt>
      <trkpt lat="48.70743" lon="1.99768">
        <ele>107.7</ele>
        <time>2021-12-11T13:17:50.000Z</time>
      </trkpt>
      <trkpt lat="48.70749" lon="1.99782">
        <ele>110.6</ele>
        <time>2021-12-11T13:18:02.000Z</time>
      </trkpt>
      <trkpt lat="48.70754" lon="1.99794">
        <ele>111.9</ele>
        <time>2021-12-11T13:18:11.000Z</time>
      </trkpt>
      <trkpt lat="48.70757" lon="1.998">
        <ele>113.1</ele>
        <time>2021-12-11T13:18:16.000Z</time>
      </trkpt>
      <trkpt lat="48.70757" lon="1.99808">
        <ele>113.9</ele>
        <time>2021-12-11T13:18:21.000Z</time>
      </trkpt>
      <trkpt lat="48.70772" lon="1.99843">
        <ele>117</ele>
        <time>2021-12-11T13:18:41.000Z</time>
      </trkpt>
      <trkpt lat="48.70768" lon="1.9987">
        <ele>120.2</ele>
        <time>2021-12-11T13:18:57.000Z</time>
      </trkpt>
      <trkpt lat="48.70767" lon="1.99896">
        <ele>122.4</ele>
        <time>2021-12-11T13:19:16.000Z</time>
      </trkpt>
      <trkpt lat="48.70772" lon="1.99918">
        <ele>124.4</ele>
        <time>2021-12-11T13:19:28.000Z</time>
      </trkpt>
      <trkpt lat="48.70776" lon="1.99935">
        <ele>126.6</ele>
        <time>2021-12-11T13:19:41.000Z</time>
      </trkpt>
      <trkpt lat="48.70781" lon="1.99943">
        <ele>127.9</ele>
        <time>2021-12-11T13:19:48.000Z</time>
      </trkpt>
      <trkpt lat="48.70785" lon="1.9997">
        <ele>130.6</ele>
        <time>2021-12-11T13:20:06.000Z</time>
      </trkpt>
      <trkpt lat="48.70784" lon="1.99983">
        <ele>130.3</ele>
        <time>2021-12-11T13:20:19.000Z</time>
      </trkpt>
      <trkpt lat="48.70779" lon="1.99999">
        <ele>133.3</ele>
        <time>2021-12-11T13:20:33.000Z</time>
      </trkpt>
      <trkpt lat="48.70773" lon="2.00012">
        <ele>132.7</ele>
        <time>2021-12-11T13:20:42.000Z</time>
      </trkpt>
      <trkpt lat="48.70761" lon="2.00029">
        <ele>134.1</ele>
        <time>2021-12-11T13:20:53.000Z</time>
      </trkpt>
      <trkpt lat="48.70745" lon="2.00056">
        <ele>136.9</ele>
        <time>2021-12-11T13:21:09.000Z</time>
      </trkpt>
      <trkpt lat="48.70742" lon="2.00076">
        <ele>138.1</ele>
        <time>2021-12-11T13:21:25.000Z</time>
      </trkpt>
      <trkpt lat="48.70742" lon="2.00078">
        <ele>138</ele>
        <time>2021-12-11T13:21:28.000Z</time>
      </trkpt>
      <trkpt lat="48.7073" lon="2.00106">
        <ele>140</ele>
        <time>2021-12-11T13:21:44.000Z</time>
      </trkpt>
      <trkpt lat="48.70723" lon="2.00119">
        <ele>140.6</ele>
        <time>2021-12-11T13:22:06.000Z</time>
      </trkpt>
      <trkpt lat="48.70717" lon="2.00139">
        <ele>140</ele>
        <time>2021-12-11T13:22:24.000Z</time>
      </trkpt>
      <trkpt lat="48.70715" lon="2.0016">
        <ele>143</ele>
        <time>2021-12-11T13:22:43.000Z</time>
      </trkpt>
      <trkpt lat="48.70727" lon="2.00171">
        <ele>146.1</ele>
        <time>2021-12-11T13:22:57.000Z</time>
      </trkpt>
      <trkpt lat="48.70737" lon="2.00176">
        <ele>148.4</ele>
        <time>2021-12-11T13:23:09.000Z</time>
      </trkpt>
      <trkpt lat="48.7075" lon="2.00181">
        <ele>149.6</ele>
        <time>2021-12-11T13:23:22.000Z</time>
      </trkpt>
      <trkpt lat="48.70768" lon="2.00185">
        <ele>151.6</ele>
        <time>2021-12-11T13:23:42.000Z</time>
      </trkpt>
      <trkpt lat="48.70775" lon="2.00191">
        <ele>152.7</ele>
        <time>2021-12-11T13:23:53.000Z</time>
      </trkpt>
      <trkpt lat="48.70784" lon="2.00206">
        <ele>154.2</ele>
        <time>2021-12-11T13:24:07.000Z</time>
      </trkpt>
      <trkpt lat="48.70795" lon="2.00222">
        <ele>154.6</ele>
        <time>2021-12-11T13:24:26.000Z</time>
      </trkpt>
      <trkpt lat="48.70803" lon="2.00211">
        <ele>155.4</ele>
        <time>2021-12-11T13:24:43.000Z</time>
      </trkpt>
      <trkpt lat="48.70809" lon="2.002">
        <ele>156.2</ele>
        <time>2021-12-11T13:24:51.000Z</time>
      </trkpt>
      <trkpt lat="48.70822" lon="2.0018">
        <ele>156.8</ele>
        <time>2021-12-11T13:25:10.000Z</time>
      </trkpt>
      <trkpt lat="48.70829" lon="2.00173">
        <ele>156.7</ele>
        <time>2021-12-11T13:25:22.000Z</time>
      </trkpt>
      <trkpt lat="48.7083" lon="2.00172">
        <ele>156.7</ele>
        <time>2021-12-11T13:25:23.000Z</time>
      </trkpt>
      <trkpt lat="48.70835" lon="2.00169">
        <ele>156.3</ele>
        <time>2021-12-11T13:25:35.000Z</time>
      </trkpt>
      <trkpt lat="48.70842" lon="2.00161">
        <ele>155.2</ele>
        <time>2021-12-11T13:25:51.000Z</time>
      </trkpt>
      <trkpt lat="48.70858" lon="2.00154">
        <ele>156.3</ele>
        <time>2021-12-11T13:26:05.000Z</time>
      </trkpt>
      <trkpt lat="48.70861" lon="2.00154">
        <ele>156.4</ele>
        <time>2021-12-11T13:26:08.000Z</time>
      </trkpt>
      <trkpt lat="48.70882" lon="2.00159">
        <ele>158</ele>
        <time>2021-12-11T13:26:25.000Z</time>
      </trkpt>
      <trkpt lat="48.70906" lon="2.00162">
        <ele>159.2</ele>
        <time>2021-12-11T13:26:46.000Z</time>
      </trkpt>
      <trkpt lat="48.70928" lon="2.00167">
        <ele>159.9</ele>
        <time>2021-12-11T13:27:04.000Z</time>
      </trkpt>
      <trkpt lat="48.70939" lon="2.0018">
        <ele>160.9</ele>
        <time>2021-12-11T13:27:20.000Z</time>
      </trkpt>
      <trkpt lat="48.70939" lon="2.00196">
        <ele>160.7</ele>
        <time>2021-12-11T13:27:31.000Z</time>
      </trkpt>
      <trkpt lat="48.70936" lon="2.00209">
        <ele>160.7</ele>
        <time>2021-12-11T13:27:39.000Z</time>
      </trkpt>
      <trkpt lat="48.70934" lon="2.00226">
        <ele>161.7</ele>
        <time>2021-12-11T13:27:50.000Z</time>
      </trkpt>
      <trkpt lat="48.70934" lon="2.0023">
        <ele>161.7</ele>
        <time>2021-12-11T13:27:53.000Z</time>
      </trkpt>
      <trkpt lat="48.7093" lon="2.00248">
        <ele>161.1</ele>
        <time>2021-12-11T13:28:05.000Z</time>
      </trkpt>
      <trkpt lat="48.70923" lon="2.00268">
        <ele>161.2</ele>
        <time>2021-12-11T13:28:18.000Z</time>
      </trkpt>
      <trkpt lat="48.70917" lon="2.00292">
        <ele>161.3</ele>
        <time>2021-12-11T13:28:33.000Z</time>
      </trkpt>
      <trkpt lat="48.70912" lon="2.00307">
        <ele>161.5</ele>
        <time>2021-12-11T13:28:44.000Z</time>
      </trkpt>
      <trkpt lat="48.70906" lon="2.0033">
        <ele>161.3</ele>
        <time>2021-12-11T13:28:58.000Z</time>
      </trkpt>
      <trkpt lat="48.70906" lon="2.00332">
        <ele>161.3</ele>
        <time>2021-12-11T13:29:00.000Z</time>
      </trkpt>
      <trkpt lat="48.709" lon="2.00357">
        <ele>161.6</ele>
        <time>2021-12-11T13:29:16.000Z</time>
      </trkpt>
      <trkpt lat="48.7089" lon="2.00389">
        <ele>161.9</ele>
        <time>2021-12-11T13:29:31.000Z</time>
      </trkpt>
      <trkpt lat="48.7089" lon="2.00393">
        <ele>161.9</ele>
        <time>2021-12-11T13:29:33.000Z</time>
      </trkpt>
      <trkpt lat="48.70891" lon="2.00418">
        <ele>162.1</ele>
        <time>2021-12-11T13:29:43.000Z</time>
      </trkpt>
      <trkpt lat="48.70888" lon="2.00433">
        <ele>162.1</ele>
        <time>2021-12-11T13:29:51.000Z</time>
      </trkpt>
      <trkpt lat="48.70892" lon="2.00451">
        <ele>162.3</ele>
        <time>2021-12-11T13:30:00.000Z</time>
      </trkpt>
      <trkpt lat="48.70893" lon="2.00463">
        <ele>162.4</ele>
        <time>2021-12-11T13:30:06.000Z</time>
      </trkpt>
      <trkpt lat="48.70896" lon="2.00492">
        <ele>162.3</ele>
        <time>2021-12-11T13:30:21.000Z</time>
      </trkpt>
      <trkpt lat="48.70904" lon="2.00533">
        <ele>162.5</ele>
        <time>2021-12-11T13:30:43.000Z</time>
      </trkpt>
      <trkpt lat="48.70911" lon="2.00558">
        <ele>162.5</ele>
        <time>2021-12-11T13:30:58.000Z</time>
      </trkpt>
      <trkpt lat="48.70916" lon="2.00568">
        <ele>162.6</ele>
        <time>2021-12-11T13:31:03.000Z</time>
      </trkpt>
      <trkpt lat="48.70918" lon="2.00587">
        <ele>162.8</ele>
        <time>2021-12-11T13:31:14.000Z</time>
      </trkpt>
      <trkpt lat="48.70926" lon="2.00612">
        <ele>162.7</ele>
        <time>2021-12-11T13:31:28.000Z</time>
      </trkpt>
      <trkpt lat="48.70941" lon="2.00651">
        <ele>162.7</ele>
        <time>2021-12-11T13:31:52.000Z</time>
      </trkpt>
      <trkpt lat="48.70955" lon="2.00673">
        <ele>162.8</ele>
        <time>2021-12-11T13:32:07.000Z</time>
      </trkpt>
      <trkpt lat="48.70958" lon="2.00678">
        <ele>162.6</ele>
        <time>2021-12-11T13:32:11.000Z</time>
      </trkpt>
      <trkpt lat="48.70968" lon="2.00693">
        <ele>162.6</ele>
        <time>2021-12-11T13:32:26.000Z</time>
      </trkpt>
      <trkpt lat="48.70979" lon="2.00704">
        <ele>162.4</ele>
        <time>2021-12-11T13:32:39.000Z</time>
      </trkpt>
      <trkpt lat="48.71001" lon="2.00725">
        <ele>162</ele>
        <time>2021-12-11T13:32:57.000Z</time>
      </trkpt>
      <trkpt lat="48.71" lon="2.00736">
        <ele>162.3</ele>
        <time>2021-12-11T13:33:13.000Z</time>
      </trkpt>
      <trkpt lat="48.70994" lon="2.0074">
        <ele>162.4</ele>
        <time>2021-12-11T13:33:19.000Z</time>
      </trkpt>
      <trkpt lat="48.70984" lon="2.00766">
        <ele>162.4</ele>
        <time>2021-12-11T13:33:41.000Z</time>
      </trkpt>
      <trkpt lat="48.70966" lon="2.00796">
        <ele>162.6</ele>
        <time>2021-12-11T13:34:03.000Z</time>
      </trkpt>
      <trkpt lat="48.70964" lon="2.008">
        <ele>162.6</ele>
        <time>2021-12-11T13:34:05.000Z</time>
      </trkpt>
      <trkpt lat="48.70955" lon="2.00812">
        <ele>162.3</ele>
        <time>2021-12-11T13:34:16.000Z</time>
      </trkpt>
      <trkpt lat="48.70952" lon="2.00827">
        <ele>162.1</ele>
        <time>2021-12-11T13:34:27.000Z</time>
      </trkpt>
      <trkpt lat="48.7095" lon="2.00835">
        <ele>162.3</ele>
        <time>2021-12-11T13:34:31.000Z</time>
      </trkpt>
      <trkpt lat="48.70947" lon="2.00845">
        <ele>162.3</ele>
        <time>2021-12-11T13:34:37.000Z</time>
      </trkpt>
      <trkpt lat="48.70944" lon="2.00862">
        <ele>162.4</ele>
        <time>2021-12-11T13:34:45.000Z</time>
      </trkpt>
      <trkpt lat="48.70939" lon="2.00876">
        <ele>162.3</ele>
        <time>2021-12-11T13:34:54.000Z</time>
      </trkpt>
      <trkpt lat="48.70936" lon="2.00887">
        <ele>162.3</ele>
        <time>2021-12-11T13:35:00.000Z</time>
      </trkpt>
      <trkpt lat="48.70933" lon="2.00896">
        <ele>162.6</ele>
        <time>2021-12-11T13:35:04.000Z</time>
      </trkpt>
      <trkpt lat="48.7093" lon="2.00907">
        <ele>162.4</ele>
        <time>2021-12-11T13:35:10.000Z</time>
      </trkpt>
      <trkpt lat="48.70928" lon="2.00913">
        <ele>162.5</ele>
        <time>2021-12-11T13:35:14.000Z</time>
      </trkpt>
      <trkpt lat="48.70919" lon="2.00959">
        <ele>162.7</ele>
        <time>2021-12-11T13:35:34.000Z</time>
      </trkpt>
      <trkpt lat="48.70909" lon="2.00995">
        <ele>162.6</ele>
        <time>2021-12-11T13:35:53.000Z</time>
      </trkpt>
      <trkpt lat="48.70901" lon="2.01037">
        <ele>162.5</ele>
        <time>2021-12-11T13:36:15.000Z</time>
      </trkpt>
      <trkpt lat="48.70895" lon="2.01071">
        <ele>162.2</ele>
        <time>2021-12-11T13:36:33.000Z</time>
      </trkpt>
      <trkpt lat="48.70887" lon="2.01109">
        <ele>161.7</ele>
        <time>2021-12-11T13:36:54.000Z</time>
      </trkpt>
      <trkpt lat="48.70884" lon="2.01119">
        <ele>161.7</ele>
        <time>2021-12-11T13:36:58.000Z</time>
      </trkpt>
      <trkpt lat="48.70881" lon="2.01128">
        <ele>161.6</ele>
        <time>2021-12-11T13:37:02.000Z</time>
      </trkpt>
      <trkpt lat="48.70878" lon="2.01154">
        <ele>161.5</ele>
        <time>2021-12-11T13:37:16.000Z</time>
      </trkpt>
      <trkpt lat="48.70876" lon="2.0117">
        <ele>161.5</ele>
        <time>2021-12-11T13:37:24.000Z</time>
      </trkpt>
      <trkpt lat="48.70873" lon="2.0119">
        <ele>161.5</ele>
        <time>2021-12-11T13:37:34.000Z</time>
      </trkpt>
      <trkpt lat="48.70871" lon="2.01199">
        <ele>161.3</ele>
        <time>2021-12-11T13:37:40.000Z</time>
      </trkpt>
      <trkpt lat="48.70863" lon="2.01225">
        <ele>161.1</ele>
        <time>2021-12-11T13:37:54.000Z</time>
      </trkpt>
      <trkpt lat="48.7086" lon="2.01233">
        <ele>161</ele>
        <time>2021-12-11T13:38:05.000Z</time>
      </trkpt>
      <trkpt lat="48.70859" lon="2.01237">
        <ele>161</ele>
        <time>2021-12-11T13:38:10.000Z</time>
      </trkpt>
      <trkpt lat="48.70859" lon="2.0124">
        <ele>161</ele>
        <time>2021-12-11T13:38:12.000Z</time>
      </trkpt>
      <trkpt lat="48.70852" lon="2.01281">
        <ele>160.6</ele>
        <time>2021-12-11T13:38:33.000Z</time>
      </trkpt>
      <trkpt lat="48.70847" lon="2.01304">
        <ele>160.3</ele>
        <time>2021-12-11T13:38:46.000Z</time>
      </trkpt>
      <trkpt lat="48.70836" lon="2.01333">
        <ele>160.3</ele>
        <time>2021-12-11T13:38:58.000Z</time>
      </trkpt>
      <trkpt lat="48.70829" lon="2.01359">
        <ele>160.2</ele>
        <time>2021-12-11T13:39:10.000Z</time>
      </trkpt>
      <trkpt lat="48.70824" lon="2.01383">
        <ele>160</ele>
        <time>2021-12-11T13:39:23.000Z</time>
      </trkpt>
      <trkpt lat="48.70823" lon="2.01399">
        <ele>160</ele>
        <time>2021-12-11T13:39:30.000Z</time>
      </trkpt>
      <trkpt lat="48.70823" lon="2.01401">
        <ele>160.1</ele>
        <time>2021-12-11T13:39:31.000Z</time>
      </trkpt>
      <trkpt lat="48.70823" lon="2.01404">
        <ele>160.1</ele>
        <time>2021-12-11T13:39:32.000Z</time>
      </trkpt>
      <trkpt lat="48.70822" lon="2.01407">
        <ele>160</ele>
        <time>2021-12-11T13:39:33.000Z</time>
      </trkpt>
      <trkpt lat="48.70822" lon="2.01409">
        <ele>160</ele>
        <time>2021-12-11T13:39:34.000Z</time>
      </trkpt>
      <trkpt lat="48.70822" lon="2.01411">
        <ele>160</ele>
        <time>2021-12-11T13:39:35.000Z</time>
      </trkpt>
      <trkpt lat="48.70821" lon="2.01413">
        <ele>160</ele>
        <time>2021-12-11T13:39:36.000Z</time>
      </trkpt>
      <trkpt lat="48.70821" lon="2.01415">
        <ele>160</ele>
        <time>2021-12-11T13:39:37.000Z</time>
      </trkpt>
      <trkpt lat="48.7082" lon="2.01419">
        <ele>160</ele>
        <time>2021-12-11T13:39:39.000Z</time>
      </trkpt>
      <trkpt lat="48.7082" lon="2.01421">
        <ele>159.9</ele>
        <time>2021-12-11T13:39:40.000Z</time>
      </trkpt>
      <trkpt lat="48.70816" lon="2.01455">
        <ele>160.1</ele>
        <time>2021-12-11T13:39:57.000Z</time>
      </trkpt>
      <trkpt lat="48.70807" lon="2.01498">
        <ele>159.9</ele>
        <time>2021-12-11T13:40:19.000Z</time>
      </trkpt>
      <trkpt lat="48.70802" lon="2.01518">
        <ele>160.1</ele>
        <time>2021-12-11T13:40:30.000Z</time>
      </trkpt>
      <trkpt lat="48.70795" lon="2.01542">
        <ele>159.9</ele>
        <time>2021-12-11T13:40:41.000Z</time>
      </trkpt>
      <trkpt lat="48.70791" lon="2.01561">
        <ele>159.9</ele>
        <time>2021-12-11T13:40:52.000Z</time>
      </trkpt>
      <trkpt lat="48.70787" lon="2.01585">
        <ele>159.8</ele>
        <time>2021-12-11T13:41:03.000Z</time>
      </trkpt>
      <trkpt lat="48.70785" lon="2.01607">
        <ele>159.7</ele>
        <time>2021-12-11T13:41:15.000Z</time>
      </trkpt>
      <trkpt lat="48.70777" lon="2.01631">
        <ele>159.7</ele>
        <time>2021-12-11T13:41:28.000Z</time>
      </trkpt>
      <trkpt lat="48.70774" lon="2.01644">
        <ele>159.6</ele>
        <time>2021-12-11T13:41:36.000Z</time>
      </trkpt>
      <trkpt lat="48.7077" lon="2.01654">
        <ele>159.6</ele>
        <time>2021-12-11T13:41:44.000Z</time>
      </trkpt>
      <trkpt lat="48.7076" lon="2.01687">
        <ele>159.4</ele>
        <time>2021-12-11T13:42:05.000Z</time>
      </trkpt>
      <trkpt lat="48.70755" lon="2.01704">
        <ele>159.3</ele>
        <time>2021-12-11T13:42:15.000Z</time>
      </trkpt>
      <trkpt lat="48.7075" lon="2.01728">
        <ele>159.3</ele>
        <time>2021-12-11T13:42:28.000Z</time>
      </trkpt>
      <trkpt lat="48.70747" lon="2.01756">
        <ele>159</ele>
        <time>2021-12-11T13:42:43.000Z</time>
      </trkpt>
      <trkpt lat="48.70743" lon="2.01774">
        <ele>158.9</ele>
        <time>2021-12-11T13:42:53.000Z</time>
      </trkpt>
      <trkpt lat="48.70742" lon="2.01776">
        <ele>158.9</ele>
        <time>2021-12-11T13:42:54.000Z</time>
      </trkpt>
      <trkpt lat="48.70741" lon="2.01778">
        <ele>159</ele>
        <time>2021-12-11T13:42:55.000Z</time>
      </trkpt>
      <trkpt lat="48.70741" lon="2.0178">
        <ele>159</ele>
        <time>2021-12-11T13:42:56.000Z</time>
      </trkpt>
      <trkpt lat="48.70731" lon="2.01806">
        <ele>159.1</ele>
        <time>2021-12-11T13:43:08.000Z</time>
      </trkpt>
      <trkpt lat="48.70728" lon="2.01822">
        <ele>158.8</ele>
        <time>2021-12-11T13:43:19.000Z</time>
      </trkpt>
      <trkpt lat="48.70725" lon="2.01832">
        <ele>158.9</ele>
        <time>2021-12-11T13:43:27.000Z</time>
      </trkpt>
      <trkpt lat="48.7072" lon="2.01858">
        <ele>158.8</ele>
        <time>2021-12-11T13:43:41.000Z</time>
      </trkpt>
      <trkpt lat="48.70718" lon="2.01873">
        <ele>158.7</ele>
        <time>2021-12-11T13:43:49.000Z</time>
      </trkpt>
      <trkpt lat="48.70718" lon="2.01875">
        <ele>158.8</ele>
        <time>2021-12-11T13:43:50.000Z</time>
      </trkpt>
      <trkpt lat="48.70718" lon="2.01876">
        <ele>158.7</ele>
        <time>2021-12-11T13:43:51.000Z</time>
      </trkpt>
      <trkpt lat="48.70717" lon="2.01878">
        <ele>158.7</ele>
        <time>2021-12-11T13:43:52.000Z</time>
      </trkpt>
      <trkpt lat="48.70717" lon="2.0188">
        <ele>158.7</ele>
        <time>2021-12-11T13:43:53.000Z</time>
      </trkpt>
      <trkpt lat="48.70716" lon="2.01881">
        <ele>158.7</ele>
        <time>2021-12-11T13:43:54.000Z</time>
      </trkpt>
      <trkpt lat="48.70716" lon="2.01882">
        <ele>158.5</ele>
        <time>2021-12-11T13:43:55.000Z</time>
      </trkpt>
      <trkpt lat="48.70716" lon="2.01886">
        <ele>158.5</ele>
        <time>2021-12-11T13:43:57.000Z</time>
      </trkpt>
      <trkpt lat="48.70715" lon="2.01888">
        <ele>158.5</ele>
        <time>2021-12-11T13:43:58.000Z</time>
      </trkpt>
      <trkpt lat="48.70715" lon="2.0189">
        <ele>158.5</ele>
        <time>2021-12-11T13:43:59.000Z</time>
      </trkpt>
      <trkpt lat="48.70715" lon="2.01891">
        <ele>158.4</ele>
        <time>2021-12-11T13:44:00.000Z</time>
      </trkpt>
      <trkpt lat="48.70715" lon="2.01893">
        <ele>158.4</ele>
        <time>2021-12-11T13:44:01.000Z</time>
      </trkpt>
      <trkpt lat="48.70715" lon="2.01895">
        <ele>158.5</ele>
        <time>2021-12-11T13:44:02.000Z</time>
      </trkpt>
      <trkpt lat="48.70715" lon="2.01897">
        <ele>158.4</ele>
        <time>2021-12-11T13:44:03.000Z</time>
      </trkpt>
      <trkpt lat="48.70715" lon="2.01899">
        <ele>158.4</ele>
        <time>2021-12-11T13:44:04.000Z</time>
      </trkpt>
      <trkpt lat="48.70714" lon="2.01901">
        <ele>158.4</ele>
        <time>2021-12-11T13:44:05.000Z</time>
      </trkpt>
      <trkpt lat="48.70714" lon="2.01903">
        <ele>158.5</ele>
        <time>2021-12-11T13:44:06.000Z</time>
      </trkpt>
      <trkpt lat="48.70714" lon="2.01904">
        <ele>158.4</ele>
        <time>2021-12-11T13:44:07.000Z</time>
      </trkpt>
      <trkpt lat="48.70714" lon="2.01906">
        <ele>158.4</ele>
        <time>2021-12-11T13:44:08.000Z</time>
      </trkpt>
      <trkpt lat="48.70714" lon="2.01907">
        <ele>158.4</ele>
        <time>2021-12-11T13:44:09.000Z</time>
      </trkpt>
      <trkpt lat="48.70713" lon="2.01929">
        <ele>158.5</ele>
        <time>2021-12-11T13:44:21.000Z</time>
      </trkpt>
      <trkpt lat="48.70711" lon="2.01957">
        <ele>158.3</ele>
        <time>2021-12-11T13:44:34.000Z</time>
      </trkpt>
      <trkpt lat="48.70711" lon="2.01959">
        <ele>158.3</ele>
        <time>2021-12-11T13:44:35.000Z</time>
      </trkpt>
      <trkpt lat="48.70711" lon="2.0198">
        <ele>158.3</ele>
        <time>2021-12-11T13:44:43.000Z</time>
      </trkpt>
      <trkpt lat="48.70712" lon="2.02">
        <ele>158.2</ele>
        <time>2021-12-11T13:44:53.000Z</time>
      </trkpt>
      <trkpt lat="48.70712" lon="2.02004">
        <ele>158.2</ele>
        <time>2021-12-11T13:44:55.000Z</time>
      </trkpt>
      <trkpt lat="48.70711" lon="2.02016">
        <ele>158</ele>
        <time>2021-12-11T13:45:02.000Z</time>
      </trkpt>
      <trkpt lat="48.70711" lon="2.02023">
        <ele>158</ele>
        <time>2021-12-11T13:45:06.000Z</time>
      </trkpt>
      <trkpt lat="48.7071" lon="2.02038">
        <ele>157.8</ele>
        <time>2021-12-11T13:45:13.000Z</time>
      </trkpt>
      <trkpt lat="48.7071" lon="2.02043">
        <ele>157.8</ele>
        <time>2021-12-11T13:45:15.000Z</time>
      </trkpt>
      <trkpt lat="48.7071" lon="2.02048">
        <ele>157.7</ele>
        <time>2021-12-11T13:45:19.000Z</time>
      </trkpt>
      <trkpt lat="48.70709" lon="2.02072">
        <ele>157.5</ele>
        <time>2021-12-11T13:45:30.000Z</time>
      </trkpt>
      <trkpt lat="48.70708" lon="2.02082">
        <ele>157.7</ele>
        <time>2021-12-11T13:45:34.000Z</time>
      </trkpt>
      <trkpt lat="48.70709" lon="2.02094">
        <ele>157.5</ele>
        <time>2021-12-11T13:45:40.000Z</time>
      </trkpt>
      <trkpt lat="48.70714" lon="2.0212">
        <ele>157.6</ele>
        <time>2021-12-11T13:45:54.000Z</time>
      </trkpt>
      <trkpt lat="48.70714" lon="2.02135">
        <ele>157.6</ele>
        <time>2021-12-11T13:46:02.000Z</time>
      </trkpt>
      <trkpt lat="48.70711" lon="2.02148">
        <ele>157.4</ele>
        <time>2021-12-11T13:46:07.000Z</time>
      </trkpt>
      <trkpt lat="48.70712" lon="2.02157">
        <ele>157.5</ele>
        <time>2021-12-11T13:46:12.000Z</time>
      </trkpt>
      <trkpt lat="48.70711" lon="2.02174">
        <ele>157.3</ele>
        <time>2021-12-11T13:46:21.000Z</time>
      </trkpt>
      <trkpt lat="48.70709" lon="2.0219">
        <ele>157.3</ele>
        <time>2021-12-11T13:46:28.000Z</time>
      </trkpt>
      <trkpt lat="48.70705" lon="2.02215">
        <ele>157.1</ele>
        <time>2021-12-11T13:46:39.000Z</time>
      </trkpt>
      <trkpt lat="48.70705" lon="2.02217">
        <ele>157.2</ele>
        <time>2021-12-11T13:46:40.000Z</time>
      </trkpt>
      <trkpt lat="48.70704" lon="2.02219">
        <ele>157.1</ele>
        <time>2021-12-11T13:46:41.000Z</time>
      </trkpt>
      <trkpt lat="48.70703" lon="2.02228">
        <ele>157.2</ele>
        <time>2021-12-11T13:46:46.000Z</time>
      </trkpt>
      <trkpt lat="48.70705" lon="2.0224">
        <ele>157.2</ele>
        <time>2021-12-11T13:46:54.000Z</time>
      </trkpt>
      <trkpt lat="48.70702" lon="2.02263">
        <ele>156.9</ele>
        <time>2021-12-11T13:47:06.000Z</time>
      </trkpt>
      <trkpt lat="48.70701" lon="2.02266">
        <ele>157</ele>
        <time>2021-12-11T13:47:07.000Z</time>
      </trkpt>
      <trkpt lat="48.70699" lon="2.02275">
        <ele>157</ele>
        <time>2021-12-11T13:47:11.000Z</time>
      </trkpt>
      <trkpt lat="48.70699" lon="2.02285">
        <ele>157.1</ele>
        <time>2021-12-11T13:47:16.000Z</time>
      </trkpt>
      <trkpt lat="48.70698" lon="2.02287">
        <ele>157.1</ele>
        <time>2021-12-11T13:47:17.000Z</time>
      </trkpt>
      <trkpt lat="48.70698" lon="2.02289">
        <ele>157</ele>
        <time>2021-12-11T13:47:18.000Z</time>
      </trkpt>
      <trkpt lat="48.70698" lon="2.02308">
        <ele>157</ele>
        <time>2021-12-11T13:47:27.000Z</time>
      </trkpt>
      <trkpt lat="48.70698" lon="2.0231">
        <ele>157</ele>
        <time>2021-12-11T13:47:28.000Z</time>
      </trkpt>
      <trkpt lat="48.70697" lon="2.02325">
        <ele>156.7</ele>
        <time>2021-12-11T13:47:35.000Z</time>
      </trkpt>
      <trkpt lat="48.7069" lon="2.02349">
        <ele>156.6</ele>
        <time>2021-12-11T13:47:46.000Z</time>
      </trkpt>
      <trkpt lat="48.70686" lon="2.02365">
        <ele>156.5</ele>
        <time>2021-12-11T13:47:53.000Z</time>
      </trkpt>
      <trkpt lat="48.70688" lon="2.02387">
        <ele>156.4</ele>
        <time>2021-12-11T13:48:02.000Z</time>
      </trkpt>
      <trkpt lat="48.70687" lon="2.02408">
        <ele>156.3</ele>
        <time>2021-12-11T13:48:12.000Z</time>
      </trkpt>
      <trkpt lat="48.70687" lon="2.0241">
        <ele>156.3</ele>
        <time>2021-12-11T13:48:13.000Z</time>
      </trkpt>
      <trkpt lat="48.70687" lon="2.02422">
        <ele>156.2</ele>
        <time>2021-12-11T13:48:20.000Z</time>
      </trkpt>
      <trkpt lat="48.70685" lon="2.02441">
        <ele>155.9</ele>
        <time>2021-12-11T13:48:28.000Z</time>
      </trkpt>
      <trkpt lat="48.70688" lon="2.02473">
        <ele>155.3</ele>
        <time>2021-12-11T13:48:43.000Z</time>
      </trkpt>
      <trkpt lat="48.7069" lon="2.02478">
        <ele>155.3</ele>
        <time>2021-12-11T13:48:46.000Z</time>
      </trkpt>
      <trkpt lat="48.70691" lon="2.02484">
        <ele>155.2</ele>
        <time>2021-12-11T13:48:49.000Z</time>
      </trkpt>
      <trkpt lat="48.70692" lon="2.02488">
        <ele>154.9</ele>
        <time>2021-12-11T13:48:51.000Z</time>
      </trkpt>
      <trkpt lat="48.70693" lon="2.02489">
        <ele>155</ele>
        <time>2021-12-11T13:48:52.000Z</time>
      </trkpt>
      <trkpt lat="48.70696" lon="2.02497">
        <ele>155</ele>
        <time>2021-12-11T13:48:56.000Z</time>
      </trkpt>
      <trkpt lat="48.70697" lon="2.02499">
        <ele>154.9</ele>
        <time>2021-12-11T13:48:57.000Z</time>
      </trkpt>
      <trkpt lat="48.70697" lon="2.02506">
        <ele>154.7</ele>
        <time>2021-12-11T13:49:00.000Z</time>
      </trkpt>
      <trkpt lat="48.707" lon="2.02524">
        <ele>154</ele>
        <time>2021-12-11T13:49:08.000Z</time>
      </trkpt>
      <trkpt lat="48.70699" lon="2.02532">
        <ele>154.1</ele>
        <time>2021-12-11T13:49:12.000Z</time>
      </trkpt>
      <trkpt lat="48.70706" lon="2.02554">
        <ele>153.4</ele>
        <time>2021-12-11T13:49:23.000Z</time>
      </trkpt>
      <trkpt lat="48.70711" lon="2.02575">
        <ele>152.8</ele>
        <time>2021-12-11T13:49:33.000Z</time>
      </trkpt>
      <trkpt lat="48.70712" lon="2.0258">
        <ele>152.6</ele>
        <time>2021-12-11T13:49:35.000Z</time>
      </trkpt>
      <trkpt lat="48.70713" lon="2.02581">
        <ele>152.6</ele>
        <time>2021-12-11T13:49:36.000Z</time>
      </trkpt>
      <trkpt lat="48.70714" lon="2.02585">
        <ele>152.2</ele>
        <time>2021-12-11T13:49:38.000Z</time>
      </trkpt>
      <trkpt lat="48.70718" lon="2.02607">
        <ele>151.4</ele>
        <time>2021-12-11T13:49:49.000Z</time>
      </trkpt>
      <trkpt lat="48.70719" lon="2.02609">
        <ele>151.3</ele>
        <time>2021-12-11T13:49:50.000Z</time>
      </trkpt>
      <trkpt lat="48.70719" lon="2.02612">
        <ele>151.2</ele>
        <time>2021-12-11T13:49:51.000Z</time>
      </trkpt>
      <trkpt lat="48.7072" lon="2.02613">
        <ele>151.2</ele>
        <time>2021-12-11T13:49:52.000Z</time>
      </trkpt>
      <trkpt lat="48.7072" lon="2.02615">
        <ele>151</ele>
        <time>2021-12-11T13:49:53.000Z</time>
      </trkpt>
      <trkpt lat="48.70723" lon="2.02629">
        <ele>150.5</ele>
        <time>2021-12-11T13:50:01.000Z</time>
      </trkpt>
      <trkpt lat="48.70724" lon="2.02634">
        <ele>150</ele>
        <time>2021-12-11T13:50:03.000Z</time>
      </trkpt>
      <trkpt lat="48.70726" lon="2.02661">
        <ele>147.7</ele>
        <time>2021-12-11T13:50:15.000Z</time>
      </trkpt>
      <trkpt lat="48.70727" lon="2.02682">
        <ele>145</ele>
        <time>2021-12-11T13:50:25.000Z</time>
      </trkpt>
      <trkpt lat="48.70728" lon="2.02684">
        <ele>144.8</ele>
        <time>2021-12-11T13:50:26.000Z</time>
      </trkpt>
      <trkpt lat="48.70728" lon="2.02687">
        <ele>144.5</ele>
        <time>2021-12-11T13:50:27.000Z</time>
      </trkpt>
      <trkpt lat="48.70729" lon="2.02691">
        <ele>143.9</ele>
        <time>2021-12-11T13:50:30.000Z</time>
      </trkpt>
      <trkpt lat="48.7073" lon="2.02695">
        <ele>143.4</ele>
        <time>2021-12-11T13:50:32.000Z</time>
      </trkpt>
      <trkpt lat="48.7073" lon="2.027">
        <ele>142.7</ele>
        <time>2021-12-11T13:50:35.000Z</time>
      </trkpt>
      <trkpt lat="48.70734" lon="2.02714">
        <ele>140.2</ele>
        <time>2021-12-11T13:50:45.000Z</time>
      </trkpt>
      <trkpt lat="48.70736" lon="2.02716">
        <ele>140.1</ele>
        <time>2021-12-11T13:50:46.000Z</time>
      </trkpt>
      <trkpt lat="48.70736" lon="2.02722">
        <ele>139.6</ele>
        <time>2021-12-11T13:50:48.000Z</time>
      </trkpt>
      <trkpt lat="48.70736" lon="2.02724">
        <ele>139.3</ele>
        <time>2021-12-11T13:50:49.000Z</time>
      </trkpt>
      <trkpt lat="48.70738" lon="2.02749">
        <ele>136.6</ele>
        <time>2021-12-11T13:51:01.000Z</time>
      </trkpt>
      <trkpt lat="48.70739" lon="2.02751">
        <ele>136.3</ele>
        <time>2021-12-11T13:51:02.000Z</time>
      </trkpt>
      <trkpt lat="48.70739" lon="2.02755">
        <ele>135.9</ele>
        <time>2021-12-11T13:51:04.000Z</time>
      </trkpt>
      <trkpt lat="48.70742" lon="2.02759">
        <ele>135.2</ele>
        <time>2021-12-11T13:51:07.000Z</time>
      </trkpt>
      <trkpt lat="48.70741" lon="2.02763">
        <ele>134.9</ele>
        <time>2021-12-11T13:51:09.000Z</time>
      </trkpt>
      <trkpt lat="48.70742" lon="2.02774">
        <ele>133.6</ele>
        <time>2021-12-11T13:51:14.000Z</time>
      </trkpt>
      <trkpt lat="48.70743" lon="2.02775">
        <ele>133.5</ele>
        <time>2021-12-11T13:51:15.000Z</time>
      </trkpt>
      <trkpt lat="48.70745" lon="2.02779">
        <ele>133.1</ele>
        <time>2021-12-11T13:51:17.000Z</time>
      </trkpt>
      <trkpt lat="48.70746" lon="2.02783">
        <ele>132.6</ele>
        <time>2021-12-11T13:51:19.000Z</time>
      </trkpt>
      <trkpt lat="48.70746" lon="2.02785">
        <ele>132.3</ele>
        <time>2021-12-11T13:51:20.000Z</time>
      </trkpt>
      <trkpt lat="48.70748" lon="2.02788">
        <ele>132.1</ele>
        <time>2021-12-11T13:51:21.000Z</time>
      </trkpt>
      <trkpt lat="48.70754" lon="2.028">
        <ele>130.3</ele>
        <time>2021-12-11T13:51:28.000Z</time>
      </trkpt>
      <trkpt lat="48.70763" lon="2.02815">
        <ele>128.2</ele>
        <time>2021-12-11T13:51:37.000Z</time>
      </trkpt>
      <trkpt lat="48.70767" lon="2.02825">
        <ele>127</ele>
        <time>2021-12-11T13:51:43.000Z</time>
      </trkpt>
      <trkpt lat="48.70767" lon="2.02827">
        <ele>126.7</ele>
        <time>2021-12-11T13:51:44.000Z</time>
      </trkpt>
      <trkpt lat="48.70768" lon="2.02828">
        <ele>126.5</ele>
        <time>2021-12-11T13:51:45.000Z</time>
      </trkpt>
      <trkpt lat="48.70772" lon="2.02834">
        <ele>126.1</ele>
        <time>2021-12-11T13:51:49.000Z</time>
      </trkpt>
      <trkpt lat="48.70775" lon="2.02838">
        <ele>125.4</ele>
        <time>2021-12-11T13:51:52.000Z</time>
      </trkpt>
      <trkpt lat="48.70776" lon="2.02843">
        <ele>125</ele>
        <time>2021-12-11T13:51:55.000Z</time>
      </trkpt>
      <trkpt lat="48.70779" lon="2.02857">
        <ele>123.2</ele>
        <time>2021-12-11T13:52:02.000Z</time>
      </trkpt>
      <trkpt lat="48.70781" lon="2.02864">
        <ele>122.2</ele>
        <time>2021-12-11T13:52:06.000Z</time>
      </trkpt>
      <trkpt lat="48.70783" lon="2.0287">
        <ele>121.4</ele>
        <time>2021-12-11T13:52:10.000Z</time>
      </trkpt>
      <trkpt lat="48.70783" lon="2.02872">
        <ele>120.9</ele>
        <time>2021-12-11T13:52:11.000Z</time>
      </trkpt>
      <trkpt lat="48.70784" lon="2.02875">
        <ele>120.6</ele>
        <time>2021-12-11T13:52:13.000Z</time>
      </trkpt>
      <trkpt lat="48.70791" lon="2.02887">
        <ele>119.2</ele>
        <time>2021-12-11T13:52:19.000Z</time>
      </trkpt>
      <trkpt lat="48.70796" lon="2.02895">
        <ele>118.5</ele>
        <time>2021-12-11T13:52:23.000Z</time>
      </trkpt>
      <trkpt lat="48.70797" lon="2.02903">
        <ele>117.5</ele>
        <time>2021-12-11T13:52:27.000Z</time>
      </trkpt>
      <trkpt lat="48.70796" lon="2.02909">
        <ele>116.5</ele>
        <time>2021-12-11T13:52:31.000Z</time>
      </trkpt>
      <trkpt lat="48.70802" lon="2.02926">
        <ele>114.3</ele>
        <time>2021-12-11T13:52:42.000Z</time>
      </trkpt>
      <trkpt lat="48.70806" lon="2.02941">
        <ele>112.8</ele>
        <time>2021-12-11T13:52:50.000Z</time>
      </trkpt>
      <trkpt lat="48.70805" lon="2.02944">
        <ele>112.6</ele>
        <time>2021-12-11T13:52:51.000Z</time>
      </trkpt>
      <trkpt lat="48.70806" lon="2.02946">
        <ele>112.4</ele>
        <time>2021-12-11T13:52:52.000Z</time>
      </trkpt>
      <trkpt lat="48.70806" lon="2.02948">
        <ele>112.2</ele>
        <time>2021-12-11T13:52:53.000Z</time>
      </trkpt>
      <trkpt lat="48.70806" lon="2.0295">
        <ele>112</ele>
        <time>2021-12-11T13:52:54.000Z</time>
      </trkpt>
      <trkpt lat="48.70806" lon="2.02952">
        <ele>111.8</ele>
        <time>2021-12-11T13:52:55.000Z</time>
      </trkpt>
      <trkpt lat="48.70807" lon="2.02954">
        <ele>111.5</ele>
        <time>2021-12-11T13:52:56.000Z</time>
      </trkpt>
      <trkpt lat="48.70806" lon="2.02957">
        <ele>111.2</ele>
        <time>2021-12-11T13:52:58.000Z</time>
      </trkpt>
      <trkpt lat="48.70805" lon="2.02962">
        <ele>110.3</ele>
        <time>2021-12-11T13:53:03.000Z</time>
      </trkpt>
      <trkpt lat="48.708" lon="2.02979">
        <ele>108.5</ele>
        <time>2021-12-11T13:53:14.000Z</time>
      </trkpt>
      <trkpt lat="48.708" lon="2.02981">
        <ele>108.3</ele>
        <time>2021-12-11T13:53:15.000Z</time>
      </trkpt>
      <trkpt lat="48.70798" lon="2.02993">
        <ele>107.1</ele>
        <time>2021-12-11T13:53:23.000Z</time>
      </trkpt>
      <trkpt lat="48.70792" lon="2.03007">
        <ele>106.4</ele>
        <time>2021-12-11T13:53:30.000Z</time>
      </trkpt>
      <trkpt lat="48.70786" lon="2.03024">
        <ele>105.8</ele>
        <time>2021-12-11T13:53:38.000Z</time>
      </trkpt>
      <trkpt lat="48.70782" lon="2.03032">
        <ele>105.4</ele>
        <time>2021-12-11T13:53:43.000Z</time>
      </trkpt>
      <trkpt lat="48.70781" lon="2.03034">
        <ele>105.2</ele>
        <time>2021-12-11T13:53:44.000Z</time>
      </trkpt>
      <trkpt lat="48.70769" lon="2.03055">
        <ele>103.8</ele>
        <time>2021-12-11T13:53:55.000Z</time>
      </trkpt>
      <trkpt lat="48.70767" lon="2.03064">
        <ele>102.9</ele>
        <time>2021-12-11T13:54:00.000Z</time>
      </trkpt>
      <trkpt lat="48.70761" lon="2.03078">
        <ele>101.8</ele>
        <time>2021-12-11T13:54:09.000Z</time>
      </trkpt>
      <trkpt lat="48.70758" lon="2.03081">
        <ele>101.5</ele>
        <time>2021-12-11T13:54:11.000Z</time>
      </trkpt>
      <trkpt lat="48.70755" lon="2.03085">
        <ele>101.1</ele>
        <time>2021-12-11T13:54:14.000Z</time>
      </trkpt>
      <trkpt lat="48.70754" lon="2.03087">
        <ele>100.9</ele>
        <time>2021-12-11T13:54:15.000Z</time>
      </trkpt>
      <trkpt lat="48.70752" lon="2.0309">
        <ele>100.7</ele>
        <time>2021-12-11T13:54:17.000Z</time>
      </trkpt>
      <trkpt lat="48.70745" lon="2.03108">
        <ele>99.5</ele>
        <time>2021-12-11T13:54:28.000Z</time>
      </trkpt>
      <trkpt lat="48.70737" lon="2.03116">
        <ele>98.9</ele>
        <time>2021-12-11T13:54:37.000Z</time>
      </trkpt>
      <trkpt lat="48.70735" lon="2.03119">
        <ele>98.7</ele>
        <time>2021-12-11T13:54:39.000Z</time>
      </trkpt>
      <trkpt lat="48.70732" lon="2.03123">
        <ele>98.2</ele>
        <time>2021-12-11T13:54:44.000Z</time>
      </trkpt>
      <trkpt lat="48.70731" lon="2.03124">
        <ele>98.1</ele>
        <time>2021-12-11T13:54:45.000Z</time>
      </trkpt>
      <trkpt lat="48.70731" lon="2.03126">
        <ele>98.1</ele>
        <time>2021-12-11T13:54:46.000Z</time>
      </trkpt>
      <trkpt lat="48.70723" lon="2.03139">
        <ele>97.3</ele>
        <time>2021-12-11T13:54:58.000Z</time>
      </trkpt>
      <trkpt lat="48.70705" lon="2.03165">
        <ele>94.6</ele>
        <time>2021-12-11T13:55:18.000Z</time>
      </trkpt>
      <trkpt lat="48.70704" lon="2.03166">
        <ele>94.2</ele>
        <time>2021-12-11T13:55:19.000Z</time>
      </trkpt>
      <trkpt lat="48.70689" lon="2.03181">
        <ele>92.8</ele>
        <time>2021-12-11T13:55:32.000Z</time>
      </trkpt>
      <trkpt lat="48.70686" lon="2.03183">
        <ele>92.5</ele>
        <time>2021-12-11T13:55:35.000Z</time>
      </trkpt>
      <trkpt lat="48.70675" lon="2.0319">
        <ele>91.8</ele>
        <time>2021-12-11T13:55:43.000Z</time>
      </trkpt>
      <trkpt lat="48.70674" lon="2.03191">
        <ele>91.6</ele>
        <time>2021-12-11T13:55:44.000Z</time>
      </trkpt>
      <trkpt lat="48.70672" lon="2.0319">
        <ele>91.4</ele>
        <time>2021-12-11T13:55:46.000Z</time>
      </trkpt>
      <trkpt lat="48.70657" lon="2.0319">
        <ele>90.6</ele>
        <time>2021-12-11T13:55:59.000Z</time>
      </trkpt>
      <trkpt lat="48.7064" lon="2.03203">
        <ele>89.3</ele>
        <time>2021-12-11T13:56:13.000Z</time>
      </trkpt>
      <trkpt lat="48.70639" lon="2.03204">
        <ele>89.3</ele>
        <time>2021-12-11T13:56:14.000Z</time>
      </trkpt>
      <trkpt lat="48.70636" lon="2.03205">
        <ele>89.1</ele>
        <time>2021-12-11T13:56:16.000Z</time>
      </trkpt>
      <trkpt lat="48.70623" lon="2.03215">
        <ele>88.2</ele>
        <time>2021-12-11T13:56:29.000Z</time>
      </trkpt>
      <trkpt lat="48.70622" lon="2.03216">
        <ele>88.1</ele>
        <time>2021-12-11T13:56:30.000Z</time>
      </trkpt>
      <trkpt lat="48.70612" lon="2.0322">
        <ele>87.2</ele>
        <time>2021-12-11T13:56:52.000Z</time>
      </trkpt>
      <trkpt lat="48.70601" lon="2.03227">
        <ele>86.5</ele>
        <time>2021-12-11T13:57:02.000Z</time>
      </trkpt>
      <trkpt lat="48.70584" lon="2.03241">
        <ele>85.3</ele>
        <time>2021-12-11T13:57:25.000Z</time>
      </trkpt>
      <trkpt lat="48.70589" lon="2.03256">
        <ele>85</ele>
        <time>2021-12-11T13:57:35.000Z</time>
      </trkpt>
      <trkpt lat="48.70598" lon="2.03271">
        <ele>84.8</ele>
        <time>2021-12-11T13:57:46.000Z</time>
      </trkpt>
      <trkpt lat="48.7061" lon="2.03295">
        <ele>84.2</ele>
        <time>2021-12-11T13:58:04.000Z</time>
      </trkpt>
      <trkpt lat="48.70619" lon="2.03331">
        <ele>83.7</ele>
        <time>2021-12-11T13:58:25.000Z</time>
      </trkpt>
      <trkpt lat="48.70624" lon="2.03344">
        <ele>83.7</ele>
        <time>2021-12-11T13:58:35.000Z</time>
      </trkpt>
      <trkpt lat="48.70624" lon="2.03346">
        <ele>83.7</ele>
        <time>2021-12-11T13:58:36.000Z</time>
      </trkpt>
      <trkpt lat="48.70633" lon="2.03362">
        <ele>83.5</ele>
        <time>2021-12-11T13:58:47.000Z</time>
      </trkpt>
      <trkpt lat="48.70633" lon="2.03364">
        <ele>83.3</ele>
        <time>2021-12-11T13:58:48.000Z</time>
      </trkpt>
      <trkpt lat="48.70634" lon="2.03365">
        <ele>83.4</ele>
        <time>2021-12-11T13:58:49.000Z</time>
      </trkpt>
      <trkpt lat="48.70634" lon="2.03367">
        <ele>83.3</ele>
        <time>2021-12-11T13:58:50.000Z</time>
      </trkpt>
      <trkpt lat="48.70633" lon="2.03373">
        <ele>83.4</ele>
        <time>2021-12-11T13:58:53.000Z</time>
      </trkpt>
      <trkpt lat="48.7064" lon="2.03396">
        <ele>83</ele>
        <time>2021-12-11T13:59:07.000Z</time>
      </trkpt>
      <trkpt lat="48.70643" lon="2.03401">
        <ele>82.7</ele>
        <time>2021-12-11T13:59:16.000Z</time>
      </trkpt>
      <trkpt lat="48.70644" lon="2.03401">
        <ele>82.7</ele>
        <time>2021-12-11T13:59:17.000Z</time>
      </trkpt>
      <trkpt lat="48.70646" lon="2.03404">
        <ele>83</ele>
        <time>2021-12-11T13:59:25.000Z</time>
      </trkpt>
      <trkpt lat="48.70657" lon="2.03404">
        <ele>83.8</ele>
        <time>2021-12-11T13:59:39.000Z</time>
      </trkpt>
      <trkpt lat="48.70658" lon="2.03403">
        <ele>83.9</ele>
        <time>2021-12-11T13:59:40.000Z</time>
      </trkpt>
      <trkpt lat="48.70661" lon="2.03401">
        <ele>84</ele>
        <time>2021-12-11T13:59:43.000Z</time>
      </trkpt>
      <trkpt lat="48.70662" lon="2.034">
        <ele>84.2</ele>
        <time>2021-12-11T13:59:44.000Z</time>
      </trkpt>
      <trkpt lat="48.70665" lon="2.03394">
        <ele>84.3</ele>
        <time>2021-12-11T13:59:48.000Z</time>
      </trkpt>
      <trkpt lat="48.70666" lon="2.03393">
        <ele>84.3</ele>
        <time>2021-12-11T13:59:49.000Z</time>
      </trkpt>
      <trkpt lat="48.70667" lon="2.03391">
        <ele>84.3</ele>
        <time>2021-12-11T13:59:50.000Z</time>
      </trkpt>
      <trkpt lat="48.70683" lon="2.03369">
        <ele>85.4</ele>
        <time>2021-12-11T14:00:10.000Z</time>
      </trkpt>
      <trkpt lat="48.70698" lon="2.03357">
        <ele>86.6</ele>
        <time>2021-12-11T14:00:23.000Z</time>
      </trkpt>
      <trkpt lat="48.70704" lon="2.03352">
        <ele>86.6</ele>
        <time>2021-12-11T14:00:27.000Z</time>
      </trkpt>
      <trkpt lat="48.70705" lon="2.03351">
        <ele>86.8</ele>
        <time>2021-12-11T14:00:28.000Z</time>
      </trkpt>
      <trkpt lat="48.70707" lon="2.0335">
        <ele>87</ele>
        <time>2021-12-11T14:00:29.000Z</time>
      </trkpt>
      <trkpt lat="48.70713" lon="2.03352">
        <ele>87.1</ele>
        <time>2021-12-11T14:00:39.000Z</time>
      </trkpt>
      <trkpt lat="48.7072" lon="2.0336">
        <ele>86.9</ele>
        <time>2021-12-11T14:00:46.000Z</time>
      </trkpt>
      <trkpt lat="48.70721" lon="2.03361">
        <ele>87.1</ele>
        <time>2021-12-11T14:00:47.000Z</time>
      </trkpt>
      <trkpt lat="48.7074" lon="2.03386">
        <ele>86.2</ele>
        <time>2021-12-11T14:01:09.000Z</time>
      </trkpt>
      <trkpt lat="48.70743" lon="2.03395">
        <ele>86.1</ele>
        <time>2021-12-11T14:01:27.000Z</time>
      </trkpt>
      <trkpt lat="48.70744" lon="2.034">
        <ele>85.8</ele>
        <time>2021-12-11T14:01:31.000Z</time>
      </trkpt>
      <trkpt lat="48.70745" lon="2.03404">
        <ele>85.7</ele>
        <time>2021-12-11T14:01:33.000Z</time>
      </trkpt>
      <trkpt lat="48.70745" lon="2.03406">
        <ele>85.7</ele>
        <time>2021-12-11T14:01:34.000Z</time>
      </trkpt>
      <trkpt lat="48.70746" lon="2.03407">
        <ele>85.4</ele>
        <time>2021-12-11T14:01:35.000Z</time>
      </trkpt>
      <trkpt lat="48.70747" lon="2.03409">
        <ele>85.5</ele>
        <time>2021-12-11T14:01:36.000Z</time>
      </trkpt>
      <trkpt lat="48.70748" lon="2.03411">
        <ele>85.4</ele>
        <time>2021-12-11T14:01:37.000Z</time>
      </trkpt>
      <trkpt lat="48.70748" lon="2.03412">
        <ele>85.4</ele>
        <time>2021-12-11T14:01:38.000Z</time>
      </trkpt>
      <trkpt lat="48.70756" lon="2.03433">
        <ele>84.7</ele>
        <time>2021-12-11T14:01:52.000Z</time>
      </trkpt>
      <trkpt lat="48.70761" lon="2.03442">
        <ele>84.5</ele>
        <time>2021-12-11T14:01:57.000Z</time>
      </trkpt>
      <trkpt lat="48.70767" lon="2.03454">
        <ele>84.5</ele>
        <time>2021-12-11T14:02:05.000Z</time>
      </trkpt>
      <trkpt lat="48.70772" lon="2.03476">
        <ele>83.8</ele>
        <time>2021-12-11T14:02:21.000Z</time>
      </trkpt>
      <trkpt lat="48.70775" lon="2.03491">
        <ele>83.4</ele>
        <time>2021-12-11T14:02:39.000Z</time>
      </trkpt>
      <trkpt lat="48.70776" lon="2.03493">
        <ele>83.3</ele>
        <time>2021-12-11T14:02:40.000Z</time>
      </trkpt>
      <trkpt lat="48.70784" lon="2.03505">
        <ele>82.8</ele>
        <time>2021-12-11T14:02:49.000Z</time>
      </trkpt>
      <trkpt lat="48.70796" lon="2.03528">
        <ele>81.9</ele>
        <time>2021-12-11T14:03:05.000Z</time>
      </trkpt>
      <trkpt lat="48.70807" lon="2.03548">
        <ele>81.2</ele>
        <time>2021-12-11T14:03:20.000Z</time>
      </trkpt>
      <trkpt lat="48.70811" lon="2.03569">
        <ele>80.3</ele>
        <time>2021-12-11T14:03:31.000Z</time>
      </trkpt>
      <trkpt lat="48.70817" lon="2.0359">
        <ele>79.3</ele>
        <time>2021-12-11T14:03:46.000Z</time>
      </trkpt>
      <trkpt lat="48.70824" lon="2.03603">
        <ele>78.8</ele>
        <time>2021-12-11T14:03:58.000Z</time>
      </trkpt>
      <trkpt lat="48.70828" lon="2.03613">
        <ele>78.6</ele>
        <time>2021-12-11T14:04:03.000Z</time>
      </trkpt>
      <trkpt lat="48.70832" lon="2.03618">
        <ele>78.5</ele>
        <time>2021-12-11T14:04:06.000Z</time>
      </trkpt>
      <trkpt lat="48.70841" lon="2.03645">
        <ele>77.7</ele>
        <time>2021-12-11T14:04:20.000Z</time>
      </trkpt>
      <trkpt lat="48.70848" lon="2.03661">
        <ele>77.6</ele>
        <time>2021-12-11T14:04:29.000Z</time>
      </trkpt>
      <trkpt lat="48.70853" lon="2.0368">
        <ele>76.9</ele>
        <time>2021-12-11T14:04:38.000Z</time>
      </trkpt>
      <trkpt lat="48.70852" lon="2.03683">
        <ele>76.8</ele>
        <time>2021-12-11T14:04:40.000Z</time>
      </trkpt>
      <trkpt lat="48.70847" lon="2.03693">
        <ele>76.5</ele>
        <time>2021-12-11T14:04:47.000Z</time>
      </trkpt>
      <trkpt lat="48.70846" lon="2.03694">
        <ele>76.6</ele>
        <time>2021-12-11T14:04:48.000Z</time>
      </trkpt>
      <trkpt lat="48.70832" lon="2.03703">
        <ele>76</ele>
        <time>2021-12-11T14:05:08.000Z</time>
      </trkpt>
      <trkpt lat="48.7083" lon="2.03706">
        <ele>76.3</ele>
        <time>2021-12-11T14:05:11.000Z</time>
      </trkpt>
      <trkpt lat="48.70827" lon="2.03709">
        <ele>76.3</ele>
        <time>2021-12-11T14:05:15.000Z</time>
      </trkpt>
      <trkpt lat="48.70826" lon="2.0371">
        <ele>76.4</ele>
        <time>2021-12-11T14:05:16.000Z</time>
      </trkpt>
      <trkpt lat="48.70823" lon="2.03712">
        <ele>76.2</ele>
        <time>2021-12-11T14:05:20.000Z</time>
      </trkpt>
      <trkpt lat="48.70821" lon="2.03713">
        <ele>76.2</ele>
        <time>2021-12-11T14:05:21.000Z</time>
      </trkpt>
      <trkpt lat="48.70807" lon="2.03719">
        <ele>75.8</ele>
        <time>2021-12-11T14:05:34.000Z</time>
      </trkpt>
      <trkpt lat="48.70794" lon="2.03722">
        <ele>75.5</ele>
        <time>2021-12-11T14:05:44.000Z</time>
      </trkpt>
      <trkpt lat="48.70793" lon="2.03722">
        <ele>75.5</ele>
        <time>2021-12-11T14:05:45.000Z</time>
      </trkpt>
      <trkpt lat="48.70792" lon="2.03723">
        <ele>75.8</ele>
        <time>2021-12-11T14:05:46.000Z</time>
      </trkpt>
      <trkpt lat="48.7078" lon="2.03727">
        <ele>75.5</ele>
        <time>2021-12-11T14:06:01.000Z</time>
      </trkpt>
      <trkpt lat="48.7078" lon="2.03729">
        <ele>75.5</ele>
        <time>2021-12-11T14:06:02.000Z</time>
      </trkpt>
      <trkpt lat="48.7078" lon="2.03731">
        <ele>75.5</ele>
        <time>2021-12-11T14:06:03.000Z</time>
      </trkpt>
      <trkpt lat="48.70782" lon="2.03756">
        <ele>75.4</ele>
        <time>2021-12-11T14:06:17.000Z</time>
      </trkpt>
      <trkpt lat="48.70781" lon="2.03773">
        <ele>75.5</ele>
        <time>2021-12-11T14:06:26.000Z</time>
      </trkpt>
      <trkpt lat="48.70781" lon="2.03774">
        <ele>75.7</ele>
        <time>2021-12-11T14:06:27.000Z</time>
      </trkpt>
      <trkpt lat="48.70781" lon="2.03776">
        <ele>75.5</ele>
        <time>2021-12-11T14:06:28.000Z</time>
      </trkpt>
      <trkpt lat="48.7078" lon="2.03778">
        <ele>75.5</ele>
        <time>2021-12-11T14:06:29.000Z</time>
      </trkpt>
      <trkpt lat="48.7078" lon="2.0378">
        <ele>75.6</ele>
        <time>2021-12-11T14:06:30.000Z</time>
      </trkpt>
      <trkpt lat="48.70782" lon="2.03797">
        <ele>75.5</ele>
        <time>2021-12-11T14:06:41.000Z</time>
      </trkpt>
      <trkpt lat="48.70782" lon="2.03799">
        <ele>75.5</ele>
        <time>2021-12-11T14:06:42.000Z</time>
      </trkpt>
      <trkpt lat="48.70783" lon="2.038">
        <ele>75.6</ele>
        <time>2021-12-11T14:06:43.000Z</time>
      </trkpt>
      <trkpt lat="48.70782" lon="2.03802">
        <ele>75.7</ele>
        <time>2021-12-11T14:06:45.000Z</time>
      </trkpt>
      <trkpt lat="48.70769" lon="2.038">
        <ele>75.7</ele>
        <time>2021-12-11T14:06:59.000Z</time>
      </trkpt>
      <trkpt lat="48.70768" lon="2.038">
        <ele>75.6</ele>
        <time>2021-12-11T14:07:00.000Z</time>
      </trkpt>
      <trkpt lat="48.70767" lon="2.03801">
        <ele>75.6</ele>
        <time>2021-12-11T14:07:01.000Z</time>
      </trkpt>
      <trkpt lat="48.70766" lon="2.03802">
        <ele>75.6</ele>
        <time>2021-12-11T14:07:02.000Z</time>
      </trkpt>
      <trkpt lat="48.70764" lon="2.03802">
        <ele>75.7</ele>
        <time>2021-12-11T14:07:03.000Z</time>
      </trkpt>
      <trkpt lat="48.70757" lon="2.03804">
        <ele>75.4</ele>
        <time>2021-12-11T14:07:11.000Z</time>
      </trkpt>
      <trkpt lat="48.70755" lon="2.03822">
        <ele>75.7</ele>
        <time>2021-12-11T14:07:29.000Z</time>
      </trkpt>
      <trkpt lat="48.70743" lon="2.03844">
        <ele>75.7</ele>
        <time>2021-12-11T14:07:47.000Z</time>
      </trkpt>
      <trkpt lat="48.7074" lon="2.03862">
        <ele>75.5</ele>
        <time>2021-12-11T14:08:02.000Z</time>
      </trkpt>
      <trkpt lat="48.70736" lon="2.03874">
        <ele>75.4</ele>
        <time>2021-12-11T14:08:10.000Z</time>
      </trkpt>
      <trkpt lat="48.70736" lon="2.03876">
        <ele>75.4</ele>
        <time>2021-12-11T14:08:11.000Z</time>
      </trkpt>
      <trkpt lat="48.70735" lon="2.03878">
        <ele>75.4</ele>
        <time>2021-12-11T14:08:12.000Z</time>
      </trkpt>
      <trkpt lat="48.70731" lon="2.03888">
        <ele>75.5</ele>
        <time>2021-12-11T14:08:17.000Z</time>
      </trkpt>
      <trkpt lat="48.70732" lon="2.03903">
        <ele>74.9</ele>
        <time>2021-12-11T14:08:32.000Z</time>
      </trkpt>
      <trkpt lat="48.70733" lon="2.03917">
        <ele>75.5</ele>
        <time>2021-12-11T14:08:41.000Z</time>
      </trkpt>
      <trkpt lat="48.70739" lon="2.03933">
        <ele>75.9</ele>
        <time>2021-12-11T14:08:58.000Z</time>
      </trkpt>
      <trkpt lat="48.70735" lon="2.03932">
        <ele>75.7</ele>
        <time>2021-12-11T14:09:05.000Z</time>
      </trkpt>
      <trkpt lat="48.7073" lon="2.03938">
        <ele>75.3</ele>
        <time>2021-12-11T14:09:12.000Z</time>
      </trkpt>
      <trkpt lat="48.70722" lon="2.03945">
        <ele>74.1</ele>
        <time>2021-12-11T14:09:24.000Z</time>
      </trkpt>
      <trkpt lat="48.70715" lon="2.03958">
        <ele>73.6</ele>
        <time>2021-12-11T14:09:38.000Z</time>
      </trkpt>
      <trkpt lat="48.707" lon="2.03962">
        <ele>72.5</ele>
        <time>2021-12-11T14:09:50.000Z</time>
      </trkpt>
      <trkpt lat="48.70699" lon="2.03963">
        <ele>72.3</ele>
        <time>2021-12-11T14:09:52.000Z</time>
      </trkpt>
      <trkpt lat="48.70694" lon="2.03965">
        <ele>71.8</ele>
        <time>2021-12-11T14:09:57.000Z</time>
      </trkpt>
      <trkpt lat="48.70682" lon="2.0397">
        <ele>71.3</ele>
        <time>2021-12-11T14:10:06.000Z</time>
      </trkpt>
      <trkpt lat="48.7067" lon="2.03979">
        <ele>71.4</ele>
        <time>2021-12-11T14:10:20.000Z</time>
      </trkpt>
      <trkpt lat="48.70667" lon="2.03983">
        <ele>71.9</ele>
        <time>2021-12-11T14:10:41.000Z</time>
      </trkpt>
      <trkpt lat="48.70665" lon="2.03987">
        <ele>71.7</ele>
        <time>2021-12-11T14:10:59.000Z</time>
      </trkpt>
      <trkpt lat="48.70665" lon="2.03995">
        <ele>71.6</ele>
        <time>2021-12-11T14:11:07.000Z</time>
      </trkpt>
      <trkpt lat="48.70666" lon="2.04011">
        <ele>71.5</ele>
        <time>2021-12-11T14:11:17.000Z</time>
      </trkpt>
      <trkpt lat="48.70667" lon="2.04014">
        <ele>70.9</ele>
        <time>2021-12-11T14:11:19.000Z</time>
      </trkpt>
      <trkpt lat="48.70666" lon="2.04043">
        <ele>71</ele>
        <time>2021-12-11T14:11:37.000Z</time>
      </trkpt>
      <trkpt lat="48.70666" lon="2.04057">
        <ele>70.7</ele>
        <time>2021-12-11T14:11:45.000Z</time>
      </trkpt>
      <trkpt lat="48.70666" lon="2.04061">
        <ele>70.9</ele>
        <time>2021-12-11T14:11:47.000Z</time>
      </trkpt>
      <trkpt lat="48.70668" lon="2.04081">
        <ele>70.8</ele>
        <time>2021-12-11T14:12:00.000Z</time>
      </trkpt>
      <trkpt lat="48.7067" lon="2.04103">
        <ele>70.7</ele>
        <time>2021-12-11T14:12:12.000Z</time>
      </trkpt>
      <trkpt lat="48.70671" lon="2.04109">
        <ele>70.6</ele>
        <time>2021-12-11T14:12:15.000Z</time>
      </trkpt>
      <trkpt lat="48.70676" lon="2.04131">
        <ele>70.8</ele>
        <time>2021-12-11T14:12:27.000Z</time>
      </trkpt>
      <trkpt lat="48.70671" lon="2.04145">
        <ele>70.5</ele>
        <time>2021-12-11T14:12:42.000Z</time>
      </trkpt>
      <trkpt lat="48.7067" lon="2.04145">
        <ele>70.4</ele>
        <time>2021-12-11T14:12:43.000Z</time>
      </trkpt>
      <trkpt lat="48.70645" lon="2.04151">
        <ele>70.3</ele>
        <time>2021-12-11T14:13:04.000Z</time>
      </trkpt>
      <trkpt lat="48.70641" lon="2.04144">
        <ele>70.4</ele>
        <time>2021-12-11T14:13:10.000Z</time>
      </trkpt>
      <trkpt lat="48.70637" lon="2.0413">
        <ele>70.7</ele>
        <time>2021-12-11T14:13:22.000Z</time>
      </trkpt>
      <trkpt lat="48.70638" lon="2.04106">
        <ele>70.8</ele>
        <time>2021-12-11T14:13:37.000Z</time>
      </trkpt>
      <trkpt lat="48.70637" lon="2.04074">
        <ele>70.6</ele>
        <time>2021-12-11T14:13:57.000Z</time>
      </trkpt>
      <trkpt lat="48.70635" lon="2.04063">
        <ele>71</ele>
        <time>2021-12-11T14:14:14.000Z</time>
      </trkpt>
      <trkpt lat="48.70632" lon="2.0406">
        <ele>70.6</ele>
        <time>2021-12-11T14:14:44.000Z</time>
      </trkpt>
      <trkpt lat="48.70632" lon="2.0406">
        <ele>70.6</ele>
        <time>2021-12-11T14:14:51.000Z</time>
      </trkpt>
      <trkpt lat="48.70632" lon="2.0406">
        <ele>71.1</ele>
        <time>2021-12-11T14:14:56.000Z</time>
      </trkpt>
    </trkseg>
  </trk>
</gpx>